<?xml version="1.0" encoding="UTF-8" standalone="no" ?>
<gpx xmlns="http://www.topografix.com/GPX/1/1" xmlns:xsi="http://www.w3.org/2001/XMLSchema-instance" xsi:schemaLocation="http://www.topografix.com/GPX/1/1 http://www.topografix.com/GPX/1/1/gpx.xsd" version="1.1" creator="VisuGPX - https://www.visugpx.com">
  <metadata>
    <name>Lot boucle 2 jour 3</name>
    <desc><![CDATA[Au départ du gîte de la Grelotiere : trop bien enre table d'hôtes tip top et chevaux aux petits soins, dommage que les propriétaires veulent vendre pour prendre leur retraite.... 
Randonnée sans soucis.
Arrivée au gîte des Landes ]]></desc>
  </metadata>
  <trk>
    <name><![CDATA[SityTrail - Lot 2019-2-3]]></name>
    <trkseg>
      <trkpt lat="44.80488" lon="1.59508">
        <ele>263</ele>
        <time>2019-08-12T08:16:19.297Z</time>
      </trkpt>
      <trkpt lat="44.80487" lon="1.59507">
        <ele>263</ele>
        <time>2019-08-12T08:17:51.312Z</time>
      </trkpt>
      <trkpt lat="44.80487" lon="1.59506">
        <ele>263</ele>
        <time>2019-08-12T08:17:56.350Z</time>
      </trkpt>
      <trkpt lat="44.80483" lon="1.59505">
        <ele>263</ele>
        <time>2019-08-12T08:18:01.306Z</time>
      </trkpt>
      <trkpt lat="44.80483" lon="1.59498">
        <ele>263</ele>
        <time>2019-08-12T08:18:06.331Z</time>
      </trkpt>
      <trkpt lat="44.80486" lon="1.59492">
        <ele>263</ele>
        <time>2019-08-12T08:18:10.337Z</time>
      </trkpt>
      <trkpt lat="44.8049" lon="1.59487">
        <ele>263</ele>
        <time>2019-08-12T08:18:15.314Z</time>
      </trkpt>
      <trkpt lat="44.80495" lon="1.59482">
        <ele>261</ele>
        <time>2019-08-12T08:18:19.329Z</time>
      </trkpt>
      <trkpt lat="44.805" lon="1.59476">
        <ele>261</ele>
        <time>2019-08-12T08:18:24.315Z</time>
      </trkpt>
      <trkpt lat="44.80504" lon="1.59471">
        <ele>261</ele>
        <time>2019-08-12T08:18:28.329Z</time>
      </trkpt>
      <trkpt lat="44.80509" lon="1.59464">
        <ele>261</ele>
        <time>2019-08-12T08:18:33.310Z</time>
      </trkpt>
      <trkpt lat="44.80513" lon="1.59457">
        <ele>259</ele>
        <time>2019-08-12T08:18:37.307Z</time>
      </trkpt>
      <trkpt lat="44.80517" lon="1.59453">
        <ele>261</ele>
        <time>2019-08-12T08:18:42.312Z</time>
      </trkpt>
      <trkpt lat="44.80521" lon="1.59445">
        <ele>261</ele>
        <time>2019-08-12T08:18:47.323Z</time>
      </trkpt>
      <trkpt lat="44.80524" lon="1.5944">
        <ele>261</ele>
        <time>2019-08-12T08:18:51.304Z</time>
      </trkpt>
      <trkpt lat="44.8053" lon="1.59434">
        <ele>261</ele>
        <time>2019-08-12T08:18:56.341Z</time>
      </trkpt>
      <trkpt lat="44.80533" lon="1.59427">
        <ele>258</ele>
        <time>2019-08-12T08:19:01.318Z</time>
      </trkpt>
      <trkpt lat="44.80538" lon="1.59423">
        <ele>258</ele>
        <time>2019-08-12T08:19:05.349Z</time>
      </trkpt>
      <trkpt lat="44.80541" lon="1.59413">
        <ele>258</ele>
        <time>2019-08-12T08:19:10.318Z</time>
      </trkpt>
      <trkpt lat="44.80546" lon="1.59405">
        <ele>259</ele>
        <time>2019-08-12T08:19:15.308Z</time>
      </trkpt>
      <trkpt lat="44.80548" lon="1.594">
        <ele>256</ele>
        <time>2019-08-12T08:19:19.363Z</time>
      </trkpt>
      <trkpt lat="44.80552" lon="1.59392">
        <ele>256</ele>
        <time>2019-08-12T08:19:24.348Z</time>
      </trkpt>
      <trkpt lat="44.80555" lon="1.59384">
        <ele>256</ele>
        <time>2019-08-12T08:19:29.343Z</time>
      </trkpt>
      <trkpt lat="44.80558" lon="1.5938">
        <ele>256</ele>
        <time>2019-08-12T08:19:33.368Z</time>
      </trkpt>
      <trkpt lat="44.80562" lon="1.59377">
        <ele>256</ele>
        <time>2019-08-12T08:19:38.308Z</time>
      </trkpt>
      <trkpt lat="44.80566" lon="1.59373">
        <ele>255</ele>
        <time>2019-08-12T08:19:42.323Z</time>
      </trkpt>
      <trkpt lat="44.80569" lon="1.59364">
        <ele>255</ele>
        <time>2019-08-12T08:19:47.320Z</time>
      </trkpt>
      <trkpt lat="44.80571" lon="1.59355">
        <ele>254</ele>
        <time>2019-08-12T08:19:52.333Z</time>
      </trkpt>
      <trkpt lat="44.80573" lon="1.59348">
        <ele>254</ele>
        <time>2019-08-12T08:19:57.342Z</time>
      </trkpt>
      <trkpt lat="44.80576" lon="1.59341">
        <ele>252</ele>
        <time>2019-08-12T08:20:02.314Z</time>
      </trkpt>
      <trkpt lat="44.80578" lon="1.59326">
        <ele>252</ele>
        <time>2019-08-12T08:20:15.341Z</time>
      </trkpt>
      <trkpt lat="44.8058" lon="1.59325">
        <ele>252</ele>
        <time>2019-08-12T08:20:20.313Z</time>
      </trkpt>
      <trkpt lat="44.8058" lon="1.59325">
        <ele>252</ele>
        <time>2019-08-12T08:20:25.384Z</time>
      </trkpt>
      <trkpt lat="44.80579" lon="1.59323">
        <ele>252</ele>
        <time>2019-08-12T08:20:30.343Z</time>
      </trkpt>
      <trkpt lat="44.80582" lon="1.59313">
        <ele>251</ele>
        <time>2019-08-12T08:20:35.319Z</time>
      </trkpt>
      <trkpt lat="44.80583" lon="1.59305">
        <ele>251</ele>
        <time>2019-08-12T08:20:39.331Z</time>
      </trkpt>
      <trkpt lat="44.80584" lon="1.59294">
        <ele>251</ele>
        <time>2019-08-12T08:20:44.312Z</time>
      </trkpt>
      <trkpt lat="44.80585" lon="1.59286">
        <ele>249</ele>
        <time>2019-08-12T08:20:48.316Z</time>
      </trkpt>
      <trkpt lat="44.80586" lon="1.59276">
        <ele>249</ele>
        <time>2019-08-12T08:20:53.380Z</time>
      </trkpt>
      <trkpt lat="44.80587" lon="1.59265">
        <ele>249</ele>
        <time>2019-08-12T08:20:58.323Z</time>
      </trkpt>
      <trkpt lat="44.80589" lon="1.59256">
        <ele>246</ele>
        <time>2019-08-12T08:21:03.353Z</time>
      </trkpt>
      <trkpt lat="44.80591" lon="1.59247">
        <ele>246</ele>
        <time>2019-08-12T08:21:08.334Z</time>
      </trkpt>
      <trkpt lat="44.80592" lon="1.59238">
        <ele>246</ele>
        <time>2019-08-12T08:21:12.351Z</time>
      </trkpt>
      <trkpt lat="44.80594" lon="1.59228">
        <ele>243</ele>
        <time>2019-08-12T08:21:17.353Z</time>
      </trkpt>
      <trkpt lat="44.80595" lon="1.59217">
        <ele>243</ele>
        <time>2019-08-12T08:21:22.323Z</time>
      </trkpt>
      <trkpt lat="44.80596" lon="1.59208">
        <ele>242</ele>
        <time>2019-08-12T08:21:27.318Z</time>
      </trkpt>
      <trkpt lat="44.80597" lon="1.59206">
        <ele>242</ele>
        <time>2019-08-12T08:21:32.314Z</time>
      </trkpt>
      <trkpt lat="44.80597" lon="1.59202">
        <ele>242</ele>
        <time>2019-08-12T08:21:36.324Z</time>
      </trkpt>
      <trkpt lat="44.80598" lon="1.59193">
        <ele>241</ele>
        <time>2019-08-12T08:21:41.301Z</time>
      </trkpt>
      <trkpt lat="44.806" lon="1.59183">
        <ele>241</ele>
        <time>2019-08-12T08:21:45.335Z</time>
      </trkpt>
      <trkpt lat="44.80602" lon="1.59177">
        <ele>240</ele>
        <time>2019-08-12T08:21:49.372Z</time>
      </trkpt>
      <trkpt lat="44.80604" lon="1.59173">
        <ele>240</ele>
        <time>2019-08-12T08:21:54.316Z</time>
      </trkpt>
      <trkpt lat="44.80606" lon="1.59167">
        <ele>240</ele>
        <time>2019-08-12T08:21:58.326Z</time>
      </trkpt>
      <trkpt lat="44.80606" lon="1.59158">
        <ele>240</ele>
        <time>2019-08-12T08:22:02.324Z</time>
      </trkpt>
      <trkpt lat="44.80606" lon="1.59148">
        <ele>238</ele>
        <time>2019-08-12T08:22:07.336Z</time>
      </trkpt>
      <trkpt lat="44.80606" lon="1.5914">
        <ele>238</ele>
        <time>2019-08-12T08:22:12.323Z</time>
      </trkpt>
      <trkpt lat="44.80606" lon="1.5913">
        <ele>238</ele>
        <time>2019-08-12T08:22:17.319Z</time>
      </trkpt>
      <trkpt lat="44.80607" lon="1.5912">
        <ele>234</ele>
        <time>2019-08-12T08:22:22.344Z</time>
      </trkpt>
      <trkpt lat="44.80607" lon="1.59113">
        <ele>234</ele>
        <time>2019-08-12T08:22:26.343Z</time>
      </trkpt>
      <trkpt lat="44.80604" lon="1.59106">
        <ele>234</ele>
        <time>2019-08-12T08:22:31.355Z</time>
      </trkpt>
      <trkpt lat="44.80599" lon="1.59096">
        <ele>229</ele>
        <time>2019-08-12T08:22:36.325Z</time>
      </trkpt>
      <trkpt lat="44.80594" lon="1.59091">
        <ele>234</ele>
        <time>2019-08-12T08:22:41.333Z</time>
      </trkpt>
      <trkpt lat="44.80591" lon="1.59092">
        <ele>234</ele>
        <time>2019-08-12T08:22:46.328Z</time>
      </trkpt>
      <trkpt lat="44.80586" lon="1.5909">
        <ele>234</ele>
        <time>2019-08-12T08:22:51.317Z</time>
      </trkpt>
      <trkpt lat="44.80579" lon="1.59088">
        <ele>234</ele>
        <time>2019-08-12T08:22:56.340Z</time>
      </trkpt>
      <trkpt lat="44.80573" lon="1.59086">
        <ele>234</ele>
        <time>2019-08-12T08:23:01.314Z</time>
      </trkpt>
      <trkpt lat="44.80568" lon="1.59084">
        <ele>236</ele>
        <time>2019-08-12T08:23:05.348Z</time>
      </trkpt>
      <trkpt lat="44.80563" lon="1.59082">
        <ele>236</ele>
        <time>2019-08-12T08:23:09.295Z</time>
      </trkpt>
      <trkpt lat="44.80558" lon="1.59081">
        <ele>236</ele>
        <time>2019-08-12T08:23:13.325Z</time>
      </trkpt>
      <trkpt lat="44.80553" lon="1.5908">
        <ele>236</ele>
        <time>2019-08-12T08:23:18.316Z</time>
      </trkpt>
      <trkpt lat="44.80548" lon="1.5908">
        <ele>236</ele>
        <time>2019-08-12T08:23:22.329Z</time>
      </trkpt>
      <trkpt lat="44.80542" lon="1.59077">
        <ele>236</ele>
        <time>2019-08-12T08:23:27.325Z</time>
      </trkpt>
      <trkpt lat="44.80536" lon="1.59074">
        <ele>233</ele>
        <time>2019-08-12T08:23:32.328Z</time>
      </trkpt>
      <trkpt lat="44.80529" lon="1.59072">
        <ele>233</ele>
        <time>2019-08-12T08:23:37.316Z</time>
      </trkpt>
      <trkpt lat="44.80521" lon="1.59072">
        <ele>233</ele>
        <time>2019-08-12T08:23:42.324Z</time>
      </trkpt>
      <trkpt lat="44.80514" lon="1.59072">
        <ele>230</ele>
        <time>2019-08-12T08:23:47.327Z</time>
      </trkpt>
      <trkpt lat="44.80508" lon="1.59071">
        <ele>230</ele>
        <time>2019-08-12T08:23:52.323Z</time>
      </trkpt>
      <trkpt lat="44.80503" lon="1.59072">
        <ele>230</ele>
        <time>2019-08-12T08:23:56.331Z</time>
      </trkpt>
      <trkpt lat="44.805" lon="1.59072">
        <ele>230</ele>
        <time>2019-08-12T08:24:01.327Z</time>
      </trkpt>
      <trkpt lat="44.80495" lon="1.59074">
        <ele>230</ele>
        <time>2019-08-12T08:24:05.318Z</time>
      </trkpt>
      <trkpt lat="44.8049" lon="1.59075">
        <ele>230</ele>
        <time>2019-08-12T08:24:09.334Z</time>
      </trkpt>
      <trkpt lat="44.80482" lon="1.59073">
        <ele>225</ele>
        <time>2019-08-12T08:24:14.327Z</time>
      </trkpt>
      <trkpt lat="44.80474" lon="1.59071">
        <ele>225</ele>
        <time>2019-08-12T08:24:19.320Z</time>
      </trkpt>
      <trkpt lat="44.80468" lon="1.59071">
        <ele>225</ele>
        <time>2019-08-12T08:24:23.334Z</time>
      </trkpt>
      <trkpt lat="44.80464" lon="1.59071">
        <ele>225</ele>
        <time>2019-08-12T08:24:28.314Z</time>
      </trkpt>
      <trkpt lat="44.80458" lon="1.59069">
        <ele>223</ele>
        <time>2019-08-12T08:24:32.333Z</time>
      </trkpt>
      <trkpt lat="44.80451" lon="1.59066">
        <ele>223</ele>
        <time>2019-08-12T08:24:37.324Z</time>
      </trkpt>
      <trkpt lat="44.80445" lon="1.59066">
        <ele>223</ele>
        <time>2019-08-12T08:24:41.337Z</time>
      </trkpt>
      <trkpt lat="44.80437" lon="1.59064">
        <ele>223</ele>
        <time>2019-08-12T08:24:46.328Z</time>
      </trkpt>
      <trkpt lat="44.8043" lon="1.59061">
        <ele>221</ele>
        <time>2019-08-12T08:24:51.389Z</time>
      </trkpt>
      <trkpt lat="44.80424" lon="1.59058">
        <ele>221</ele>
        <time>2019-08-12T08:24:56.338Z</time>
      </trkpt>
      <trkpt lat="44.80418" lon="1.59053">
        <ele>221</ele>
        <time>2019-08-12T08:25:01.318Z</time>
      </trkpt>
      <trkpt lat="44.80412" lon="1.59048">
        <ele>221</ele>
        <time>2019-08-12T08:25:06.316Z</time>
      </trkpt>
      <trkpt lat="44.80405" lon="1.59045">
        <ele>221</ele>
        <time>2019-08-12T08:25:10.335Z</time>
      </trkpt>
      <trkpt lat="44.80398" lon="1.5904">
        <ele>220</ele>
        <time>2019-08-12T08:25:15.317Z</time>
      </trkpt>
      <trkpt lat="44.80392" lon="1.59036">
        <ele>220</ele>
        <time>2019-08-12T08:25:20.344Z</time>
      </trkpt>
      <trkpt lat="44.80386" lon="1.59034">
        <ele>220</ele>
        <time>2019-08-12T08:25:24.340Z</time>
      </trkpt>
      <trkpt lat="44.8038" lon="1.59031">
        <ele>220</ele>
        <time>2019-08-12T08:25:29.323Z</time>
      </trkpt>
      <trkpt lat="44.80376" lon="1.59031">
        <ele>220</ele>
        <time>2019-08-12T08:25:33.336Z</time>
      </trkpt>
      <trkpt lat="44.8037" lon="1.5903">
        <ele>216</ele>
        <time>2019-08-12T08:25:38.319Z</time>
      </trkpt>
      <trkpt lat="44.80367" lon="1.59038">
        <ele>216</ele>
        <time>2019-08-12T08:25:43.313Z</time>
      </trkpt>
      <trkpt lat="44.80368" lon="1.59045">
        <ele>212</ele>
        <time>2019-08-12T08:25:48.324Z</time>
      </trkpt>
      <trkpt lat="44.80369" lon="1.59047">
        <ele>212</ele>
        <time>2019-08-12T08:25:53.322Z</time>
      </trkpt>
      <trkpt lat="44.80371" lon="1.59048">
        <ele>212</ele>
        <time>2019-08-12T08:25:57.331Z</time>
      </trkpt>
      <trkpt lat="44.80376" lon="1.59053">
        <ele>217</ele>
        <time>2019-08-12T08:26:02.326Z</time>
      </trkpt>
      <trkpt lat="44.8038" lon="1.59059">
        <ele>217</ele>
        <time>2019-08-12T08:26:07.364Z</time>
      </trkpt>
      <trkpt lat="44.80385" lon="1.59066">
        <ele>217</ele>
        <time>2019-08-12T08:26:12.355Z</time>
      </trkpt>
      <trkpt lat="44.8039" lon="1.59072">
        <ele>214</ele>
        <time>2019-08-12T08:26:17.330Z</time>
      </trkpt>
      <trkpt lat="44.80396" lon="1.59076">
        <ele>214</ele>
        <time>2019-08-12T08:26:22.329Z</time>
      </trkpt>
      <trkpt lat="44.80403" lon="1.59082">
        <ele>219</ele>
        <time>2019-08-12T08:26:27.330Z</time>
      </trkpt>
      <trkpt lat="44.80408" lon="1.59088">
        <ele>219</ele>
        <time>2019-08-12T08:26:31.353Z</time>
      </trkpt>
      <trkpt lat="44.80413" lon="1.59093">
        <ele>219</ele>
        <time>2019-08-12T08:26:35.352Z</time>
      </trkpt>
      <trkpt lat="44.80419" lon="1.59099">
        <ele>217</ele>
        <time>2019-08-12T08:26:40.324Z</time>
      </trkpt>
      <trkpt lat="44.80423" lon="1.59103">
        <ele>217</ele>
        <time>2019-08-12T08:26:44.342Z</time>
      </trkpt>
      <trkpt lat="44.80423" lon="1.59113">
        <ele>217</ele>
        <time>2019-08-12T08:26:49.349Z</time>
      </trkpt>
      <trkpt lat="44.80416" lon="1.59115">
        <ele>217</ele>
        <time>2019-08-12T08:26:54.350Z</time>
      </trkpt>
      <trkpt lat="44.80415" lon="1.59115">
        <ele>217</ele>
        <time>2019-08-12T08:26:59.322Z</time>
      </trkpt>
      <trkpt lat="44.80415" lon="1.59114">
        <ele>217</ele>
        <time>2019-08-12T08:27:04.307Z</time>
      </trkpt>
      <trkpt lat="44.80413" lon="1.59113">
        <ele>217</ele>
        <time>2019-08-12T08:27:08.322Z</time>
      </trkpt>
      <trkpt lat="44.80407" lon="1.59111">
        <ele>217</ele>
        <time>2019-08-12T08:27:12.333Z</time>
      </trkpt>
      <trkpt lat="44.80404" lon="1.59107">
        <ele>217</ele>
        <time>2019-08-12T08:27:22.317Z</time>
      </trkpt>
      <trkpt lat="44.80404" lon="1.59105">
        <ele>217</ele>
        <time>2019-08-12T08:27:27.310Z</time>
      </trkpt>
      <trkpt lat="44.80403" lon="1.59104">
        <ele>212</ele>
        <time>2019-08-12T08:27:31.316Z</time>
      </trkpt>
      <trkpt lat="44.80396" lon="1.59106">
        <ele>212</ele>
        <time>2019-08-12T08:27:35.327Z</time>
      </trkpt>
      <trkpt lat="44.80386" lon="1.59105">
        <ele>212</ele>
        <time>2019-08-12T08:27:40.329Z</time>
      </trkpt>
      <trkpt lat="44.80374" lon="1.59103">
        <ele>205</ele>
        <time>2019-08-12T08:28:59.338Z</time>
      </trkpt>
      <trkpt lat="44.80375" lon="1.59107">
        <ele>205</ele>
        <time>2019-08-12T08:29:04.312Z</time>
      </trkpt>
      <trkpt lat="44.80368" lon="1.59106">
        <ele>205</ele>
        <time>2019-08-12T08:29:08.326Z</time>
      </trkpt>
      <trkpt lat="44.80364" lon="1.59107">
        <ele>205</ele>
        <time>2019-08-12T08:29:13.324Z</time>
      </trkpt>
      <trkpt lat="44.8036" lon="1.59107">
        <ele>205</ele>
        <time>2019-08-12T08:29:18.310Z</time>
      </trkpt>
      <trkpt lat="44.80354" lon="1.59107">
        <ele>205</ele>
        <time>2019-08-12T08:29:22.327Z</time>
      </trkpt>
      <trkpt lat="44.80347" lon="1.59109">
        <ele>205</ele>
        <time>2019-08-12T08:29:27.315Z</time>
      </trkpt>
      <trkpt lat="44.80341" lon="1.59109">
        <ele>198</ele>
        <time>2019-08-12T08:29:32.311Z</time>
      </trkpt>
      <trkpt lat="44.80341" lon="1.59109">
        <ele>198</ele>
        <time>2019-08-12T08:29:36.326Z</time>
      </trkpt>
      <trkpt lat="44.80341" lon="1.59108">
        <ele>198</ele>
        <time>2019-08-12T08:30:00.316Z</time>
      </trkpt>
      <trkpt lat="44.80335" lon="1.59108">
        <ele>198</ele>
        <time>2019-08-12T08:30:04.319Z</time>
      </trkpt>
      <trkpt lat="44.80329" lon="1.59109">
        <ele>198</ele>
        <time>2019-08-12T08:30:08.321Z</time>
      </trkpt>
      <trkpt lat="44.80322" lon="1.59109">
        <ele>198</ele>
        <time>2019-08-12T08:30:13.331Z</time>
      </trkpt>
      <trkpt lat="44.80314" lon="1.59105">
        <ele>191</ele>
        <time>2019-08-12T08:30:18.328Z</time>
      </trkpt>
      <trkpt lat="44.80309" lon="1.59104">
        <ele>191</ele>
        <time>2019-08-12T08:30:23.310Z</time>
      </trkpt>
      <trkpt lat="44.80309" lon="1.59104">
        <ele>191</ele>
        <time>2019-08-12T08:30:27.329Z</time>
      </trkpt>
      <trkpt lat="44.80307" lon="1.59103">
        <ele>191</ele>
        <time>2019-08-12T08:30:32.323Z</time>
      </trkpt>
      <trkpt lat="44.80299" lon="1.591">
        <ele>191</ele>
        <time>2019-08-12T08:30:37.314Z</time>
      </trkpt>
      <trkpt lat="44.80292" lon="1.59099">
        <ele>191</ele>
        <time>2019-08-12T08:30:42.314Z</time>
      </trkpt>
      <trkpt lat="44.80285" lon="1.59095">
        <ele>185</ele>
        <time>2019-08-12T08:30:47.324Z</time>
      </trkpt>
      <trkpt lat="44.80277" lon="1.59091">
        <ele>185</ele>
        <time>2019-08-12T08:30:52.321Z</time>
      </trkpt>
      <trkpt lat="44.80272" lon="1.5909">
        <ele>185</ele>
        <time>2019-08-12T08:30:56.334Z</time>
      </trkpt>
      <trkpt lat="44.80266" lon="1.59087">
        <ele>185</ele>
        <time>2019-08-12T08:31:01.324Z</time>
      </trkpt>
      <trkpt lat="44.80261" lon="1.59082">
        <ele>181</ele>
        <time>2019-08-12T08:31:06.323Z</time>
      </trkpt>
      <trkpt lat="44.80254" lon="1.59078">
        <ele>181</ele>
        <time>2019-08-12T08:31:11.320Z</time>
      </trkpt>
      <trkpt lat="44.80247" lon="1.59071">
        <ele>181</ele>
        <time>2019-08-12T08:31:16.324Z</time>
      </trkpt>
      <trkpt lat="44.80242" lon="1.59064">
        <ele>183</ele>
        <time>2019-08-12T08:31:21.321Z</time>
      </trkpt>
      <trkpt lat="44.80237" lon="1.59056">
        <ele>183</ele>
        <time>2019-08-12T08:31:26.328Z</time>
      </trkpt>
      <trkpt lat="44.80232" lon="1.5905">
        <ele>178</ele>
        <time>2019-08-12T08:31:31.331Z</time>
      </trkpt>
      <trkpt lat="44.80232" lon="1.59046">
        <ele>178</ele>
        <time>2019-08-12T08:31:36.325Z</time>
      </trkpt>
      <trkpt lat="44.80232" lon="1.59047">
        <ele>178</ele>
        <time>2019-08-12T08:31:46.323Z</time>
      </trkpt>
      <trkpt lat="44.80232" lon="1.59047">
        <ele>178</ele>
        <time>2019-08-12T08:31:51.309Z</time>
      </trkpt>
      <trkpt lat="44.80232" lon="1.59045">
        <ele>178</ele>
        <time>2019-08-12T08:31:56.315Z</time>
      </trkpt>
      <trkpt lat="44.8023" lon="1.59038">
        <ele>181</ele>
        <time>2019-08-12T08:32:00.318Z</time>
      </trkpt>
      <trkpt lat="44.80225" lon="1.59035">
        <ele>181</ele>
        <time>2019-08-12T08:32:05.325Z</time>
      </trkpt>
      <trkpt lat="44.80219" lon="1.5903">
        <ele>181</ele>
        <time>2019-08-12T08:32:10.317Z</time>
      </trkpt>
      <trkpt lat="44.80216" lon="1.59027">
        <ele>181</ele>
        <time>2019-08-12T08:32:14.326Z</time>
      </trkpt>
      <trkpt lat="44.80211" lon="1.59022">
        <ele>181</ele>
        <time>2019-08-12T08:32:19.313Z</time>
      </trkpt>
      <trkpt lat="44.80206" lon="1.59017">
        <ele>176</ele>
        <time>2019-08-12T08:32:23.321Z</time>
      </trkpt>
      <trkpt lat="44.802" lon="1.59014">
        <ele>176</ele>
        <time>2019-08-12T08:32:38.320Z</time>
      </trkpt>
      <trkpt lat="44.80199" lon="1.59014">
        <ele>176</ele>
        <time>2019-08-12T08:32:42.310Z</time>
      </trkpt>
      <trkpt lat="44.80199" lon="1.59013">
        <ele>176</ele>
        <time>2019-08-12T08:32:46.340Z</time>
      </trkpt>
      <trkpt lat="44.80188" lon="1.59012">
        <ele>176</ele>
        <time>2019-08-12T08:32:57.300Z</time>
      </trkpt>
      <trkpt lat="44.80183" lon="1.5901">
        <ele>176</ele>
        <time>2019-08-12T08:33:01.317Z</time>
      </trkpt>
      <trkpt lat="44.80175" lon="1.59006">
        <ele>170</ele>
        <time>2019-08-12T08:33:06.325Z</time>
      </trkpt>
      <trkpt lat="44.80171" lon="1.59005">
        <ele>170</ele>
        <time>2019-08-12T08:33:11.321Z</time>
      </trkpt>
      <trkpt lat="44.8017" lon="1.59003">
        <ele>170</ele>
        <time>2019-08-12T08:33:15.320Z</time>
      </trkpt>
      <trkpt lat="44.80161" lon="1.59002">
        <ele>170</ele>
        <time>2019-08-12T08:33:20.321Z</time>
      </trkpt>
      <trkpt lat="44.80155" lon="1.58998">
        <ele>170</ele>
        <time>2019-08-12T08:33:25.322Z</time>
      </trkpt>
      <trkpt lat="44.80148" lon="1.58996">
        <ele>165</ele>
        <time>2019-08-12T08:33:30.322Z</time>
      </trkpt>
      <trkpt lat="44.80144" lon="1.58994">
        <ele>165</ele>
        <time>2019-08-12T08:33:35.315Z</time>
      </trkpt>
      <trkpt lat="44.80138" lon="1.5899">
        <ele>165</ele>
        <time>2019-08-12T08:33:40.316Z</time>
      </trkpt>
      <trkpt lat="44.80134" lon="1.58986">
        <ele>165</ele>
        <time>2019-08-12T08:33:44.326Z</time>
      </trkpt>
      <trkpt lat="44.80128" lon="1.58983">
        <ele>164</ele>
        <time>2019-08-12T08:33:49.324Z</time>
      </trkpt>
      <trkpt lat="44.80122" lon="1.58978">
        <ele>160</ele>
        <time>2019-08-12T08:33:54.323Z</time>
      </trkpt>
      <trkpt lat="44.80116" lon="1.58973">
        <ele>160</ele>
        <time>2019-08-12T08:33:59.327Z</time>
      </trkpt>
      <trkpt lat="44.8011" lon="1.58967">
        <ele>160</ele>
        <time>2019-08-12T08:34:04.340Z</time>
      </trkpt>
      <trkpt lat="44.80101" lon="1.58961">
        <ele>160</ele>
        <time>2019-08-12T08:34:09.321Z</time>
      </trkpt>
      <trkpt lat="44.80101" lon="1.58958">
        <ele>159</ele>
        <time>2019-08-12T08:34:14.319Z</time>
      </trkpt>
      <trkpt lat="44.80101" lon="1.58955">
        <ele>159</ele>
        <time>2019-08-12T08:34:19.315Z</time>
      </trkpt>
      <trkpt lat="44.80101" lon="1.58955">
        <ele>159</ele>
        <time>2019-08-12T08:34:23.311Z</time>
      </trkpt>
      <trkpt lat="44.80101" lon="1.58955">
        <ele>159</ele>
        <time>2019-08-12T08:34:27.318Z</time>
      </trkpt>
      <trkpt lat="44.801" lon="1.58954">
        <ele>159</ele>
        <time>2019-08-12T08:34:32.300Z</time>
      </trkpt>
      <trkpt lat="44.80096" lon="1.58953">
        <ele>154</ele>
        <time>2019-08-12T08:34:36.317Z</time>
      </trkpt>
      <trkpt lat="44.80088" lon="1.58949">
        <ele>154</ele>
        <time>2019-08-12T08:34:41.338Z</time>
      </trkpt>
      <trkpt lat="44.80082" lon="1.58944">
        <ele>154</ele>
        <time>2019-08-12T08:34:46.313Z</time>
      </trkpt>
      <trkpt lat="44.80077" lon="1.5894">
        <ele>154</ele>
        <time>2019-08-12T08:34:51.322Z</time>
      </trkpt>
      <trkpt lat="44.80075" lon="1.58938">
        <ele>154</ele>
        <time>2019-08-12T08:34:53.321Z</time>
      </trkpt>
      <trkpt lat="44.8007" lon="1.58932">
        <ele>154</ele>
        <time>2019-08-12T08:34:58.301Z</time>
      </trkpt>
      <trkpt lat="44.80065" lon="1.58929">
        <ele>145</ele>
        <time>2019-08-12T08:35:03.300Z</time>
      </trkpt>
      <trkpt lat="44.8006" lon="1.58925">
        <ele>145</ele>
        <time>2019-08-12T08:35:08.296Z</time>
      </trkpt>
      <trkpt lat="44.8006" lon="1.58924">
        <ele>145</ele>
        <time>2019-08-12T08:35:12.295Z</time>
      </trkpt>
      <trkpt lat="44.80054" lon="1.58919">
        <ele>145</ele>
        <time>2019-08-12T08:35:16.313Z</time>
      </trkpt>
      <trkpt lat="44.8005" lon="1.58913">
        <ele>145</ele>
        <time>2019-08-12T08:35:20.328Z</time>
      </trkpt>
      <trkpt lat="44.80047" lon="1.58907">
        <ele>145</ele>
        <time>2019-08-12T08:35:25.355Z</time>
      </trkpt>
      <trkpt lat="44.80044" lon="1.58901">
        <ele>145</ele>
        <time>2019-08-12T08:35:30.356Z</time>
      </trkpt>
      <trkpt lat="44.80041" lon="1.58895">
        <ele>137</ele>
        <time>2019-08-12T08:35:35.325Z</time>
      </trkpt>
      <trkpt lat="44.80037" lon="1.58888">
        <ele>137</ele>
        <time>2019-08-12T08:36:05.315Z</time>
      </trkpt>
      <trkpt lat="44.80037" lon="1.58888">
        <ele>137</ele>
        <time>2019-08-12T08:36:10.316Z</time>
      </trkpt>
      <trkpt lat="44.80035" lon="1.58887">
        <ele>137</ele>
        <time>2019-08-12T08:36:15.318Z</time>
      </trkpt>
      <trkpt lat="44.80031" lon="1.58882">
        <ele>137</ele>
        <time>2019-08-12T08:36:20.313Z</time>
      </trkpt>
      <trkpt lat="44.80025" lon="1.58876">
        <ele>137</ele>
        <time>2019-08-12T08:36:25.306Z</time>
      </trkpt>
      <trkpt lat="44.80019" lon="1.58868">
        <ele>138</ele>
        <time>2019-08-12T08:36:30.323Z</time>
      </trkpt>
      <trkpt lat="44.80013" lon="1.58861">
        <ele>130</ele>
        <time>2019-08-12T08:36:35.326Z</time>
      </trkpt>
      <trkpt lat="44.8001" lon="1.58854">
        <ele>130</ele>
        <time>2019-08-12T08:36:40.352Z</time>
      </trkpt>
      <trkpt lat="44.80007" lon="1.58843">
        <ele>131</ele>
        <time>2019-08-12T08:36:45.318Z</time>
      </trkpt>
      <trkpt lat="44.80006" lon="1.58833">
        <ele>131</ele>
        <time>2019-08-12T08:36:50.319Z</time>
      </trkpt>
      <trkpt lat="44.80005" lon="1.58825">
        <ele>131</ele>
        <time>2019-08-12T08:36:54.334Z</time>
      </trkpt>
      <trkpt lat="44.80006" lon="1.58815">
        <ele>132</ele>
        <time>2019-08-12T08:36:59.317Z</time>
      </trkpt>
      <trkpt lat="44.80001" lon="1.58805">
        <ele>132</ele>
        <time>2019-08-12T08:37:04.312Z</time>
      </trkpt>
      <trkpt lat="44.79999" lon="1.58802">
        <ele>132</ele>
        <time>2019-08-12T08:37:08.352Z</time>
      </trkpt>
      <trkpt lat="44.79995" lon="1.58799">
        <ele>132</ele>
        <time>2019-08-12T08:37:13.324Z</time>
      </trkpt>
      <trkpt lat="44.7999" lon="1.58795">
        <ele>132</ele>
        <time>2019-08-12T08:37:18.316Z</time>
      </trkpt>
      <trkpt lat="44.79986" lon="1.58793">
        <ele>132</ele>
        <time>2019-08-12T08:37:23.316Z</time>
      </trkpt>
      <trkpt lat="44.79984" lon="1.58791">
        <ele>127</ele>
        <time>2019-08-12T08:37:28.311Z</time>
      </trkpt>
      <trkpt lat="44.79984" lon="1.58791">
        <ele>127</ele>
        <time>2019-08-12T08:37:33.321Z</time>
      </trkpt>
      <trkpt lat="44.79984" lon="1.58791">
        <ele>127</ele>
        <time>2019-08-12T08:37:38.325Z</time>
      </trkpt>
      <trkpt lat="44.79979" lon="1.58787">
        <ele>127</ele>
        <time>2019-08-12T08:37:43.322Z</time>
      </trkpt>
      <trkpt lat="44.79974" lon="1.58785">
        <ele>127</ele>
        <time>2019-08-12T08:37:48.324Z</time>
      </trkpt>
      <trkpt lat="44.79967" lon="1.5878">
        <ele>127</ele>
        <time>2019-08-12T08:38:26.318Z</time>
      </trkpt>
      <trkpt lat="44.79966" lon="1.58778">
        <ele>127</ele>
        <time>2019-08-12T08:38:31.310Z</time>
      </trkpt>
      <trkpt lat="44.79965" lon="1.58776">
        <ele>127</ele>
        <time>2019-08-12T08:38:36.302Z</time>
      </trkpt>
      <trkpt lat="44.79964" lon="1.58774">
        <ele>127</ele>
        <time>2019-08-12T08:38:40.320Z</time>
      </trkpt>
      <trkpt lat="44.79962" lon="1.58771">
        <ele>127</ele>
        <time>2019-08-12T08:38:45.311Z</time>
      </trkpt>
      <trkpt lat="44.79965" lon="1.58767">
        <ele>127</ele>
        <time>2019-08-12T08:40:45.328Z</time>
      </trkpt>
      <trkpt lat="44.79965" lon="1.58766">
        <ele>127</ele>
        <time>2019-08-12T08:40:50.338Z</time>
      </trkpt>
      <trkpt lat="44.79964" lon="1.58761">
        <ele>126</ele>
        <time>2019-08-12T08:40:55.329Z</time>
      </trkpt>
      <trkpt lat="44.79964" lon="1.58758">
        <ele>126</ele>
        <time>2019-08-12T08:41:00.321Z</time>
      </trkpt>
      <trkpt lat="44.79961" lon="1.58755">
        <ele>126</ele>
        <time>2019-08-12T08:41:05.318Z</time>
      </trkpt>
      <trkpt lat="44.79961" lon="1.58748">
        <ele>126</ele>
        <time>2019-08-12T08:41:10.310Z</time>
      </trkpt>
      <trkpt lat="44.79962" lon="1.58742">
        <ele>126</ele>
        <time>2019-08-12T08:41:15.335Z</time>
      </trkpt>
      <trkpt lat="44.79962" lon="1.58734">
        <ele>125</ele>
        <time>2019-08-12T08:41:20.344Z</time>
      </trkpt>
      <trkpt lat="44.79962" lon="1.58728">
        <ele>125</ele>
        <time>2019-08-12T08:41:25.328Z</time>
      </trkpt>
      <trkpt lat="44.79963" lon="1.58722">
        <ele>125</ele>
        <time>2019-08-12T08:41:30.318Z</time>
      </trkpt>
      <trkpt lat="44.79962" lon="1.58712">
        <ele>125</ele>
        <time>2019-08-12T08:41:34.317Z</time>
      </trkpt>
      <trkpt lat="44.79961" lon="1.58706">
        <ele>127</ele>
        <time>2019-08-12T08:41:39.326Z</time>
      </trkpt>
      <trkpt lat="44.79962" lon="1.58699">
        <ele>127</ele>
        <time>2019-08-12T08:41:44.326Z</time>
      </trkpt>
      <trkpt lat="44.79962" lon="1.58692">
        <ele>127</ele>
        <time>2019-08-12T08:41:49.313Z</time>
      </trkpt>
      <trkpt lat="44.79962" lon="1.58686">
        <ele>127</ele>
        <time>2019-08-12T08:41:53.343Z</time>
      </trkpt>
      <trkpt lat="44.7996" lon="1.58676">
        <ele>131</ele>
        <time>2019-08-12T08:41:58.321Z</time>
      </trkpt>
      <trkpt lat="44.79958" lon="1.58664">
        <ele>126</ele>
        <time>2019-08-12T08:42:03.324Z</time>
      </trkpt>
      <trkpt lat="44.79956" lon="1.58653">
        <ele>126</ele>
        <time>2019-08-12T08:42:08.316Z</time>
      </trkpt>
      <trkpt lat="44.79955" lon="1.58644">
        <ele>129</ele>
        <time>2019-08-12T08:42:13.325Z</time>
      </trkpt>
      <trkpt lat="44.79951" lon="1.58636">
        <ele>129</ele>
        <time>2019-08-12T08:42:18.335Z</time>
      </trkpt>
      <trkpt lat="44.7995" lon="1.58629">
        <ele>129</ele>
        <time>2019-08-12T08:42:23.355Z</time>
      </trkpt>
      <trkpt lat="44.79947" lon="1.58622">
        <ele>132</ele>
        <time>2019-08-12T08:42:28.349Z</time>
      </trkpt>
      <trkpt lat="44.79945" lon="1.58615">
        <ele>132</ele>
        <time>2019-08-12T08:42:33.330Z</time>
      </trkpt>
      <trkpt lat="44.7994" lon="1.5861">
        <ele>132</ele>
        <time>2019-08-12T08:42:38.322Z</time>
      </trkpt>
      <trkpt lat="44.79937" lon="1.58607">
        <ele>132</ele>
        <time>2019-08-12T08:42:43.308Z</time>
      </trkpt>
      <trkpt lat="44.79938" lon="1.58598">
        <ele>132</ele>
        <time>2019-08-12T08:42:47.332Z</time>
      </trkpt>
      <trkpt lat="44.79933" lon="1.58592">
        <ele>137</ele>
        <time>2019-08-12T08:42:52.319Z</time>
      </trkpt>
      <trkpt lat="44.79932" lon="1.5859">
        <ele>137</ele>
        <time>2019-08-12T08:42:56.327Z</time>
      </trkpt>
      <trkpt lat="44.79927" lon="1.58591">
        <ele>136</ele>
        <time>2019-08-12T08:43:01.316Z</time>
      </trkpt>
      <trkpt lat="44.79925" lon="1.58593">
        <ele>136</ele>
        <time>2019-08-12T08:43:05.348Z</time>
      </trkpt>
      <trkpt lat="44.79924" lon="1.58595">
        <ele>136</ele>
        <time>2019-08-12T08:43:10.322Z</time>
      </trkpt>
      <trkpt lat="44.79924" lon="1.58596">
        <ele>136</ele>
        <time>2019-08-12T08:43:15.307Z</time>
      </trkpt>
      <trkpt lat="44.7992" lon="1.586">
        <ele>130</ele>
        <time>2019-08-12T08:43:19.322Z</time>
      </trkpt>
      <trkpt lat="44.79917" lon="1.58601">
        <ele>130</ele>
        <time>2019-08-12T08:43:24.321Z</time>
      </trkpt>
      <trkpt lat="44.79915" lon="1.58603">
        <ele>130</ele>
        <time>2019-08-12T08:43:29.318Z</time>
      </trkpt>
      <trkpt lat="44.79911" lon="1.58605">
        <ele>130</ele>
        <time>2019-08-12T08:43:33.325Z</time>
      </trkpt>
      <trkpt lat="44.79906" lon="1.58609">
        <ele>130</ele>
        <time>2019-08-12T08:43:38.316Z</time>
      </trkpt>
      <trkpt lat="44.79899" lon="1.58609">
        <ele>131</ele>
        <time>2019-08-12T08:43:43.313Z</time>
      </trkpt>
      <trkpt lat="44.79895" lon="1.58612">
        <ele>131</ele>
        <time>2019-08-12T08:43:47.337Z</time>
      </trkpt>
      <trkpt lat="44.79889" lon="1.58617">
        <ele>131</ele>
        <time>2019-08-12T08:43:52.320Z</time>
      </trkpt>
      <trkpt lat="44.79883" lon="1.58623">
        <ele>131</ele>
        <time>2019-08-12T08:43:57.331Z</time>
      </trkpt>
      <trkpt lat="44.79877" lon="1.58628">
        <ele>126</ele>
        <time>2019-08-12T08:44:02.322Z</time>
      </trkpt>
      <trkpt lat="44.79872" lon="1.58633">
        <ele>128</ele>
        <time>2019-08-12T08:44:07.323Z</time>
      </trkpt>
      <trkpt lat="44.79868" lon="1.58637">
        <ele>128</ele>
        <time>2019-08-12T08:44:12.310Z</time>
      </trkpt>
      <trkpt lat="44.79865" lon="1.5864">
        <ele>128</ele>
        <time>2019-08-12T08:44:16.351Z</time>
      </trkpt>
      <trkpt lat="44.79861" lon="1.58642">
        <ele>128</ele>
        <time>2019-08-12T08:44:21.324Z</time>
      </trkpt>
      <trkpt lat="44.79854" lon="1.58649">
        <ele>128</ele>
        <time>2019-08-12T08:44:26.318Z</time>
      </trkpt>
      <trkpt lat="44.79849" lon="1.58654">
        <ele>123</ele>
        <time>2019-08-12T08:44:31.311Z</time>
      </trkpt>
      <trkpt lat="44.79845" lon="1.58656">
        <ele>126</ele>
        <time>2019-08-12T08:44:35.319Z</time>
      </trkpt>
      <trkpt lat="44.7984" lon="1.58662">
        <ele>126</ele>
        <time>2019-08-12T08:44:40.322Z</time>
      </trkpt>
      <trkpt lat="44.79832" lon="1.58666">
        <ele>126</ele>
        <time>2019-08-12T08:44:45.320Z</time>
      </trkpt>
      <trkpt lat="44.79829" lon="1.5867">
        <ele>126</ele>
        <time>2019-08-12T08:44:49.336Z</time>
      </trkpt>
      <trkpt lat="44.79825" lon="1.58676">
        <ele>126</ele>
        <time>2019-08-12T08:44:54.328Z</time>
      </trkpt>
      <trkpt lat="44.7982" lon="1.58678">
        <ele>126</ele>
        <time>2019-08-12T08:44:59.293Z</time>
      </trkpt>
      <trkpt lat="44.79815" lon="1.5868">
        <ele>127</ele>
        <time>2019-08-12T08:45:03.307Z</time>
      </trkpt>
      <trkpt lat="44.79812" lon="1.58679">
        <ele>127</ele>
        <time>2019-08-12T08:45:07.318Z</time>
      </trkpt>
      <trkpt lat="44.79806" lon="1.58681">
        <ele>124</ele>
        <time>2019-08-12T08:45:12.314Z</time>
      </trkpt>
      <trkpt lat="44.79797" lon="1.58682">
        <ele>124</ele>
        <time>2019-08-12T08:45:17.316Z</time>
      </trkpt>
      <trkpt lat="44.79784" lon="1.58668">
        <ele>125</ele>
        <time>2019-08-12T08:45:21.350Z</time>
      </trkpt>
      <trkpt lat="44.7977" lon="1.58644">
        <ele>128</ele>
        <time>2019-08-12T08:45:25.338Z</time>
      </trkpt>
      <trkpt lat="44.79748" lon="1.58602">
        <ele>125</ele>
        <time>2019-08-12T08:45:30.323Z</time>
      </trkpt>
      <trkpt lat="44.79731" lon="1.58568">
        <ele>123</ele>
        <time>2019-08-12T08:45:34.335Z</time>
      </trkpt>
      <trkpt lat="44.79718" lon="1.58543">
        <ele>123</ele>
        <time>2019-08-12T08:45:39.332Z</time>
      </trkpt>
      <trkpt lat="44.79717" lon="1.58532">
        <ele>124</ele>
        <time>2019-08-12T08:45:44.322Z</time>
      </trkpt>
      <trkpt lat="44.79718" lon="1.58521">
        <ele>124</ele>
        <time>2019-08-12T08:45:49.321Z</time>
      </trkpt>
      <trkpt lat="44.7972" lon="1.58511">
        <ele>125</ele>
        <time>2019-08-12T08:45:54.355Z</time>
      </trkpt>
      <trkpt lat="44.79722" lon="1.58503">
        <ele>125</ele>
        <time>2019-08-12T08:45:59.355Z</time>
      </trkpt>
      <trkpt lat="44.79725" lon="1.58496">
        <ele>125</ele>
        <time>2019-08-12T08:46:04.317Z</time>
      </trkpt>
      <trkpt lat="44.7973" lon="1.58494">
        <ele>125</ele>
        <time>2019-08-12T08:46:09.312Z</time>
      </trkpt>
      <trkpt lat="44.79736" lon="1.58489">
        <ele>125</ele>
        <time>2019-08-12T08:46:14.361Z</time>
      </trkpt>
      <trkpt lat="44.79742" lon="1.58484">
        <ele>125</ele>
        <time>2019-08-12T08:46:19.314Z</time>
      </trkpt>
      <trkpt lat="44.79749" lon="1.58481">
        <ele>125</ele>
        <time>2019-08-12T08:46:23.314Z</time>
      </trkpt>
      <trkpt lat="44.79757" lon="1.58482">
        <ele>125</ele>
        <time>2019-08-12T08:46:28.329Z</time>
      </trkpt>
      <trkpt lat="44.79764" lon="1.58484">
        <ele>123</ele>
        <time>2019-08-12T08:46:32.335Z</time>
      </trkpt>
      <trkpt lat="44.79773" lon="1.58485">
        <ele>123</ele>
        <time>2019-08-12T08:46:37.321Z</time>
      </trkpt>
      <trkpt lat="44.79782" lon="1.58484">
        <ele>123</ele>
        <time>2019-08-12T08:46:42.314Z</time>
      </trkpt>
      <trkpt lat="44.79791" lon="1.58483">
        <ele>123</ele>
        <time>2019-08-12T08:46:47.308Z</time>
      </trkpt>
      <trkpt lat="44.79799" lon="1.58481">
        <ele>125</ele>
        <time>2019-08-12T08:46:51.335Z</time>
      </trkpt>
      <trkpt lat="44.79809" lon="1.58479">
        <ele>125</ele>
        <time>2019-08-12T08:46:56.325Z</time>
      </trkpt>
      <trkpt lat="44.79817" lon="1.58476">
        <ele>125</ele>
        <time>2019-08-12T08:47:01.335Z</time>
      </trkpt>
      <trkpt lat="44.79826" lon="1.58473">
        <ele>131</ele>
        <time>2019-08-12T08:47:06.348Z</time>
      </trkpt>
      <trkpt lat="44.79831" lon="1.5847">
        <ele>131</ele>
        <time>2019-08-12T08:47:10.353Z</time>
      </trkpt>
      <trkpt lat="44.79849" lon="1.58453">
        <ele>133</ele>
        <time>2019-08-12T08:47:15.314Z</time>
      </trkpt>
      <trkpt lat="44.79867" lon="1.58418">
        <ele>130</ele>
        <time>2019-08-12T08:47:20.321Z</time>
      </trkpt>
      <trkpt lat="44.79886" lon="1.58373">
        <ele>132</ele>
        <time>2019-08-12T08:47:25.310Z</time>
      </trkpt>
      <trkpt lat="44.79894" lon="1.58347">
        <ele>130</ele>
        <time>2019-08-12T08:47:29.331Z</time>
      </trkpt>
      <trkpt lat="44.79897" lon="1.58335">
        <ele>130</ele>
        <time>2019-08-12T08:47:33.356Z</time>
      </trkpt>
      <trkpt lat="44.79898" lon="1.58323">
        <ele>130</ele>
        <time>2019-08-12T08:47:38.354Z</time>
      </trkpt>
      <trkpt lat="44.799" lon="1.58312">
        <ele>129</ele>
        <time>2019-08-12T08:47:43.343Z</time>
      </trkpt>
      <trkpt lat="44.79902" lon="1.58302">
        <ele>129</ele>
        <time>2019-08-12T08:47:48.335Z</time>
      </trkpt>
      <trkpt lat="44.79902" lon="1.58295">
        <ele>129</ele>
        <time>2019-08-12T08:47:53.325Z</time>
      </trkpt>
      <trkpt lat="44.79903" lon="1.58281">
        <ele>132</ele>
        <time>2019-08-12T08:47:58.321Z</time>
      </trkpt>
      <trkpt lat="44.79903" lon="1.58247">
        <ele>123</ele>
        <time>2019-08-12T08:48:03.307Z</time>
      </trkpt>
      <trkpt lat="44.79908" lon="1.58211">
        <ele>126</ele>
        <time>2019-08-12T08:48:07.330Z</time>
      </trkpt>
      <trkpt lat="44.79919" lon="1.58166">
        <ele>124</ele>
        <time>2019-08-12T08:48:12.320Z</time>
      </trkpt>
      <trkpt lat="44.79929" lon="1.58131">
        <ele>122</ele>
        <time>2019-08-12T08:48:16.342Z</time>
      </trkpt>
      <trkpt lat="44.79937" lon="1.58089">
        <ele>126</ele>
        <time>2019-08-12T08:48:21.342Z</time>
      </trkpt>
      <trkpt lat="44.79941" lon="1.58042">
        <ele>125</ele>
        <time>2019-08-12T08:48:26.333Z</time>
      </trkpt>
      <trkpt lat="44.79945" lon="1.57991">
        <ele>121</ele>
        <time>2019-08-12T08:48:31.309Z</time>
      </trkpt>
      <trkpt lat="44.79944" lon="1.57947">
        <ele>117</ele>
        <time>2019-08-12T08:48:35.323Z</time>
      </trkpt>
      <trkpt lat="44.79945" lon="1.57915">
        <ele>117</ele>
        <time>2019-08-12T08:48:40.313Z</time>
      </trkpt>
      <trkpt lat="44.79944" lon="1.57905">
        <ele>117</ele>
        <time>2019-08-12T08:48:44.340Z</time>
      </trkpt>
      <trkpt lat="44.79944" lon="1.57893">
        <ele>117</ele>
        <time>2019-08-12T08:48:49.345Z</time>
      </trkpt>
      <trkpt lat="44.79943" lon="1.57882">
        <ele>117</ele>
        <time>2019-08-12T08:48:54.345Z</time>
      </trkpt>
      <trkpt lat="44.79943" lon="1.57869">
        <ele>118</ele>
        <time>2019-08-12T08:48:59.296Z</time>
      </trkpt>
      <trkpt lat="44.79943" lon="1.57855">
        <ele>118</ele>
        <time>2019-08-12T08:49:04.336Z</time>
      </trkpt>
      <trkpt lat="44.79943" lon="1.57843">
        <ele>119</ele>
        <time>2019-08-12T08:49:09.305Z</time>
      </trkpt>
      <trkpt lat="44.79944" lon="1.57837">
        <ele>119</ele>
        <time>2019-08-12T08:49:13.313Z</time>
      </trkpt>
      <trkpt lat="44.79946" lon="1.57826">
        <ele>119</ele>
        <time>2019-08-12T08:49:18.311Z</time>
      </trkpt>
      <trkpt lat="44.79956" lon="1.57799">
        <ele>119</ele>
        <time>2019-08-12T08:49:22.327Z</time>
      </trkpt>
      <trkpt lat="44.79976" lon="1.57768">
        <ele>119</ele>
        <time>2019-08-12T08:49:26.339Z</time>
      </trkpt>
      <trkpt lat="44.79991" lon="1.57736">
        <ele>120</ele>
        <time>2019-08-12T08:49:31.351Z</time>
      </trkpt>
      <trkpt lat="44.79998" lon="1.57723">
        <ele>119</ele>
        <time>2019-08-12T08:49:36.322Z</time>
      </trkpt>
      <trkpt lat="44.79998" lon="1.57716">
        <ele>119</ele>
        <time>2019-08-12T08:49:40.307Z</time>
      </trkpt>
      <trkpt lat="44.79996" lon="1.57709">
        <ele>119</ele>
        <time>2019-08-12T08:49:44.317Z</time>
      </trkpt>
      <trkpt lat="44.79992" lon="1.57699">
        <ele>119</ele>
        <time>2019-08-12T08:49:49.312Z</time>
      </trkpt>
      <trkpt lat="44.7999" lon="1.57688">
        <ele>119</ele>
        <time>2019-08-12T08:49:54.306Z</time>
      </trkpt>
      <trkpt lat="44.79992" lon="1.57676">
        <ele>117</ele>
        <time>2019-08-12T08:49:59.317Z</time>
      </trkpt>
      <trkpt lat="44.79995" lon="1.57668">
        <ele>117</ele>
        <time>2019-08-12T08:50:03.317Z</time>
      </trkpt>
      <trkpt lat="44.79998" lon="1.57657">
        <ele>117</ele>
        <time>2019-08-12T08:50:08.315Z</time>
      </trkpt>
      <trkpt lat="44.80003" lon="1.57647">
        <ele>118</ele>
        <time>2019-08-12T08:50:13.322Z</time>
      </trkpt>
      <trkpt lat="44.80008" lon="1.57639">
        <ele>118</ele>
        <time>2019-08-12T08:50:18.306Z</time>
      </trkpt>
      <trkpt lat="44.80012" lon="1.57633">
        <ele>118</ele>
        <time>2019-08-12T08:50:23.322Z</time>
      </trkpt>
      <trkpt lat="44.80017" lon="1.57625">
        <ele>120</ele>
        <time>2019-08-12T08:50:28.317Z</time>
      </trkpt>
      <trkpt lat="44.80021" lon="1.57618">
        <ele>120</ele>
        <time>2019-08-12T08:50:32.320Z</time>
      </trkpt>
      <trkpt lat="44.80023" lon="1.57611">
        <ele>120</ele>
        <time>2019-08-12T08:50:36.342Z</time>
      </trkpt>
      <trkpt lat="44.80026" lon="1.57603">
        <ele>120</ele>
        <time>2019-08-12T08:50:40.357Z</time>
      </trkpt>
      <trkpt lat="44.80028" lon="1.57594">
        <ele>122</ele>
        <time>2019-08-12T08:50:45.326Z</time>
      </trkpt>
      <trkpt lat="44.8003" lon="1.57588">
        <ele>122</ele>
        <time>2019-08-12T08:50:49.352Z</time>
      </trkpt>
      <trkpt lat="44.80032" lon="1.57577">
        <ele>122</ele>
        <time>2019-08-12T08:50:54.318Z</time>
      </trkpt>
      <trkpt lat="44.80036" lon="1.57565">
        <ele>124</ele>
        <time>2019-08-12T08:50:59.290Z</time>
      </trkpt>
      <trkpt lat="44.80038" lon="1.57557">
        <ele>124</ele>
        <time>2019-08-12T08:51:03.307Z</time>
      </trkpt>
      <trkpt lat="44.80039" lon="1.57546">
        <ele>124</ele>
        <time>2019-08-12T08:51:08.315Z</time>
      </trkpt>
      <trkpt lat="44.80039" lon="1.5754">
        <ele>125</ele>
        <time>2019-08-12T08:51:12.336Z</time>
      </trkpt>
      <trkpt lat="44.80039" lon="1.57532">
        <ele>125</ele>
        <time>2019-08-12T08:51:17.312Z</time>
      </trkpt>
      <trkpt lat="44.8004" lon="1.57522">
        <ele>125</ele>
        <time>2019-08-12T08:51:22.319Z</time>
      </trkpt>
      <trkpt lat="44.80041" lon="1.57514">
        <ele>124</ele>
        <time>2019-08-12T08:51:27.304Z</time>
      </trkpt>
      <trkpt lat="44.80043" lon="1.57503">
        <ele>118</ele>
        <time>2019-08-12T08:51:32.299Z</time>
      </trkpt>
      <trkpt lat="44.80043" lon="1.57493">
        <ele>118</ele>
        <time>2019-08-12T08:51:37.312Z</time>
      </trkpt>
      <trkpt lat="44.80042" lon="1.57483">
        <ele>119</ele>
        <time>2019-08-12T08:51:42.343Z</time>
      </trkpt>
      <trkpt lat="44.80041" lon="1.57472">
        <ele>124</ele>
        <time>2019-08-12T08:51:47.311Z</time>
      </trkpt>
      <trkpt lat="44.80037" lon="1.57465">
        <ele>124</ele>
        <time>2019-08-12T08:51:52.313Z</time>
      </trkpt>
      <trkpt lat="44.80031" lon="1.57461">
        <ele>124</ele>
        <time>2019-08-12T08:51:56.339Z</time>
      </trkpt>
      <trkpt lat="44.80025" lon="1.57463">
        <ele>124</ele>
        <time>2019-08-12T08:52:01.316Z</time>
      </trkpt>
      <trkpt lat="44.80021" lon="1.57467">
        <ele>124</ele>
        <time>2019-08-12T08:52:05.347Z</time>
      </trkpt>
      <trkpt lat="44.80015" lon="1.57472">
        <ele>124</ele>
        <time>2019-08-12T08:52:10.302Z</time>
      </trkpt>
      <trkpt lat="44.80009" lon="1.57478">
        <ele>128</ele>
        <time>2019-08-12T08:52:14.321Z</time>
      </trkpt>
      <trkpt lat="44.80003" lon="1.57484">
        <ele>128</ele>
        <time>2019-08-12T08:52:19.315Z</time>
      </trkpt>
      <trkpt lat="44.79999" lon="1.57495">
        <ele>129</ele>
        <time>2019-08-12T08:52:24.318Z</time>
      </trkpt>
      <trkpt lat="44.79993" lon="1.57504">
        <ele>129</ele>
        <time>2019-08-12T08:52:29.315Z</time>
      </trkpt>
      <trkpt lat="44.79976" lon="1.57522">
        <ele>131</ele>
        <time>2019-08-12T08:52:49.318Z</time>
      </trkpt>
      <trkpt lat="44.79969" lon="1.57522">
        <ele>131</ele>
        <time>2019-08-12T08:52:54.342Z</time>
      </trkpt>
      <trkpt lat="44.79962" lon="1.57524">
        <ele>131</ele>
        <time>2019-08-12T08:52:59.344Z</time>
      </trkpt>
      <trkpt lat="44.79954" lon="1.57527">
        <ele>132</ele>
        <time>2019-08-12T08:53:04.342Z</time>
      </trkpt>
      <trkpt lat="44.79946" lon="1.57527">
        <ele>132</ele>
        <time>2019-08-12T08:53:09.344Z</time>
      </trkpt>
      <trkpt lat="44.79938" lon="1.57528">
        <ele>132</ele>
        <time>2019-08-12T08:53:14.312Z</time>
      </trkpt>
      <trkpt lat="44.79931" lon="1.5753">
        <ele>132</ele>
        <time>2019-08-12T08:53:19.313Z</time>
      </trkpt>
      <trkpt lat="44.79923" lon="1.57529">
        <ele>132</ele>
        <time>2019-08-12T08:53:24.316Z</time>
      </trkpt>
      <trkpt lat="44.79915" lon="1.57527">
        <ele>132</ele>
        <time>2019-08-12T08:53:29.309Z</time>
      </trkpt>
      <trkpt lat="44.79909" lon="1.57524">
        <ele>132</ele>
        <time>2019-08-12T08:53:33.318Z</time>
      </trkpt>
      <trkpt lat="44.79902" lon="1.57521">
        <ele>131</ele>
        <time>2019-08-12T08:53:38.318Z</time>
      </trkpt>
      <trkpt lat="44.79895" lon="1.57517">
        <ele>131</ele>
        <time>2019-08-12T08:53:43.311Z</time>
      </trkpt>
      <trkpt lat="44.79888" lon="1.57515">
        <ele>131</ele>
        <time>2019-08-12T08:53:48.312Z</time>
      </trkpt>
      <trkpt lat="44.79881" lon="1.57512">
        <ele>130</ele>
        <time>2019-08-12T08:53:53.306Z</time>
      </trkpt>
      <trkpt lat="44.79875" lon="1.57509">
        <ele>129</ele>
        <time>2019-08-12T08:53:58.310Z</time>
      </trkpt>
      <trkpt lat="44.79868" lon="1.57506">
        <ele>129</ele>
        <time>2019-08-12T08:54:03.340Z</time>
      </trkpt>
      <trkpt lat="44.79862" lon="1.575">
        <ele>129</ele>
        <time>2019-08-12T08:54:08.344Z</time>
      </trkpt>
      <trkpt lat="44.79856" lon="1.57496">
        <ele>129</ele>
        <time>2019-08-12T08:54:13.324Z</time>
      </trkpt>
      <trkpt lat="44.7985" lon="1.57494">
        <ele>129</ele>
        <time>2019-08-12T08:54:17.333Z</time>
      </trkpt>
      <trkpt lat="44.79843" lon="1.57492">
        <ele>130</ele>
        <time>2019-08-12T08:54:21.350Z</time>
      </trkpt>
      <trkpt lat="44.79834" lon="1.5749">
        <ele>130</ele>
        <time>2019-08-12T08:54:26.311Z</time>
      </trkpt>
      <trkpt lat="44.79828" lon="1.57488">
        <ele>130</ele>
        <time>2019-08-12T08:54:30.310Z</time>
      </trkpt>
      <trkpt lat="44.7982" lon="1.57485">
        <ele>129</ele>
        <time>2019-08-12T08:54:35.338Z</time>
      </trkpt>
      <trkpt lat="44.79812" lon="1.57484">
        <ele>133</ele>
        <time>2019-08-12T08:54:40.330Z</time>
      </trkpt>
      <trkpt lat="44.79807" lon="1.57482">
        <ele>133</ele>
        <time>2019-08-12T08:54:45.316Z</time>
      </trkpt>
      <trkpt lat="44.79803" lon="1.5748">
        <ele>133</ele>
        <time>2019-08-12T08:54:49.334Z</time>
      </trkpt>
      <trkpt lat="44.79795" lon="1.57477">
        <ele>133</ele>
        <time>2019-08-12T08:54:54.316Z</time>
      </trkpt>
      <trkpt lat="44.79787" lon="1.57474">
        <ele>138</ele>
        <time>2019-08-12T08:54:59.314Z</time>
      </trkpt>
      <trkpt lat="44.79779" lon="1.57469">
        <ele>138</ele>
        <time>2019-08-12T08:55:04.309Z</time>
      </trkpt>
      <trkpt lat="44.79771" lon="1.57464">
        <ele>138</ele>
        <time>2019-08-12T08:55:09.317Z</time>
      </trkpt>
      <trkpt lat="44.79763" lon="1.57461">
        <ele>142</ele>
        <time>2019-08-12T08:55:14.317Z</time>
      </trkpt>
      <trkpt lat="44.79756" lon="1.5746">
        <ele>142</ele>
        <time>2019-08-12T08:55:19.317Z</time>
      </trkpt>
      <trkpt lat="44.79749" lon="1.57458">
        <ele>144</ele>
        <time>2019-08-12T08:55:24.313Z</time>
      </trkpt>
      <trkpt lat="44.79744" lon="1.57455">
        <ele>144</ele>
        <time>2019-08-12T08:55:29.304Z</time>
      </trkpt>
      <trkpt lat="44.79739" lon="1.57452">
        <ele>144</ele>
        <time>2019-08-12T08:55:33.312Z</time>
      </trkpt>
      <trkpt lat="44.79734" lon="1.57443">
        <ele>153</ele>
        <time>2019-08-12T08:55:38.322Z</time>
      </trkpt>
      <trkpt lat="44.79731" lon="1.57436">
        <ele>153</ele>
        <time>2019-08-12T08:55:43.321Z</time>
      </trkpt>
      <trkpt lat="44.79729" lon="1.57428">
        <ele>156</ele>
        <time>2019-08-12T08:55:48.310Z</time>
      </trkpt>
      <trkpt lat="44.79729" lon="1.5742">
        <ele>156</ele>
        <time>2019-08-12T08:55:53.342Z</time>
      </trkpt>
      <trkpt lat="44.79729" lon="1.57412">
        <ele>156</ele>
        <time>2019-08-12T08:55:57.340Z</time>
      </trkpt>
      <trkpt lat="44.79726" lon="1.57403">
        <ele>156</ele>
        <time>2019-08-12T08:56:02.343Z</time>
      </trkpt>
      <trkpt lat="44.79725" lon="1.57394">
        <ele>159</ele>
        <time>2019-08-12T08:56:07.344Z</time>
      </trkpt>
      <trkpt lat="44.79724" lon="1.57385">
        <ele>159</ele>
        <time>2019-08-12T08:56:12.329Z</time>
      </trkpt>
      <trkpt lat="44.79724" lon="1.57377">
        <ele>159</ele>
        <time>2019-08-12T08:56:17.306Z</time>
      </trkpt>
      <trkpt lat="44.79724" lon="1.57368">
        <ele>161</ele>
        <time>2019-08-12T08:56:22.314Z</time>
      </trkpt>
      <trkpt lat="44.79725" lon="1.57359">
        <ele>161</ele>
        <time>2019-08-12T08:56:27.319Z</time>
      </trkpt>
      <trkpt lat="44.79726" lon="1.5735">
        <ele>161</ele>
        <time>2019-08-12T08:56:32.317Z</time>
      </trkpt>
      <trkpt lat="44.79725" lon="1.57338">
        <ele>164</ele>
        <time>2019-08-12T08:56:37.364Z</time>
      </trkpt>
      <trkpt lat="44.79725" lon="1.57329">
        <ele>164</ele>
        <time>2019-08-12T08:56:42.331Z</time>
      </trkpt>
      <trkpt lat="44.79729" lon="1.5732">
        <ele>164</ele>
        <time>2019-08-12T08:56:46.335Z</time>
      </trkpt>
      <trkpt lat="44.7973" lon="1.57314">
        <ele>167</ele>
        <time>2019-08-12T08:56:51.290Z</time>
      </trkpt>
      <trkpt lat="44.79729" lon="1.57309">
        <ele>167</ele>
        <time>2019-08-12T08:56:55.340Z</time>
      </trkpt>
      <trkpt lat="44.7973" lon="1.57298">
        <ele>167</ele>
        <time>2019-08-12T08:57:00.312Z</time>
      </trkpt>
      <trkpt lat="44.7973" lon="1.57288">
        <ele>170</ele>
        <time>2019-08-12T08:57:05.332Z</time>
      </trkpt>
      <trkpt lat="44.79732" lon="1.57276">
        <ele>170</ele>
        <time>2019-08-12T08:57:10.319Z</time>
      </trkpt>
      <trkpt lat="44.79734" lon="1.57265">
        <ele>170</ele>
        <time>2019-08-12T08:57:15.333Z</time>
      </trkpt>
      <trkpt lat="44.79738" lon="1.57255">
        <ele>165</ele>
        <time>2019-08-12T08:57:20.339Z</time>
      </trkpt>
      <trkpt lat="44.79739" lon="1.57247">
        <ele>165</ele>
        <time>2019-08-12T08:57:25.324Z</time>
      </trkpt>
      <trkpt lat="44.7974" lon="1.5724">
        <ele>165</ele>
        <time>2019-08-12T08:57:29.360Z</time>
      </trkpt>
      <trkpt lat="44.7974" lon="1.57227">
        <ele>169</ele>
        <time>2019-08-12T08:57:34.319Z</time>
      </trkpt>
      <trkpt lat="44.7974" lon="1.57218">
        <ele>169</ele>
        <time>2019-08-12T08:57:39.326Z</time>
      </trkpt>
      <trkpt lat="44.79742" lon="1.57213">
        <ele>169</ele>
        <time>2019-08-12T08:57:43.356Z</time>
      </trkpt>
      <trkpt lat="44.79743" lon="1.57208">
        <ele>174</ele>
        <time>2019-08-12T08:57:47.358Z</time>
      </trkpt>
      <trkpt lat="44.79744" lon="1.572">
        <ele>174</ele>
        <time>2019-08-12T08:57:52.331Z</time>
      </trkpt>
      <trkpt lat="44.79745" lon="1.57195">
        <ele>174</ele>
        <time>2019-08-12T08:57:57.327Z</time>
      </trkpt>
      <trkpt lat="44.79745" lon="1.57194">
        <ele>174</ele>
        <time>2019-08-12T08:58:02.318Z</time>
      </trkpt>
      <trkpt lat="44.79746" lon="1.57189">
        <ele>174</ele>
        <time>2019-08-12T08:58:06.340Z</time>
      </trkpt>
      <trkpt lat="44.79747" lon="1.57178">
        <ele>177</ele>
        <time>2019-08-12T08:58:11.319Z</time>
      </trkpt>
      <trkpt lat="44.79747" lon="1.57169">
        <ele>177</ele>
        <time>2019-08-12T08:58:16.314Z</time>
      </trkpt>
      <trkpt lat="44.79747" lon="1.57162">
        <ele>177</ele>
        <time>2019-08-12T08:58:20.347Z</time>
      </trkpt>
      <trkpt lat="44.79746" lon="1.57155">
        <ele>177</ele>
        <time>2019-08-12T08:58:24.347Z</time>
      </trkpt>
      <trkpt lat="44.79746" lon="1.57147">
        <ele>180</ele>
        <time>2019-08-12T08:58:29.346Z</time>
      </trkpt>
      <trkpt lat="44.79746" lon="1.5714">
        <ele>180</ele>
        <time>2019-08-12T08:58:33.337Z</time>
      </trkpt>
      <trkpt lat="44.79745" lon="1.57133">
        <ele>180</ele>
        <time>2019-08-12T08:58:38.319Z</time>
      </trkpt>
      <trkpt lat="44.79745" lon="1.57126">
        <ele>180</ele>
        <time>2019-08-12T08:58:42.337Z</time>
      </trkpt>
      <trkpt lat="44.79743" lon="1.57119">
        <ele>184</ele>
        <time>2019-08-12T08:58:47.308Z</time>
      </trkpt>
      <trkpt lat="44.79739" lon="1.57114">
        <ele>184</ele>
        <time>2019-08-12T08:58:52.299Z</time>
      </trkpt>
      <trkpt lat="44.79731" lon="1.57108">
        <ele>184</ele>
        <time>2019-08-12T08:58:57.333Z</time>
      </trkpt>
      <trkpt lat="44.79725" lon="1.5711">
        <ele>184</ele>
        <time>2019-08-12T08:59:02.333Z</time>
      </trkpt>
      <trkpt lat="44.79723" lon="1.57118">
        <ele>184</ele>
        <time>2019-08-12T08:59:07.317Z</time>
      </trkpt>
      <trkpt lat="44.79722" lon="1.57126">
        <ele>184</ele>
        <time>2019-08-12T08:59:11.341Z</time>
      </trkpt>
      <trkpt lat="44.79719" lon="1.57136">
        <ele>184</ele>
        <time>2019-08-12T08:59:16.343Z</time>
      </trkpt>
      <trkpt lat="44.79717" lon="1.57144">
        <ele>184</ele>
        <time>2019-08-12T08:59:21.320Z</time>
      </trkpt>
      <trkpt lat="44.79712" lon="1.57152">
        <ele>184</ele>
        <time>2019-08-12T08:59:26.311Z</time>
      </trkpt>
      <trkpt lat="44.79707" lon="1.57164">
        <ele>185</ele>
        <time>2019-08-12T08:59:31.312Z</time>
      </trkpt>
      <trkpt lat="44.79703" lon="1.57172">
        <ele>185</ele>
        <time>2019-08-12T08:59:35.341Z</time>
      </trkpt>
      <trkpt lat="44.79698" lon="1.5718">
        <ele>185</ele>
        <time>2019-08-12T08:59:40.349Z</time>
      </trkpt>
      <trkpt lat="44.79693" lon="1.5719">
        <ele>185</ele>
        <time>2019-08-12T08:59:45.349Z</time>
      </trkpt>
      <trkpt lat="44.79689" lon="1.57198">
        <ele>185</ele>
        <time>2019-08-12T08:59:50.339Z</time>
      </trkpt>
      <trkpt lat="44.79685" lon="1.57204">
        <ele>185</ele>
        <time>2019-08-12T08:59:54.338Z</time>
      </trkpt>
      <trkpt lat="44.79683" lon="1.57212">
        <ele>184</ele>
        <time>2019-08-12T08:59:59.306Z</time>
      </trkpt>
      <trkpt lat="44.7968" lon="1.57218">
        <ele>187</ele>
        <time>2019-08-12T09:00:03.335Z</time>
      </trkpt>
      <trkpt lat="44.79676" lon="1.57227">
        <ele>187</ele>
        <time>2019-08-12T09:00:08.335Z</time>
      </trkpt>
      <trkpt lat="44.79672" lon="1.57237">
        <ele>185</ele>
        <time>2019-08-12T09:00:13.323Z</time>
      </trkpt>
      <trkpt lat="44.79667" lon="1.57247">
        <ele>185</ele>
        <time>2019-08-12T09:00:18.346Z</time>
      </trkpt>
      <trkpt lat="44.79661" lon="1.57256">
        <ele>185</ele>
        <time>2019-08-12T09:00:23.342Z</time>
      </trkpt>
      <trkpt lat="44.79654" lon="1.57263">
        <ele>185</ele>
        <time>2019-08-12T09:00:28.334Z</time>
      </trkpt>
      <trkpt lat="44.79648" lon="1.57272">
        <ele>187</ele>
        <time>2019-08-12T09:00:33.304Z</time>
      </trkpt>
      <trkpt lat="44.79643" lon="1.57277">
        <ele>187</ele>
        <time>2019-08-12T09:00:37.326Z</time>
      </trkpt>
      <trkpt lat="44.79638" lon="1.57283">
        <ele>187</ele>
        <time>2019-08-12T09:00:41.352Z</time>
      </trkpt>
      <trkpt lat="44.79632" lon="1.57288">
        <ele>187</ele>
        <time>2019-08-12T09:00:46.344Z</time>
      </trkpt>
      <trkpt lat="44.79626" lon="1.57294">
        <ele>188</ele>
        <time>2019-08-12T09:00:51.349Z</time>
      </trkpt>
      <trkpt lat="44.79621" lon="1.57299">
        <ele>190</ele>
        <time>2019-08-12T09:00:56.334Z</time>
      </trkpt>
      <trkpt lat="44.79615" lon="1.57302">
        <ele>190</ele>
        <time>2019-08-12T09:01:00.352Z</time>
      </trkpt>
      <trkpt lat="44.79609" lon="1.57307">
        <ele>190</ele>
        <time>2019-08-12T09:01:05.337Z</time>
      </trkpt>
      <trkpt lat="44.79604" lon="1.5731">
        <ele>190</ele>
        <time>2019-08-12T09:01:10.335Z</time>
      </trkpt>
      <trkpt lat="44.79598" lon="1.57313">
        <ele>190</ele>
        <time>2019-08-12T09:01:15.354Z</time>
      </trkpt>
      <trkpt lat="44.79591" lon="1.57314">
        <ele>189</ele>
        <time>2019-08-12T09:01:20.338Z</time>
      </trkpt>
      <trkpt lat="44.79583" lon="1.57316">
        <ele>189</ele>
        <time>2019-08-12T09:01:25.345Z</time>
      </trkpt>
      <trkpt lat="44.79575" lon="1.57318">
        <ele>189</ele>
        <time>2019-08-12T09:01:30.342Z</time>
      </trkpt>
      <trkpt lat="44.79567" lon="1.5732">
        <ele>187</ele>
        <time>2019-08-12T09:01:35.331Z</time>
      </trkpt>
      <trkpt lat="44.7956" lon="1.57322">
        <ele>187</ele>
        <time>2019-08-12T09:01:40.336Z</time>
      </trkpt>
      <trkpt lat="44.79552" lon="1.57325">
        <ele>187</ele>
        <time>2019-08-12T09:01:45.328Z</time>
      </trkpt>
      <trkpt lat="44.79545" lon="1.57329">
        <ele>187</ele>
        <time>2019-08-12T09:01:50.345Z</time>
      </trkpt>
      <trkpt lat="44.79539" lon="1.57333">
        <ele>182</ele>
        <time>2019-08-12T09:01:54.315Z</time>
      </trkpt>
      <trkpt lat="44.79532" lon="1.57337">
        <ele>182</ele>
        <time>2019-08-12T09:01:59.294Z</time>
      </trkpt>
      <trkpt lat="44.79526" lon="1.5734">
        <ele>182</ele>
        <time>2019-08-12T09:02:03.361Z</time>
      </trkpt>
      <trkpt lat="44.79519" lon="1.57343">
        <ele>182</ele>
        <time>2019-08-12T09:02:08.333Z</time>
      </trkpt>
      <trkpt lat="44.79512" lon="1.57346">
        <ele>177</ele>
        <time>2019-08-12T09:02:13.319Z</time>
      </trkpt>
      <trkpt lat="44.79505" lon="1.57349">
        <ele>184</ele>
        <time>2019-08-12T09:02:18.352Z</time>
      </trkpt>
      <trkpt lat="44.79498" lon="1.57352">
        <ele>184</ele>
        <time>2019-08-12T09:02:23.316Z</time>
      </trkpt>
      <trkpt lat="44.79491" lon="1.57356">
        <ele>184</ele>
        <time>2019-08-12T09:02:28.321Z</time>
      </trkpt>
      <trkpt lat="44.79484" lon="1.5736">
        <ele>174</ele>
        <time>2019-08-12T09:02:33.304Z</time>
      </trkpt>
      <trkpt lat="44.79478" lon="1.57364">
        <ele>174</ele>
        <time>2019-08-12T09:02:37.314Z</time>
      </trkpt>
      <trkpt lat="44.79471" lon="1.57369">
        <ele>174</ele>
        <time>2019-08-12T09:02:42.315Z</time>
      </trkpt>
      <trkpt lat="44.79465" lon="1.57374">
        <ele>174</ele>
        <time>2019-08-12T09:02:47.319Z</time>
      </trkpt>
      <trkpt lat="44.79459" lon="1.5738">
        <ele>182</ele>
        <time>2019-08-12T09:02:52.308Z</time>
      </trkpt>
      <trkpt lat="44.79453" lon="1.57385">
        <ele>174</ele>
        <time>2019-08-12T09:02:57.308Z</time>
      </trkpt>
      <trkpt lat="44.79447" lon="1.57391">
        <ele>174</ele>
        <time>2019-08-12T09:03:02.320Z</time>
      </trkpt>
      <trkpt lat="44.79441" lon="1.57399">
        <ele>174</ele>
        <time>2019-08-12T09:03:07.300Z</time>
      </trkpt>
      <trkpt lat="44.79435" lon="1.57404">
        <ele>183</ele>
        <time>2019-08-12T09:03:12.320Z</time>
      </trkpt>
      <trkpt lat="44.79431" lon="1.57409">
        <ele>183</ele>
        <time>2019-08-12T09:03:16.339Z</time>
      </trkpt>
      <trkpt lat="44.79427" lon="1.57418">
        <ele>172</ele>
        <time>2019-08-12T09:03:21.302Z</time>
      </trkpt>
      <trkpt lat="44.79423" lon="1.57424">
        <ele>172</ele>
        <time>2019-08-12T09:03:25.325Z</time>
      </trkpt>
      <trkpt lat="44.79419" lon="1.57433">
        <ele>181</ele>
        <time>2019-08-12T09:03:30.309Z</time>
      </trkpt>
      <trkpt lat="44.79415" lon="1.57441">
        <ele>181</ele>
        <time>2019-08-12T09:03:35.307Z</time>
      </trkpt>
      <trkpt lat="44.7941" lon="1.57449">
        <ele>181</ele>
        <time>2019-08-12T09:03:40.322Z</time>
      </trkpt>
      <trkpt lat="44.79406" lon="1.57458">
        <ele>181</ele>
        <time>2019-08-12T09:03:45.314Z</time>
      </trkpt>
      <trkpt lat="44.79401" lon="1.57467">
        <ele>174</ele>
        <time>2019-08-12T09:03:50.317Z</time>
      </trkpt>
      <trkpt lat="44.79398" lon="1.57473">
        <ele>174</ele>
        <time>2019-08-12T09:03:55.316Z</time>
      </trkpt>
      <trkpt lat="44.79397" lon="1.57474">
        <ele>174</ele>
        <time>2019-08-12T09:04:00.311Z</time>
      </trkpt>
      <trkpt lat="44.79396" lon="1.57476">
        <ele>174</ele>
        <time>2019-08-12T09:04:05.309Z</time>
      </trkpt>
      <trkpt lat="44.79393" lon="1.57483">
        <ele>174</ele>
        <time>2019-08-12T09:04:10.313Z</time>
      </trkpt>
      <trkpt lat="44.79389" lon="1.57489">
        <ele>180</ele>
        <time>2019-08-12T09:04:15.296Z</time>
      </trkpt>
      <trkpt lat="44.79385" lon="1.57495">
        <ele>180</ele>
        <time>2019-08-12T09:04:20.313Z</time>
      </trkpt>
      <trkpt lat="44.79381" lon="1.575">
        <ele>180</ele>
        <time>2019-08-12T09:04:25.308Z</time>
      </trkpt>
      <trkpt lat="44.79375" lon="1.57509">
        <ele>166</ele>
        <time>2019-08-12T09:04:30.317Z</time>
      </trkpt>
      <trkpt lat="44.79369" lon="1.57518">
        <ele>170</ele>
        <time>2019-08-12T09:04:35.309Z</time>
      </trkpt>
      <trkpt lat="44.79364" lon="1.57525">
        <ele>170</ele>
        <time>2019-08-12T09:04:40.308Z</time>
      </trkpt>
      <trkpt lat="44.79362" lon="1.57529">
        <ele>170</ele>
        <time>2019-08-12T09:04:45.315Z</time>
      </trkpt>
      <trkpt lat="44.79362" lon="1.57532">
        <ele>170</ele>
        <time>2019-08-12T09:04:50.325Z</time>
      </trkpt>
      <trkpt lat="44.7936" lon="1.57534">
        <ele>170</ele>
        <time>2019-08-12T09:04:55.302Z</time>
      </trkpt>
      <trkpt lat="44.79357" lon="1.57536">
        <ele>170</ele>
        <time>2019-08-12T09:04:59.301Z</time>
      </trkpt>
      <trkpt lat="44.79353" lon="1.57541">
        <ele>170</ele>
        <time>2019-08-12T09:05:04.316Z</time>
      </trkpt>
      <trkpt lat="44.79348" lon="1.57548">
        <ele>176</ele>
        <time>2019-08-12T09:05:08.370Z</time>
      </trkpt>
      <trkpt lat="44.79343" lon="1.57556">
        <ele>163</ele>
        <time>2019-08-12T09:05:13.301Z</time>
      </trkpt>
      <trkpt lat="44.79338" lon="1.57562">
        <ele>163</ele>
        <time>2019-08-12T09:05:18.315Z</time>
      </trkpt>
      <trkpt lat="44.79333" lon="1.57569">
        <ele>163</ele>
        <time>2019-08-12T09:05:23.293Z</time>
      </trkpt>
      <trkpt lat="44.79329" lon="1.57575">
        <ele>170</ele>
        <time>2019-08-12T09:05:27.311Z</time>
      </trkpt>
      <trkpt lat="44.79325" lon="1.57582">
        <ele>170</ele>
        <time>2019-08-12T09:05:32.321Z</time>
      </trkpt>
      <trkpt lat="44.79319" lon="1.57592">
        <ele>157</ele>
        <time>2019-08-12T09:05:37.306Z</time>
      </trkpt>
      <trkpt lat="44.79314" lon="1.576">
        <ele>162</ele>
        <time>2019-08-12T09:05:42.300Z</time>
      </trkpt>
      <trkpt lat="44.7931" lon="1.57605">
        <ele>162</ele>
        <time>2019-08-12T09:05:46.336Z</time>
      </trkpt>
      <trkpt lat="44.79305" lon="1.57612">
        <ele>162</ele>
        <time>2019-08-12T09:05:50.328Z</time>
      </trkpt>
      <trkpt lat="44.79299" lon="1.57621">
        <ele>162</ele>
        <time>2019-08-12T09:05:55.305Z</time>
      </trkpt>
      <trkpt lat="44.79295" lon="1.57628">
        <ele>167</ele>
        <time>2019-08-12T09:06:00.312Z</time>
      </trkpt>
      <trkpt lat="44.79291" lon="1.57634">
        <ele>157</ele>
        <time>2019-08-12T09:06:04.327Z</time>
      </trkpt>
      <trkpt lat="44.79286" lon="1.57642">
        <ele>157</ele>
        <time>2019-08-12T09:06:09.294Z</time>
      </trkpt>
      <trkpt lat="44.79282" lon="1.57651">
        <ele>157</ele>
        <time>2019-08-12T09:06:13.308Z</time>
      </trkpt>
      <trkpt lat="44.79277" lon="1.5766">
        <ele>162</ele>
        <time>2019-08-12T09:06:18.318Z</time>
      </trkpt>
      <trkpt lat="44.79271" lon="1.57668">
        <ele>162</ele>
        <time>2019-08-12T09:06:23.317Z</time>
      </trkpt>
      <trkpt lat="44.79266" lon="1.57676">
        <ele>162</ele>
        <time>2019-08-12T09:06:28.309Z</time>
      </trkpt>
      <trkpt lat="44.7926" lon="1.57685">
        <ele>156</ele>
        <time>2019-08-12T09:06:33.299Z</time>
      </trkpt>
      <trkpt lat="44.79254" lon="1.57693">
        <ele>156</ele>
        <time>2019-08-12T09:06:38.326Z</time>
      </trkpt>
      <trkpt lat="44.79248" lon="1.57701">
        <ele>156</ele>
        <time>2019-08-12T09:06:43.311Z</time>
      </trkpt>
      <trkpt lat="44.79242" lon="1.57708">
        <ele>156</ele>
        <time>2019-08-12T09:06:48.323Z</time>
      </trkpt>
      <trkpt lat="44.7923" lon="1.57725">
        <ele>150</ele>
        <time>2019-08-12T09:06:59.282Z</time>
      </trkpt>
      <trkpt lat="44.79225" lon="1.57731">
        <ele>150</ele>
        <time>2019-08-12T09:07:03.368Z</time>
      </trkpt>
      <trkpt lat="44.79218" lon="1.57738">
        <ele>153</ele>
        <time>2019-08-12T09:07:08.319Z</time>
      </trkpt>
      <trkpt lat="44.79214" lon="1.57744">
        <ele>153</ele>
        <time>2019-08-12T09:07:12.332Z</time>
      </trkpt>
      <trkpt lat="44.79207" lon="1.57751">
        <ele>143</ele>
        <time>2019-08-12T09:07:17.316Z</time>
      </trkpt>
      <trkpt lat="44.79201" lon="1.57759">
        <ele>143</ele>
        <time>2019-08-12T09:07:21.335Z</time>
      </trkpt>
      <trkpt lat="44.79194" lon="1.57766">
        <ele>146</ele>
        <time>2019-08-12T09:07:26.330Z</time>
      </trkpt>
      <trkpt lat="44.79187" lon="1.57774">
        <ele>146</ele>
        <time>2019-08-12T09:07:31.339Z</time>
      </trkpt>
      <trkpt lat="44.79182" lon="1.5778">
        <ele>146</ele>
        <time>2019-08-12T09:07:36.318Z</time>
      </trkpt>
      <trkpt lat="44.79176" lon="1.57785">
        <ele>140</ele>
        <time>2019-08-12T09:07:41.332Z</time>
      </trkpt>
      <trkpt lat="44.7917" lon="1.57791">
        <ele>140</ele>
        <time>2019-08-12T09:07:46.330Z</time>
      </trkpt>
      <trkpt lat="44.79164" lon="1.57799">
        <ele>143</ele>
        <time>2019-08-12T09:07:51.317Z</time>
      </trkpt>
      <trkpt lat="44.79158" lon="1.57807">
        <ele>143</ele>
        <time>2019-08-12T09:07:56.321Z</time>
      </trkpt>
      <trkpt lat="44.79152" lon="1.57815">
        <ele>136</ele>
        <time>2019-08-12T09:08:01.330Z</time>
      </trkpt>
      <trkpt lat="44.79148" lon="1.5781">
        <ele>136</ele>
        <time>2019-08-12T09:10:39.329Z</time>
      </trkpt>
      <trkpt lat="44.79149" lon="1.57807">
        <ele>136</ele>
        <time>2019-08-12T09:10:44.316Z</time>
      </trkpt>
      <trkpt lat="44.79152" lon="1.57801">
        <ele>136</ele>
        <time>2019-08-12T09:10:48.347Z</time>
      </trkpt>
      <trkpt lat="44.79157" lon="1.57795">
        <ele>143</ele>
        <time>2019-08-12T09:10:53.351Z</time>
      </trkpt>
      <trkpt lat="44.79161" lon="1.57788">
        <ele>140</ele>
        <time>2019-08-12T09:10:58.342Z</time>
      </trkpt>
      <trkpt lat="44.79162" lon="1.57783">
        <ele>140</ele>
        <time>2019-08-12T09:11:39.345Z</time>
      </trkpt>
      <trkpt lat="44.79162" lon="1.57781">
        <ele>140</ele>
        <time>2019-08-12T09:11:43.362Z</time>
      </trkpt>
      <trkpt lat="44.79164" lon="1.57774">
        <ele>140</ele>
        <time>2019-08-12T09:11:47.373Z</time>
      </trkpt>
      <trkpt lat="44.79164" lon="1.57765">
        <ele>140</ele>
        <time>2019-08-12T09:11:52.338Z</time>
      </trkpt>
      <trkpt lat="44.79167" lon="1.57756">
        <ele>137</ele>
        <time>2019-08-12T09:11:57.336Z</time>
      </trkpt>
      <trkpt lat="44.79168" lon="1.57747">
        <ele>137</ele>
        <time>2019-08-12T09:12:01.350Z</time>
      </trkpt>
      <trkpt lat="44.79172" lon="1.57736">
        <ele>134</ele>
        <time>2019-08-12T09:12:06.345Z</time>
      </trkpt>
      <trkpt lat="44.79174" lon="1.57726">
        <ele>134</ele>
        <time>2019-08-12T09:12:11.342Z</time>
      </trkpt>
      <trkpt lat="44.79176" lon="1.57717">
        <ele>134</ele>
        <time>2019-08-12T09:12:16.336Z</time>
      </trkpt>
      <trkpt lat="44.79176" lon="1.57706">
        <ele>132</ele>
        <time>2019-08-12T09:12:21.340Z</time>
      </trkpt>
      <trkpt lat="44.79178" lon="1.57695">
        <ele>132</ele>
        <time>2019-08-12T09:12:26.334Z</time>
      </trkpt>
      <trkpt lat="44.79182" lon="1.57684">
        <ele>138</ele>
        <time>2019-08-12T09:12:31.349Z</time>
      </trkpt>
      <trkpt lat="44.79184" lon="1.57674">
        <ele>135</ele>
        <time>2019-08-12T09:12:36.316Z</time>
      </trkpt>
      <trkpt lat="44.79186" lon="1.57666">
        <ele>135</ele>
        <time>2019-08-12T09:12:40.336Z</time>
      </trkpt>
      <trkpt lat="44.79188" lon="1.57658">
        <ele>135</ele>
        <time>2019-08-12T09:12:44.349Z</time>
      </trkpt>
      <trkpt lat="44.79191" lon="1.57649">
        <ele>131</ele>
        <time>2019-08-12T09:12:49.351Z</time>
      </trkpt>
      <trkpt lat="44.79194" lon="1.57639">
        <ele>131</ele>
        <time>2019-08-12T09:12:54.324Z</time>
      </trkpt>
      <trkpt lat="44.79197" lon="1.57633">
        <ele>131</ele>
        <time>2019-08-12T09:12:58.365Z</time>
      </trkpt>
      <trkpt lat="44.79201" lon="1.57623">
        <ele>128</ele>
        <time>2019-08-12T09:13:03.361Z</time>
      </trkpt>
      <trkpt lat="44.79204" lon="1.57615">
        <ele>128</ele>
        <time>2019-08-12T09:13:08.308Z</time>
      </trkpt>
      <trkpt lat="44.79206" lon="1.57609">
        <ele>128</ele>
        <time>2019-08-12T09:13:12.340Z</time>
      </trkpt>
      <trkpt lat="44.7921" lon="1.57602">
        <ele>134</ele>
        <time>2019-08-12T09:13:17.334Z</time>
      </trkpt>
      <trkpt lat="44.79213" lon="1.57594">
        <ele>131</ele>
        <time>2019-08-12T09:13:22.361Z</time>
      </trkpt>
      <trkpt lat="44.79217" lon="1.57588">
        <ele>131</ele>
        <time>2019-08-12T09:13:27.330Z</time>
      </trkpt>
      <trkpt lat="44.79219" lon="1.57584">
        <ele>131</ele>
        <time>2019-08-12T09:13:31.341Z</time>
      </trkpt>
      <trkpt lat="44.79221" lon="1.5758">
        <ele>131</ele>
        <time>2019-08-12T09:13:35.314Z</time>
      </trkpt>
      <trkpt lat="44.79224" lon="1.57575">
        <ele>131</ele>
        <time>2019-08-12T09:13:40.350Z</time>
      </trkpt>
      <trkpt lat="44.79229" lon="1.57567">
        <ele>129</ele>
        <time>2019-08-12T09:13:45.306Z</time>
      </trkpt>
      <trkpt lat="44.79232" lon="1.57559">
        <ele>129</ele>
        <time>2019-08-12T09:13:49.319Z</time>
      </trkpt>
      <trkpt lat="44.79236" lon="1.57553">
        <ele>129</ele>
        <time>2019-08-12T09:13:53.341Z</time>
      </trkpt>
      <trkpt lat="44.79241" lon="1.57545">
        <ele>134</ele>
        <time>2019-08-12T09:13:58.341Z</time>
      </trkpt>
      <trkpt lat="44.79244" lon="1.57541">
        <ele>130</ele>
        <time>2019-08-12T09:14:02.375Z</time>
      </trkpt>
      <trkpt lat="44.79247" lon="1.57539">
        <ele>130</ele>
        <time>2019-08-12T09:14:07.340Z</time>
      </trkpt>
      <trkpt lat="44.7925" lon="1.57536">
        <ele>130</ele>
        <time>2019-08-12T09:14:11.346Z</time>
      </trkpt>
      <trkpt lat="44.79254" lon="1.5753">
        <ele>130</ele>
        <time>2019-08-12T09:14:16.359Z</time>
      </trkpt>
      <trkpt lat="44.79257" lon="1.57528">
        <ele>130</ele>
        <time>2019-08-12T09:14:21.327Z</time>
      </trkpt>
      <trkpt lat="44.79261" lon="1.57521">
        <ele>130</ele>
        <time>2019-08-12T09:14:26.326Z</time>
      </trkpt>
      <trkpt lat="44.79264" lon="1.57514">
        <ele>125</ele>
        <time>2019-08-12T09:14:31.336Z</time>
      </trkpt>
      <trkpt lat="44.79268" lon="1.57508">
        <ele>130</ele>
        <time>2019-08-12T09:14:36.346Z</time>
      </trkpt>
      <trkpt lat="44.79272" lon="1.57502">
        <ele>130</ele>
        <time>2019-08-12T09:14:41.348Z</time>
      </trkpt>
      <trkpt lat="44.79275" lon="1.57496">
        <ele>130</ele>
        <time>2019-08-12T09:14:46.358Z</time>
      </trkpt>
      <trkpt lat="44.79278" lon="1.57491">
        <ele>130</ele>
        <time>2019-08-12T09:14:51.328Z</time>
      </trkpt>
      <trkpt lat="44.79282" lon="1.57485">
        <ele>123</ele>
        <time>2019-08-12T09:14:56.333Z</time>
      </trkpt>
      <trkpt lat="44.79287" lon="1.57482">
        <ele>123</ele>
        <time>2019-08-12T09:15:01.300Z</time>
      </trkpt>
      <trkpt lat="44.79291" lon="1.57478">
        <ele>123</ele>
        <time>2019-08-12T09:15:05.310Z</time>
      </trkpt>
      <trkpt lat="44.79294" lon="1.57474">
        <ele>129</ele>
        <time>2019-08-12T09:15:09.327Z</time>
      </trkpt>
      <trkpt lat="44.79298" lon="1.57468">
        <ele>129</ele>
        <time>2019-08-12T09:15:14.307Z</time>
      </trkpt>
      <trkpt lat="44.79302" lon="1.57462">
        <ele>129</ele>
        <time>2019-08-12T09:15:18.338Z</time>
      </trkpt>
      <trkpt lat="44.79306" lon="1.57454">
        <ele>122</ele>
        <time>2019-08-12T09:15:23.306Z</time>
      </trkpt>
      <trkpt lat="44.79311" lon="1.57445">
        <ele>122</ele>
        <time>2019-08-12T09:15:28.312Z</time>
      </trkpt>
      <trkpt lat="44.79316" lon="1.57438">
        <ele>122</ele>
        <time>2019-08-12T09:15:33.349Z</time>
      </trkpt>
      <trkpt lat="44.79319" lon="1.57427">
        <ele>116</ele>
        <time>2019-08-12T09:15:38.311Z</time>
      </trkpt>
      <trkpt lat="44.79322" lon="1.57419">
        <ele>129</ele>
        <time>2019-08-12T09:15:43.327Z</time>
      </trkpt>
      <trkpt lat="44.79324" lon="1.57412">
        <ele>129</ele>
        <time>2019-08-12T09:15:48.298Z</time>
      </trkpt>
      <trkpt lat="44.79328" lon="1.57403">
        <ele>129</ele>
        <time>2019-08-12T09:15:53.316Z</time>
      </trkpt>
      <trkpt lat="44.7933" lon="1.57399">
        <ele>125</ele>
        <time>2019-08-12T09:15:57.343Z</time>
      </trkpt>
      <trkpt lat="44.79331" lon="1.57392">
        <ele>125</ele>
        <time>2019-08-12T09:16:02.345Z</time>
      </trkpt>
      <trkpt lat="44.79333" lon="1.57383">
        <ele>125</ele>
        <time>2019-08-12T09:16:07.350Z</time>
      </trkpt>
      <trkpt lat="44.79335" lon="1.57373">
        <ele>122</ele>
        <time>2019-08-12T09:16:12.324Z</time>
      </trkpt>
      <trkpt lat="44.79337" lon="1.57367">
        <ele>122</ele>
        <time>2019-08-12T09:16:16.342Z</time>
      </trkpt>
      <trkpt lat="44.7934" lon="1.57358">
        <ele>122</ele>
        <time>2019-08-12T09:16:21.310Z</time>
      </trkpt>
      <trkpt lat="44.79344" lon="1.57352">
        <ele>122</ele>
        <time>2019-08-12T09:16:34.327Z</time>
      </trkpt>
      <trkpt lat="44.79342" lon="1.57349">
        <ele>122</ele>
        <time>2019-08-12T09:16:39.376Z</time>
      </trkpt>
      <trkpt lat="44.79347" lon="1.57342">
        <ele>120</ele>
        <time>2019-08-12T09:16:44.354Z</time>
      </trkpt>
      <trkpt lat="44.79348" lon="1.57338">
        <ele>130</ele>
        <time>2019-08-12T09:16:49.359Z</time>
      </trkpt>
      <trkpt lat="44.79351" lon="1.5733">
        <ele>130</ele>
        <time>2019-08-12T09:16:54.326Z</time>
      </trkpt>
      <trkpt lat="44.79355" lon="1.57322">
        <ele>130</ele>
        <time>2019-08-12T09:16:59.370Z</time>
      </trkpt>
      <trkpt lat="44.7936" lon="1.57315">
        <ele>127</ele>
        <time>2019-08-12T09:17:04.332Z</time>
      </trkpt>
      <trkpt lat="44.79363" lon="1.57309">
        <ele>127</ele>
        <time>2019-08-12T09:17:09.345Z</time>
      </trkpt>
      <trkpt lat="44.79364" lon="1.57308">
        <ele>127</ele>
        <time>2019-08-12T09:17:13.349Z</time>
      </trkpt>
      <trkpt lat="44.79363" lon="1.57307">
        <ele>127</ele>
        <time>2019-08-12T09:17:56.307Z</time>
      </trkpt>
      <trkpt lat="44.79363" lon="1.57307">
        <ele>127</ele>
        <time>2019-08-12T09:18:00.315Z</time>
      </trkpt>
      <trkpt lat="44.79364" lon="1.57306">
        <ele>127</ele>
        <time>2019-08-12T09:18:05.287Z</time>
      </trkpt>
      <trkpt lat="44.79364" lon="1.57304">
        <ele>127</ele>
        <time>2019-08-12T09:18:09.301Z</time>
      </trkpt>
      <trkpt lat="44.79367" lon="1.57296">
        <ele>127</ele>
        <time>2019-08-12T09:18:13.361Z</time>
      </trkpt>
      <trkpt lat="44.7937" lon="1.5729">
        <ele>123</ele>
        <time>2019-08-12T09:18:18.305Z</time>
      </trkpt>
      <trkpt lat="44.79372" lon="1.57286">
        <ele>123</ele>
        <time>2019-08-12T09:18:23.310Z</time>
      </trkpt>
      <trkpt lat="44.79373" lon="1.5728">
        <ele>123</ele>
        <time>2019-08-12T09:18:27.331Z</time>
      </trkpt>
      <trkpt lat="44.79376" lon="1.57272">
        <ele>134</ele>
        <time>2019-08-12T09:18:32.340Z</time>
      </trkpt>
      <trkpt lat="44.79379" lon="1.57265">
        <ele>134</ele>
        <time>2019-08-12T09:18:36.363Z</time>
      </trkpt>
      <trkpt lat="44.7938" lon="1.57257">
        <ele>129</ele>
        <time>2019-08-12T09:18:41.323Z</time>
      </trkpt>
      <trkpt lat="44.79381" lon="1.57254">
        <ele>129</ele>
        <time>2019-08-12T09:18:46.366Z</time>
      </trkpt>
      <trkpt lat="44.79384" lon="1.57249">
        <ele>129</ele>
        <time>2019-08-12T09:18:51.320Z</time>
      </trkpt>
      <trkpt lat="44.79387" lon="1.57241">
        <ele>129</ele>
        <time>2019-08-12T09:18:56.338Z</time>
      </trkpt>
      <trkpt lat="44.79391" lon="1.57233">
        <ele>124</ele>
        <time>2019-08-12T09:19:01.343Z</time>
      </trkpt>
      <trkpt lat="44.79396" lon="1.57225">
        <ele>124</ele>
        <time>2019-08-12T09:19:06.316Z</time>
      </trkpt>
      <trkpt lat="44.79401" lon="1.57218">
        <ele>124</ele>
        <time>2019-08-12T09:19:11.316Z</time>
      </trkpt>
      <trkpt lat="44.79406" lon="1.57212">
        <ele>133</ele>
        <time>2019-08-12T09:19:16.321Z</time>
      </trkpt>
      <trkpt lat="44.7941" lon="1.57208">
        <ele>128</ele>
        <time>2019-08-12T09:19:20.345Z</time>
      </trkpt>
      <trkpt lat="44.79415" lon="1.57204">
        <ele>128</ele>
        <time>2019-08-12T09:19:25.305Z</time>
      </trkpt>
      <trkpt lat="44.79419" lon="1.57201">
        <ele>128</ele>
        <time>2019-08-12T09:19:29.355Z</time>
      </trkpt>
      <trkpt lat="44.79424" lon="1.57194">
        <ele>128</ele>
        <time>2019-08-12T09:19:34.333Z</time>
      </trkpt>
      <trkpt lat="44.7943" lon="1.57187">
        <ele>128</ele>
        <time>2019-08-12T09:19:39.345Z</time>
      </trkpt>
      <trkpt lat="44.79434" lon="1.57181">
        <ele>134</ele>
        <time>2019-08-12T09:19:44.309Z</time>
      </trkpt>
      <trkpt lat="44.79443" lon="1.57175">
        <ele>127</ele>
        <time>2019-08-12T09:19:48.358Z</time>
      </trkpt>
      <trkpt lat="44.7945" lon="1.57169">
        <ele>127</ele>
        <time>2019-08-12T09:19:53.334Z</time>
      </trkpt>
      <trkpt lat="44.79455" lon="1.57164">
        <ele>127</ele>
        <time>2019-08-12T09:19:57.342Z</time>
      </trkpt>
      <trkpt lat="44.79461" lon="1.57161">
        <ele>136</ele>
        <time>2019-08-12T09:20:02.352Z</time>
      </trkpt>
      <trkpt lat="44.79466" lon="1.57156">
        <ele>136</ele>
        <time>2019-08-12T09:20:07.311Z</time>
      </trkpt>
      <trkpt lat="44.79467" lon="1.57149">
        <ele>128</ele>
        <time>2019-08-12T09:20:12.318Z</time>
      </trkpt>
      <trkpt lat="44.79471" lon="1.57141">
        <ele>128</ele>
        <time>2019-08-12T09:20:17.321Z</time>
      </trkpt>
      <trkpt lat="44.79474" lon="1.57135">
        <ele>128</ele>
        <time>2019-08-12T09:20:22.316Z</time>
      </trkpt>
      <trkpt lat="44.79477" lon="1.57129">
        <ele>128</ele>
        <time>2019-08-12T09:20:27.330Z</time>
      </trkpt>
      <trkpt lat="44.79481" lon="1.57122">
        <ele>122</ele>
        <time>2019-08-12T09:20:32.314Z</time>
      </trkpt>
      <trkpt lat="44.79486" lon="1.57117">
        <ele>122</ele>
        <time>2019-08-12T09:20:36.332Z</time>
      </trkpt>
      <trkpt lat="44.79489" lon="1.5711">
        <ele>129</ele>
        <time>2019-08-12T09:20:40.341Z</time>
      </trkpt>
      <trkpt lat="44.79493" lon="1.57105">
        <ele>129</ele>
        <time>2019-08-12T09:20:44.356Z</time>
      </trkpt>
      <trkpt lat="44.79499" lon="1.57098">
        <ele>129</ele>
        <time>2019-08-12T09:20:49.335Z</time>
      </trkpt>
      <trkpt lat="44.79504" lon="1.57091">
        <ele>124</ele>
        <time>2019-08-12T09:20:54.357Z</time>
      </trkpt>
      <trkpt lat="44.79507" lon="1.57084">
        <ele>124</ele>
        <time>2019-08-12T09:20:59.321Z</time>
      </trkpt>
      <trkpt lat="44.79512" lon="1.57076">
        <ele>124</ele>
        <time>2019-08-12T09:21:04.307Z</time>
      </trkpt>
      <trkpt lat="44.79516" lon="1.57071">
        <ele>134</ele>
        <time>2019-08-12T09:21:09.348Z</time>
      </trkpt>
      <trkpt lat="44.7952" lon="1.57066">
        <ele>128</ele>
        <time>2019-08-12T09:21:14.348Z</time>
      </trkpt>
      <trkpt lat="44.79525" lon="1.57059">
        <ele>128</ele>
        <time>2019-08-12T09:21:19.342Z</time>
      </trkpt>
      <trkpt lat="44.79531" lon="1.57056">
        <ele>128</ele>
        <time>2019-08-12T09:21:24.320Z</time>
      </trkpt>
      <trkpt lat="44.79534" lon="1.57052">
        <ele>128</ele>
        <time>2019-08-12T09:21:28.368Z</time>
      </trkpt>
      <trkpt lat="44.79537" lon="1.57045">
        <ele>128</ele>
        <time>2019-08-12T09:21:33.367Z</time>
      </trkpt>
      <trkpt lat="44.79544" lon="1.57038">
        <ele>134</ele>
        <time>2019-08-12T09:21:38.319Z</time>
      </trkpt>
      <trkpt lat="44.79547" lon="1.57032">
        <ele>134</ele>
        <time>2019-08-12T09:21:42.337Z</time>
      </trkpt>
      <trkpt lat="44.79551" lon="1.57026">
        <ele>134</ele>
        <time>2019-08-12T09:21:47.355Z</time>
      </trkpt>
      <trkpt lat="44.79556" lon="1.57022">
        <ele>134</ele>
        <time>2019-08-12T09:21:51.368Z</time>
      </trkpt>
      <trkpt lat="44.7956" lon="1.57017">
        <ele>134</ele>
        <time>2019-08-12T09:21:56.309Z</time>
      </trkpt>
      <trkpt lat="44.79565" lon="1.57014">
        <ele>134</ele>
        <time>2019-08-12T09:22:00.321Z</time>
      </trkpt>
      <trkpt lat="44.79569" lon="1.5701">
        <ele>128</ele>
        <time>2019-08-12T09:22:04.345Z</time>
      </trkpt>
      <trkpt lat="44.79572" lon="1.57001">
        <ele>140</ele>
        <time>2019-08-12T09:22:08.370Z</time>
      </trkpt>
      <trkpt lat="44.79577" lon="1.56994">
        <ele>140</ele>
        <time>2019-08-12T09:22:13.366Z</time>
      </trkpt>
      <trkpt lat="44.79582" lon="1.5699">
        <ele>140</ele>
        <time>2019-08-12T09:22:18.311Z</time>
      </trkpt>
      <trkpt lat="44.79584" lon="1.56986">
        <ele>140</ele>
        <time>2019-08-12T09:22:22.313Z</time>
      </trkpt>
      <trkpt lat="44.79588" lon="1.56981">
        <ele>135</ele>
        <time>2019-08-12T09:22:26.336Z</time>
      </trkpt>
      <trkpt lat="44.79593" lon="1.56974">
        <ele>135</ele>
        <time>2019-08-12T09:22:31.365Z</time>
      </trkpt>
      <trkpt lat="44.79594" lon="1.56966">
        <ele>135</ele>
        <time>2019-08-12T09:22:36.324Z</time>
      </trkpt>
      <trkpt lat="44.79593" lon="1.56956">
        <ele>132</ele>
        <time>2019-08-12T09:22:41.383Z</time>
      </trkpt>
      <trkpt lat="44.79594" lon="1.56945">
        <ele>132</ele>
        <time>2019-08-12T09:22:46.342Z</time>
      </trkpt>
      <trkpt lat="44.79594" lon="1.56938">
        <ele>132</ele>
        <time>2019-08-12T09:22:50.344Z</time>
      </trkpt>
      <trkpt lat="44.79597" lon="1.56928">
        <ele>132</ele>
        <time>2019-08-12T09:22:55.306Z</time>
      </trkpt>
      <trkpt lat="44.79599" lon="1.56922">
        <ele>145</ele>
        <time>2019-08-12T09:22:59.340Z</time>
      </trkpt>
      <trkpt lat="44.79601" lon="1.56914">
        <ele>145</ele>
        <time>2019-08-12T09:23:04.333Z</time>
      </trkpt>
      <trkpt lat="44.79604" lon="1.56906">
        <ele>145</ele>
        <time>2019-08-12T09:23:09.357Z</time>
      </trkpt>
      <trkpt lat="44.79605" lon="1.569">
        <ele>146</ele>
        <time>2019-08-12T09:23:14.338Z</time>
      </trkpt>
      <trkpt lat="44.79602" lon="1.56889">
        <ele>146</ele>
        <time>2019-08-12T09:23:19.332Z</time>
      </trkpt>
      <trkpt lat="44.79599" lon="1.56881">
        <ele>146</ele>
        <time>2019-08-12T09:23:24.301Z</time>
      </trkpt>
      <trkpt lat="44.79597" lon="1.56873">
        <ele>147</ele>
        <time>2019-08-12T09:23:28.322Z</time>
      </trkpt>
      <trkpt lat="44.79595" lon="1.56863">
        <ele>136</ele>
        <time>2019-08-12T09:23:33.321Z</time>
      </trkpt>
      <trkpt lat="44.79594" lon="1.56853">
        <ele>136</ele>
        <time>2019-08-12T09:23:38.321Z</time>
      </trkpt>
      <trkpt lat="44.79592" lon="1.56845">
        <ele>138</ele>
        <time>2019-08-12T09:23:42.317Z</time>
      </trkpt>
      <trkpt lat="44.79591" lon="1.56838">
        <ele>138</ele>
        <time>2019-08-12T09:23:46.320Z</time>
      </trkpt>
      <trkpt lat="44.79586" lon="1.56827">
        <ele>138</ele>
        <time>2019-08-12T09:23:51.372Z</time>
      </trkpt>
      <trkpt lat="44.79579" lon="1.56819">
        <ele>144</ele>
        <time>2019-08-12T09:23:56.318Z</time>
      </trkpt>
      <trkpt lat="44.79573" lon="1.56811">
        <ele>144</ele>
        <time>2019-08-12T09:24:01.329Z</time>
      </trkpt>
      <trkpt lat="44.79568" lon="1.56804">
        <ele>133</ele>
        <time>2019-08-12T09:24:06.310Z</time>
      </trkpt>
      <trkpt lat="44.79562" lon="1.56798">
        <ele>133</ele>
        <time>2019-08-12T09:24:11.332Z</time>
      </trkpt>
      <trkpt lat="44.79553" lon="1.5679">
        <ele>139</ele>
        <time>2019-08-12T09:24:30.308Z</time>
      </trkpt>
      <trkpt lat="44.79553" lon="1.5679">
        <ele>139</ele>
        <time>2019-08-12T09:24:34.317Z</time>
      </trkpt>
      <trkpt lat="44.79552" lon="1.5679">
        <ele>139</ele>
        <time>2019-08-12T09:24:38.330Z</time>
      </trkpt>
      <trkpt lat="44.79552" lon="1.56789">
        <ele>139</ele>
        <time>2019-08-12T09:24:43.333Z</time>
      </trkpt>
      <trkpt lat="44.79552" lon="1.56789">
        <ele>139</ele>
        <time>2019-08-12T09:24:48.311Z</time>
      </trkpt>
      <trkpt lat="44.79551" lon="1.56786">
        <ele>139</ele>
        <time>2019-08-12T09:24:52.323Z</time>
      </trkpt>
      <trkpt lat="44.79547" lon="1.56779">
        <ele>139</ele>
        <time>2019-08-12T09:24:56.330Z</time>
      </trkpt>
      <trkpt lat="44.79545" lon="1.56775">
        <ele>139</ele>
        <time>2019-08-12T09:25:01.328Z</time>
      </trkpt>
      <trkpt lat="44.79541" lon="1.5677">
        <ele>129</ele>
        <time>2019-08-12T09:25:06.344Z</time>
      </trkpt>
      <trkpt lat="44.79537" lon="1.56765">
        <ele>129</ele>
        <time>2019-08-12T09:25:11.348Z</time>
      </trkpt>
      <trkpt lat="44.79532" lon="1.56759">
        <ele>134</ele>
        <time>2019-08-12T09:25:16.336Z</time>
      </trkpt>
      <trkpt lat="44.79528" lon="1.56755">
        <ele>134</ele>
        <time>2019-08-12T09:25:21.315Z</time>
      </trkpt>
      <trkpt lat="44.79525" lon="1.56752">
        <ele>134</ele>
        <time>2019-08-12T09:25:25.340Z</time>
      </trkpt>
      <trkpt lat="44.79523" lon="1.5675">
        <ele>134</ele>
        <time>2019-08-12T09:25:30.300Z</time>
      </trkpt>
      <trkpt lat="44.79519" lon="1.56747">
        <ele>134</ele>
        <time>2019-08-12T09:25:34.313Z</time>
      </trkpt>
      <trkpt lat="44.79515" lon="1.56743">
        <ele>134</ele>
        <time>2019-08-12T09:25:39.356Z</time>
      </trkpt>
      <trkpt lat="44.79511" lon="1.56738">
        <ele>125</ele>
        <time>2019-08-12T09:25:44.297Z</time>
      </trkpt>
      <trkpt lat="44.79506" lon="1.56732">
        <ele>130</ele>
        <time>2019-08-12T09:25:49.323Z</time>
      </trkpt>
      <trkpt lat="44.79503" lon="1.56727">
        <ele>130</ele>
        <time>2019-08-12T09:25:53.376Z</time>
      </trkpt>
      <trkpt lat="44.79499" lon="1.56722">
        <ele>130</ele>
        <time>2019-08-12T09:25:58.301Z</time>
      </trkpt>
      <trkpt lat="44.79497" lon="1.56718">
        <ele>130</ele>
        <time>2019-08-12T09:26:02.306Z</time>
      </trkpt>
      <trkpt lat="44.79494" lon="1.56714">
        <ele>130</ele>
        <time>2019-08-12T09:26:06.309Z</time>
      </trkpt>
      <trkpt lat="44.7949" lon="1.56708">
        <ele>132</ele>
        <time>2019-08-12T09:26:10.308Z</time>
      </trkpt>
      <trkpt lat="44.79486" lon="1.56705">
        <ele>124</ele>
        <time>2019-08-12T09:26:15.312Z</time>
      </trkpt>
      <trkpt lat="44.79484" lon="1.56703">
        <ele>124</ele>
        <time>2019-08-12T09:26:19.360Z</time>
      </trkpt>
      <trkpt lat="44.79479" lon="1.56698">
        <ele>124</ele>
        <time>2019-08-12T09:26:24.304Z</time>
      </trkpt>
      <trkpt lat="44.79475" lon="1.5669">
        <ele>124</ele>
        <time>2019-08-12T09:26:29.363Z</time>
      </trkpt>
      <trkpt lat="44.79472" lon="1.56683">
        <ele>124</ele>
        <time>2019-08-12T09:26:34.307Z</time>
      </trkpt>
      <trkpt lat="44.7947" lon="1.56677">
        <ele>125</ele>
        <time>2019-08-12T09:26:39.330Z</time>
      </trkpt>
      <trkpt lat="44.79467" lon="1.56672">
        <ele>125</ele>
        <time>2019-08-12T09:26:44.298Z</time>
      </trkpt>
      <trkpt lat="44.79467" lon="1.56664">
        <ele>125</ele>
        <time>2019-08-12T09:26:49.348Z</time>
      </trkpt>
      <trkpt lat="44.79467" lon="1.56657">
        <ele>125</ele>
        <time>2019-08-12T09:26:54.299Z</time>
      </trkpt>
      <trkpt lat="44.79467" lon="1.5665">
        <ele>124</ele>
        <time>2019-08-12T09:26:59.339Z</time>
      </trkpt>
      <trkpt lat="44.79468" lon="1.56642">
        <ele>124</ele>
        <time>2019-08-12T09:27:04.324Z</time>
      </trkpt>
      <trkpt lat="44.79469" lon="1.56635">
        <ele>124</ele>
        <time>2019-08-12T09:27:09.355Z</time>
      </trkpt>
      <trkpt lat="44.79469" lon="1.56627">
        <ele>124</ele>
        <time>2019-08-12T09:27:14.309Z</time>
      </trkpt>
      <trkpt lat="44.79473" lon="1.5662">
        <ele>121</ele>
        <time>2019-08-12T09:27:19.336Z</time>
      </trkpt>
      <trkpt lat="44.79473" lon="1.56613">
        <ele>121</ele>
        <time>2019-08-12T09:27:23.350Z</time>
      </trkpt>
      <trkpt lat="44.79476" lon="1.56606">
        <ele>121</ele>
        <time>2019-08-12T09:27:28.305Z</time>
      </trkpt>
      <trkpt lat="44.79479" lon="1.56602">
        <ele>121</ele>
        <time>2019-08-12T09:27:33.308Z</time>
      </trkpt>
      <trkpt lat="44.7948" lon="1.56601">
        <ele>121</ele>
        <time>2019-08-12T09:27:38.289Z</time>
      </trkpt>
      <trkpt lat="44.79482" lon="1.56597">
        <ele>121</ele>
        <time>2019-08-12T09:27:43.331Z</time>
      </trkpt>
      <trkpt lat="44.79484" lon="1.56594">
        <ele>119</ele>
        <time>2019-08-12T09:27:48.310Z</time>
      </trkpt>
      <trkpt lat="44.79489" lon="1.56588">
        <ele>120</ele>
        <time>2019-08-12T09:27:53.344Z</time>
      </trkpt>
      <trkpt lat="44.79494" lon="1.56585">
        <ele>120</ele>
        <time>2019-08-12T09:27:58.307Z</time>
      </trkpt>
      <trkpt lat="44.79498" lon="1.56582">
        <ele>120</ele>
        <time>2019-08-12T09:28:02.318Z</time>
      </trkpt>
      <trkpt lat="44.79502" lon="1.56577">
        <ele>120</ele>
        <time>2019-08-12T09:28:06.302Z</time>
      </trkpt>
      <trkpt lat="44.79506" lon="1.56575">
        <ele>120</ele>
        <time>2019-08-12T09:28:11.333Z</time>
      </trkpt>
      <trkpt lat="44.79506" lon="1.56575">
        <ele>120</ele>
        <time>2019-08-12T09:28:16.300Z</time>
      </trkpt>
      <trkpt lat="44.7951" lon="1.56572">
        <ele>120</ele>
        <time>2019-08-12T09:28:21.313Z</time>
      </trkpt>
      <trkpt lat="44.79511" lon="1.56571">
        <ele>120</ele>
        <time>2019-08-12T09:28:25.342Z</time>
      </trkpt>
      <trkpt lat="44.79515" lon="1.56564">
        <ele>118</ele>
        <time>2019-08-12T09:28:30.301Z</time>
      </trkpt>
      <trkpt lat="44.79523" lon="1.56555">
        <ele>118</ele>
        <time>2019-08-12T09:28:35.309Z</time>
      </trkpt>
      <trkpt lat="44.79527" lon="1.56551">
        <ele>118</ele>
        <time>2019-08-12T09:28:39.337Z</time>
      </trkpt>
      <trkpt lat="44.79536" lon="1.5655">
        <ele>118</ele>
        <time>2019-08-12T09:28:44.326Z</time>
      </trkpt>
      <trkpt lat="44.79542" lon="1.56547">
        <ele>123</ele>
        <time>2019-08-12T09:28:49.326Z</time>
      </trkpt>
      <trkpt lat="44.79549" lon="1.56542">
        <ele>116</ele>
        <time>2019-08-12T09:28:54.311Z</time>
      </trkpt>
      <trkpt lat="44.79552" lon="1.5653">
        <ele>116</ele>
        <time>2019-08-12T09:28:59.326Z</time>
      </trkpt>
      <trkpt lat="44.79556" lon="1.56524">
        <ele>116</ele>
        <time>2019-08-12T09:29:03.366Z</time>
      </trkpt>
      <trkpt lat="44.7956" lon="1.56518">
        <ele>116</ele>
        <time>2019-08-12T09:29:08.303Z</time>
      </trkpt>
      <trkpt lat="44.79568" lon="1.5651">
        <ele>112</ele>
        <time>2019-08-12T09:29:13.321Z</time>
      </trkpt>
      <trkpt lat="44.79572" lon="1.56501">
        <ele>119</ele>
        <time>2019-08-12T09:29:17.334Z</time>
      </trkpt>
      <trkpt lat="44.79576" lon="1.56496">
        <ele>119</ele>
        <time>2019-08-12T09:29:22.310Z</time>
      </trkpt>
      <trkpt lat="44.79578" lon="1.56493">
        <ele>119</ele>
        <time>2019-08-12T09:29:26.312Z</time>
      </trkpt>
      <trkpt lat="44.7958" lon="1.56492">
        <ele>119</ele>
        <time>2019-08-12T09:29:31.328Z</time>
      </trkpt>
      <trkpt lat="44.79585" lon="1.56491">
        <ele>119</ele>
        <time>2019-08-12T09:29:55.326Z</time>
      </trkpt>
      <trkpt lat="44.79585" lon="1.56492">
        <ele>119</ele>
        <time>2019-08-12T09:30:00.307Z</time>
      </trkpt>
      <trkpt lat="44.79585" lon="1.56492">
        <ele>119</ele>
        <time>2019-08-12T09:30:05.356Z</time>
      </trkpt>
      <trkpt lat="44.79586" lon="1.56489">
        <ele>119</ele>
        <time>2019-08-12T09:30:10.326Z</time>
      </trkpt>
      <trkpt lat="44.79589" lon="1.56482">
        <ele>113</ele>
        <time>2019-08-12T09:30:15.373Z</time>
      </trkpt>
      <trkpt lat="44.79595" lon="1.56468">
        <ele>113</ele>
        <time>2019-08-12T09:30:20.302Z</time>
      </trkpt>
      <trkpt lat="44.79597" lon="1.56459">
        <ele>113</ele>
        <time>2019-08-12T09:30:24.317Z</time>
      </trkpt>
      <trkpt lat="44.79601" lon="1.56453">
        <ele>117</ele>
        <time>2019-08-12T09:30:29.335Z</time>
      </trkpt>
      <trkpt lat="44.79607" lon="1.56448">
        <ele>117</ele>
        <time>2019-08-12T09:30:34.310Z</time>
      </trkpt>
      <trkpt lat="44.79611" lon="1.56442">
        <ele>117</ele>
        <time>2019-08-12T09:30:38.320Z</time>
      </trkpt>
      <trkpt lat="44.79615" lon="1.56436">
        <ele>117</ele>
        <time>2019-08-12T09:30:43.332Z</time>
      </trkpt>
      <trkpt lat="44.79621" lon="1.56431">
        <ele>117</ele>
        <time>2019-08-12T09:30:48.324Z</time>
      </trkpt>
      <trkpt lat="44.79627" lon="1.56429">
        <ele>117</ele>
        <time>2019-08-12T09:30:53.370Z</time>
      </trkpt>
      <trkpt lat="44.79632" lon="1.56425">
        <ele>117</ele>
        <time>2019-08-12T09:30:58.299Z</time>
      </trkpt>
      <trkpt lat="44.79638" lon="1.56419">
        <ele>117</ele>
        <time>2019-08-12T09:31:03.312Z</time>
      </trkpt>
      <trkpt lat="44.79644" lon="1.56415">
        <ele>117</ele>
        <time>2019-08-12T09:31:08.311Z</time>
      </trkpt>
      <trkpt lat="44.79652" lon="1.5641">
        <ele>117</ele>
        <time>2019-08-12T09:31:13.305Z</time>
      </trkpt>
      <trkpt lat="44.79657" lon="1.56407">
        <ele>122</ele>
        <time>2019-08-12T09:31:17.331Z</time>
      </trkpt>
      <trkpt lat="44.79661" lon="1.56403">
        <ele>115</ele>
        <time>2019-08-12T09:31:21.342Z</time>
      </trkpt>
      <trkpt lat="44.79666" lon="1.56398">
        <ele>115</ele>
        <time>2019-08-12T09:31:26.335Z</time>
      </trkpt>
      <trkpt lat="44.7967" lon="1.56389">
        <ele>115</ele>
        <time>2019-08-12T09:31:31.334Z</time>
      </trkpt>
      <trkpt lat="44.79674" lon="1.56382">
        <ele>115</ele>
        <time>2019-08-12T09:31:35.344Z</time>
      </trkpt>
      <trkpt lat="44.79677" lon="1.56376">
        <ele>115</ele>
        <time>2019-08-12T09:31:39.389Z</time>
      </trkpt>
      <trkpt lat="44.79682" lon="1.56369">
        <ele>118</ele>
        <time>2019-08-12T09:31:44.332Z</time>
      </trkpt>
      <trkpt lat="44.79685" lon="1.56357">
        <ele>118</ele>
        <time>2019-08-12T09:31:49.344Z</time>
      </trkpt>
      <trkpt lat="44.79691" lon="1.56348">
        <ele>118</ele>
        <time>2019-08-12T09:31:54.313Z</time>
      </trkpt>
      <trkpt lat="44.79697" lon="1.56341">
        <ele>115</ele>
        <time>2019-08-12T09:31:59.324Z</time>
      </trkpt>
      <trkpt lat="44.79703" lon="1.56333">
        <ele>115</ele>
        <time>2019-08-12T09:32:04.320Z</time>
      </trkpt>
      <trkpt lat="44.79707" lon="1.56328">
        <ele>115</ele>
        <time>2019-08-12T09:32:08.314Z</time>
      </trkpt>
      <trkpt lat="44.7971" lon="1.56325">
        <ele>120</ele>
        <time>2019-08-12T09:32:18.305Z</time>
      </trkpt>
      <trkpt lat="44.79711" lon="1.56324">
        <ele>120</ele>
        <time>2019-08-12T09:32:23.325Z</time>
      </trkpt>
      <trkpt lat="44.79713" lon="1.56321">
        <ele>120</ele>
        <time>2019-08-12T09:32:28.304Z</time>
      </trkpt>
      <trkpt lat="44.79714" lon="1.56319">
        <ele>116</ele>
        <time>2019-08-12T09:32:32.363Z</time>
      </trkpt>
      <trkpt lat="44.79717" lon="1.56315">
        <ele>116</ele>
        <time>2019-08-12T09:32:37.312Z</time>
      </trkpt>
      <trkpt lat="44.79724" lon="1.56313">
        <ele>116</ele>
        <time>2019-08-12T09:33:29.309Z</time>
      </trkpt>
      <trkpt lat="44.79726" lon="1.56314">
        <ele>116</ele>
        <time>2019-08-12T09:33:33.357Z</time>
      </trkpt>
      <trkpt lat="44.79727" lon="1.56313">
        <ele>116</ele>
        <time>2019-08-12T09:33:38.322Z</time>
      </trkpt>
      <trkpt lat="44.79728" lon="1.56308">
        <ele>116</ele>
        <time>2019-08-12T09:33:42.346Z</time>
      </trkpt>
      <trkpt lat="44.79728" lon="1.56299">
        <ele>116</ele>
        <time>2019-08-12T09:33:47.318Z</time>
      </trkpt>
      <trkpt lat="44.79727" lon="1.56293">
        <ele>116</ele>
        <time>2019-08-12T09:33:52.307Z</time>
      </trkpt>
      <trkpt lat="44.7973" lon="1.56286">
        <ele>113</ele>
        <time>2019-08-12T09:33:56.330Z</time>
      </trkpt>
      <trkpt lat="44.79733" lon="1.56279">
        <ele>113</ele>
        <time>2019-08-12T09:34:00.347Z</time>
      </trkpt>
      <trkpt lat="44.79737" lon="1.56271">
        <ele>117</ele>
        <time>2019-08-12T09:34:05.337Z</time>
      </trkpt>
      <trkpt lat="44.79741" lon="1.56265">
        <ele>117</ele>
        <time>2019-08-12T09:34:13.378Z</time>
      </trkpt>
      <trkpt lat="44.79741" lon="1.56264">
        <ele>115</ele>
        <time>2019-08-12T09:34:18.311Z</time>
      </trkpt>
      <trkpt lat="44.79742" lon="1.56262">
        <ele>115</ele>
        <time>2019-08-12T09:34:23.311Z</time>
      </trkpt>
      <trkpt lat="44.79742" lon="1.56256">
        <ele>115</ele>
        <time>2019-08-12T09:34:27.343Z</time>
      </trkpt>
      <trkpt lat="44.79745" lon="1.56251">
        <ele>115</ele>
        <time>2019-08-12T09:34:32.303Z</time>
      </trkpt>
      <trkpt lat="44.79749" lon="1.56244">
        <ele>115</ele>
        <time>2019-08-12T09:34:46.334Z</time>
      </trkpt>
      <trkpt lat="44.79749" lon="1.56243">
        <ele>115</ele>
        <time>2019-08-12T09:34:50.336Z</time>
      </trkpt>
      <trkpt lat="44.79751" lon="1.56238">
        <ele>115</ele>
        <time>2019-08-12T09:34:55.323Z</time>
      </trkpt>
      <trkpt lat="44.79754" lon="1.56233">
        <ele>112</ele>
        <time>2019-08-12T09:34:59.361Z</time>
      </trkpt>
      <trkpt lat="44.79757" lon="1.5623">
        <ele>112</ele>
        <time>2019-08-12T09:35:04.324Z</time>
      </trkpt>
      <trkpt lat="44.79759" lon="1.56226">
        <ele>112</ele>
        <time>2019-08-12T09:35:09.322Z</time>
      </trkpt>
      <trkpt lat="44.79759" lon="1.56226">
        <ele>112</ele>
        <time>2019-08-12T09:35:13.348Z</time>
      </trkpt>
      <trkpt lat="44.79759" lon="1.56223">
        <ele>112</ele>
        <time>2019-08-12T09:35:18.325Z</time>
      </trkpt>
      <trkpt lat="44.79762" lon="1.56217">
        <ele>112</ele>
        <time>2019-08-12T09:35:22.322Z</time>
      </trkpt>
      <trkpt lat="44.79765" lon="1.5621">
        <ele>118</ele>
        <time>2019-08-12T09:35:27.345Z</time>
      </trkpt>
      <trkpt lat="44.79767" lon="1.56201">
        <ele>114</ele>
        <time>2019-08-12T09:35:32.315Z</time>
      </trkpt>
      <trkpt lat="44.79772" lon="1.56195">
        <ele>114</ele>
        <time>2019-08-12T09:35:37.335Z</time>
      </trkpt>
      <trkpt lat="44.79777" lon="1.56191">
        <ele>114</ele>
        <time>2019-08-12T09:35:42.302Z</time>
      </trkpt>
      <trkpt lat="44.79782" lon="1.56184">
        <ele>114</ele>
        <time>2019-08-12T09:35:46.305Z</time>
      </trkpt>
      <trkpt lat="44.79785" lon="1.56178">
        <ele>112</ele>
        <time>2019-08-12T09:35:50.333Z</time>
      </trkpt>
      <trkpt lat="44.79791" lon="1.56169">
        <ele>112</ele>
        <time>2019-08-12T09:35:55.348Z</time>
      </trkpt>
      <trkpt lat="44.79794" lon="1.56161">
        <ele>119</ele>
        <time>2019-08-12T09:36:00.323Z</time>
      </trkpt>
      <trkpt lat="44.79799" lon="1.56155">
        <ele>119</ele>
        <time>2019-08-12T09:36:05.370Z</time>
      </trkpt>
      <trkpt lat="44.79802" lon="1.56146">
        <ele>113</ele>
        <time>2019-08-12T09:36:10.304Z</time>
      </trkpt>
      <trkpt lat="44.79805" lon="1.5614">
        <ele>113</ele>
        <time>2019-08-12T09:36:14.312Z</time>
      </trkpt>
      <trkpt lat="44.7981" lon="1.56134">
        <ele>113</ele>
        <time>2019-08-12T09:36:19.354Z</time>
      </trkpt>
      <trkpt lat="44.79815" lon="1.56128">
        <ele>113</ele>
        <time>2019-08-12T09:36:24.309Z</time>
      </trkpt>
      <trkpt lat="44.7982" lon="1.56125">
        <ele>110</ele>
        <time>2019-08-12T09:36:29.336Z</time>
      </trkpt>
      <trkpt lat="44.79825" lon="1.56124">
        <ele>110</ele>
        <time>2019-08-12T09:36:34.346Z</time>
      </trkpt>
      <trkpt lat="44.79833" lon="1.56121">
        <ele>110</ele>
        <time>2019-08-12T09:36:39.360Z</time>
      </trkpt>
      <trkpt lat="44.79837" lon="1.56115">
        <ele>110</ele>
        <time>2019-08-12T09:36:44.323Z</time>
      </trkpt>
      <trkpt lat="44.79844" lon="1.56108">
        <ele>110</ele>
        <time>2019-08-12T09:36:49.318Z</time>
      </trkpt>
      <trkpt lat="44.79848" lon="1.56103">
        <ele>112</ele>
        <time>2019-08-12T09:36:54.303Z</time>
      </trkpt>
      <trkpt lat="44.79851" lon="1.56097">
        <ele>112</ele>
        <time>2019-08-12T09:36:58.380Z</time>
      </trkpt>
      <trkpt lat="44.79857" lon="1.56093">
        <ele>111</ele>
        <time>2019-08-12T09:37:03.330Z</time>
      </trkpt>
      <trkpt lat="44.7986" lon="1.56085">
        <ele>111</ele>
        <time>2019-08-12T09:37:07.346Z</time>
      </trkpt>
      <trkpt lat="44.79866" lon="1.56079">
        <ele>111</ele>
        <time>2019-08-12T09:37:12.366Z</time>
      </trkpt>
      <trkpt lat="44.79873" lon="1.5607">
        <ele>111</ele>
        <time>2019-08-12T09:37:17.313Z</time>
      </trkpt>
      <trkpt lat="44.79878" lon="1.56062">
        <ele>110</ele>
        <time>2019-08-12T09:37:21.332Z</time>
      </trkpt>
      <trkpt lat="44.79883" lon="1.56052">
        <ele>110</ele>
        <time>2019-08-12T09:37:26.356Z</time>
      </trkpt>
      <trkpt lat="44.79888" lon="1.56046">
        <ele>110</ele>
        <time>2019-08-12T09:37:31.364Z</time>
      </trkpt>
      <trkpt lat="44.79893" lon="1.56042">
        <ele>109</ele>
        <time>2019-08-12T09:37:36.348Z</time>
      </trkpt>
      <trkpt lat="44.79896" lon="1.56037">
        <ele>109</ele>
        <time>2019-08-12T09:37:40.430Z</time>
      </trkpt>
      <trkpt lat="44.79901" lon="1.5603">
        <ele>109</ele>
        <time>2019-08-12T09:37:45.337Z</time>
      </trkpt>
      <trkpt lat="44.79906" lon="1.56027">
        <ele>107</ele>
        <time>2019-08-12T09:37:50.345Z</time>
      </trkpt>
      <trkpt lat="44.79912" lon="1.56024">
        <ele>107</ele>
        <time>2019-08-12T09:37:55.336Z</time>
      </trkpt>
      <trkpt lat="44.79918" lon="1.56029">
        <ele>107</ele>
        <time>2019-08-12T09:38:00.342Z</time>
      </trkpt>
      <trkpt lat="44.79924" lon="1.56038">
        <ele>107</ele>
        <time>2019-08-12T09:38:05.332Z</time>
      </trkpt>
      <trkpt lat="44.79927" lon="1.56045">
        <ele>109</ele>
        <time>2019-08-12T09:38:09.366Z</time>
      </trkpt>
      <trkpt lat="44.7993" lon="1.56055">
        <ele>109</ele>
        <time>2019-08-12T09:38:14.371Z</time>
      </trkpt>
      <trkpt lat="44.79931" lon="1.56057">
        <ele>108</ele>
        <time>2019-08-12T09:38:15.293Z</time>
      </trkpt>
      <trkpt lat="44.79937" lon="1.56065">
        <ele>108</ele>
        <time>2019-08-12T09:38:20.288Z</time>
      </trkpt>
      <trkpt lat="44.79941" lon="1.56072">
        <ele>110</ele>
        <time>2019-08-12T09:38:24.294Z</time>
      </trkpt>
      <trkpt lat="44.79945" lon="1.56079">
        <ele>110</ele>
        <time>2019-08-12T09:38:28.444Z</time>
      </trkpt>
      <trkpt lat="44.79951" lon="1.56087">
        <ele>110</ele>
        <time>2019-08-12T09:38:33.314Z</time>
      </trkpt>
      <trkpt lat="44.79959" lon="1.56094">
        <ele>110</ele>
        <time>2019-08-12T09:38:38.302Z</time>
      </trkpt>
      <trkpt lat="44.79971" lon="1.56093">
        <ele>110</ele>
        <time>2019-08-12T09:38:43.353Z</time>
      </trkpt>
      <trkpt lat="44.79979" lon="1.56084">
        <ele>110</ele>
        <time>2019-08-12T09:38:48.327Z</time>
      </trkpt>
      <trkpt lat="44.79984" lon="1.56077">
        <ele>110</ele>
        <time>2019-08-12T09:38:53.334Z</time>
      </trkpt>
      <trkpt lat="44.79987" lon="1.56071">
        <ele>112</ele>
        <time>2019-08-12T09:38:57.334Z</time>
      </trkpt>
      <trkpt lat="44.79991" lon="1.56066">
        <ele>111</ele>
        <time>2019-08-12T09:39:01.345Z</time>
      </trkpt>
      <trkpt lat="44.79995" lon="1.56058">
        <ele>111</ele>
        <time>2019-08-12T09:39:06.331Z</time>
      </trkpt>
      <trkpt lat="44.79998" lon="1.56051">
        <ele>111</ele>
        <time>2019-08-12T09:39:10.334Z</time>
      </trkpt>
      <trkpt lat="44.8" lon="1.56044">
        <ele>111</ele>
        <time>2019-08-12T09:39:15.317Z</time>
      </trkpt>
      <trkpt lat="44.80004" lon="1.56035">
        <ele>109</ele>
        <time>2019-08-12T09:39:19.340Z</time>
      </trkpt>
      <trkpt lat="44.80008" lon="1.56025">
        <ele>109</ele>
        <time>2019-08-12T09:39:24.325Z</time>
      </trkpt>
      <trkpt lat="44.80014" lon="1.5602">
        <ele>109</ele>
        <time>2019-08-12T09:39:29.316Z</time>
      </trkpt>
      <trkpt lat="44.8002" lon="1.56018">
        <ele>112</ele>
        <time>2019-08-12T09:39:33.347Z</time>
      </trkpt>
      <trkpt lat="44.80026" lon="1.56016">
        <ele>112</ele>
        <time>2019-08-12T09:39:37.365Z</time>
      </trkpt>
      <trkpt lat="44.80031" lon="1.56014">
        <ele>112</ele>
        <time>2019-08-12T09:39:42.330Z</time>
      </trkpt>
      <trkpt lat="44.80032" lon="1.56014">
        <ele>110</ele>
        <time>2019-08-12T09:39:47.353Z</time>
      </trkpt>
      <trkpt lat="44.80032" lon="1.56013">
        <ele>110</ele>
        <time>2019-08-12T09:39:52.335Z</time>
      </trkpt>
      <trkpt lat="44.80036" lon="1.56011">
        <ele>110</ele>
        <time>2019-08-12T09:39:56.315Z</time>
      </trkpt>
      <trkpt lat="44.80041" lon="1.56007">
        <ele>110</ele>
        <time>2019-08-12T09:40:00.342Z</time>
      </trkpt>
      <trkpt lat="44.80046" lon="1.56001">
        <ele>114</ele>
        <time>2019-08-12T09:40:05.360Z</time>
      </trkpt>
      <trkpt lat="44.80051" lon="1.55997">
        <ele>114</ele>
        <time>2019-08-12T09:40:10.383Z</time>
      </trkpt>
      <trkpt lat="44.80057" lon="1.55991">
        <ele>114</ele>
        <time>2019-08-12T09:40:15.320Z</time>
      </trkpt>
      <trkpt lat="44.80065" lon="1.55987">
        <ele>114</ele>
        <time>2019-08-12T09:40:20.324Z</time>
      </trkpt>
      <trkpt lat="44.80071" lon="1.55987">
        <ele>117</ele>
        <time>2019-08-12T09:40:24.312Z</time>
      </trkpt>
      <trkpt lat="44.80077" lon="1.55986">
        <ele>114</ele>
        <time>2019-08-12T09:40:28.321Z</time>
      </trkpt>
      <trkpt lat="44.80085" lon="1.55985">
        <ele>114</ele>
        <time>2019-08-12T09:40:33.303Z</time>
      </trkpt>
      <trkpt lat="44.8009" lon="1.55981">
        <ele>114</ele>
        <time>2019-08-12T09:40:37.320Z</time>
      </trkpt>
      <trkpt lat="44.801" lon="1.55975">
        <ele>116</ele>
        <time>2019-08-12T09:40:42.337Z</time>
      </trkpt>
      <trkpt lat="44.80109" lon="1.55969">
        <ele>116</ele>
        <time>2019-08-12T09:40:47.317Z</time>
      </trkpt>
      <trkpt lat="44.80116" lon="1.55965">
        <ele>116</ele>
        <time>2019-08-12T09:40:52.330Z</time>
      </trkpt>
      <trkpt lat="44.8012" lon="1.55961">
        <ele>116</ele>
        <time>2019-08-12T09:40:56.315Z</time>
      </trkpt>
      <trkpt lat="44.80128" lon="1.55957">
        <ele>114</ele>
        <time>2019-08-12T09:41:01.313Z</time>
      </trkpt>
      <trkpt lat="44.80134" lon="1.55953">
        <ele>114</ele>
        <time>2019-08-12T09:41:06.299Z</time>
      </trkpt>
      <trkpt lat="44.80139" lon="1.55949">
        <ele>114</ele>
        <time>2019-08-12T09:41:10.321Z</time>
      </trkpt>
      <trkpt lat="44.8015" lon="1.55941">
        <ele>114</ele>
        <time>2019-08-12T09:41:15.328Z</time>
      </trkpt>
      <trkpt lat="44.80156" lon="1.55935">
        <ele>121</ele>
        <time>2019-08-12T09:41:20.312Z</time>
      </trkpt>
      <trkpt lat="44.80162" lon="1.55931">
        <ele>121</ele>
        <time>2019-08-12T09:41:24.319Z</time>
      </trkpt>
      <trkpt lat="44.8017" lon="1.55927">
        <ele>115</ele>
        <time>2019-08-12T09:41:29.307Z</time>
      </trkpt>
      <trkpt lat="44.80177" lon="1.55923">
        <ele>115</ele>
        <time>2019-08-12T09:41:34.331Z</time>
      </trkpt>
      <trkpt lat="44.80187" lon="1.5592">
        <ele>121</ele>
        <time>2019-08-12T09:41:39.310Z</time>
      </trkpt>
      <trkpt lat="44.80193" lon="1.55916">
        <ele>121</ele>
        <time>2019-08-12T09:41:43.317Z</time>
      </trkpt>
      <trkpt lat="44.80199" lon="1.55911">
        <ele>121</ele>
        <time>2019-08-12T09:41:48.312Z</time>
      </trkpt>
      <trkpt lat="44.80205" lon="1.55905">
        <ele>121</ele>
        <time>2019-08-12T09:41:53.341Z</time>
      </trkpt>
      <trkpt lat="44.80211" lon="1.55899">
        <ele>117</ele>
        <time>2019-08-12T09:41:58.319Z</time>
      </trkpt>
      <trkpt lat="44.80216" lon="1.55892">
        <ele>117</ele>
        <time>2019-08-12T09:42:03.324Z</time>
      </trkpt>
      <trkpt lat="44.80221" lon="1.55887">
        <ele>117</ele>
        <time>2019-08-12T09:42:07.336Z</time>
      </trkpt>
      <trkpt lat="44.80228" lon="1.55882">
        <ele>117</ele>
        <time>2019-08-12T09:42:11.343Z</time>
      </trkpt>
      <trkpt lat="44.80234" lon="1.55875">
        <ele>110</ele>
        <time>2019-08-12T09:42:16.302Z</time>
      </trkpt>
      <trkpt lat="44.8024" lon="1.55872">
        <ele>115</ele>
        <time>2019-08-12T09:42:20.336Z</time>
      </trkpt>
      <trkpt lat="44.80246" lon="1.55866">
        <ele>115</ele>
        <time>2019-08-12T09:42:25.317Z</time>
      </trkpt>
      <trkpt lat="44.80253" lon="1.55861">
        <ele>115</ele>
        <time>2019-08-12T09:42:30.312Z</time>
      </trkpt>
      <trkpt lat="44.8026" lon="1.55857">
        <ele>115</ele>
        <time>2019-08-12T09:42:34.340Z</time>
      </trkpt>
      <trkpt lat="44.80266" lon="1.55853">
        <ele>123</ele>
        <time>2019-08-12T09:42:39.320Z</time>
      </trkpt>
      <trkpt lat="44.8027" lon="1.55847">
        <ele>116</ele>
        <time>2019-08-12T09:42:43.331Z</time>
      </trkpt>
      <trkpt lat="44.80274" lon="1.55843">
        <ele>116</ele>
        <time>2019-08-12T09:42:48.333Z</time>
      </trkpt>
      <trkpt lat="44.8028" lon="1.5584">
        <ele>116</ele>
        <time>2019-08-12T09:42:53.316Z</time>
      </trkpt>
      <trkpt lat="44.80288" lon="1.55835">
        <ele>116</ele>
        <time>2019-08-12T09:42:57.304Z</time>
      </trkpt>
      <trkpt lat="44.80297" lon="1.5583">
        <ele>120</ele>
        <time>2019-08-12T09:43:02.319Z</time>
      </trkpt>
      <trkpt lat="44.80302" lon="1.55824">
        <ele>120</ele>
        <time>2019-08-12T09:43:06.376Z</time>
      </trkpt>
      <trkpt lat="44.80309" lon="1.55821">
        <ele>120</ele>
        <time>2019-08-12T09:43:10.350Z</time>
      </trkpt>
      <trkpt lat="44.80316" lon="1.55816">
        <ele>113</ele>
        <time>2019-08-12T09:43:15.355Z</time>
      </trkpt>
      <trkpt lat="44.80325" lon="1.55811">
        <ele>117</ele>
        <time>2019-08-12T09:43:20.325Z</time>
      </trkpt>
      <trkpt lat="44.8033" lon="1.55807">
        <ele>117</ele>
        <time>2019-08-12T09:43:24.338Z</time>
      </trkpt>
      <trkpt lat="44.80338" lon="1.55803">
        <ele>117</ele>
        <time>2019-08-12T09:43:29.325Z</time>
      </trkpt>
      <trkpt lat="44.80343" lon="1.558">
        <ele>117</ele>
        <time>2019-08-12T09:43:39.322Z</time>
      </trkpt>
      <trkpt lat="44.80343" lon="1.558">
        <ele>117</ele>
        <time>2019-08-12T09:43:44.311Z</time>
      </trkpt>
      <trkpt lat="44.80343" lon="1.558">
        <ele>117</ele>
        <time>2019-08-12T09:43:48.318Z</time>
      </trkpt>
      <trkpt lat="44.80347" lon="1.55797">
        <ele>117</ele>
        <time>2019-08-12T09:43:53.314Z</time>
      </trkpt>
      <trkpt lat="44.80353" lon="1.55793">
        <ele>120</ele>
        <time>2019-08-12T09:43:57.353Z</time>
      </trkpt>
      <trkpt lat="44.80361" lon="1.55783">
        <ele>113</ele>
        <time>2019-08-12T09:44:02.326Z</time>
      </trkpt>
      <trkpt lat="44.80376" lon="1.55771">
        <ele>114</ele>
        <time>2019-08-12T09:44:07.323Z</time>
      </trkpt>
      <trkpt lat="44.80382" lon="1.55765">
        <ele>114</ele>
        <time>2019-08-12T09:44:11.344Z</time>
      </trkpt>
      <trkpt lat="44.8039" lon="1.55759">
        <ele>110</ele>
        <time>2019-08-12T09:44:16.335Z</time>
      </trkpt>
      <trkpt lat="44.80394" lon="1.55754">
        <ele>110</ele>
        <time>2019-08-12T09:44:21.335Z</time>
      </trkpt>
      <trkpt lat="44.80399" lon="1.55746">
        <ele>110</ele>
        <time>2019-08-12T09:44:25.341Z</time>
      </trkpt>
      <trkpt lat="44.804" lon="1.55745">
        <ele>110</ele>
        <time>2019-08-12T09:44:30.347Z</time>
      </trkpt>
      <trkpt lat="44.80402" lon="1.55742">
        <ele>110</ele>
        <time>2019-08-12T09:44:35.345Z</time>
      </trkpt>
      <trkpt lat="44.80405" lon="1.55737">
        <ele>110</ele>
        <time>2019-08-12T09:44:39.350Z</time>
      </trkpt>
      <trkpt lat="44.80409" lon="1.55727">
        <ele>108</ele>
        <time>2019-08-12T09:44:44.358Z</time>
      </trkpt>
      <trkpt lat="44.8041" lon="1.55717">
        <ele>108</ele>
        <time>2019-08-12T09:44:49.322Z</time>
      </trkpt>
      <trkpt lat="44.80411" lon="1.55705">
        <ele>108</ele>
        <time>2019-08-12T09:44:54.299Z</time>
      </trkpt>
      <trkpt lat="44.80412" lon="1.55695">
        <ele>108</ele>
        <time>2019-08-12T09:44:59.314Z</time>
      </trkpt>
      <trkpt lat="44.80412" lon="1.55686">
        <ele>108</ele>
        <time>2019-08-12T09:45:04.312Z</time>
      </trkpt>
      <trkpt lat="44.80412" lon="1.55677">
        <ele>111</ele>
        <time>2019-08-12T09:45:08.340Z</time>
      </trkpt>
      <trkpt lat="44.80411" lon="1.55665">
        <ele>111</ele>
        <time>2019-08-12T09:45:13.335Z</time>
      </trkpt>
      <trkpt lat="44.80413" lon="1.55655">
        <ele>111</ele>
        <time>2019-08-12T09:45:18.306Z</time>
      </trkpt>
      <trkpt lat="44.80414" lon="1.55646">
        <ele>117</ele>
        <time>2019-08-12T09:45:23.321Z</time>
      </trkpt>
      <trkpt lat="44.80414" lon="1.5564">
        <ele>117</ele>
        <time>2019-08-12T09:45:28.311Z</time>
      </trkpt>
      <trkpt lat="44.80411" lon="1.55632">
        <ele>117</ele>
        <time>2019-08-12T09:45:33.317Z</time>
      </trkpt>
      <trkpt lat="44.80404" lon="1.55628">
        <ele>117</ele>
        <time>2019-08-12T09:45:38.322Z</time>
      </trkpt>
      <trkpt lat="44.80396" lon="1.55626">
        <ele>118</ele>
        <time>2019-08-12T09:45:43.322Z</time>
      </trkpt>
      <trkpt lat="44.80389" lon="1.55627">
        <ele>118</ele>
        <time>2019-08-12T09:45:48.308Z</time>
      </trkpt>
      <trkpt lat="44.80379" lon="1.55626">
        <ele>118</ele>
        <time>2019-08-12T09:45:52.341Z</time>
      </trkpt>
      <trkpt lat="44.8037" lon="1.55627">
        <ele>120</ele>
        <time>2019-08-12T09:45:57.333Z</time>
      </trkpt>
      <trkpt lat="44.80363" lon="1.55628">
        <ele>120</ele>
        <time>2019-08-12T09:46:02.310Z</time>
      </trkpt>
      <trkpt lat="44.80356" lon="1.55629">
        <ele>120</ele>
        <time>2019-08-12T09:46:06.347Z</time>
      </trkpt>
      <trkpt lat="44.80347" lon="1.55629">
        <ele>120</ele>
        <time>2019-08-12T09:46:11.295Z</time>
      </trkpt>
      <trkpt lat="44.80341" lon="1.55631">
        <ele>122</ele>
        <time>2019-08-12T09:46:15.307Z</time>
      </trkpt>
      <trkpt lat="44.80333" lon="1.55631">
        <ele>122</ele>
        <time>2019-08-12T09:46:20.300Z</time>
      </trkpt>
      <trkpt lat="44.80327" lon="1.55634">
        <ele>122</ele>
        <time>2019-08-12T09:46:24.326Z</time>
      </trkpt>
      <trkpt lat="44.80321" lon="1.55635">
        <ele>122</ele>
        <time>2019-08-12T09:46:28.329Z</time>
      </trkpt>
      <trkpt lat="44.80314" lon="1.55635">
        <ele>120</ele>
        <time>2019-08-12T09:46:33.342Z</time>
      </trkpt>
      <trkpt lat="44.80307" lon="1.55634">
        <ele>120</ele>
        <time>2019-08-12T09:46:38.357Z</time>
      </trkpt>
      <trkpt lat="44.80299" lon="1.55634">
        <ele>120</ele>
        <time>2019-08-12T09:46:43.316Z</time>
      </trkpt>
      <trkpt lat="44.80292" lon="1.55634">
        <ele>120</ele>
        <time>2019-08-12T09:46:48.313Z</time>
      </trkpt>
      <trkpt lat="44.80284" lon="1.55636">
        <ele>121</ele>
        <time>2019-08-12T09:46:53.319Z</time>
      </trkpt>
      <trkpt lat="44.80279" lon="1.55636">
        <ele>121</ele>
        <time>2019-08-12T09:46:57.299Z</time>
      </trkpt>
      <trkpt lat="44.80271" lon="1.55636">
        <ele>121</ele>
        <time>2019-08-12T09:47:02.332Z</time>
      </trkpt>
      <trkpt lat="44.80264" lon="1.55634">
        <ele>121</ele>
        <time>2019-08-12T09:47:07.347Z</time>
      </trkpt>
      <trkpt lat="44.80257" lon="1.55634">
        <ele>123</ele>
        <time>2019-08-12T09:47:12.307Z</time>
      </trkpt>
      <trkpt lat="44.80252" lon="1.55634">
        <ele>123</ele>
        <time>2019-08-12T09:47:16.338Z</time>
      </trkpt>
      <trkpt lat="44.80245" lon="1.55636">
        <ele>123</ele>
        <time>2019-08-12T09:47:21.356Z</time>
      </trkpt>
      <trkpt lat="44.80238" lon="1.55638">
        <ele>123</ele>
        <time>2019-08-12T09:47:26.310Z</time>
      </trkpt>
      <trkpt lat="44.80232" lon="1.55638">
        <ele>126</ele>
        <time>2019-08-12T09:47:30.317Z</time>
      </trkpt>
      <trkpt lat="44.80227" lon="1.55639">
        <ele>126</ele>
        <time>2019-08-12T09:47:34.330Z</time>
      </trkpt>
      <trkpt lat="44.80219" lon="1.5564">
        <ele>126</ele>
        <time>2019-08-12T09:47:39.337Z</time>
      </trkpt>
      <trkpt lat="44.80212" lon="1.55642">
        <ele>126</ele>
        <time>2019-08-12T09:47:44.360Z</time>
      </trkpt>
      <trkpt lat="44.80205" lon="1.55647">
        <ele>131</ele>
        <time>2019-08-12T09:47:49.360Z</time>
      </trkpt>
      <trkpt lat="44.80197" lon="1.5565">
        <ele>131</ele>
        <time>2019-08-12T09:47:54.317Z</time>
      </trkpt>
      <trkpt lat="44.80191" lon="1.55652">
        <ele>131</ele>
        <time>2019-08-12T09:47:58.336Z</time>
      </trkpt>
      <trkpt lat="44.80184" lon="1.55657">
        <ele>125</ele>
        <time>2019-08-12T09:48:03.331Z</time>
      </trkpt>
      <trkpt lat="44.80177" lon="1.55659">
        <ele>130</ele>
        <time>2019-08-12T09:48:08.334Z</time>
      </trkpt>
      <trkpt lat="44.80169" lon="1.55663">
        <ele>130</ele>
        <time>2019-08-12T09:48:13.326Z</time>
      </trkpt>
      <trkpt lat="44.80163" lon="1.55666">
        <ele>130</ele>
        <time>2019-08-12T09:48:17.329Z</time>
      </trkpt>
      <trkpt lat="44.80156" lon="1.55669">
        <ele>130</ele>
        <time>2019-08-12T09:48:22.339Z</time>
      </trkpt>
      <trkpt lat="44.80149" lon="1.55671">
        <ele>135</ele>
        <time>2019-08-12T09:48:27.335Z</time>
      </trkpt>
      <trkpt lat="44.80144" lon="1.55674">
        <ele>135</ele>
        <time>2019-08-12T09:48:31.331Z</time>
      </trkpt>
      <trkpt lat="44.80138" lon="1.5568">
        <ele>135</ele>
        <time>2019-08-12T09:48:36.340Z</time>
      </trkpt>
      <trkpt lat="44.80132" lon="1.55687">
        <ele>129</ele>
        <time>2019-08-12T09:48:41.349Z</time>
      </trkpt>
      <trkpt lat="44.80127" lon="1.55696">
        <ele>129</ele>
        <time>2019-08-12T09:48:46.333Z</time>
      </trkpt>
      <trkpt lat="44.80122" lon="1.55704">
        <ele>134</ele>
        <time>2019-08-12T09:48:50.344Z</time>
      </trkpt>
      <trkpt lat="44.80116" lon="1.55713">
        <ele>127</ele>
        <time>2019-08-12T09:48:55.313Z</time>
      </trkpt>
      <trkpt lat="44.8011" lon="1.55722">
        <ele>127</ele>
        <time>2019-08-12T09:49:00.318Z</time>
      </trkpt>
      <trkpt lat="44.80104" lon="1.55727">
        <ele>127</ele>
        <time>2019-08-12T09:49:05.338Z</time>
      </trkpt>
      <trkpt lat="44.80097" lon="1.55731">
        <ele>127</ele>
        <time>2019-08-12T09:49:10.352Z</time>
      </trkpt>
      <trkpt lat="44.8009" lon="1.55734">
        <ele>128</ele>
        <time>2019-08-12T09:49:15.366Z</time>
      </trkpt>
      <trkpt lat="44.80083" lon="1.55733">
        <ele>128</ele>
        <time>2019-08-12T09:49:20.320Z</time>
      </trkpt>
      <trkpt lat="44.80077" lon="1.55731">
        <ele>128</ele>
        <time>2019-08-12T09:49:24.348Z</time>
      </trkpt>
      <trkpt lat="44.8007" lon="1.55728">
        <ele>128</ele>
        <time>2019-08-12T09:49:29.324Z</time>
      </trkpt>
      <trkpt lat="44.80064" lon="1.55726">
        <ele>130</ele>
        <time>2019-08-12T09:49:33.334Z</time>
      </trkpt>
      <trkpt lat="44.80056" lon="1.55724">
        <ele>130</ele>
        <time>2019-08-12T09:49:38.344Z</time>
      </trkpt>
      <trkpt lat="44.8005" lon="1.55721">
        <ele>130</ele>
        <time>2019-08-12T09:49:42.337Z</time>
      </trkpt>
      <trkpt lat="44.80045" lon="1.55719">
        <ele>130</ele>
        <time>2019-08-12T09:49:46.351Z</time>
      </trkpt>
      <trkpt lat="44.80039" lon="1.55715">
        <ele>132</ele>
        <time>2019-08-12T09:49:51.336Z</time>
      </trkpt>
      <trkpt lat="44.80033" lon="1.55714">
        <ele>132</ele>
        <time>2019-08-12T09:49:55.331Z</time>
      </trkpt>
      <trkpt lat="44.80026" lon="1.55711">
        <ele>132</ele>
        <time>2019-08-12T09:50:00.361Z</time>
      </trkpt>
      <trkpt lat="44.8002" lon="1.55705">
        <ele>137</ele>
        <time>2019-08-12T09:50:04.337Z</time>
      </trkpt>
      <trkpt lat="44.80012" lon="1.55698">
        <ele>136</ele>
        <time>2019-08-12T09:50:09.331Z</time>
      </trkpt>
      <trkpt lat="44.80005" lon="1.55692">
        <ele>136</ele>
        <time>2019-08-12T09:50:14.336Z</time>
      </trkpt>
      <trkpt lat="44.79999" lon="1.55689">
        <ele>136</ele>
        <time>2019-08-12T09:50:19.340Z</time>
      </trkpt>
      <trkpt lat="44.79992" lon="1.55688">
        <ele>136</ele>
        <time>2019-08-12T09:50:24.318Z</time>
      </trkpt>
      <trkpt lat="44.79987" lon="1.5569">
        <ele>136</ele>
        <time>2019-08-12T09:50:28.355Z</time>
      </trkpt>
      <trkpt lat="44.7998" lon="1.55699">
        <ele>136</ele>
        <time>2019-08-12T09:50:33.331Z</time>
      </trkpt>
      <trkpt lat="44.79973" lon="1.55705">
        <ele>136</ele>
        <time>2019-08-12T09:50:38.336Z</time>
      </trkpt>
      <trkpt lat="44.79969" lon="1.55704">
        <ele>136</ele>
        <time>2019-08-12T09:50:42.345Z</time>
      </trkpt>
      <trkpt lat="44.79964" lon="1.55696">
        <ele>136</ele>
        <time>2019-08-12T09:50:47.339Z</time>
      </trkpt>
      <trkpt lat="44.79961" lon="1.55691">
        <ele>136</ele>
        <time>2019-08-12T09:50:52.307Z</time>
      </trkpt>
      <trkpt lat="44.7996" lon="1.55688">
        <ele>136</ele>
        <time>2019-08-12T09:50:56.341Z</time>
      </trkpt>
      <trkpt lat="44.79958" lon="1.55681">
        <ele>139</ele>
        <time>2019-08-12T09:51:01.356Z</time>
      </trkpt>
      <trkpt lat="44.79956" lon="1.55674">
        <ele>141</ele>
        <time>2019-08-12T09:51:05.326Z</time>
      </trkpt>
      <trkpt lat="44.79949" lon="1.55663">
        <ele>141</ele>
        <time>2019-08-12T09:51:10.322Z</time>
      </trkpt>
      <trkpt lat="44.7994" lon="1.55658">
        <ele>141</ele>
        <time>2019-08-12T09:51:15.343Z</time>
      </trkpt>
      <trkpt lat="44.79935" lon="1.55656">
        <ele>141</ele>
        <time>2019-08-12T09:51:20.339Z</time>
      </trkpt>
      <trkpt lat="44.79931" lon="1.55655">
        <ele>146</ele>
        <time>2019-08-12T09:51:25.339Z</time>
      </trkpt>
      <trkpt lat="44.79926" lon="1.5565">
        <ele>148</ele>
        <time>2019-08-12T09:51:30.341Z</time>
      </trkpt>
      <trkpt lat="44.79921" lon="1.55647">
        <ele>148</ele>
        <time>2019-08-12T09:51:35.317Z</time>
      </trkpt>
      <trkpt lat="44.79917" lon="1.55647">
        <ele>148</ele>
        <time>2019-08-12T09:51:39.332Z</time>
      </trkpt>
      <trkpt lat="44.79911" lon="1.55645">
        <ele>148</ele>
        <time>2019-08-12T09:51:44.339Z</time>
      </trkpt>
      <trkpt lat="44.79906" lon="1.55642">
        <ele>148</ele>
        <time>2019-08-12T09:51:48.338Z</time>
      </trkpt>
      <trkpt lat="44.79898" lon="1.55635">
        <ele>152</ele>
        <time>2019-08-12T09:51:53.337Z</time>
      </trkpt>
      <trkpt lat="44.79893" lon="1.5563">
        <ele>152</ele>
        <time>2019-08-12T09:51:57.369Z</time>
      </trkpt>
      <trkpt lat="44.79885" lon="1.55625">
        <ele>151</ele>
        <time>2019-08-12T09:52:02.347Z</time>
      </trkpt>
      <trkpt lat="44.7988" lon="1.55622">
        <ele>151</ele>
        <time>2019-08-12T09:52:07.346Z</time>
      </trkpt>
      <trkpt lat="44.79874" lon="1.5562">
        <ele>153</ele>
        <time>2019-08-12T09:52:12.332Z</time>
      </trkpt>
      <trkpt lat="44.79869" lon="1.55616">
        <ele>153</ele>
        <time>2019-08-12T09:52:17.352Z</time>
      </trkpt>
      <trkpt lat="44.79865" lon="1.55612">
        <ele>153</ele>
        <time>2019-08-12T09:52:22.353Z</time>
      </trkpt>
      <trkpt lat="44.79859" lon="1.55605">
        <ele>153</ele>
        <time>2019-08-12T09:52:27.343Z</time>
      </trkpt>
      <trkpt lat="44.79855" lon="1.55601">
        <ele>153</ele>
        <time>2019-08-12T09:52:32.340Z</time>
      </trkpt>
      <trkpt lat="44.7985" lon="1.55597">
        <ele>153</ele>
        <time>2019-08-12T09:52:37.344Z</time>
      </trkpt>
      <trkpt lat="44.79844" lon="1.55591">
        <ele>153</ele>
        <time>2019-08-12T09:52:42.339Z</time>
      </trkpt>
      <trkpt lat="44.79838" lon="1.55586">
        <ele>153</ele>
        <time>2019-08-12T09:52:47.347Z</time>
      </trkpt>
      <trkpt lat="44.79834" lon="1.55583">
        <ele>153</ele>
        <time>2019-08-12T09:52:52.348Z</time>
      </trkpt>
      <trkpt lat="44.79828" lon="1.55577">
        <ele>153</ele>
        <time>2019-08-12T09:52:57.341Z</time>
      </trkpt>
      <trkpt lat="44.79822" lon="1.55571">
        <ele>153</ele>
        <time>2019-08-12T09:53:01.334Z</time>
      </trkpt>
      <trkpt lat="44.79817" lon="1.55566">
        <ele>158</ele>
        <time>2019-08-12T09:53:06.336Z</time>
      </trkpt>
      <trkpt lat="44.7981" lon="1.55559">
        <ele>158</ele>
        <time>2019-08-12T09:53:11.338Z</time>
      </trkpt>
      <trkpt lat="44.79806" lon="1.55555">
        <ele>158</ele>
        <time>2019-08-12T09:53:16.325Z</time>
      </trkpt>
      <trkpt lat="44.79801" lon="1.5555">
        <ele>158</ele>
        <time>2019-08-12T09:53:21.314Z</time>
      </trkpt>
      <trkpt lat="44.79798" lon="1.55547">
        <ele>158</ele>
        <time>2019-08-12T09:53:25.321Z</time>
      </trkpt>
      <trkpt lat="44.79792" lon="1.55541">
        <ele>162</ele>
        <time>2019-08-12T09:53:30.347Z</time>
      </trkpt>
      <trkpt lat="44.79786" lon="1.55532">
        <ele>163</ele>
        <time>2019-08-12T09:53:35.348Z</time>
      </trkpt>
      <trkpt lat="44.79784" lon="1.5553">
        <ele>163</ele>
        <time>2019-08-12T09:53:40.327Z</time>
      </trkpt>
      <trkpt lat="44.79782" lon="1.55528">
        <ele>163</ele>
        <time>2019-08-12T09:53:44.351Z</time>
      </trkpt>
      <trkpt lat="44.79774" lon="1.5552">
        <ele>163</ele>
        <time>2019-08-12T09:53:49.341Z</time>
      </trkpt>
      <trkpt lat="44.79772" lon="1.55518">
        <ele>163</ele>
        <time>2019-08-12T09:53:54.306Z</time>
      </trkpt>
      <trkpt lat="44.79767" lon="1.55513">
        <ele>167</ele>
        <time>2019-08-12T09:53:58.317Z</time>
      </trkpt>
      <trkpt lat="44.79762" lon="1.55509">
        <ele>165</ele>
        <time>2019-08-12T09:54:02.341Z</time>
      </trkpt>
      <trkpt lat="44.79758" lon="1.55503">
        <ele>165</ele>
        <time>2019-08-12T09:54:07.339Z</time>
      </trkpt>
      <trkpt lat="44.79752" lon="1.55495">
        <ele>165</ele>
        <time>2019-08-12T09:54:11.336Z</time>
      </trkpt>
      <trkpt lat="44.79746" lon="1.55488">
        <ele>165</ele>
        <time>2019-08-12T09:54:15.364Z</time>
      </trkpt>
      <trkpt lat="44.7974" lon="1.5548">
        <ele>167</ele>
        <time>2019-08-12T09:54:20.324Z</time>
      </trkpt>
      <trkpt lat="44.79736" lon="1.55474">
        <ele>166</ele>
        <time>2019-08-12T09:54:24.350Z</time>
      </trkpt>
      <trkpt lat="44.79731" lon="1.55467">
        <ele>166</ele>
        <time>2019-08-12T09:54:29.303Z</time>
      </trkpt>
      <trkpt lat="44.79727" lon="1.55462">
        <ele>166</ele>
        <time>2019-08-12T09:54:33.347Z</time>
      </trkpt>
      <trkpt lat="44.79724" lon="1.55457">
        <ele>167</ele>
        <time>2019-08-12T09:54:38.356Z</time>
      </trkpt>
      <trkpt lat="44.7972" lon="1.55448">
        <ele>167</ele>
        <time>2019-08-12T09:54:43.345Z</time>
      </trkpt>
      <trkpt lat="44.79717" lon="1.55439">
        <ele>167</ele>
        <time>2019-08-12T09:54:48.319Z</time>
      </trkpt>
      <trkpt lat="44.79714" lon="1.55431">
        <ele>167</ele>
        <time>2019-08-12T09:54:53.320Z</time>
      </trkpt>
      <trkpt lat="44.79712" lon="1.55423">
        <ele>171</ele>
        <time>2019-08-12T09:54:58.338Z</time>
      </trkpt>
      <trkpt lat="44.7971" lon="1.55414">
        <ele>171</ele>
        <time>2019-08-12T09:55:03.350Z</time>
      </trkpt>
      <trkpt lat="44.79708" lon="1.55404">
        <ele>170</ele>
        <time>2019-08-12T09:55:08.334Z</time>
      </trkpt>
      <trkpt lat="44.79706" lon="1.55394">
        <ele>172</ele>
        <time>2019-08-12T09:55:13.314Z</time>
      </trkpt>
      <trkpt lat="44.79706" lon="1.55385">
        <ele>172</ele>
        <time>2019-08-12T09:55:18.326Z</time>
      </trkpt>
      <trkpt lat="44.79707" lon="1.55379">
        <ele>172</ele>
        <time>2019-08-12T09:55:22.347Z</time>
      </trkpt>
      <trkpt lat="44.79707" lon="1.5537">
        <ele>175</ele>
        <time>2019-08-12T09:55:27.316Z</time>
      </trkpt>
      <trkpt lat="44.79706" lon="1.55362">
        <ele>175</ele>
        <time>2019-08-12T09:55:31.351Z</time>
      </trkpt>
      <trkpt lat="44.79704" lon="1.5535">
        <ele>175</ele>
        <time>2019-08-12T09:55:36.347Z</time>
      </trkpt>
      <trkpt lat="44.79704" lon="1.55341">
        <ele>178</ele>
        <time>2019-08-12T09:55:41.332Z</time>
      </trkpt>
      <trkpt lat="44.79704" lon="1.55334">
        <ele>178</ele>
        <time>2019-08-12T09:55:45.339Z</time>
      </trkpt>
      <trkpt lat="44.79704" lon="1.55323">
        <ele>178</ele>
        <time>2019-08-12T09:55:50.313Z</time>
      </trkpt>
      <trkpt lat="44.79704" lon="1.55315">
        <ele>180</ele>
        <time>2019-08-12T09:55:54.341Z</time>
      </trkpt>
      <trkpt lat="44.79704" lon="1.55307">
        <ele>180</ele>
        <time>2019-08-12T09:55:58.343Z</time>
      </trkpt>
      <trkpt lat="44.79705" lon="1.55298">
        <ele>180</ele>
        <time>2019-08-12T09:56:03.318Z</time>
      </trkpt>
      <trkpt lat="44.79704" lon="1.5529">
        <ele>182</ele>
        <time>2019-08-12T09:56:07.336Z</time>
      </trkpt>
      <trkpt lat="44.79706" lon="1.55281">
        <ele>182</ele>
        <time>2019-08-12T09:56:12.340Z</time>
      </trkpt>
      <trkpt lat="44.79705" lon="1.5527">
        <ele>182</ele>
        <time>2019-08-12T09:56:17.321Z</time>
      </trkpt>
      <trkpt lat="44.79707" lon="1.55261">
        <ele>184</ele>
        <time>2019-08-12T09:56:22.322Z</time>
      </trkpt>
      <trkpt lat="44.79709" lon="1.55251">
        <ele>187</ele>
        <time>2019-08-12T09:56:27.306Z</time>
      </trkpt>
      <trkpt lat="44.79711" lon="1.55244">
        <ele>187</ele>
        <time>2019-08-12T09:56:31.312Z</time>
      </trkpt>
      <trkpt lat="44.79712" lon="1.55233">
        <ele>188</ele>
        <time>2019-08-12T09:56:36.308Z</time>
      </trkpt>
      <trkpt lat="44.79714" lon="1.55226">
        <ele>188</ele>
        <time>2019-08-12T09:56:41.301Z</time>
      </trkpt>
      <trkpt lat="44.79714" lon="1.55222">
        <ele>188</ele>
        <time>2019-08-12T09:56:45.325Z</time>
      </trkpt>
      <trkpt lat="44.79718" lon="1.55215">
        <ele>188</ele>
        <time>2019-08-12T09:56:50.321Z</time>
      </trkpt>
      <trkpt lat="44.79721" lon="1.55209">
        <ele>188</ele>
        <time>2019-08-12T09:56:54.323Z</time>
      </trkpt>
      <trkpt lat="44.79724" lon="1.55198">
        <ele>188</ele>
        <time>2019-08-12T09:56:59.322Z</time>
      </trkpt>
      <trkpt lat="44.79727" lon="1.55189">
        <ele>188</ele>
        <time>2019-08-12T09:57:04.317Z</time>
      </trkpt>
      <trkpt lat="44.79729" lon="1.55183">
        <ele>188</ele>
        <time>2019-08-12T09:57:08.315Z</time>
      </trkpt>
      <trkpt lat="44.7973" lon="1.55171">
        <ele>188</ele>
        <time>2019-08-12T09:57:13.328Z</time>
      </trkpt>
      <trkpt lat="44.79734" lon="1.55165">
        <ele>188</ele>
        <time>2019-08-12T09:57:18.318Z</time>
      </trkpt>
      <trkpt lat="44.79737" lon="1.55159">
        <ele>194</ele>
        <time>2019-08-12T09:57:22.324Z</time>
      </trkpt>
      <trkpt lat="44.79741" lon="1.55152">
        <ele>193</ele>
        <time>2019-08-12T09:57:27.317Z</time>
      </trkpt>
      <trkpt lat="44.79743" lon="1.55144">
        <ele>193</ele>
        <time>2019-08-12T09:57:31.312Z</time>
      </trkpt>
      <trkpt lat="44.79747" lon="1.55138">
        <ele>193</ele>
        <time>2019-08-12T09:57:35.324Z</time>
      </trkpt>
      <trkpt lat="44.7975" lon="1.55131">
        <ele>193</ele>
        <time>2019-08-12T09:57:40.322Z</time>
      </trkpt>
      <trkpt lat="44.79753" lon="1.55125">
        <ele>193</ele>
        <time>2019-08-12T09:57:44.307Z</time>
      </trkpt>
      <trkpt lat="44.79755" lon="1.55115">
        <ele>195</ele>
        <time>2019-08-12T09:57:49.317Z</time>
      </trkpt>
      <trkpt lat="44.79757" lon="1.55106">
        <ele>195</ele>
        <time>2019-08-12T09:57:54.319Z</time>
      </trkpt>
      <trkpt lat="44.7976" lon="1.55099">
        <ele>195</ele>
        <time>2019-08-12T09:57:58.326Z</time>
      </trkpt>
      <trkpt lat="44.79763" lon="1.55092">
        <ele>199</ele>
        <time>2019-08-12T09:58:03.319Z</time>
      </trkpt>
      <trkpt lat="44.79766" lon="1.55082">
        <ele>203</ele>
        <time>2019-08-12T09:58:08.312Z</time>
      </trkpt>
      <trkpt lat="44.79769" lon="1.55076">
        <ele>203</ele>
        <time>2019-08-12T09:58:13.317Z</time>
      </trkpt>
      <trkpt lat="44.79773" lon="1.5507">
        <ele>203</ele>
        <time>2019-08-12T09:58:18.320Z</time>
      </trkpt>
      <trkpt lat="44.79775" lon="1.55063">
        <ele>203</ele>
        <time>2019-08-12T09:58:23.312Z</time>
      </trkpt>
      <trkpt lat="44.79776" lon="1.55056">
        <ele>203</ele>
        <time>2019-08-12T09:58:28.315Z</time>
      </trkpt>
      <trkpt lat="44.79778" lon="1.55048">
        <ele>203</ele>
        <time>2019-08-12T09:58:32.312Z</time>
      </trkpt>
      <trkpt lat="44.79782" lon="1.5504">
        <ele>204</ele>
        <time>2019-08-12T09:58:37.324Z</time>
      </trkpt>
      <trkpt lat="44.79785" lon="1.55032">
        <ele>204</ele>
        <time>2019-08-12T09:58:42.304Z</time>
      </trkpt>
      <trkpt lat="44.79789" lon="1.55024">
        <ele>204</ele>
        <time>2019-08-12T09:58:47.311Z</time>
      </trkpt>
      <trkpt lat="44.79791" lon="1.55015">
        <ele>204</ele>
        <time>2019-08-12T09:58:51.323Z</time>
      </trkpt>
      <trkpt lat="44.79794" lon="1.55009">
        <ele>209</ele>
        <time>2019-08-12T09:58:55.316Z</time>
      </trkpt>
      <trkpt lat="44.79796" lon="1.55003">
        <ele>209</ele>
        <time>2019-08-12T09:59:00.343Z</time>
      </trkpt>
      <trkpt lat="44.79797" lon="1.54995">
        <ele>209</ele>
        <time>2019-08-12T09:59:05.344Z</time>
      </trkpt>
      <trkpt lat="44.79797" lon="1.54989">
        <ele>209</ele>
        <time>2019-08-12T09:59:10.336Z</time>
      </trkpt>
      <trkpt lat="44.79798" lon="1.54984">
        <ele>209</ele>
        <time>2019-08-12T09:59:15.387Z</time>
      </trkpt>
      <trkpt lat="44.79796" lon="1.54967">
        <ele>209</ele>
        <time>2019-08-12T09:59:20.317Z</time>
      </trkpt>
      <trkpt lat="44.79791" lon="1.54951">
        <ele>213</ele>
        <time>2019-08-12T09:59:24.346Z</time>
      </trkpt>
      <trkpt lat="44.79785" lon="1.54938">
        <ele>213</ele>
        <time>2019-08-12T09:59:29.312Z</time>
      </trkpt>
      <trkpt lat="44.79781" lon="1.54934">
        <ele>213</ele>
        <time>2019-08-12T09:59:33.336Z</time>
      </trkpt>
      <trkpt lat="44.79778" lon="1.5493">
        <ele>217</ele>
        <time>2019-08-12T09:59:38.340Z</time>
      </trkpt>
      <trkpt lat="44.79773" lon="1.54923">
        <ele>217</ele>
        <time>2019-08-12T09:59:43.317Z</time>
      </trkpt>
      <trkpt lat="44.79769" lon="1.54917">
        <ele>217</ele>
        <time>2019-08-12T09:59:47.337Z</time>
      </trkpt>
      <trkpt lat="44.79763" lon="1.5491">
        <ele>224</ele>
        <time>2019-08-12T09:59:52.348Z</time>
      </trkpt>
      <trkpt lat="44.79759" lon="1.54904">
        <ele>224</ele>
        <time>2019-08-12T09:59:56.295Z</time>
      </trkpt>
      <trkpt lat="44.79756" lon="1.549">
        <ele>225</ele>
        <time>2019-08-12T10:00:00.295Z</time>
      </trkpt>
      <trkpt lat="44.79752" lon="1.54897">
        <ele>225</ele>
        <time>2019-08-12T10:00:05.305Z</time>
      </trkpt>
      <trkpt lat="44.7975" lon="1.54892">
        <ele>225</ele>
        <time>2019-08-12T10:00:09.300Z</time>
      </trkpt>
      <trkpt lat="44.79748" lon="1.54889">
        <ele>225</ele>
        <time>2019-08-12T10:00:14.334Z</time>
      </trkpt>
      <trkpt lat="44.79747" lon="1.54888">
        <ele>225</ele>
        <time>2019-08-12T10:00:19.320Z</time>
      </trkpt>
      <trkpt lat="44.79745" lon="1.54882">
        <ele>225</ele>
        <time>2019-08-12T10:00:23.346Z</time>
      </trkpt>
      <trkpt lat="44.7974" lon="1.54875">
        <ele>227</ele>
        <time>2019-08-12T10:00:28.324Z</time>
      </trkpt>
      <trkpt lat="44.79737" lon="1.54868">
        <ele>227</ele>
        <time>2019-08-12T10:00:33.342Z</time>
      </trkpt>
      <trkpt lat="44.79732" lon="1.5486">
        <ele>230</ele>
        <time>2019-08-12T10:00:38.349Z</time>
      </trkpt>
      <trkpt lat="44.79728" lon="1.54853">
        <ele>230</ele>
        <time>2019-08-12T10:00:42.351Z</time>
      </trkpt>
      <trkpt lat="44.79726" lon="1.54847">
        <ele>232</ele>
        <time>2019-08-12T10:00:47.333Z</time>
      </trkpt>
      <trkpt lat="44.79723" lon="1.54839">
        <ele>232</ele>
        <time>2019-08-12T10:00:52.336Z</time>
      </trkpt>
      <trkpt lat="44.7972" lon="1.54831">
        <ele>232</ele>
        <time>2019-08-12T10:00:57.327Z</time>
      </trkpt>
      <trkpt lat="44.79716" lon="1.54825">
        <ele>232</ele>
        <time>2019-08-12T10:01:02.337Z</time>
      </trkpt>
      <trkpt lat="44.79712" lon="1.54818">
        <ele>235</ele>
        <time>2019-08-12T10:01:07.299Z</time>
      </trkpt>
      <trkpt lat="44.7971" lon="1.54814">
        <ele>235</ele>
        <time>2019-08-12T10:01:11.340Z</time>
      </trkpt>
      <trkpt lat="44.79708" lon="1.5481">
        <ele>237</ele>
        <time>2019-08-12T10:01:15.349Z</time>
      </trkpt>
      <trkpt lat="44.79707" lon="1.54805">
        <ele>237</ele>
        <time>2019-08-12T10:01:20.318Z</time>
      </trkpt>
      <trkpt lat="44.79706" lon="1.54797">
        <ele>237</ele>
        <time>2019-08-12T10:01:24.344Z</time>
      </trkpt>
      <trkpt lat="44.79705" lon="1.54787">
        <ele>238</ele>
        <time>2019-08-12T10:01:29.339Z</time>
      </trkpt>
      <trkpt lat="44.79705" lon="1.54779">
        <ele>238</ele>
        <time>2019-08-12T10:01:34.349Z</time>
      </trkpt>
      <trkpt lat="44.79706" lon="1.54771">
        <ele>238</ele>
        <time>2019-08-12T10:01:39.336Z</time>
      </trkpt>
      <trkpt lat="44.79706" lon="1.54765">
        <ele>238</ele>
        <time>2019-08-12T10:01:43.307Z</time>
      </trkpt>
      <trkpt lat="44.79706" lon="1.54759">
        <ele>239</ele>
        <time>2019-08-12T10:01:47.349Z</time>
      </trkpt>
      <trkpt lat="44.79707" lon="1.54753">
        <ele>239</ele>
        <time>2019-08-12T10:01:52.340Z</time>
      </trkpt>
      <trkpt lat="44.79707" lon="1.54746">
        <ele>239</ele>
        <time>2019-08-12T10:01:57.330Z</time>
      </trkpt>
      <trkpt lat="44.79706" lon="1.5474">
        <ele>239</ele>
        <time>2019-08-12T10:02:01.348Z</time>
      </trkpt>
      <trkpt lat="44.79706" lon="1.54733">
        <ele>242</ele>
        <time>2019-08-12T10:02:06.335Z</time>
      </trkpt>
      <trkpt lat="44.79706" lon="1.54722">
        <ele>242</ele>
        <time>2019-08-12T10:02:11.337Z</time>
      </trkpt>
      <trkpt lat="44.79706" lon="1.54712">
        <ele>242</ele>
        <time>2019-08-12T10:02:16.319Z</time>
      </trkpt>
      <trkpt lat="44.79706" lon="1.54703">
        <ele>246</ele>
        <time>2019-08-12T10:02:20.344Z</time>
      </trkpt>
      <trkpt lat="44.79708" lon="1.54694">
        <ele>246</ele>
        <time>2019-08-12T10:02:25.317Z</time>
      </trkpt>
      <trkpt lat="44.79709" lon="1.54686">
        <ele>247</ele>
        <time>2019-08-12T10:02:30.341Z</time>
      </trkpt>
      <trkpt lat="44.7971" lon="1.5468">
        <ele>249</ele>
        <time>2019-08-12T10:02:34.333Z</time>
      </trkpt>
      <trkpt lat="44.79711" lon="1.54668">
        <ele>249</ele>
        <time>2019-08-12T10:02:39.348Z</time>
      </trkpt>
      <trkpt lat="44.79711" lon="1.54661">
        <ele>249</ele>
        <time>2019-08-12T10:02:43.331Z</time>
      </trkpt>
      <trkpt lat="44.79711" lon="1.54652">
        <ele>251</ele>
        <time>2019-08-12T10:02:48.349Z</time>
      </trkpt>
      <trkpt lat="44.79711" lon="1.54644">
        <ele>251</ele>
        <time>2019-08-12T10:02:53.354Z</time>
      </trkpt>
      <trkpt lat="44.79711" lon="1.54634">
        <ele>251</ele>
        <time>2019-08-12T10:02:58.318Z</time>
      </trkpt>
      <trkpt lat="44.79712" lon="1.54615">
        <ele>252</ele>
        <time>2019-08-12T10:03:03.357Z</time>
      </trkpt>
      <trkpt lat="44.7971" lon="1.54595">
        <ele>253</ele>
        <time>2019-08-12T10:03:07.326Z</time>
      </trkpt>
      <trkpt lat="44.79709" lon="1.54588">
        <ele>253</ele>
        <time>2019-08-12T10:03:12.338Z</time>
      </trkpt>
      <trkpt lat="44.79709" lon="1.54582">
        <ele>253</ele>
        <time>2019-08-12T10:03:16.343Z</time>
      </trkpt>
      <trkpt lat="44.79706" lon="1.54554">
        <ele>255</ele>
        <time>2019-08-12T10:03:21.337Z</time>
      </trkpt>
      <trkpt lat="44.79702" lon="1.54531">
        <ele>255</ele>
        <time>2019-08-12T10:03:25.335Z</time>
      </trkpt>
      <trkpt lat="44.797" lon="1.54517">
        <ele>255</ele>
        <time>2019-08-12T10:03:30.328Z</time>
      </trkpt>
      <trkpt lat="44.797" lon="1.54508">
        <ele>255</ele>
        <time>2019-08-12T10:03:34.356Z</time>
      </trkpt>
      <trkpt lat="44.79699" lon="1.54498">
        <ele>255</ele>
        <time>2019-08-12T10:03:39.330Z</time>
      </trkpt>
      <trkpt lat="44.79696" lon="1.54487">
        <ele>255</ele>
        <time>2019-08-12T10:03:44.310Z</time>
      </trkpt>
      <trkpt lat="44.79692" lon="1.54479">
        <ele>255</ele>
        <time>2019-08-12T10:03:48.337Z</time>
      </trkpt>
      <trkpt lat="44.7969" lon="1.54471">
        <ele>255</ele>
        <time>2019-08-12T10:03:53.317Z</time>
      </trkpt>
      <trkpt lat="44.79687" lon="1.54464">
        <ele>255</ele>
        <time>2019-08-12T10:03:57.354Z</time>
      </trkpt>
      <trkpt lat="44.79683" lon="1.54454">
        <ele>254</ele>
        <time>2019-08-12T10:04:02.351Z</time>
      </trkpt>
      <trkpt lat="44.79679" lon="1.54447">
        <ele>255</ele>
        <time>2019-08-12T10:04:07.320Z</time>
      </trkpt>
      <trkpt lat="44.79675" lon="1.54441">
        <ele>255</ele>
        <time>2019-08-12T10:04:11.337Z</time>
      </trkpt>
      <trkpt lat="44.79672" lon="1.54436">
        <ele>255</ele>
        <time>2019-08-12T10:04:15.343Z</time>
      </trkpt>
      <trkpt lat="44.79667" lon="1.54427">
        <ele>255</ele>
        <time>2019-08-12T10:04:20.323Z</time>
      </trkpt>
      <trkpt lat="44.79665" lon="1.54423">
        <ele>255</ele>
        <time>2019-08-12T10:04:25.336Z</time>
      </trkpt>
      <trkpt lat="44.79663" lon="1.54418">
        <ele>255</ele>
        <time>2019-08-12T10:04:30.336Z</time>
      </trkpt>
      <trkpt lat="44.79659" lon="1.54413">
        <ele>255</ele>
        <time>2019-08-12T10:04:35.344Z</time>
      </trkpt>
      <trkpt lat="44.79656" lon="1.54407">
        <ele>255</ele>
        <time>2019-08-12T10:04:39.336Z</time>
      </trkpt>
      <trkpt lat="44.79651" lon="1.54401">
        <ele>256</ele>
        <time>2019-08-12T10:04:44.343Z</time>
      </trkpt>
      <trkpt lat="44.79645" lon="1.54403">
        <ele>256</ele>
        <time>2019-08-12T10:04:49.330Z</time>
      </trkpt>
      <trkpt lat="44.7964" lon="1.54406">
        <ele>256</ele>
        <time>2019-08-12T10:04:53.349Z</time>
      </trkpt>
      <trkpt lat="44.79634" lon="1.54408">
        <ele>256</ele>
        <time>2019-08-12T10:04:58.344Z</time>
      </trkpt>
      <trkpt lat="44.79628" lon="1.54411">
        <ele>256</ele>
        <time>2019-08-12T10:05:03.350Z</time>
      </trkpt>
      <trkpt lat="44.79622" lon="1.54414">
        <ele>256</ele>
        <time>2019-08-12T10:05:08.320Z</time>
      </trkpt>
      <trkpt lat="44.79617" lon="1.54415">
        <ele>256</ele>
        <time>2019-08-12T10:05:13.320Z</time>
      </trkpt>
      <trkpt lat="44.79612" lon="1.54412">
        <ele>256</ele>
        <time>2019-08-12T10:05:17.340Z</time>
      </trkpt>
      <trkpt lat="44.79605" lon="1.5441">
        <ele>256</ele>
        <time>2019-08-12T10:05:22.323Z</time>
      </trkpt>
      <trkpt lat="44.796" lon="1.54409">
        <ele>256</ele>
        <time>2019-08-12T10:05:26.348Z</time>
      </trkpt>
      <trkpt lat="44.79593" lon="1.54406">
        <ele>256</ele>
        <time>2019-08-12T10:05:31.336Z</time>
      </trkpt>
      <trkpt lat="44.79592" lon="1.54406">
        <ele>256</ele>
        <time>2019-08-12T10:05:36.342Z</time>
      </trkpt>
      <trkpt lat="44.79592" lon="1.54406">
        <ele>256</ele>
        <time>2019-08-12T10:05:41.345Z</time>
      </trkpt>
      <trkpt lat="44.79592" lon="1.54407">
        <ele>256</ele>
        <time>2019-08-12T10:05:46.342Z</time>
      </trkpt>
      <trkpt lat="44.79588" lon="1.54406">
        <ele>256</ele>
        <time>2019-08-12T10:05:51.349Z</time>
      </trkpt>
      <trkpt lat="44.79581" lon="1.54403">
        <ele>256</ele>
        <time>2019-08-12T10:05:56.333Z</time>
      </trkpt>
      <trkpt lat="44.79574" lon="1.54399">
        <ele>255</ele>
        <time>2019-08-12T10:06:01.339Z</time>
      </trkpt>
      <trkpt lat="44.7957" lon="1.54397">
        <ele>255</ele>
        <time>2019-08-12T10:06:05.347Z</time>
      </trkpt>
      <trkpt lat="44.79562" lon="1.54394">
        <ele>253</ele>
        <time>2019-08-12T10:06:10.343Z</time>
      </trkpt>
      <trkpt lat="44.79555" lon="1.54392">
        <ele>253</ele>
        <time>2019-08-12T10:06:15.340Z</time>
      </trkpt>
      <trkpt lat="44.79549" lon="1.5439">
        <ele>253</ele>
        <time>2019-08-12T10:06:20.333Z</time>
      </trkpt>
      <trkpt lat="44.79545" lon="1.54387">
        <ele>253</ele>
        <time>2019-08-12T10:06:25.326Z</time>
      </trkpt>
      <trkpt lat="44.79543" lon="1.54387">
        <ele>253</ele>
        <time>2019-08-12T10:06:29.323Z</time>
      </trkpt>
      <trkpt lat="44.79539" lon="1.54384">
        <ele>249</ele>
        <time>2019-08-12T10:06:34.335Z</time>
      </trkpt>
      <trkpt lat="44.79538" lon="1.54385">
        <ele>249</ele>
        <time>2019-08-12T10:06:58.336Z</time>
      </trkpt>
      <trkpt lat="44.79537" lon="1.54384">
        <ele>249</ele>
        <time>2019-08-12T10:07:03.314Z</time>
      </trkpt>
      <trkpt lat="44.79531" lon="1.54383">
        <ele>249</ele>
        <time>2019-08-12T10:07:07.359Z</time>
      </trkpt>
      <trkpt lat="44.79528" lon="1.5438">
        <ele>249</ele>
        <time>2019-08-12T10:07:12.338Z</time>
      </trkpt>
      <trkpt lat="44.79528" lon="1.54379">
        <ele>249</ele>
        <time>2019-08-12T10:07:17.349Z</time>
      </trkpt>
      <trkpt lat="44.79527" lon="1.54379">
        <ele>249</ele>
        <time>2019-08-12T10:07:22.363Z</time>
      </trkpt>
      <trkpt lat="44.79526" lon="1.54379">
        <ele>249</ele>
        <time>2019-08-12T10:07:27.338Z</time>
      </trkpt>
      <trkpt lat="44.79525" lon="1.54379">
        <ele>249</ele>
        <time>2019-08-12T10:07:32.349Z</time>
      </trkpt>
      <trkpt lat="44.79518" lon="1.54376">
        <ele>249</ele>
        <time>2019-08-12T10:07:37.339Z</time>
      </trkpt>
      <trkpt lat="44.79511" lon="1.54372">
        <ele>246</ele>
        <time>2019-08-12T10:07:42.371Z</time>
      </trkpt>
      <trkpt lat="44.79502" lon="1.54368">
        <ele>246</ele>
        <time>2019-08-12T10:07:47.353Z</time>
      </trkpt>
      <trkpt lat="44.79494" lon="1.54367">
        <ele>246</ele>
        <time>2019-08-12T10:07:52.347Z</time>
      </trkpt>
      <trkpt lat="44.79485" lon="1.54365">
        <ele>243</ele>
        <time>2019-08-12T10:07:57.343Z</time>
      </trkpt>
      <trkpt lat="44.79479" lon="1.54362">
        <ele>243</ele>
        <time>2019-08-12T10:08:02.333Z</time>
      </trkpt>
      <trkpt lat="44.7947" lon="1.54358">
        <ele>243</ele>
        <time>2019-08-12T10:08:07.347Z</time>
      </trkpt>
      <trkpt lat="44.79463" lon="1.54355">
        <ele>243</ele>
        <time>2019-08-12T10:08:12.364Z</time>
      </trkpt>
      <trkpt lat="44.79455" lon="1.54352">
        <ele>240</ele>
        <time>2019-08-12T10:08:17.339Z</time>
      </trkpt>
      <trkpt lat="44.79448" lon="1.54349">
        <ele>240</ele>
        <time>2019-08-12T10:08:22.350Z</time>
      </trkpt>
      <trkpt lat="44.79441" lon="1.54345">
        <ele>242</ele>
        <time>2019-08-12T10:08:27.331Z</time>
      </trkpt>
      <trkpt lat="44.79434" lon="1.54342">
        <ele>242</ele>
        <time>2019-08-12T10:08:32.348Z</time>
      </trkpt>
      <trkpt lat="44.79426" lon="1.54339">
        <ele>239</ele>
        <time>2019-08-12T10:08:37.337Z</time>
      </trkpt>
      <trkpt lat="44.79417" lon="1.54335">
        <ele>239</ele>
        <time>2019-08-12T10:08:42.317Z</time>
      </trkpt>
      <trkpt lat="44.7941" lon="1.54333">
        <ele>239</ele>
        <time>2019-08-12T10:08:46.337Z</time>
      </trkpt>
      <trkpt lat="44.79399" lon="1.5433">
        <ele>237</ele>
        <time>2019-08-12T10:08:51.344Z</time>
      </trkpt>
      <trkpt lat="44.79391" lon="1.54327">
        <ele>237</ele>
        <time>2019-08-12T10:08:56.307Z</time>
      </trkpt>
      <trkpt lat="44.79384" lon="1.54324">
        <ele>237</ele>
        <time>2019-08-12T10:09:00.351Z</time>
      </trkpt>
      <trkpt lat="44.79376" lon="1.5432">
        <ele>237</ele>
        <time>2019-08-12T10:09:05.342Z</time>
      </trkpt>
      <trkpt lat="44.7937" lon="1.54319">
        <ele>235</ele>
        <time>2019-08-12T10:09:09.356Z</time>
      </trkpt>
      <trkpt lat="44.79363" lon="1.54318">
        <ele>238</ele>
        <time>2019-08-12T10:09:14.320Z</time>
      </trkpt>
      <trkpt lat="44.79357" lon="1.54316">
        <ele>238</ele>
        <time>2019-08-12T10:09:18.328Z</time>
      </trkpt>
      <trkpt lat="44.7935" lon="1.54314">
        <ele>238</ele>
        <time>2019-08-12T10:09:23.356Z</time>
      </trkpt>
      <trkpt lat="44.79342" lon="1.54312">
        <ele>239</ele>
        <time>2019-08-12T10:09:28.332Z</time>
      </trkpt>
      <trkpt lat="44.79336" lon="1.54311">
        <ele>239</ele>
        <time>2019-08-12T10:09:32.355Z</time>
      </trkpt>
      <trkpt lat="44.79329" lon="1.54309">
        <ele>239</ele>
        <time>2019-08-12T10:09:37.338Z</time>
      </trkpt>
      <trkpt lat="44.79322" lon="1.5431">
        <ele>239</ele>
        <time>2019-08-12T10:09:41.347Z</time>
      </trkpt>
      <trkpt lat="44.79316" lon="1.5431">
        <ele>241</ele>
        <time>2019-08-12T10:09:45.336Z</time>
      </trkpt>
      <trkpt lat="44.7931" lon="1.5431">
        <ele>241</ele>
        <time>2019-08-12T10:09:50.355Z</time>
      </trkpt>
      <trkpt lat="44.79302" lon="1.54308">
        <ele>241</ele>
        <time>2019-08-12T10:09:55.350Z</time>
      </trkpt>
      <trkpt lat="44.79295" lon="1.54307">
        <ele>241</ele>
        <time>2019-08-12T10:10:00.337Z</time>
      </trkpt>
      <trkpt lat="44.79288" lon="1.54304">
        <ele>240</ele>
        <time>2019-08-12T10:10:05.332Z</time>
      </trkpt>
      <trkpt lat="44.79283" lon="1.54301">
        <ele>240</ele>
        <time>2019-08-12T10:10:10.332Z</time>
      </trkpt>
      <trkpt lat="44.79277" lon="1.54298">
        <ele>240</ele>
        <time>2019-08-12T10:10:15.309Z</time>
      </trkpt>
      <trkpt lat="44.79272" lon="1.54297">
        <ele>240</ele>
        <time>2019-08-12T10:10:19.341Z</time>
      </trkpt>
      <trkpt lat="44.79267" lon="1.54295">
        <ele>240</ele>
        <time>2019-08-12T10:10:23.345Z</time>
      </trkpt>
      <trkpt lat="44.7926" lon="1.54293">
        <ele>234</ele>
        <time>2019-08-12T10:10:28.352Z</time>
      </trkpt>
      <trkpt lat="44.79253" lon="1.54292">
        <ele>234</ele>
        <time>2019-08-12T10:10:33.346Z</time>
      </trkpt>
      <trkpt lat="44.79246" lon="1.54288">
        <ele>239</ele>
        <time>2019-08-12T10:10:38.332Z</time>
      </trkpt>
      <trkpt lat="44.7924" lon="1.54284">
        <ele>239</ele>
        <time>2019-08-12T10:10:43.318Z</time>
      </trkpt>
      <trkpt lat="44.79232" lon="1.54279">
        <ele>232</ele>
        <time>2019-08-12T10:10:48.349Z</time>
      </trkpt>
      <trkpt lat="44.79227" lon="1.54273">
        <ele>232</ele>
        <time>2019-08-12T10:10:53.341Z</time>
      </trkpt>
      <trkpt lat="44.79219" lon="1.54268">
        <ele>232</ele>
        <time>2019-08-12T10:10:58.357Z</time>
      </trkpt>
      <trkpt lat="44.7921" lon="1.54264">
        <ele>232</ele>
        <time>2019-08-12T10:11:03.341Z</time>
      </trkpt>
      <trkpt lat="44.79204" lon="1.54261">
        <ele>233</ele>
        <time>2019-08-12T10:11:08.318Z</time>
      </trkpt>
      <trkpt lat="44.79199" lon="1.54255">
        <ele>233</ele>
        <time>2019-08-12T10:11:13.354Z</time>
      </trkpt>
      <trkpt lat="44.79192" lon="1.54249">
        <ele>233</ele>
        <time>2019-08-12T10:11:18.356Z</time>
      </trkpt>
      <trkpt lat="44.79184" lon="1.54244">
        <ele>233</ele>
        <time>2019-08-12T10:11:23.337Z</time>
      </trkpt>
      <trkpt lat="44.79178" lon="1.54241">
        <ele>228</ele>
        <time>2019-08-12T10:11:27.333Z</time>
      </trkpt>
      <trkpt lat="44.79171" lon="1.54236">
        <ele>236</ele>
        <time>2019-08-12T10:11:32.344Z</time>
      </trkpt>
      <trkpt lat="44.79162" lon="1.54231">
        <ele>236</ele>
        <time>2019-08-12T10:11:37.322Z</time>
      </trkpt>
      <trkpt lat="44.79154" lon="1.54229">
        <ele>236</ele>
        <time>2019-08-12T10:11:42.316Z</time>
      </trkpt>
      <trkpt lat="44.79147" lon="1.54226">
        <ele>229</ele>
        <time>2019-08-12T10:11:46.333Z</time>
      </trkpt>
      <trkpt lat="44.79139" lon="1.54222">
        <ele>229</ele>
        <time>2019-08-12T10:11:51.344Z</time>
      </trkpt>
      <trkpt lat="44.79132" lon="1.5422">
        <ele>229</ele>
        <time>2019-08-12T10:11:56.314Z</time>
      </trkpt>
      <trkpt lat="44.79126" lon="1.54218">
        <ele>229</ele>
        <time>2019-08-12T10:12:01.323Z</time>
      </trkpt>
      <trkpt lat="44.79119" lon="1.54214">
        <ele>224</ele>
        <time>2019-08-12T10:12:06.322Z</time>
      </trkpt>
      <trkpt lat="44.79112" lon="1.54212">
        <ele>224</ele>
        <time>2019-08-12T10:12:10.335Z</time>
      </trkpt>
      <trkpt lat="44.79104" lon="1.54207">
        <ele>229</ele>
        <time>2019-08-12T10:12:15.347Z</time>
      </trkpt>
      <trkpt lat="44.79098" lon="1.54203">
        <ele>229</ele>
        <time>2019-08-12T10:12:20.352Z</time>
      </trkpt>
      <trkpt lat="44.79092" lon="1.54198">
        <ele>228</ele>
        <time>2019-08-12T10:12:25.342Z</time>
      </trkpt>
      <trkpt lat="44.79081" lon="1.54196">
        <ele>228</ele>
        <time>2019-08-12T10:12:30.310Z</time>
      </trkpt>
      <trkpt lat="44.79072" lon="1.54195">
        <ele>228</ele>
        <time>2019-08-12T10:12:35.307Z</time>
      </trkpt>
      <trkpt lat="44.79067" lon="1.54195">
        <ele>228</ele>
        <time>2019-08-12T10:12:39.316Z</time>
      </trkpt>
      <trkpt lat="44.7906" lon="1.54196">
        <ele>228</ele>
        <time>2019-08-12T10:12:43.336Z</time>
      </trkpt>
      <trkpt lat="44.79052" lon="1.54196">
        <ele>228</ele>
        <time>2019-08-12T10:12:48.310Z</time>
      </trkpt>
      <trkpt lat="44.79045" lon="1.54199">
        <ele>228</ele>
        <time>2019-08-12T10:12:52.317Z</time>
      </trkpt>
      <trkpt lat="44.79039" lon="1.54201">
        <ele>226</ele>
        <time>2019-08-12T10:12:56.330Z</time>
      </trkpt>
      <trkpt lat="44.79033" lon="1.54204">
        <ele>226</ele>
        <time>2019-08-12T10:13:00.342Z</time>
      </trkpt>
      <trkpt lat="44.79026" lon="1.54209">
        <ele>220</ele>
        <time>2019-08-12T10:13:05.325Z</time>
      </trkpt>
      <trkpt lat="44.79021" lon="1.54214">
        <ele>220</ele>
        <time>2019-08-12T10:13:09.345Z</time>
      </trkpt>
      <trkpt lat="44.79017" lon="1.54214">
        <ele>220</ele>
        <time>2019-08-12T10:13:14.337Z</time>
      </trkpt>
      <trkpt lat="44.79016" lon="1.54214">
        <ele>220</ele>
        <time>2019-08-12T10:13:19.315Z</time>
      </trkpt>
      <trkpt lat="44.79015" lon="1.54212">
        <ele>220</ele>
        <time>2019-08-12T10:13:28.343Z</time>
      </trkpt>
      <trkpt lat="44.79013" lon="1.54211">
        <ele>218</ele>
        <time>2019-08-12T10:13:33.314Z</time>
      </trkpt>
      <trkpt lat="44.79013" lon="1.54211">
        <ele>218</ele>
        <time>2019-08-12T10:13:38.348Z</time>
      </trkpt>
      <trkpt lat="44.79009" lon="1.54211">
        <ele>218</ele>
        <time>2019-08-12T10:13:43.365Z</time>
      </trkpt>
      <trkpt lat="44.79006" lon="1.54219">
        <ele>218</ele>
        <time>2019-08-12T10:13:48.326Z</time>
      </trkpt>
      <trkpt lat="44.78999" lon="1.54222">
        <ele>218</ele>
        <time>2019-08-12T10:13:53.336Z</time>
      </trkpt>
      <trkpt lat="44.78992" lon="1.54224">
        <ele>218</ele>
        <time>2019-08-12T10:13:58.313Z</time>
      </trkpt>
      <trkpt lat="44.78986" lon="1.54223">
        <ele>212</ele>
        <time>2019-08-12T10:14:03.356Z</time>
      </trkpt>
      <trkpt lat="44.78979" lon="1.54221">
        <ele>212</ele>
        <time>2019-08-12T10:14:08.345Z</time>
      </trkpt>
      <trkpt lat="44.78972" lon="1.54216">
        <ele>212</ele>
        <time>2019-08-12T10:14:13.338Z</time>
      </trkpt>
      <trkpt lat="44.78966" lon="1.54211">
        <ele>212</ele>
        <time>2019-08-12T10:14:18.340Z</time>
      </trkpt>
      <trkpt lat="44.7896" lon="1.54204">
        <ele>216</ele>
        <time>2019-08-12T10:14:23.306Z</time>
      </trkpt>
      <trkpt lat="44.78955" lon="1.54198">
        <ele>209</ele>
        <time>2019-08-12T10:14:27.309Z</time>
      </trkpt>
      <trkpt lat="44.78949" lon="1.54189">
        <ele>209</ele>
        <time>2019-08-12T10:14:48.337Z</time>
      </trkpt>
      <trkpt lat="44.78949" lon="1.54186">
        <ele>209</ele>
        <time>2019-08-12T10:14:52.342Z</time>
      </trkpt>
      <trkpt lat="44.78946" lon="1.54178">
        <ele>212</ele>
        <time>2019-08-12T10:14:57.321Z</time>
      </trkpt>
      <trkpt lat="44.78944" lon="1.54169">
        <ele>212</ele>
        <time>2019-08-12T10:15:02.338Z</time>
      </trkpt>
      <trkpt lat="44.78943" lon="1.54159">
        <ele>212</ele>
        <time>2019-08-12T10:15:07.359Z</time>
      </trkpt>
      <trkpt lat="44.78941" lon="1.54149">
        <ele>213</ele>
        <time>2019-08-12T10:15:12.343Z</time>
      </trkpt>
      <trkpt lat="44.7894" lon="1.5414">
        <ele>213</ele>
        <time>2019-08-12T10:15:17.347Z</time>
      </trkpt>
      <trkpt lat="44.7894" lon="1.54129">
        <ele>213</ele>
        <time>2019-08-12T10:15:22.321Z</time>
      </trkpt>
      <trkpt lat="44.7894" lon="1.54117">
        <ele>214</ele>
        <time>2019-08-12T10:15:27.350Z</time>
      </trkpt>
      <trkpt lat="44.78939" lon="1.54106">
        <ele>214</ele>
        <time>2019-08-12T10:15:32.349Z</time>
      </trkpt>
      <trkpt lat="44.78939" lon="1.54097">
        <ele>212</ele>
        <time>2019-08-12T10:15:37.344Z</time>
      </trkpt>
      <trkpt lat="44.7894" lon="1.54086">
        <ele>212</ele>
        <time>2019-08-12T10:15:42.348Z</time>
      </trkpt>
      <trkpt lat="44.7894" lon="1.54077">
        <ele>212</ele>
        <time>2019-08-12T10:15:47.317Z</time>
      </trkpt>
      <trkpt lat="44.78941" lon="1.54068">
        <ele>210</ele>
        <time>2019-08-12T10:15:51.322Z</time>
      </trkpt>
      <trkpt lat="44.78941" lon="1.54056">
        <ele>210</ele>
        <time>2019-08-12T10:15:56.336Z</time>
      </trkpt>
      <trkpt lat="44.7894" lon="1.54044">
        <ele>210</ele>
        <time>2019-08-12T10:16:01.318Z</time>
      </trkpt>
      <trkpt lat="44.78941" lon="1.54037">
        <ele>208</ele>
        <time>2019-08-12T10:16:05.330Z</time>
      </trkpt>
      <trkpt lat="44.78943" lon="1.54026">
        <ele>208</ele>
        <time>2019-08-12T10:16:10.323Z</time>
      </trkpt>
      <trkpt lat="44.78945" lon="1.54017">
        <ele>208</ele>
        <time>2019-08-12T10:16:15.328Z</time>
      </trkpt>
      <trkpt lat="44.78947" lon="1.54007">
        <ele>206</ele>
        <time>2019-08-12T10:16:20.342Z</time>
      </trkpt>
      <trkpt lat="44.78949" lon="1.53999">
        <ele>206</ele>
        <time>2019-08-12T10:16:25.340Z</time>
      </trkpt>
      <trkpt lat="44.78951" lon="1.5399">
        <ele>206</ele>
        <time>2019-08-12T10:16:30.336Z</time>
      </trkpt>
      <trkpt lat="44.78953" lon="1.53982">
        <ele>203</ele>
        <time>2019-08-12T10:16:34.342Z</time>
      </trkpt>
      <trkpt lat="44.78956" lon="1.53972">
        <ele>203</ele>
        <time>2019-08-12T10:16:39.336Z</time>
      </trkpt>
      <trkpt lat="44.78959" lon="1.53961">
        <ele>211</ele>
        <time>2019-08-12T10:16:44.312Z</time>
      </trkpt>
      <trkpt lat="44.78962" lon="1.53952">
        <ele>208</ele>
        <time>2019-08-12T10:16:48.345Z</time>
      </trkpt>
      <trkpt lat="44.78965" lon="1.53942">
        <ele>208</ele>
        <time>2019-08-12T10:16:53.339Z</time>
      </trkpt>
      <trkpt lat="44.78967" lon="1.53935">
        <ele>208</ele>
        <time>2019-08-12T10:16:57.355Z</time>
      </trkpt>
      <trkpt lat="44.78973" lon="1.53928">
        <ele>204</ele>
        <time>2019-08-12T10:17:02.339Z</time>
      </trkpt>
      <trkpt lat="44.78976" lon="1.5392">
        <ele>204</ele>
        <time>2019-08-12T10:17:06.351Z</time>
      </trkpt>
      <trkpt lat="44.7898" lon="1.53908">
        <ele>204</ele>
        <time>2019-08-12T10:17:11.340Z</time>
      </trkpt>
      <trkpt lat="44.78982" lon="1.53901">
        <ele>200</ele>
        <time>2019-08-12T10:17:15.342Z</time>
      </trkpt>
      <trkpt lat="44.78986" lon="1.53892">
        <ele>200</ele>
        <time>2019-08-12T10:17:20.338Z</time>
      </trkpt>
      <trkpt lat="44.78989" lon="1.53877">
        <ele>208</ele>
        <time>2019-08-12T10:17:25.312Z</time>
      </trkpt>
      <trkpt lat="44.78994" lon="1.53871">
        <ele>204</ele>
        <time>2019-08-12T10:17:29.342Z</time>
      </trkpt>
      <trkpt lat="44.78997" lon="1.53863">
        <ele>204</ele>
        <time>2019-08-12T10:17:33.337Z</time>
      </trkpt>
      <trkpt lat="44.79" lon="1.53858">
        <ele>204</ele>
        <time>2019-08-12T10:17:38.321Z</time>
      </trkpt>
      <trkpt lat="44.79003" lon="1.53859">
        <ele>204</ele>
        <time>2019-08-12T10:18:30.314Z</time>
      </trkpt>
      <trkpt lat="44.79005" lon="1.53854">
        <ele>204</ele>
        <time>2019-08-12T10:18:35.306Z</time>
      </trkpt>
      <trkpt lat="44.79011" lon="1.53846">
        <ele>201</ele>
        <time>2019-08-12T10:18:40.305Z</time>
      </trkpt>
      <trkpt lat="44.79014" lon="1.53841">
        <ele>201</ele>
        <time>2019-08-12T10:18:44.321Z</time>
      </trkpt>
      <trkpt lat="44.79018" lon="1.53832">
        <ele>207</ele>
        <time>2019-08-12T10:18:49.313Z</time>
      </trkpt>
      <trkpt lat="44.79021" lon="1.53824">
        <ele>207</ele>
        <time>2019-08-12T10:18:53.325Z</time>
      </trkpt>
      <trkpt lat="44.79024" lon="1.53817">
        <ele>203</ele>
        <time>2019-08-12T10:18:58.318Z</time>
      </trkpt>
      <trkpt lat="44.79026" lon="1.5381">
        <ele>203</ele>
        <time>2019-08-12T10:19:02.319Z</time>
      </trkpt>
      <trkpt lat="44.79029" lon="1.53797">
        <ele>203</ele>
        <time>2019-08-12T10:19:07.318Z</time>
      </trkpt>
      <trkpt lat="44.79031" lon="1.53787">
        <ele>199</ele>
        <time>2019-08-12T10:19:12.321Z</time>
      </trkpt>
      <trkpt lat="44.79035" lon="1.53777">
        <ele>199</ele>
        <time>2019-08-12T10:19:17.319Z</time>
      </trkpt>
      <trkpt lat="44.79038" lon="1.53766">
        <ele>199</ele>
        <time>2019-08-12T10:19:22.324Z</time>
      </trkpt>
      <trkpt lat="44.7904" lon="1.53757">
        <ele>195</ele>
        <time>2019-08-12T10:19:27.316Z</time>
      </trkpt>
      <trkpt lat="44.79046" lon="1.53748">
        <ele>204</ele>
        <time>2019-08-12T10:19:32.319Z</time>
      </trkpt>
      <trkpt lat="44.7905" lon="1.5374">
        <ele>204</ele>
        <time>2019-08-12T10:19:37.317Z</time>
      </trkpt>
      <trkpt lat="44.79053" lon="1.53732">
        <ele>200</ele>
        <time>2019-08-12T10:19:41.349Z</time>
      </trkpt>
      <trkpt lat="44.79058" lon="1.53723">
        <ele>200</ele>
        <time>2019-08-12T10:19:46.342Z</time>
      </trkpt>
      <trkpt lat="44.7906" lon="1.53713">
        <ele>200</ele>
        <time>2019-08-12T10:19:51.336Z</time>
      </trkpt>
      <trkpt lat="44.79062" lon="1.53697">
        <ele>196</ele>
        <time>2019-08-12T10:19:56.322Z</time>
      </trkpt>
      <trkpt lat="44.79064" lon="1.53686">
        <ele>196</ele>
        <time>2019-08-12T10:20:01.321Z</time>
      </trkpt>
      <trkpt lat="44.79067" lon="1.53675">
        <ele>194</ele>
        <time>2019-08-12T10:20:06.331Z</time>
      </trkpt>
      <trkpt lat="44.7907" lon="1.53664">
        <ele>200</ele>
        <time>2019-08-12T10:20:11.318Z</time>
      </trkpt>
      <trkpt lat="44.79073" lon="1.53657">
        <ele>200</ele>
        <time>2019-08-12T10:20:15.327Z</time>
      </trkpt>
      <trkpt lat="44.79078" lon="1.53647">
        <ele>195</ele>
        <time>2019-08-12T10:20:20.317Z</time>
      </trkpt>
      <trkpt lat="44.79082" lon="1.53636">
        <ele>195</ele>
        <time>2019-08-12T10:20:25.316Z</time>
      </trkpt>
      <trkpt lat="44.79084" lon="1.53622">
        <ele>190</ele>
        <time>2019-08-12T10:20:30.313Z</time>
      </trkpt>
      <trkpt lat="44.79087" lon="1.53613">
        <ele>190</ele>
        <time>2019-08-12T10:20:35.321Z</time>
      </trkpt>
      <trkpt lat="44.79088" lon="1.53609">
        <ele>190</ele>
        <time>2019-08-12T10:20:40.322Z</time>
      </trkpt>
      <trkpt lat="44.7909" lon="1.53609">
        <ele>190</ele>
        <time>2019-08-12T10:20:48.295Z</time>
      </trkpt>
      <trkpt lat="44.7909" lon="1.53609">
        <ele>190</ele>
        <time>2019-08-12T10:21:06.301Z</time>
      </trkpt>
      <trkpt lat="44.7909" lon="1.5361">
        <ele>190</ele>
        <time>2019-08-12T10:21:11.308Z</time>
      </trkpt>
      <trkpt lat="44.79091" lon="1.53609">
        <ele>190</ele>
        <time>2019-08-12T10:21:15.319Z</time>
      </trkpt>
      <trkpt lat="44.79092" lon="1.53603">
        <ele>190</ele>
        <time>2019-08-12T10:21:19.319Z</time>
      </trkpt>
      <trkpt lat="44.79096" lon="1.53593">
        <ele>187</ele>
        <time>2019-08-12T10:21:24.316Z</time>
      </trkpt>
      <trkpt lat="44.79101" lon="1.53584">
        <ele>193</ele>
        <time>2019-08-12T10:21:29.319Z</time>
      </trkpt>
      <trkpt lat="44.79106" lon="1.53576">
        <ele>193</ele>
        <time>2019-08-12T10:21:34.319Z</time>
      </trkpt>
      <trkpt lat="44.79111" lon="1.53569">
        <ele>188</ele>
        <time>2019-08-12T10:21:39.325Z</time>
      </trkpt>
      <trkpt lat="44.79115" lon="1.53562">
        <ele>188</ele>
        <time>2019-08-12T10:21:44.343Z</time>
      </trkpt>
      <trkpt lat="44.79118" lon="1.53555">
        <ele>188</ele>
        <time>2019-08-12T10:21:49.317Z</time>
      </trkpt>
      <trkpt lat="44.79122" lon="1.53551">
        <ele>188</ele>
        <time>2019-08-12T10:21:53.317Z</time>
      </trkpt>
      <trkpt lat="44.79127" lon="1.53542">
        <ele>196</ele>
        <time>2019-08-12T10:21:57.338Z</time>
      </trkpt>
      <trkpt lat="44.79131" lon="1.53532">
        <ele>191</ele>
        <time>2019-08-12T10:22:02.316Z</time>
      </trkpt>
      <trkpt lat="44.79134" lon="1.53522">
        <ele>191</ele>
        <time>2019-08-12T10:22:07.311Z</time>
      </trkpt>
      <trkpt lat="44.7914" lon="1.53515">
        <ele>191</ele>
        <time>2019-08-12T10:22:12.312Z</time>
      </trkpt>
      <trkpt lat="44.79145" lon="1.53506">
        <ele>188</ele>
        <time>2019-08-12T10:22:17.317Z</time>
      </trkpt>
      <trkpt lat="44.79151" lon="1.53497">
        <ele>188</ele>
        <time>2019-08-12T10:22:22.325Z</time>
      </trkpt>
      <trkpt lat="44.79158" lon="1.53489">
        <ele>196</ele>
        <time>2019-08-12T10:22:27.311Z</time>
      </trkpt>
      <trkpt lat="44.79163" lon="1.5348">
        <ele>190</ele>
        <time>2019-08-12T10:22:32.316Z</time>
      </trkpt>
      <trkpt lat="44.79167" lon="1.53471">
        <ele>190</ele>
        <time>2019-08-12T10:22:37.324Z</time>
      </trkpt>
      <trkpt lat="44.79169" lon="1.53463">
        <ele>190</ele>
        <time>2019-08-12T10:22:42.306Z</time>
      </trkpt>
      <trkpt lat="44.79169" lon="1.53462">
        <ele>190</ele>
        <time>2019-08-12T10:22:51.321Z</time>
      </trkpt>
      <trkpt lat="44.7917" lon="1.53461">
        <ele>190</ele>
        <time>2019-08-12T10:22:56.304Z</time>
      </trkpt>
      <trkpt lat="44.7917" lon="1.53461">
        <ele>190</ele>
        <time>2019-08-12T10:23:01.324Z</time>
      </trkpt>
      <trkpt lat="44.79172" lon="1.53459">
        <ele>190</ele>
        <time>2019-08-12T10:23:06.319Z</time>
      </trkpt>
      <trkpt lat="44.79175" lon="1.53449">
        <ele>185</ele>
        <time>2019-08-12T10:23:11.318Z</time>
      </trkpt>
      <trkpt lat="44.79178" lon="1.5344">
        <ele>185</ele>
        <time>2019-08-12T10:23:16.313Z</time>
      </trkpt>
      <trkpt lat="44.7918" lon="1.5343">
        <ele>182</ele>
        <time>2019-08-12T10:23:21.309Z</time>
      </trkpt>
      <trkpt lat="44.79181" lon="1.53423">
        <ele>189</ele>
        <time>2019-08-12T10:23:25.320Z</time>
      </trkpt>
      <trkpt lat="44.79183" lon="1.53414">
        <ele>189</ele>
        <time>2019-08-12T10:23:30.321Z</time>
      </trkpt>
      <trkpt lat="44.79185" lon="1.53403">
        <ele>189</ele>
        <time>2019-08-12T10:23:35.309Z</time>
      </trkpt>
      <trkpt lat="44.79187" lon="1.53394">
        <ele>184</ele>
        <time>2019-08-12T10:23:39.321Z</time>
      </trkpt>
      <trkpt lat="44.7919" lon="1.53385">
        <ele>184</ele>
        <time>2019-08-12T10:23:43.353Z</time>
      </trkpt>
      <trkpt lat="44.79194" lon="1.53375">
        <ele>184</ele>
        <time>2019-08-12T10:23:48.342Z</time>
      </trkpt>
      <trkpt lat="44.79196" lon="1.53365">
        <ele>180</ele>
        <time>2019-08-12T10:23:53.341Z</time>
      </trkpt>
      <trkpt lat="44.79199" lon="1.53354">
        <ele>180</ele>
        <time>2019-08-12T10:23:58.342Z</time>
      </trkpt>
      <trkpt lat="44.79202" lon="1.53344">
        <ele>177</ele>
        <time>2019-08-12T10:24:03.343Z</time>
      </trkpt>
      <trkpt lat="44.79206" lon="1.53335">
        <ele>177</ele>
        <time>2019-08-12T10:24:08.317Z</time>
      </trkpt>
      <trkpt lat="44.7921" lon="1.53328">
        <ele>185</ele>
        <time>2019-08-12T10:24:13.315Z</time>
      </trkpt>
      <trkpt lat="44.79214" lon="1.53321">
        <ele>185</ele>
        <time>2019-08-12T10:24:17.315Z</time>
      </trkpt>
      <trkpt lat="44.79219" lon="1.53312">
        <ele>182</ele>
        <time>2019-08-12T10:24:22.320Z</time>
      </trkpt>
      <trkpt lat="44.79222" lon="1.53305">
        <ele>182</ele>
        <time>2019-08-12T10:24:26.333Z</time>
      </trkpt>
      <trkpt lat="44.79226" lon="1.53294">
        <ele>182</ele>
        <time>2019-08-12T10:24:31.338Z</time>
      </trkpt>
      <trkpt lat="44.79229" lon="1.53283">
        <ele>180</ele>
        <time>2019-08-12T10:24:36.316Z</time>
      </trkpt>
      <trkpt lat="44.79233" lon="1.53274">
        <ele>180</ele>
        <time>2019-08-12T10:24:41.316Z</time>
      </trkpt>
      <trkpt lat="44.79233" lon="1.53271">
        <ele>180</ele>
        <time>2019-08-12T10:24:45.310Z</time>
      </trkpt>
      <trkpt lat="44.79238" lon="1.53262">
        <ele>185</ele>
        <time>2019-08-12T10:24:50.320Z</time>
      </trkpt>
      <trkpt lat="44.7924" lon="1.53251">
        <ele>185</ele>
        <time>2019-08-12T10:24:55.313Z</time>
      </trkpt>
      <trkpt lat="44.79239" lon="1.53241">
        <ele>185</ele>
        <time>2019-08-12T10:25:00.318Z</time>
      </trkpt>
      <trkpt lat="44.79238" lon="1.53231">
        <ele>184</ele>
        <time>2019-08-12T10:25:05.320Z</time>
      </trkpt>
      <trkpt lat="44.79237" lon="1.53216">
        <ele>184</ele>
        <time>2019-08-12T10:26:17.342Z</time>
      </trkpt>
      <trkpt lat="44.79237" lon="1.53215">
        <ele>184</ele>
        <time>2019-08-12T10:26:22.338Z</time>
      </trkpt>
      <trkpt lat="44.79237" lon="1.53214">
        <ele>184</ele>
        <time>2019-08-12T10:26:27.332Z</time>
      </trkpt>
      <trkpt lat="44.79236" lon="1.53213">
        <ele>177</ele>
        <time>2019-08-12T10:26:32.324Z</time>
      </trkpt>
      <trkpt lat="44.79231" lon="1.53202">
        <ele>177</ele>
        <time>2019-08-12T10:26:36.329Z</time>
      </trkpt>
      <trkpt lat="44.79224" lon="1.53188">
        <ele>177</ele>
        <time>2019-08-12T10:26:41.315Z</time>
      </trkpt>
      <trkpt lat="44.79219" lon="1.5318">
        <ele>178</ele>
        <time>2019-08-12T10:26:46.318Z</time>
      </trkpt>
      <trkpt lat="44.79215" lon="1.53172">
        <ele>178</ele>
        <time>2019-08-12T10:26:51.296Z</time>
      </trkpt>
      <trkpt lat="44.79211" lon="1.53166">
        <ele>178</ele>
        <time>2019-08-12T10:26:55.311Z</time>
      </trkpt>
      <trkpt lat="44.79207" lon="1.53155">
        <ele>173</ele>
        <time>2019-08-12T10:27:00.343Z</time>
      </trkpt>
      <trkpt lat="44.79204" lon="1.53148">
        <ele>173</ele>
        <time>2019-08-12T10:27:05.342Z</time>
      </trkpt>
      <trkpt lat="44.79199" lon="1.53138">
        <ele>173</ele>
        <time>2019-08-12T10:27:10.342Z</time>
      </trkpt>
      <trkpt lat="44.79195" lon="1.5313">
        <ele>173</ele>
        <time>2019-08-12T10:27:14.343Z</time>
      </trkpt>
      <trkpt lat="44.79191" lon="1.53121">
        <ele>174</ele>
        <time>2019-08-12T10:27:19.327Z</time>
      </trkpt>
      <trkpt lat="44.79187" lon="1.53114">
        <ele>174</ele>
        <time>2019-08-12T10:27:24.298Z</time>
      </trkpt>
      <trkpt lat="44.79183" lon="1.53108">
        <ele>174</ele>
        <time>2019-08-12T10:27:28.341Z</time>
      </trkpt>
      <trkpt lat="44.79177" lon="1.53097">
        <ele>170</ele>
        <time>2019-08-12T10:27:33.332Z</time>
      </trkpt>
      <trkpt lat="44.79172" lon="1.53091">
        <ele>170</ele>
        <time>2019-08-12T10:27:37.340Z</time>
      </trkpt>
      <trkpt lat="44.79167" lon="1.53082">
        <ele>170</ele>
        <time>2019-08-12T10:27:42.341Z</time>
      </trkpt>
      <trkpt lat="44.79163" lon="1.53073">
        <ele>170</ele>
        <time>2019-08-12T10:27:47.349Z</time>
      </trkpt>
      <trkpt lat="44.7916" lon="1.53069">
        <ele>172</ele>
        <time>2019-08-12T10:27:51.351Z</time>
      </trkpt>
      <trkpt lat="44.79156" lon="1.53063">
        <ele>172</ele>
        <time>2019-08-12T10:27:56.350Z</time>
      </trkpt>
      <trkpt lat="44.79151" lon="1.53056">
        <ele>170</ele>
        <time>2019-08-12T10:28:01.306Z</time>
      </trkpt>
      <trkpt lat="44.79148" lon="1.53052">
        <ele>170</ele>
        <time>2019-08-12T10:28:05.330Z</time>
      </trkpt>
      <trkpt lat="44.79146" lon="1.5305">
        <ele>170</ele>
        <time>2019-08-12T10:28:09.334Z</time>
      </trkpt>
      <trkpt lat="44.79145" lon="1.53051">
        <ele>170</ele>
        <time>2019-08-12T10:28:24.330Z</time>
      </trkpt>
      <trkpt lat="44.79143" lon="1.53047">
        <ele>170</ele>
        <time>2019-08-12T10:28:28.336Z</time>
      </trkpt>
      <trkpt lat="44.79141" lon="1.53047">
        <ele>170</ele>
        <time>2019-08-12T10:28:33.344Z</time>
      </trkpt>
      <trkpt lat="44.7914" lon="1.53046">
        <ele>170</ele>
        <time>2019-08-12T10:28:38.336Z</time>
      </trkpt>
      <trkpt lat="44.79137" lon="1.53043">
        <ele>170</ele>
        <time>2019-08-12T10:28:43.349Z</time>
      </trkpt>
      <trkpt lat="44.79133" lon="1.53038">
        <ele>169</ele>
        <time>2019-08-12T10:29:36.300Z</time>
      </trkpt>
      <trkpt lat="44.79133" lon="1.53038">
        <ele>169</ele>
        <time>2019-08-12T10:29:40.303Z</time>
      </trkpt>
      <trkpt lat="44.79133" lon="1.53037">
        <ele>169</ele>
        <time>2019-08-12T10:29:44.317Z</time>
      </trkpt>
      <trkpt lat="44.79132" lon="1.53032">
        <ele>169</ele>
        <time>2019-08-12T10:29:49.322Z</time>
      </trkpt>
      <trkpt lat="44.79132" lon="1.53022">
        <ele>169</ele>
        <time>2019-08-12T10:29:54.312Z</time>
      </trkpt>
      <trkpt lat="44.79131" lon="1.53012">
        <ele>167</ele>
        <time>2019-08-12T10:29:59.304Z</time>
      </trkpt>
      <trkpt lat="44.79132" lon="1.53004">
        <ele>167</ele>
        <time>2019-08-12T10:30:03.324Z</time>
      </trkpt>
      <trkpt lat="44.79132" lon="1.52994">
        <ele>167</ele>
        <time>2019-08-12T10:30:08.314Z</time>
      </trkpt>
      <trkpt lat="44.79132" lon="1.52987">
        <ele>167</ele>
        <time>2019-08-12T10:30:12.317Z</time>
      </trkpt>
      <trkpt lat="44.79132" lon="1.52978">
        <ele>164</ele>
        <time>2019-08-12T10:30:17.350Z</time>
      </trkpt>
      <trkpt lat="44.79133" lon="1.52972">
        <ele>164</ele>
        <time>2019-08-12T10:30:21.344Z</time>
      </trkpt>
      <trkpt lat="44.79133" lon="1.52965">
        <ele>164</ele>
        <time>2019-08-12T10:30:25.325Z</time>
      </trkpt>
      <trkpt lat="44.79133" lon="1.52955">
        <ele>162</ele>
        <time>2019-08-12T10:30:30.309Z</time>
      </trkpt>
      <trkpt lat="44.79133" lon="1.52944">
        <ele>162</ele>
        <time>2019-08-12T10:30:35.335Z</time>
      </trkpt>
      <trkpt lat="44.79131" lon="1.52936">
        <ele>162</ele>
        <time>2019-08-12T10:30:39.339Z</time>
      </trkpt>
      <trkpt lat="44.7913" lon="1.52926">
        <ele>160</ele>
        <time>2019-08-12T10:30:44.317Z</time>
      </trkpt>
      <trkpt lat="44.79128" lon="1.52917">
        <ele>160</ele>
        <time>2019-08-12T10:30:49.339Z</time>
      </trkpt>
      <trkpt lat="44.79126" lon="1.52907">
        <ele>160</ele>
        <time>2019-08-12T10:30:54.323Z</time>
      </trkpt>
      <trkpt lat="44.79124" lon="1.52897">
        <ele>158</ele>
        <time>2019-08-12T10:30:59.345Z</time>
      </trkpt>
      <trkpt lat="44.79121" lon="1.52887">
        <ele>158</ele>
        <time>2019-08-12T10:31:04.315Z</time>
      </trkpt>
      <trkpt lat="44.79117" lon="1.52879">
        <ele>158</ele>
        <time>2019-08-12T10:31:09.354Z</time>
      </trkpt>
      <trkpt lat="44.79113" lon="1.52872">
        <ele>158</ele>
        <time>2019-08-12T10:31:14.308Z</time>
      </trkpt>
      <trkpt lat="44.79107" lon="1.52864">
        <ele>158</ele>
        <time>2019-08-12T10:31:19.337Z</time>
      </trkpt>
      <trkpt lat="44.79103" lon="1.5286">
        <ele>158</ele>
        <time>2019-08-12T10:31:23.349Z</time>
      </trkpt>
      <trkpt lat="44.79096" lon="1.52853">
        <ele>158</ele>
        <time>2019-08-12T10:31:28.327Z</time>
      </trkpt>
      <trkpt lat="44.79088" lon="1.52849">
        <ele>158</ele>
        <time>2019-08-12T10:31:33.325Z</time>
      </trkpt>
      <trkpt lat="44.79082" lon="1.52847">
        <ele>159</ele>
        <time>2019-08-12T10:31:37.347Z</time>
      </trkpt>
      <trkpt lat="44.79076" lon="1.52846">
        <ele>159</ele>
        <time>2019-08-12T10:31:42.322Z</time>
      </trkpt>
      <trkpt lat="44.79069" lon="1.52842">
        <ele>159</ele>
        <time>2019-08-12T10:31:47.342Z</time>
      </trkpt>
      <trkpt lat="44.79062" lon="1.52837">
        <ele>159</ele>
        <time>2019-08-12T10:31:52.365Z</time>
      </trkpt>
      <trkpt lat="44.79056" lon="1.52836">
        <ele>159</ele>
        <time>2019-08-12T10:31:57.358Z</time>
      </trkpt>
      <trkpt lat="44.79049" lon="1.52837">
        <ele>159</ele>
        <time>2019-08-12T10:32:02.307Z</time>
      </trkpt>
      <trkpt lat="44.79041" lon="1.52835">
        <ele>159</ele>
        <time>2019-08-12T10:32:06.314Z</time>
      </trkpt>
      <trkpt lat="44.79034" lon="1.52835">
        <ele>159</ele>
        <time>2019-08-12T10:32:10.305Z</time>
      </trkpt>
      <trkpt lat="44.79029" lon="1.52836">
        <ele>159</ele>
        <time>2019-08-12T10:32:14.333Z</time>
      </trkpt>
      <trkpt lat="44.79021" lon="1.52836">
        <ele>159</ele>
        <time>2019-08-12T10:32:19.329Z</time>
      </trkpt>
      <trkpt lat="44.79013" lon="1.52836">
        <ele>160</ele>
        <time>2019-08-12T10:32:24.324Z</time>
      </trkpt>
      <trkpt lat="44.79006" lon="1.52835">
        <ele>160</ele>
        <time>2019-08-12T10:32:29.346Z</time>
      </trkpt>
      <trkpt lat="44.78998" lon="1.52835">
        <ele>160</ele>
        <time>2019-08-12T10:32:34.340Z</time>
      </trkpt>
      <trkpt lat="44.78992" lon="1.52835">
        <ele>160</ele>
        <time>2019-08-12T10:32:38.351Z</time>
      </trkpt>
      <trkpt lat="44.78985" lon="1.52836">
        <ele>160</ele>
        <time>2019-08-12T10:32:43.297Z</time>
      </trkpt>
      <trkpt lat="44.78978" lon="1.52837">
        <ele>160</ele>
        <time>2019-08-12T10:32:47.349Z</time>
      </trkpt>
      <trkpt lat="44.7897" lon="1.52838">
        <ele>160</ele>
        <time>2019-08-12T10:32:52.319Z</time>
      </trkpt>
      <trkpt lat="44.78964" lon="1.52839">
        <ele>160</ele>
        <time>2019-08-12T10:32:57.340Z</time>
      </trkpt>
      <trkpt lat="44.78957" lon="1.5284">
        <ele>161</ele>
        <time>2019-08-12T10:33:02.334Z</time>
      </trkpt>
      <trkpt lat="44.7895" lon="1.52839">
        <ele>161</ele>
        <time>2019-08-12T10:33:07.319Z</time>
      </trkpt>
      <trkpt lat="44.78945" lon="1.52842">
        <ele>161</ele>
        <time>2019-08-12T10:33:11.335Z</time>
      </trkpt>
      <trkpt lat="44.78938" lon="1.52842">
        <ele>161</ele>
        <time>2019-08-12T10:33:15.326Z</time>
      </trkpt>
      <trkpt lat="44.78931" lon="1.52842">
        <ele>161</ele>
        <time>2019-08-12T10:33:20.336Z</time>
      </trkpt>
      <trkpt lat="44.78926" lon="1.52844">
        <ele>163</ele>
        <time>2019-08-12T10:33:24.333Z</time>
      </trkpt>
      <trkpt lat="44.78919" lon="1.52845">
        <ele>163</ele>
        <time>2019-08-12T10:33:29.341Z</time>
      </trkpt>
      <trkpt lat="44.78912" lon="1.52849">
        <ele>163</ele>
        <time>2019-08-12T10:33:34.335Z</time>
      </trkpt>
      <trkpt lat="44.78906" lon="1.52853">
        <ele>163</ele>
        <time>2019-08-12T10:33:38.337Z</time>
      </trkpt>
      <trkpt lat="44.789" lon="1.52858">
        <ele>166</ele>
        <time>2019-08-12T10:33:43.361Z</time>
      </trkpt>
      <trkpt lat="44.78893" lon="1.52864">
        <ele>166</ele>
        <time>2019-08-12T10:33:48.340Z</time>
      </trkpt>
      <trkpt lat="44.78888" lon="1.5287">
        <ele>166</ele>
        <time>2019-08-12T10:33:53.331Z</time>
      </trkpt>
      <trkpt lat="44.78883" lon="1.52876">
        <ele>166</ele>
        <time>2019-08-12T10:33:57.345Z</time>
      </trkpt>
      <trkpt lat="44.78876" lon="1.52882">
        <ele>166</ele>
        <time>2019-08-12T10:34:02.314Z</time>
      </trkpt>
      <trkpt lat="44.78871" lon="1.52887">
        <ele>169</ele>
        <time>2019-08-12T10:34:06.349Z</time>
      </trkpt>
      <trkpt lat="44.78863" lon="1.52894">
        <ele>169</ele>
        <time>2019-08-12T10:34:11.341Z</time>
      </trkpt>
      <trkpt lat="44.78857" lon="1.529">
        <ele>169</ele>
        <time>2019-08-12T10:34:16.356Z</time>
      </trkpt>
      <trkpt lat="44.7885" lon="1.52905">
        <ele>168</ele>
        <time>2019-08-12T10:34:21.340Z</time>
      </trkpt>
      <trkpt lat="44.78844" lon="1.52909">
        <ele>168</ele>
        <time>2019-08-12T10:34:26.331Z</time>
      </trkpt>
      <trkpt lat="44.78836" lon="1.52912">
        <ele>168</ele>
        <time>2019-08-12T10:34:31.344Z</time>
      </trkpt>
      <trkpt lat="44.7883" lon="1.52913">
        <ele>168</ele>
        <time>2019-08-12T10:34:35.353Z</time>
      </trkpt>
      <trkpt lat="44.78824" lon="1.52915">
        <ele>168</ele>
        <time>2019-08-12T10:34:40.347Z</time>
      </trkpt>
      <trkpt lat="44.78816" lon="1.52918">
        <ele>168</ele>
        <time>2019-08-12T10:34:45.337Z</time>
      </trkpt>
      <trkpt lat="44.7881" lon="1.52918">
        <ele>168</ele>
        <time>2019-08-12T10:34:50.335Z</time>
      </trkpt>
      <trkpt lat="44.78802" lon="1.52917">
        <ele>168</ele>
        <time>2019-08-12T10:34:55.341Z</time>
      </trkpt>
      <trkpt lat="44.78795" lon="1.52916">
        <ele>168</ele>
        <time>2019-08-12T10:35:00.352Z</time>
      </trkpt>
      <trkpt lat="44.78787" lon="1.52913">
        <ele>170</ele>
        <time>2019-08-12T10:35:05.347Z</time>
      </trkpt>
      <trkpt lat="44.78779" lon="1.52911">
        <ele>170</ele>
        <time>2019-08-12T10:35:10.341Z</time>
      </trkpt>
      <trkpt lat="44.78772" lon="1.52909">
        <ele>170</ele>
        <time>2019-08-12T10:35:14.340Z</time>
      </trkpt>
      <trkpt lat="44.78764" lon="1.52904">
        <ele>170</ele>
        <time>2019-08-12T10:35:19.337Z</time>
      </trkpt>
      <trkpt lat="44.78758" lon="1.529">
        <ele>170</ele>
        <time>2019-08-12T10:35:24.323Z</time>
      </trkpt>
      <trkpt lat="44.78752" lon="1.52895">
        <ele>170</ele>
        <time>2019-08-12T10:35:29.336Z</time>
      </trkpt>
      <trkpt lat="44.78749" lon="1.52891">
        <ele>170</ele>
        <time>2019-08-12T10:35:34.344Z</time>
      </trkpt>
      <trkpt lat="44.78749" lon="1.5289">
        <ele>170</ele>
        <time>2019-08-12T10:35:38.338Z</time>
      </trkpt>
      <trkpt lat="44.78744" lon="1.52885">
        <ele>170</ele>
        <time>2019-08-12T10:35:43.339Z</time>
      </trkpt>
      <trkpt lat="44.78739" lon="1.5288">
        <ele>170</ele>
        <time>2019-08-12T10:35:48.359Z</time>
      </trkpt>
      <trkpt lat="44.78736" lon="1.52877">
        <ele>169</ele>
        <time>2019-08-12T10:35:52.339Z</time>
      </trkpt>
      <trkpt lat="44.7873" lon="1.52871">
        <ele>169</ele>
        <time>2019-08-12T10:35:57.358Z</time>
      </trkpt>
      <trkpt lat="44.78723" lon="1.52864">
        <ele>169</ele>
        <time>2019-08-12T10:36:02.343Z</time>
      </trkpt>
      <trkpt lat="44.78716" lon="1.52858">
        <ele>169</ele>
        <time>2019-08-12T10:36:07.312Z</time>
      </trkpt>
      <trkpt lat="44.78711" lon="1.52852">
        <ele>169</ele>
        <time>2019-08-12T10:36:11.357Z</time>
      </trkpt>
      <trkpt lat="44.78705" lon="1.52845">
        <ele>170</ele>
        <time>2019-08-12T10:36:16.342Z</time>
      </trkpt>
      <trkpt lat="44.78699" lon="1.52839">
        <ele>170</ele>
        <time>2019-08-12T10:36:21.331Z</time>
      </trkpt>
      <trkpt lat="44.78696" lon="1.52833">
        <ele>170</ele>
        <time>2019-08-12T10:36:25.338Z</time>
      </trkpt>
      <trkpt lat="44.78689" lon="1.52824">
        <ele>170</ele>
        <time>2019-08-12T10:36:30.334Z</time>
      </trkpt>
      <trkpt lat="44.78683" lon="1.52816">
        <ele>170</ele>
        <time>2019-08-12T10:36:35.343Z</time>
      </trkpt>
      <trkpt lat="44.78678" lon="1.52811">
        <ele>174</ele>
        <time>2019-08-12T10:36:40.348Z</time>
      </trkpt>
      <trkpt lat="44.78673" lon="1.52804">
        <ele>174</ele>
        <time>2019-08-12T10:36:45.342Z</time>
      </trkpt>
      <trkpt lat="44.78668" lon="1.52798">
        <ele>174</ele>
        <time>2019-08-12T10:36:50.338Z</time>
      </trkpt>
      <trkpt lat="44.78663" lon="1.52793">
        <ele>174</ele>
        <time>2019-08-12T10:36:54.347Z</time>
      </trkpt>
      <trkpt lat="44.78658" lon="1.52786">
        <ele>174</ele>
        <time>2019-08-12T10:36:59.328Z</time>
      </trkpt>
      <trkpt lat="44.78657" lon="1.52779">
        <ele>174</ele>
        <time>2019-08-12T10:37:03.307Z</time>
      </trkpt>
      <trkpt lat="44.78658" lon="1.5277">
        <ele>174</ele>
        <time>2019-08-12T10:37:08.308Z</time>
      </trkpt>
      <trkpt lat="44.7866" lon="1.52763">
        <ele>174</ele>
        <time>2019-08-12T10:37:13.316Z</time>
      </trkpt>
      <trkpt lat="44.78661" lon="1.52761">
        <ele>174</ele>
        <time>2019-08-12T10:37:17.350Z</time>
      </trkpt>
      <trkpt lat="44.78666" lon="1.52755">
        <ele>174</ele>
        <time>2019-08-12T10:37:22.327Z</time>
      </trkpt>
      <trkpt lat="44.78669" lon="1.52748">
        <ele>174</ele>
        <time>2019-08-12T10:37:26.347Z</time>
      </trkpt>
      <trkpt lat="44.78672" lon="1.5274">
        <ele>174</ele>
        <time>2019-08-12T10:37:31.336Z</time>
      </trkpt>
      <trkpt lat="44.78672" lon="1.52732">
        <ele>172</ele>
        <time>2019-08-12T10:37:36.353Z</time>
      </trkpt>
      <trkpt lat="44.78671" lon="1.52723">
        <ele>172</ele>
        <time>2019-08-12T10:37:41.311Z</time>
      </trkpt>
      <trkpt lat="44.78669" lon="1.52714">
        <ele>172</ele>
        <time>2019-08-12T10:37:46.318Z</time>
      </trkpt>
      <trkpt lat="44.78666" lon="1.52705">
        <ele>171</ele>
        <time>2019-08-12T10:37:51.315Z</time>
      </trkpt>
      <trkpt lat="44.78665" lon="1.52698">
        <ele>171</ele>
        <time>2019-08-12T10:37:55.328Z</time>
      </trkpt>
      <trkpt lat="44.78662" lon="1.52691">
        <ele>171</ele>
        <time>2019-08-12T10:38:00.336Z</time>
      </trkpt>
      <trkpt lat="44.7866" lon="1.52683">
        <ele>171</ele>
        <time>2019-08-12T10:38:05.326Z</time>
      </trkpt>
      <trkpt lat="44.78658" lon="1.52675">
        <ele>170</ele>
        <time>2019-08-12T10:38:09.334Z</time>
      </trkpt>
      <trkpt lat="44.78657" lon="1.52669">
        <ele>170</ele>
        <time>2019-08-12T10:38:14.332Z</time>
      </trkpt>
      <trkpt lat="44.78655" lon="1.5266">
        <ele>170</ele>
        <time>2019-08-12T10:38:19.325Z</time>
      </trkpt>
      <trkpt lat="44.78653" lon="1.52652">
        <ele>170</ele>
        <time>2019-08-12T10:38:23.329Z</time>
      </trkpt>
      <trkpt lat="44.78651" lon="1.52645">
        <ele>174</ele>
        <time>2019-08-12T10:38:28.336Z</time>
      </trkpt>
      <trkpt lat="44.78649" lon="1.52638">
        <ele>174</ele>
        <time>2019-08-12T10:38:33.334Z</time>
      </trkpt>
      <trkpt lat="44.78646" lon="1.52631">
        <ele>174</ele>
        <time>2019-08-12T10:38:38.332Z</time>
      </trkpt>
      <trkpt lat="44.78644" lon="1.52623">
        <ele>174</ele>
        <time>2019-08-12T10:38:43.330Z</time>
      </trkpt>
      <trkpt lat="44.78644" lon="1.52617">
        <ele>174</ele>
        <time>2019-08-12T10:38:47.341Z</time>
      </trkpt>
      <trkpt lat="44.78642" lon="1.52606">
        <ele>174</ele>
        <time>2019-08-12T10:38:52.337Z</time>
      </trkpt>
      <trkpt lat="44.7864" lon="1.526">
        <ele>174</ele>
        <time>2019-08-12T10:38:56.362Z</time>
      </trkpt>
      <trkpt lat="44.7864" lon="1.52592">
        <ele>173</ele>
        <time>2019-08-12T10:39:01.334Z</time>
      </trkpt>
      <trkpt lat="44.78638" lon="1.52583">
        <ele>173</ele>
        <time>2019-08-12T10:39:06.336Z</time>
      </trkpt>
      <trkpt lat="44.78635" lon="1.52574">
        <ele>173</ele>
        <time>2019-08-12T10:39:11.327Z</time>
      </trkpt>
      <trkpt lat="44.78633" lon="1.5257">
        <ele>173</ele>
        <time>2019-08-12T10:39:15.338Z</time>
      </trkpt>
      <trkpt lat="44.78631" lon="1.52567">
        <ele>172</ele>
        <time>2019-08-12T10:39:19.351Z</time>
      </trkpt>
      <trkpt lat="44.78627" lon="1.52559">
        <ele>172</ele>
        <time>2019-08-12T10:39:24.347Z</time>
      </trkpt>
      <trkpt lat="44.78622" lon="1.5255">
        <ele>175</ele>
        <time>2019-08-12T10:39:29.335Z</time>
      </trkpt>
      <trkpt lat="44.78617" lon="1.52539">
        <ele>172</ele>
        <time>2019-08-12T10:39:34.346Z</time>
      </trkpt>
      <trkpt lat="44.78614" lon="1.52532">
        <ele>172</ele>
        <time>2019-08-12T10:39:38.374Z</time>
      </trkpt>
      <trkpt lat="44.78609" lon="1.52522">
        <ele>172</ele>
        <time>2019-08-12T10:39:43.330Z</time>
      </trkpt>
      <trkpt lat="44.78606" lon="1.52515">
        <ele>172</ele>
        <time>2019-08-12T10:39:48.312Z</time>
      </trkpt>
      <trkpt lat="44.78605" lon="1.5251">
        <ele>171</ele>
        <time>2019-08-12T10:39:52.317Z</time>
      </trkpt>
      <trkpt lat="44.78603" lon="1.52503">
        <ele>171</ele>
        <time>2019-08-12T10:39:56.348Z</time>
      </trkpt>
      <trkpt lat="44.78603" lon="1.52496">
        <ele>171</ele>
        <time>2019-08-12T10:40:00.349Z</time>
      </trkpt>
      <trkpt lat="44.78601" lon="1.52487">
        <ele>171</ele>
        <time>2019-08-12T10:40:05.348Z</time>
      </trkpt>
      <trkpt lat="44.78602" lon="1.52474">
        <ele>172</ele>
        <time>2019-08-12T10:40:10.347Z</time>
      </trkpt>
      <trkpt lat="44.78603" lon="1.52462">
        <ele>172</ele>
        <time>2019-08-12T10:40:15.346Z</time>
      </trkpt>
      <trkpt lat="44.78602" lon="1.5245">
        <ele>174</ele>
        <time>2019-08-12T10:40:20.310Z</time>
      </trkpt>
      <trkpt lat="44.78603" lon="1.52441">
        <ele>174</ele>
        <time>2019-08-12T10:40:24.350Z</time>
      </trkpt>
      <trkpt lat="44.786" lon="1.52431">
        <ele>174</ele>
        <time>2019-08-12T10:40:29.308Z</time>
      </trkpt>
      <trkpt lat="44.78595" lon="1.52423">
        <ele>174</ele>
        <time>2019-08-12T10:40:34.370Z</time>
      </trkpt>
      <trkpt lat="44.7859" lon="1.52416">
        <ele>174</ele>
        <time>2019-08-12T10:40:39.316Z</time>
      </trkpt>
      <trkpt lat="44.78586" lon="1.52411">
        <ele>174</ele>
        <time>2019-08-12T10:40:43.329Z</time>
      </trkpt>
      <trkpt lat="44.78581" lon="1.52404">
        <ele>174</ele>
        <time>2019-08-12T10:40:48.321Z</time>
      </trkpt>
      <trkpt lat="44.78578" lon="1.52396">
        <ele>177</ele>
        <time>2019-08-12T10:40:52.339Z</time>
      </trkpt>
      <trkpt lat="44.78573" lon="1.52387">
        <ele>177</ele>
        <time>2019-08-12T10:40:57.309Z</time>
      </trkpt>
      <trkpt lat="44.78569" lon="1.52381">
        <ele>176</ele>
        <time>2019-08-12T10:41:02.345Z</time>
      </trkpt>
      <trkpt lat="44.78565" lon="1.52373">
        <ele>177</ele>
        <time>2019-08-12T10:41:07.310Z</time>
      </trkpt>
      <trkpt lat="44.78561" lon="1.52368">
        <ele>177</ele>
        <time>2019-08-12T10:41:11.315Z</time>
      </trkpt>
      <trkpt lat="44.78558" lon="1.52363">
        <ele>177</ele>
        <time>2019-08-12T10:41:15.342Z</time>
      </trkpt>
      <trkpt lat="44.78551" lon="1.52353">
        <ele>177</ele>
        <time>2019-08-12T10:41:20.361Z</time>
      </trkpt>
      <trkpt lat="44.78547" lon="1.52346">
        <ele>180</ele>
        <time>2019-08-12T10:41:25.322Z</time>
      </trkpt>
      <trkpt lat="44.78543" lon="1.52337">
        <ele>180</ele>
        <time>2019-08-12T10:41:30.331Z</time>
      </trkpt>
      <trkpt lat="44.7854" lon="1.52329">
        <ele>177</ele>
        <time>2019-08-12T10:41:34.342Z</time>
      </trkpt>
      <trkpt lat="44.78538" lon="1.52319">
        <ele>180</ele>
        <time>2019-08-12T10:41:39.316Z</time>
      </trkpt>
      <trkpt lat="44.78536" lon="1.52312">
        <ele>180</ele>
        <time>2019-08-12T10:41:44.311Z</time>
      </trkpt>
      <trkpt lat="44.78533" lon="1.52303">
        <ele>180</ele>
        <time>2019-08-12T10:41:48.379Z</time>
      </trkpt>
      <trkpt lat="44.78528" lon="1.52295">
        <ele>180</ele>
        <time>2019-08-12T10:41:53.312Z</time>
      </trkpt>
      <trkpt lat="44.78523" lon="1.52288">
        <ele>182</ele>
        <time>2019-08-12T10:41:57.314Z</time>
      </trkpt>
      <trkpt lat="44.78517" lon="1.5228">
        <ele>182</ele>
        <time>2019-08-12T10:42:01.329Z</time>
      </trkpt>
      <trkpt lat="44.78511" lon="1.52273">
        <ele>180</ele>
        <time>2019-08-12T10:42:06.328Z</time>
      </trkpt>
      <trkpt lat="44.78507" lon="1.52266">
        <ele>180</ele>
        <time>2019-08-12T10:42:10.354Z</time>
      </trkpt>
      <trkpt lat="44.78502" lon="1.52262">
        <ele>181</ele>
        <time>2019-08-12T10:42:15.336Z</time>
      </trkpt>
      <trkpt lat="44.78496" lon="1.5226">
        <ele>181</ele>
        <time>2019-08-12T10:42:20.344Z</time>
      </trkpt>
      <trkpt lat="44.78491" lon="1.52254">
        <ele>181</ele>
        <time>2019-08-12T10:42:24.350Z</time>
      </trkpt>
      <trkpt lat="44.78488" lon="1.5225">
        <ele>181</ele>
        <time>2019-08-12T10:42:29.327Z</time>
      </trkpt>
      <trkpt lat="44.78487" lon="1.52247">
        <ele>181</ele>
        <time>2019-08-12T10:42:34.337Z</time>
      </trkpt>
      <trkpt lat="44.78485" lon="1.52243">
        <ele>180</ele>
        <time>2019-08-12T10:42:39.336Z</time>
      </trkpt>
      <trkpt lat="44.78482" lon="1.52236">
        <ele>181</ele>
        <time>2019-08-12T10:42:44.339Z</time>
      </trkpt>
      <trkpt lat="44.78477" lon="1.52226">
        <ele>181</ele>
        <time>2019-08-12T10:42:48.364Z</time>
      </trkpt>
      <trkpt lat="44.78472" lon="1.52214">
        <ele>181</ele>
        <time>2019-08-12T10:42:53.305Z</time>
      </trkpt>
      <trkpt lat="44.78469" lon="1.52208">
        <ele>181</ele>
        <time>2019-08-12T10:42:57.321Z</time>
      </trkpt>
      <trkpt lat="44.78464" lon="1.52198">
        <ele>184</ele>
        <time>2019-08-12T10:43:02.370Z</time>
      </trkpt>
      <trkpt lat="44.78461" lon="1.5219">
        <ele>184</ele>
        <time>2019-08-12T10:43:07.347Z</time>
      </trkpt>
      <trkpt lat="44.78458" lon="1.52184">
        <ele>181</ele>
        <time>2019-08-12T10:43:12.348Z</time>
      </trkpt>
      <trkpt lat="44.78454" lon="1.52175">
        <ele>182</ele>
        <time>2019-08-12T10:43:17.315Z</time>
      </trkpt>
      <trkpt lat="44.78453" lon="1.52171">
        <ele>182</ele>
        <time>2019-08-12T10:43:21.321Z</time>
      </trkpt>
      <trkpt lat="44.78447" lon="1.5216">
        <ele>182</ele>
        <time>2019-08-12T10:43:25.316Z</time>
      </trkpt>
      <trkpt lat="44.78442" lon="1.52149">
        <ele>185</ele>
        <time>2019-08-12T10:43:30.348Z</time>
      </trkpt>
      <trkpt lat="44.78437" lon="1.52142">
        <ele>185</ele>
        <time>2019-08-12T10:43:34.346Z</time>
      </trkpt>
      <trkpt lat="44.78431" lon="1.52132">
        <ele>185</ele>
        <time>2019-08-12T10:43:39.340Z</time>
      </trkpt>
      <trkpt lat="44.78427" lon="1.52127">
        <ele>181</ele>
        <time>2019-08-12T10:43:44.342Z</time>
      </trkpt>
      <trkpt lat="44.78422" lon="1.52121">
        <ele>184</ele>
        <time>2019-08-12T10:43:49.322Z</time>
      </trkpt>
      <trkpt lat="44.78417" lon="1.52116">
        <ele>184</ele>
        <time>2019-08-12T10:43:53.417Z</time>
      </trkpt>
      <trkpt lat="44.78411" lon="1.52106">
        <ele>184</ele>
        <time>2019-08-12T10:43:58.340Z</time>
      </trkpt>
      <trkpt lat="44.78407" lon="1.52101">
        <ele>184</ele>
        <time>2019-08-12T10:44:02.376Z</time>
      </trkpt>
      <trkpt lat="44.78401" lon="1.52097">
        <ele>181</ele>
        <time>2019-08-12T10:44:07.325Z</time>
      </trkpt>
      <trkpt lat="44.78397" lon="1.52093">
        <ele>183</ele>
        <time>2019-08-12T10:44:11.322Z</time>
      </trkpt>
      <trkpt lat="44.78391" lon="1.52089">
        <ele>183</ele>
        <time>2019-08-12T10:44:16.350Z</time>
      </trkpt>
      <trkpt lat="44.78385" lon="1.52083">
        <ele>183</ele>
        <time>2019-08-12T10:44:21.300Z</time>
      </trkpt>
      <trkpt lat="44.7838" lon="1.52075">
        <ele>183</ele>
        <time>2019-08-12T10:44:25.320Z</time>
      </trkpt>
      <trkpt lat="44.78372" lon="1.52069">
        <ele>180</ele>
        <time>2019-08-12T10:44:30.329Z</time>
      </trkpt>
      <trkpt lat="44.78367" lon="1.52063">
        <ele>180</ele>
        <time>2019-08-12T10:44:35.341Z</time>
      </trkpt>
      <trkpt lat="44.78362" lon="1.52056">
        <ele>180</ele>
        <time>2019-08-12T10:44:39.326Z</time>
      </trkpt>
      <trkpt lat="44.78352" lon="1.52039">
        <ele>182</ele>
        <time>2019-08-12T10:44:48.310Z</time>
      </trkpt>
      <trkpt lat="44.78343" lon="1.52028">
        <ele>181</ele>
        <time>2019-08-12T10:44:53.310Z</time>
      </trkpt>
      <trkpt lat="44.78337" lon="1.52023">
        <ele>181</ele>
        <time>2019-08-12T10:44:57.345Z</time>
      </trkpt>
      <trkpt lat="44.78333" lon="1.52016">
        <ele>181</ele>
        <time>2019-08-12T10:45:01.345Z</time>
      </trkpt>
      <trkpt lat="44.78329" lon="1.52009">
        <ele>185</ele>
        <time>2019-08-12T10:45:06.341Z</time>
      </trkpt>
      <trkpt lat="44.78324" lon="1.52002">
        <ele>185</ele>
        <time>2019-08-12T10:45:11.351Z</time>
      </trkpt>
      <trkpt lat="44.78319" lon="1.51995">
        <ele>185</ele>
        <time>2019-08-12T10:45:16.350Z</time>
      </trkpt>
      <trkpt lat="44.78315" lon="1.51987">
        <ele>185</ele>
        <time>2019-08-12T10:45:21.369Z</time>
      </trkpt>
      <trkpt lat="44.78313" lon="1.51982">
        <ele>188</ele>
        <time>2019-08-12T10:45:25.366Z</time>
      </trkpt>
      <trkpt lat="44.78308" lon="1.51978">
        <ele>188</ele>
        <time>2019-08-12T10:45:30.343Z</time>
      </trkpt>
      <trkpt lat="44.78304" lon="1.5197">
        <ele>188</ele>
        <time>2019-08-12T10:45:35.392Z</time>
      </trkpt>
      <trkpt lat="44.78298" lon="1.51965">
        <ele>188</ele>
        <time>2019-08-12T10:45:40.362Z</time>
      </trkpt>
      <trkpt lat="44.78291" lon="1.51964">
        <ele>190</ele>
        <time>2019-08-12T10:45:45.298Z</time>
      </trkpt>
      <trkpt lat="44.78285" lon="1.51967">
        <ele>190</ele>
        <time>2019-08-12T10:45:49.357Z</time>
      </trkpt>
      <trkpt lat="44.78279" lon="1.51968">
        <ele>190</ele>
        <time>2019-08-12T10:45:53.384Z</time>
      </trkpt>
      <trkpt lat="44.78269" lon="1.51976">
        <ele>190</ele>
        <time>2019-08-12T10:46:03.378Z</time>
      </trkpt>
      <trkpt lat="44.78269" lon="1.51976">
        <ele>190</ele>
        <time>2019-08-12T10:46:08.362Z</time>
      </trkpt>
      <trkpt lat="44.78267" lon="1.51975">
        <ele>190</ele>
        <time>2019-08-12T10:46:13.346Z</time>
      </trkpt>
      <trkpt lat="44.78266" lon="1.51975">
        <ele>190</ele>
        <time>2019-08-12T10:46:18.342Z</time>
      </trkpt>
      <trkpt lat="44.78265" lon="1.51975">
        <ele>190</ele>
        <time>2019-08-12T10:46:23.326Z</time>
      </trkpt>
      <trkpt lat="44.78262" lon="1.51973">
        <ele>197</ele>
        <time>2019-08-12T10:47:16.347Z</time>
      </trkpt>
      <trkpt lat="44.78273" lon="1.51961">
        <ele>190</ele>
        <time>2019-08-12T11:44:22.296Z</time>
      </trkpt>
      <trkpt lat="44.78274" lon="1.51961">
        <ele>190</ele>
        <time>2019-08-12T11:44:31.238Z</time>
      </trkpt>
      <trkpt lat="44.78276" lon="1.51962">
        <ele>190</ele>
        <time>2019-08-12T11:44:36.238Z</time>
      </trkpt>
      <trkpt lat="44.78278" lon="1.51963">
        <ele>190</ele>
        <time>2019-08-12T11:44:41.227Z</time>
      </trkpt>
      <trkpt lat="44.78278" lon="1.51956">
        <ele>190</ele>
        <time>2019-08-12T11:44:46.222Z</time>
      </trkpt>
      <trkpt lat="44.7828" lon="1.51947">
        <ele>190</ele>
        <time>2019-08-12T11:44:50.240Z</time>
      </trkpt>
      <trkpt lat="44.78281" lon="1.51942">
        <ele>190</ele>
        <time>2019-08-12T11:44:54.221Z</time>
      </trkpt>
      <trkpt lat="44.78279" lon="1.51936">
        <ele>190</ele>
        <time>2019-08-12T11:44:59.232Z</time>
      </trkpt>
      <trkpt lat="44.78274" lon="1.51932">
        <ele>190</ele>
        <time>2019-08-12T11:45:04.237Z</time>
      </trkpt>
      <trkpt lat="44.78273" lon="1.51928">
        <ele>192</ele>
        <time>2019-08-12T11:45:08.231Z</time>
      </trkpt>
      <trkpt lat="44.78269" lon="1.5192">
        <ele>192</ele>
        <time>2019-08-12T11:45:13.229Z</time>
      </trkpt>
      <trkpt lat="44.78265" lon="1.51913">
        <ele>192</ele>
        <time>2019-08-12T11:45:17.227Z</time>
      </trkpt>
      <trkpt lat="44.78262" lon="1.51908">
        <ele>193</ele>
        <time>2019-08-12T11:45:21.239Z</time>
      </trkpt>
      <trkpt lat="44.78259" lon="1.51901">
        <ele>193</ele>
        <time>2019-08-12T11:45:26.240Z</time>
      </trkpt>
      <trkpt lat="44.78256" lon="1.51895">
        <ele>193</ele>
        <time>2019-08-12T11:45:31.248Z</time>
      </trkpt>
      <trkpt lat="44.78252" lon="1.51888">
        <ele>193</ele>
        <time>2019-08-12T11:45:36.266Z</time>
      </trkpt>
      <trkpt lat="44.78248" lon="1.51881">
        <ele>193</ele>
        <time>2019-08-12T11:45:41.236Z</time>
      </trkpt>
      <trkpt lat="44.78245" lon="1.51874">
        <ele>196</ele>
        <time>2019-08-12T11:45:46.228Z</time>
      </trkpt>
      <trkpt lat="44.7824" lon="1.51867">
        <ele>196</ele>
        <time>2019-08-12T11:45:51.227Z</time>
      </trkpt>
      <trkpt lat="44.78237" lon="1.51862">
        <ele>196</ele>
        <time>2019-08-12T11:45:55.235Z</time>
      </trkpt>
      <trkpt lat="44.78232" lon="1.51855">
        <ele>192</ele>
        <time>2019-08-12T11:46:00.245Z</time>
      </trkpt>
      <trkpt lat="44.78227" lon="1.51847">
        <ele>193</ele>
        <time>2019-08-12T11:46:05.240Z</time>
      </trkpt>
      <trkpt lat="44.7822" lon="1.51842">
        <ele>193</ele>
        <time>2019-08-12T11:46:10.231Z</time>
      </trkpt>
      <trkpt lat="44.78217" lon="1.51836">
        <ele>193</ele>
        <time>2019-08-12T11:46:14.237Z</time>
      </trkpt>
      <trkpt lat="44.78211" lon="1.51828">
        <ele>193</ele>
        <time>2019-08-12T11:46:19.232Z</time>
      </trkpt>
      <trkpt lat="44.78206" lon="1.51822">
        <ele>191</ele>
        <time>2019-08-12T11:46:24.230Z</time>
      </trkpt>
      <trkpt lat="44.78203" lon="1.51817">
        <ele>192</ele>
        <time>2019-08-12T11:46:28.235Z</time>
      </trkpt>
      <trkpt lat="44.78198" lon="1.51812">
        <ele>192</ele>
        <time>2019-08-12T11:46:33.231Z</time>
      </trkpt>
      <trkpt lat="44.78194" lon="1.51807">
        <ele>192</ele>
        <time>2019-08-12T11:46:38.237Z</time>
      </trkpt>
      <trkpt lat="44.78191" lon="1.51804">
        <ele>192</ele>
        <time>2019-08-12T11:46:42.231Z</time>
      </trkpt>
      <trkpt lat="44.78185" lon="1.51798">
        <ele>192</ele>
        <time>2019-08-12T11:46:47.249Z</time>
      </trkpt>
      <trkpt lat="44.78179" lon="1.51792">
        <ele>191</ele>
        <time>2019-08-12T11:46:52.239Z</time>
      </trkpt>
      <trkpt lat="44.78165" lon="1.51777">
        <ele>192</ele>
        <time>2019-08-12T11:47:03.237Z</time>
      </trkpt>
      <trkpt lat="44.78161" lon="1.51772">
        <ele>192</ele>
        <time>2019-08-12T11:47:07.239Z</time>
      </trkpt>
      <trkpt lat="44.78154" lon="1.51765">
        <ele>192</ele>
        <time>2019-08-12T11:47:12.227Z</time>
      </trkpt>
      <trkpt lat="44.7815" lon="1.51757">
        <ele>193</ele>
        <time>2019-08-12T11:47:17.234Z</time>
      </trkpt>
      <trkpt lat="44.78147" lon="1.51752">
        <ele>193</ele>
        <time>2019-08-12T11:47:21.234Z</time>
      </trkpt>
      <trkpt lat="44.78142" lon="1.51745">
        <ele>193</ele>
        <time>2019-08-12T11:47:26.242Z</time>
      </trkpt>
      <trkpt lat="44.78139" lon="1.51739">
        <ele>193</ele>
        <time>2019-08-12T11:47:31.242Z</time>
      </trkpt>
      <trkpt lat="44.78137" lon="1.51733">
        <ele>195</ele>
        <time>2019-08-12T11:47:35.235Z</time>
      </trkpt>
      <trkpt lat="44.78132" lon="1.51726">
        <ele>195</ele>
        <time>2019-08-12T11:47:40.234Z</time>
      </trkpt>
      <trkpt lat="44.78128" lon="1.5172">
        <ele>195</ele>
        <time>2019-08-12T11:47:44.240Z</time>
      </trkpt>
      <trkpt lat="44.78123" lon="1.51711">
        <ele>196</ele>
        <time>2019-08-12T11:47:49.227Z</time>
      </trkpt>
      <trkpt lat="44.78121" lon="1.51705">
        <ele>196</ele>
        <time>2019-08-12T11:47:54.234Z</time>
      </trkpt>
      <trkpt lat="44.78118" lon="1.51698">
        <ele>196</ele>
        <time>2019-08-12T11:47:59.230Z</time>
      </trkpt>
      <trkpt lat="44.78113" lon="1.51691">
        <ele>196</ele>
        <time>2019-08-12T11:48:04.237Z</time>
      </trkpt>
      <trkpt lat="44.78108" lon="1.51683">
        <ele>196</ele>
        <time>2019-08-12T11:48:09.236Z</time>
      </trkpt>
      <trkpt lat="44.78103" lon="1.51677">
        <ele>198</ele>
        <time>2019-08-12T11:48:13.234Z</time>
      </trkpt>
      <trkpt lat="44.78097" lon="1.51669">
        <ele>194</ele>
        <time>2019-08-12T11:48:18.237Z</time>
      </trkpt>
      <trkpt lat="44.78092" lon="1.51661">
        <ele>194</ele>
        <time>2019-08-12T11:48:23.244Z</time>
      </trkpt>
      <trkpt lat="44.78086" lon="1.51652">
        <ele>197</ele>
        <time>2019-08-12T11:48:28.233Z</time>
      </trkpt>
      <trkpt lat="44.78082" lon="1.51647">
        <ele>197</ele>
        <time>2019-08-12T11:48:32.232Z</time>
      </trkpt>
      <trkpt lat="44.78078" lon="1.51642">
        <ele>197</ele>
        <time>2019-08-12T11:48:36.229Z</time>
      </trkpt>
      <trkpt lat="44.78073" lon="1.51635">
        <ele>197</ele>
        <time>2019-08-12T11:48:41.230Z</time>
      </trkpt>
      <trkpt lat="44.78068" lon="1.51625">
        <ele>195</ele>
        <time>2019-08-12T11:48:46.238Z</time>
      </trkpt>
      <trkpt lat="44.78064" lon="1.51618">
        <ele>196</ele>
        <time>2019-08-12T11:48:50.233Z</time>
      </trkpt>
      <trkpt lat="44.78061" lon="1.51609">
        <ele>196</ele>
        <time>2019-08-12T11:48:55.239Z</time>
      </trkpt>
      <trkpt lat="44.7806" lon="1.51601">
        <ele>196</ele>
        <time>2019-08-12T11:49:00.225Z</time>
      </trkpt>
      <trkpt lat="44.78058" lon="1.51595">
        <ele>199</ele>
        <time>2019-08-12T11:49:04.247Z</time>
      </trkpt>
      <trkpt lat="44.78056" lon="1.51587">
        <ele>199</ele>
        <time>2019-08-12T11:49:09.234Z</time>
      </trkpt>
      <trkpt lat="44.78052" lon="1.51578">
        <ele>199</ele>
        <time>2019-08-12T11:49:13.234Z</time>
      </trkpt>
      <trkpt lat="44.78048" lon="1.51572">
        <ele>199</ele>
        <time>2019-08-12T11:49:18.235Z</time>
      </trkpt>
      <trkpt lat="44.78044" lon="1.51566">
        <ele>202</ele>
        <time>2019-08-12T11:49:23.227Z</time>
      </trkpt>
      <trkpt lat="44.78041" lon="1.51558">
        <ele>197</ele>
        <time>2019-08-12T11:49:28.238Z</time>
      </trkpt>
      <trkpt lat="44.78039" lon="1.5155">
        <ele>197</ele>
        <time>2019-08-12T11:49:32.232Z</time>
      </trkpt>
      <trkpt lat="44.78035" lon="1.51542">
        <ele>197</ele>
        <time>2019-08-12T11:49:37.234Z</time>
      </trkpt>
      <trkpt lat="44.78033" lon="1.51537">
        <ele>198</ele>
        <time>2019-08-12T11:49:41.237Z</time>
      </trkpt>
      <trkpt lat="44.78031" lon="1.5153">
        <ele>198</ele>
        <time>2019-08-12T11:49:46.235Z</time>
      </trkpt>
      <trkpt lat="44.78029" lon="1.51525">
        <ele>198</ele>
        <time>2019-08-12T11:49:50.237Z</time>
      </trkpt>
      <trkpt lat="44.78025" lon="1.51515">
        <ele>198</ele>
        <time>2019-08-12T11:49:55.227Z</time>
      </trkpt>
      <trkpt lat="44.78019" lon="1.51504">
        <ele>202</ele>
        <time>2019-08-12T11:49:59.239Z</time>
      </trkpt>
      <trkpt lat="44.78016" lon="1.51495">
        <ele>202</ele>
        <time>2019-08-12T11:50:04.246Z</time>
      </trkpt>
      <trkpt lat="44.78009" lon="1.51488">
        <ele>198</ele>
        <time>2019-08-12T11:50:09.229Z</time>
      </trkpt>
      <trkpt lat="44.78005" lon="1.51481">
        <ele>201</ele>
        <time>2019-08-12T11:50:14.237Z</time>
      </trkpt>
      <trkpt lat="44.78002" lon="1.51473">
        <ele>201</ele>
        <time>2019-08-12T11:50:19.235Z</time>
      </trkpt>
      <trkpt lat="44.77998" lon="1.51464">
        <ele>201</ele>
        <time>2019-08-12T11:50:24.236Z</time>
      </trkpt>
      <trkpt lat="44.77994" lon="1.51455">
        <ele>203</ele>
        <time>2019-08-12T11:50:29.231Z</time>
      </trkpt>
      <trkpt lat="44.77988" lon="1.51447">
        <ele>203</ele>
        <time>2019-08-12T11:50:34.249Z</time>
      </trkpt>
      <trkpt lat="44.77982" lon="1.5144">
        <ele>197</ele>
        <time>2019-08-12T11:50:39.241Z</time>
      </trkpt>
      <trkpt lat="44.7798" lon="1.51435">
        <ele>197</ele>
        <time>2019-08-12T11:50:43.230Z</time>
      </trkpt>
      <trkpt lat="44.77978" lon="1.51429">
        <ele>197</ele>
        <time>2019-08-12T11:50:48.240Z</time>
      </trkpt>
      <trkpt lat="44.77977" lon="1.51421">
        <ele>197</ele>
        <time>2019-08-12T11:50:53.241Z</time>
      </trkpt>
      <trkpt lat="44.77976" lon="1.51411">
        <ele>197</ele>
        <time>2019-08-12T11:50:58.233Z</time>
      </trkpt>
      <trkpt lat="44.77977" lon="1.51403">
        <ele>197</ele>
        <time>2019-08-12T11:51:02.242Z</time>
      </trkpt>
      <trkpt lat="44.77976" lon="1.51395">
        <ele>201</ele>
        <time>2019-08-12T11:51:07.230Z</time>
      </trkpt>
      <trkpt lat="44.77974" lon="1.5139">
        <ele>201</ele>
        <time>2019-08-12T11:51:11.227Z</time>
      </trkpt>
      <trkpt lat="44.77972" lon="1.51384">
        <ele>201</ele>
        <time>2019-08-12T11:51:15.234Z</time>
      </trkpt>
      <trkpt lat="44.77969" lon="1.51373">
        <ele>204</ele>
        <time>2019-08-12T11:51:20.243Z</time>
      </trkpt>
      <trkpt lat="44.77965" lon="1.51363">
        <ele>204</ele>
        <time>2019-08-12T11:51:25.239Z</time>
      </trkpt>
      <trkpt lat="44.77961" lon="1.51352">
        <ele>204</ele>
        <time>2019-08-12T11:51:30.253Z</time>
      </trkpt>
      <trkpt lat="44.77961" lon="1.51344">
        <ele>208</ele>
        <time>2019-08-12T11:51:35.218Z</time>
      </trkpt>
      <trkpt lat="44.77958" lon="1.51337">
        <ele>203</ele>
        <time>2019-08-12T11:51:39.231Z</time>
      </trkpt>
      <trkpt lat="44.77956" lon="1.51332">
        <ele>203</ele>
        <time>2019-08-12T11:51:44.238Z</time>
      </trkpt>
      <trkpt lat="44.7795" lon="1.51324">
        <ele>203</ele>
        <time>2019-08-12T11:51:49.232Z</time>
      </trkpt>
      <trkpt lat="44.77946" lon="1.51318">
        <ele>204</ele>
        <time>2019-08-12T11:51:53.227Z</time>
      </trkpt>
      <trkpt lat="44.77943" lon="1.51313">
        <ele>204</ele>
        <time>2019-08-12T11:51:58.229Z</time>
      </trkpt>
      <trkpt lat="44.77939" lon="1.51305">
        <ele>204</ele>
        <time>2019-08-12T11:52:02.242Z</time>
      </trkpt>
      <trkpt lat="44.77937" lon="1.51299">
        <ele>204</ele>
        <time>2019-08-12T11:52:07.228Z</time>
      </trkpt>
      <trkpt lat="44.77935" lon="1.51293">
        <ele>204</ele>
        <time>2019-08-12T11:52:11.244Z</time>
      </trkpt>
      <trkpt lat="44.77932" lon="1.51283">
        <ele>204</ele>
        <time>2019-08-12T11:52:16.241Z</time>
      </trkpt>
      <trkpt lat="44.7793" lon="1.51274">
        <ele>200</ele>
        <time>2019-08-12T11:52:21.226Z</time>
      </trkpt>
      <trkpt lat="44.7793" lon="1.51265">
        <ele>200</ele>
        <time>2019-08-12T11:52:26.231Z</time>
      </trkpt>
      <trkpt lat="44.77929" lon="1.51256">
        <ele>200</ele>
        <time>2019-08-12T11:52:31.231Z</time>
      </trkpt>
      <trkpt lat="44.7793" lon="1.51247">
        <ele>200</ele>
        <time>2019-08-12T11:52:35.245Z</time>
      </trkpt>
      <trkpt lat="44.77929" lon="1.5124">
        <ele>200</ele>
        <time>2019-08-12T11:52:39.239Z</time>
      </trkpt>
      <trkpt lat="44.77928" lon="1.51232">
        <ele>201</ele>
        <time>2019-08-12T11:52:44.233Z</time>
      </trkpt>
      <trkpt lat="44.77929" lon="1.51224">
        <ele>201</ele>
        <time>2019-08-12T11:52:49.243Z</time>
      </trkpt>
      <trkpt lat="44.77928" lon="1.51216">
        <ele>201</ele>
        <time>2019-08-12T11:52:54.240Z</time>
      </trkpt>
      <trkpt lat="44.77927" lon="1.51207">
        <ele>202</ele>
        <time>2019-08-12T11:52:59.235Z</time>
      </trkpt>
      <trkpt lat="44.77926" lon="1.51199">
        <ele>202</ele>
        <time>2019-08-12T11:53:03.235Z</time>
      </trkpt>
      <trkpt lat="44.77925" lon="1.5119">
        <ele>202</ele>
        <time>2019-08-12T11:53:08.237Z</time>
      </trkpt>
      <trkpt lat="44.77922" lon="1.51181">
        <ele>202</ele>
        <time>2019-08-12T11:53:13.244Z</time>
      </trkpt>
      <trkpt lat="44.77919" lon="1.51172">
        <ele>204</ele>
        <time>2019-08-12T11:53:18.240Z</time>
      </trkpt>
      <trkpt lat="44.77918" lon="1.51164">
        <ele>204</ele>
        <time>2019-08-12T11:53:22.227Z</time>
      </trkpt>
      <trkpt lat="44.77917" lon="1.51152">
        <ele>206</ele>
        <time>2019-08-12T11:53:27.246Z</time>
      </trkpt>
      <trkpt lat="44.77916" lon="1.51143">
        <ele>206</ele>
        <time>2019-08-12T11:53:31.250Z</time>
      </trkpt>
      <trkpt lat="44.77916" lon="1.51134">
        <ele>206</ele>
        <time>2019-08-12T11:53:35.244Z</time>
      </trkpt>
      <trkpt lat="44.77915" lon="1.51122">
        <ele>206</ele>
        <time>2019-08-12T11:53:40.221Z</time>
      </trkpt>
      <trkpt lat="44.77914" lon="1.51112">
        <ele>206</ele>
        <time>2019-08-12T11:53:44.236Z</time>
      </trkpt>
      <trkpt lat="44.77913" lon="1.511">
        <ele>206</ele>
        <time>2019-08-12T11:53:49.250Z</time>
      </trkpt>
      <trkpt lat="44.77912" lon="1.51089">
        <ele>204</ele>
        <time>2019-08-12T11:53:54.228Z</time>
      </trkpt>
      <trkpt lat="44.77912" lon="1.51082">
        <ele>204</ele>
        <time>2019-08-12T11:53:58.237Z</time>
      </trkpt>
      <trkpt lat="44.77913" lon="1.51072">
        <ele>204</ele>
        <time>2019-08-12T11:54:03.238Z</time>
      </trkpt>
      <trkpt lat="44.77915" lon="1.51064">
        <ele>202</ele>
        <time>2019-08-12T11:54:07.234Z</time>
      </trkpt>
      <trkpt lat="44.77915" lon="1.51055">
        <ele>202</ele>
        <time>2019-08-12T11:54:11.242Z</time>
      </trkpt>
      <trkpt lat="44.77917" lon="1.51052">
        <ele>202</ele>
        <time>2019-08-12T11:54:15.254Z</time>
      </trkpt>
      <trkpt lat="44.77916" lon="1.51043">
        <ele>202</ele>
        <time>2019-08-12T11:54:20.233Z</time>
      </trkpt>
      <trkpt lat="44.77916" lon="1.51041">
        <ele>201</ele>
        <time>2019-08-12T11:54:25.245Z</time>
      </trkpt>
      <trkpt lat="44.77917" lon="1.51032">
        <ele>201</ele>
        <time>2019-08-12T11:54:30.230Z</time>
      </trkpt>
      <trkpt lat="44.77917" lon="1.51025">
        <ele>201</ele>
        <time>2019-08-12T11:54:34.229Z</time>
      </trkpt>
      <trkpt lat="44.77917" lon="1.51014">
        <ele>201</ele>
        <time>2019-08-12T11:54:39.244Z</time>
      </trkpt>
      <trkpt lat="44.77919" lon="1.51004">
        <ele>201</ele>
        <time>2019-08-12T11:54:44.229Z</time>
      </trkpt>
      <trkpt lat="44.77921" lon="1.50997">
        <ele>201</ele>
        <time>2019-08-12T11:54:48.234Z</time>
      </trkpt>
      <trkpt lat="44.77924" lon="1.50987">
        <ele>201</ele>
        <time>2019-08-12T11:54:53.238Z</time>
      </trkpt>
      <trkpt lat="44.77927" lon="1.50981">
        <ele>202</ele>
        <time>2019-08-12T11:54:57.233Z</time>
      </trkpt>
      <trkpt lat="44.77929" lon="1.50974">
        <ele>202</ele>
        <time>2019-08-12T11:55:01.230Z</time>
      </trkpt>
      <trkpt lat="44.7793" lon="1.50966">
        <ele>202</ele>
        <time>2019-08-12T11:55:06.228Z</time>
      </trkpt>
      <trkpt lat="44.77931" lon="1.50956">
        <ele>207</ele>
        <time>2019-08-12T11:55:11.236Z</time>
      </trkpt>
      <trkpt lat="44.77931" lon="1.50945">
        <ele>207</ele>
        <time>2019-08-12T11:55:16.227Z</time>
      </trkpt>
      <trkpt lat="44.77933" lon="1.50935">
        <ele>207</ele>
        <time>2019-08-12T11:55:21.236Z</time>
      </trkpt>
      <trkpt lat="44.77936" lon="1.50925">
        <ele>206</ele>
        <time>2019-08-12T11:55:26.233Z</time>
      </trkpt>
      <trkpt lat="44.77938" lon="1.50918">
        <ele>206</ele>
        <time>2019-08-12T11:55:30.235Z</time>
      </trkpt>
      <trkpt lat="44.77942" lon="1.50911">
        <ele>206</ele>
        <time>2019-08-12T11:55:35.249Z</time>
      </trkpt>
      <trkpt lat="44.77944" lon="1.50902">
        <ele>206</ele>
        <time>2019-08-12T11:55:40.236Z</time>
      </trkpt>
      <trkpt lat="44.77945" lon="1.50893">
        <ele>206</ele>
        <time>2019-08-12T11:55:45.238Z</time>
      </trkpt>
      <trkpt lat="44.77945" lon="1.50885">
        <ele>206</ele>
        <time>2019-08-12T11:55:50.251Z</time>
      </trkpt>
      <trkpt lat="44.77947" lon="1.50878">
        <ele>206</ele>
        <time>2019-08-12T11:55:54.242Z</time>
      </trkpt>
      <trkpt lat="44.77951" lon="1.50867">
        <ele>207</ele>
        <time>2019-08-12T11:55:59.230Z</time>
      </trkpt>
      <trkpt lat="44.77951" lon="1.5086">
        <ele>207</ele>
        <time>2019-08-12T11:56:03.242Z</time>
      </trkpt>
      <trkpt lat="44.77952" lon="1.50853">
        <ele>207</ele>
        <time>2019-08-12T11:56:07.242Z</time>
      </trkpt>
      <trkpt lat="44.77948" lon="1.50839">
        <ele>207</ele>
        <time>2019-08-12T11:56:12.239Z</time>
      </trkpt>
      <trkpt lat="44.77948" lon="1.50832">
        <ele>207</ele>
        <time>2019-08-12T11:56:16.234Z</time>
      </trkpt>
      <trkpt lat="44.77947" lon="1.50821">
        <ele>207</ele>
        <time>2019-08-12T11:56:21.251Z</time>
      </trkpt>
      <trkpt lat="44.77949" lon="1.50802">
        <ele>207</ele>
        <time>2019-08-12T11:56:26.232Z</time>
      </trkpt>
      <trkpt lat="44.77952" lon="1.50776">
        <ele>206</ele>
        <time>2019-08-12T11:56:31.233Z</time>
      </trkpt>
      <trkpt lat="44.77952" lon="1.50756">
        <ele>206</ele>
        <time>2019-08-12T11:56:35.243Z</time>
      </trkpt>
      <trkpt lat="44.77951" lon="1.50752">
        <ele>206</ele>
        <time>2019-08-12T11:56:39.243Z</time>
      </trkpt>
      <trkpt lat="44.7795" lon="1.50751">
        <ele>206</ele>
        <time>2019-08-12T11:56:44.242Z</time>
      </trkpt>
      <trkpt lat="44.77951" lon="1.50735">
        <ele>206</ele>
        <time>2019-08-12T11:56:49.233Z</time>
      </trkpt>
      <trkpt lat="44.77957" lon="1.507">
        <ele>204</ele>
        <time>2019-08-12T11:56:54.229Z</time>
      </trkpt>
      <trkpt lat="44.77963" lon="1.50672">
        <ele>209</ele>
        <time>2019-08-12T11:56:59.236Z</time>
      </trkpt>
      <trkpt lat="44.77977" lon="1.5064">
        <ele>208</ele>
        <time>2019-08-12T11:57:04.238Z</time>
      </trkpt>
      <trkpt lat="44.77987" lon="1.5061">
        <ele>213</ele>
        <time>2019-08-12T11:57:08.244Z</time>
      </trkpt>
      <trkpt lat="44.77999" lon="1.50569">
        <ele>210</ele>
        <time>2019-08-12T11:57:13.244Z</time>
      </trkpt>
      <trkpt lat="44.78013" lon="1.50532">
        <ele>212</ele>
        <time>2019-08-12T11:57:18.235Z</time>
      </trkpt>
      <trkpt lat="44.78027" lon="1.50501">
        <ele>211</ele>
        <time>2019-08-12T11:57:22.243Z</time>
      </trkpt>
      <trkpt lat="44.78037" lon="1.50485">
        <ele>211</ele>
        <time>2019-08-12T11:57:27.229Z</time>
      </trkpt>
      <trkpt lat="44.78044" lon="1.50476">
        <ele>213</ele>
        <time>2019-08-12T11:57:32.237Z</time>
      </trkpt>
      <trkpt lat="44.78047" lon="1.50469">
        <ele>213</ele>
        <time>2019-08-12T11:57:37.229Z</time>
      </trkpt>
      <trkpt lat="44.78049" lon="1.50463">
        <ele>213</ele>
        <time>2019-08-12T11:57:42.243Z</time>
      </trkpt>
      <trkpt lat="44.78053" lon="1.50457">
        <ele>213</ele>
        <time>2019-08-12T11:57:47.248Z</time>
      </trkpt>
      <trkpt lat="44.78056" lon="1.5045">
        <ele>213</ele>
        <time>2019-08-12T11:57:52.230Z</time>
      </trkpt>
      <trkpt lat="44.7806" lon="1.50441">
        <ele>213</ele>
        <time>2019-08-12T11:57:57.230Z</time>
      </trkpt>
      <trkpt lat="44.78061" lon="1.50432">
        <ele>213</ele>
        <time>2019-08-12T11:58:02.234Z</time>
      </trkpt>
      <trkpt lat="44.78063" lon="1.50423">
        <ele>214</ele>
        <time>2019-08-12T11:58:07.237Z</time>
      </trkpt>
      <trkpt lat="44.78065" lon="1.50414">
        <ele>214</ele>
        <time>2019-08-12T11:58:12.236Z</time>
      </trkpt>
      <trkpt lat="44.78067" lon="1.50404">
        <ele>214</ele>
        <time>2019-08-12T11:58:17.237Z</time>
      </trkpt>
      <trkpt lat="44.78068" lon="1.50395">
        <ele>215</ele>
        <time>2019-08-12T11:58:22.235Z</time>
      </trkpt>
      <trkpt lat="44.78069" lon="1.50388">
        <ele>215</ele>
        <time>2019-08-12T11:58:27.238Z</time>
      </trkpt>
      <trkpt lat="44.7807" lon="1.5038">
        <ele>218</ele>
        <time>2019-08-12T11:58:31.279Z</time>
      </trkpt>
      <trkpt lat="44.78073" lon="1.50368">
        <ele>217</ele>
        <time>2019-08-12T11:58:36.269Z</time>
      </trkpt>
      <trkpt lat="44.78076" lon="1.50356">
        <ele>217</ele>
        <time>2019-08-12T11:58:41.249Z</time>
      </trkpt>
      <trkpt lat="44.78079" lon="1.50345">
        <ele>217</ele>
        <time>2019-08-12T11:58:46.266Z</time>
      </trkpt>
      <trkpt lat="44.78082" lon="1.50336">
        <ele>217</ele>
        <time>2019-08-12T11:58:51.265Z</time>
      </trkpt>
      <trkpt lat="44.78084" lon="1.50325">
        <ele>217</ele>
        <time>2019-08-12T11:58:56.251Z</time>
      </trkpt>
      <trkpt lat="44.78086" lon="1.50313">
        <ele>217</ele>
        <time>2019-08-12T11:59:01.241Z</time>
      </trkpt>
      <trkpt lat="44.78091" lon="1.50307">
        <ele>217</ele>
        <time>2019-08-12T11:59:06.252Z</time>
      </trkpt>
      <trkpt lat="44.78095" lon="1.503">
        <ele>217</ele>
        <time>2019-08-12T11:59:11.264Z</time>
      </trkpt>
      <trkpt lat="44.78102" lon="1.50293">
        <ele>222</ele>
        <time>2019-08-12T11:59:16.247Z</time>
      </trkpt>
      <trkpt lat="44.78108" lon="1.50287">
        <ele>220</ele>
        <time>2019-08-12T11:59:20.266Z</time>
      </trkpt>
      <trkpt lat="44.78111" lon="1.50279">
        <ele>220</ele>
        <time>2019-08-12T11:59:25.256Z</time>
      </trkpt>
      <trkpt lat="44.78114" lon="1.5027">
        <ele>220</ele>
        <time>2019-08-12T11:59:30.231Z</time>
      </trkpt>
      <trkpt lat="44.78119" lon="1.50262">
        <ele>217</ele>
        <time>2019-08-12T11:59:34.236Z</time>
      </trkpt>
      <trkpt lat="44.78123" lon="1.50255">
        <ele>217</ele>
        <time>2019-08-12T11:59:39.240Z</time>
      </trkpt>
      <trkpt lat="44.78126" lon="1.50245">
        <ele>228</ele>
        <time>2019-08-12T11:59:44.237Z</time>
      </trkpt>
      <trkpt lat="44.78128" lon="1.50237">
        <ele>228</ele>
        <time>2019-08-12T11:59:49.236Z</time>
      </trkpt>
      <trkpt lat="44.7813" lon="1.50227">
        <ele>226</ele>
        <time>2019-08-12T11:59:54.238Z</time>
      </trkpt>
      <trkpt lat="44.78131" lon="1.50223">
        <ele>226</ele>
        <time>2019-08-12T11:59:56.234Z</time>
      </trkpt>
      <trkpt lat="44.78133" lon="1.50213">
        <ele>226</ele>
        <time>2019-08-12T12:00:01.229Z</time>
      </trkpt>
      <trkpt lat="44.78134" lon="1.50205">
        <ele>222</ele>
        <time>2019-08-12T12:00:06.215Z</time>
      </trkpt>
      <trkpt lat="44.78136" lon="1.50195">
        <ele>222</ele>
        <time>2019-08-12T12:00:11.232Z</time>
      </trkpt>
      <trkpt lat="44.78137" lon="1.50187">
        <ele>222</ele>
        <time>2019-08-12T12:00:15.236Z</time>
      </trkpt>
      <trkpt lat="44.78138" lon="1.50178">
        <ele>220</ele>
        <time>2019-08-12T12:00:20.238Z</time>
      </trkpt>
      <trkpt lat="44.78137" lon="1.5017">
        <ele>220</ele>
        <time>2019-08-12T12:00:24.228Z</time>
      </trkpt>
      <trkpt lat="44.78135" lon="1.50159">
        <ele>220</ele>
        <time>2019-08-12T12:00:29.236Z</time>
      </trkpt>
      <trkpt lat="44.78133" lon="1.50151">
        <ele>218</ele>
        <time>2019-08-12T12:00:33.246Z</time>
      </trkpt>
      <trkpt lat="44.7813" lon="1.50141">
        <ele>218</ele>
        <time>2019-08-12T12:00:38.229Z</time>
      </trkpt>
      <trkpt lat="44.78127" lon="1.50131">
        <ele>218</ele>
        <time>2019-08-12T12:00:43.229Z</time>
      </trkpt>
      <trkpt lat="44.78126" lon="1.50123">
        <ele>220</ele>
        <time>2019-08-12T12:00:47.236Z</time>
      </trkpt>
      <trkpt lat="44.78123" lon="1.50112">
        <ele>218</ele>
        <time>2019-08-12T12:00:52.233Z</time>
      </trkpt>
      <trkpt lat="44.7812" lon="1.50101">
        <ele>218</ele>
        <time>2019-08-12T12:00:57.231Z</time>
      </trkpt>
      <trkpt lat="44.78118" lon="1.50092">
        <ele>220</ele>
        <time>2019-08-12T12:01:02.224Z</time>
      </trkpt>
      <trkpt lat="44.78116" lon="1.50085">
        <ele>220</ele>
        <time>2019-08-12T12:01:06.233Z</time>
      </trkpt>
      <trkpt lat="44.78115" lon="1.50081">
        <ele>220</ele>
        <time>2019-08-12T12:01:10.249Z</time>
      </trkpt>
      <trkpt lat="44.78112" lon="1.50073">
        <ele>220</ele>
        <time>2019-08-12T12:01:15.231Z</time>
      </trkpt>
      <trkpt lat="44.7811" lon="1.50068">
        <ele>222</ele>
        <time>2019-08-12T12:01:19.235Z</time>
      </trkpt>
      <trkpt lat="44.78108" lon="1.50061">
        <ele>222</ele>
        <time>2019-08-12T12:01:24.231Z</time>
      </trkpt>
      <trkpt lat="44.78105" lon="1.50055">
        <ele>222</ele>
        <time>2019-08-12T12:01:28.232Z</time>
      </trkpt>
      <trkpt lat="44.78102" lon="1.50047">
        <ele>222</ele>
        <time>2019-08-12T12:01:33.242Z</time>
      </trkpt>
      <trkpt lat="44.78099" lon="1.50039">
        <ele>226</ele>
        <time>2019-08-12T12:01:38.235Z</time>
      </trkpt>
      <trkpt lat="44.78096" lon="1.50033">
        <ele>221</ele>
        <time>2019-08-12T12:01:42.235Z</time>
      </trkpt>
      <trkpt lat="44.78089" lon="1.50021">
        <ele>221</ele>
        <time>2019-08-12T12:01:47.236Z</time>
      </trkpt>
      <trkpt lat="44.78082" lon="1.50001">
        <ele>224</ele>
        <time>2019-08-12T12:01:52.235Z</time>
      </trkpt>
      <trkpt lat="44.78068" lon="1.49971">
        <ele>223</ele>
        <time>2019-08-12T12:01:57.229Z</time>
      </trkpt>
      <trkpt lat="44.78055" lon="1.49946">
        <ele>223</ele>
        <time>2019-08-12T12:02:01.230Z</time>
      </trkpt>
      <trkpt lat="44.78038" lon="1.49911">
        <ele>221</ele>
        <time>2019-08-12T12:02:06.231Z</time>
      </trkpt>
      <trkpt lat="44.78022" lon="1.49886">
        <ele>226</ele>
        <time>2019-08-12T12:02:11.233Z</time>
      </trkpt>
      <trkpt lat="44.78007" lon="1.49862">
        <ele>226</ele>
        <time>2019-08-12T12:02:16.244Z</time>
      </trkpt>
      <trkpt lat="44.78001" lon="1.49851">
        <ele>226</ele>
        <time>2019-08-12T12:02:21.243Z</time>
      </trkpt>
      <trkpt lat="44.77995" lon="1.49841">
        <ele>230</ele>
        <time>2019-08-12T12:02:26.242Z</time>
      </trkpt>
      <trkpt lat="44.77987" lon="1.49831">
        <ele>230</ele>
        <time>2019-08-12T12:02:30.225Z</time>
      </trkpt>
      <trkpt lat="44.77979" lon="1.49822">
        <ele>226</ele>
        <time>2019-08-12T12:02:35.230Z</time>
      </trkpt>
      <trkpt lat="44.77974" lon="1.49816">
        <ele>228</ele>
        <time>2019-08-12T12:02:40.228Z</time>
      </trkpt>
      <trkpt lat="44.77969" lon="1.49811">
        <ele>228</ele>
        <time>2019-08-12T12:02:44.237Z</time>
      </trkpt>
      <trkpt lat="44.77965" lon="1.49807">
        <ele>228</ele>
        <time>2019-08-12T12:02:49.223Z</time>
      </trkpt>
      <trkpt lat="44.77961" lon="1.49802">
        <ele>228</ele>
        <time>2019-08-12T12:02:53.232Z</time>
      </trkpt>
      <trkpt lat="44.77958" lon="1.49797">
        <ele>227</ele>
        <time>2019-08-12T12:02:58.228Z</time>
      </trkpt>
      <trkpt lat="44.77955" lon="1.49792">
        <ele>227</ele>
        <time>2019-08-12T12:03:02.245Z</time>
      </trkpt>
      <trkpt lat="44.77952" lon="1.49785">
        <ele>228</ele>
        <time>2019-08-12T12:03:07.225Z</time>
      </trkpt>
      <trkpt lat="44.77948" lon="1.49776">
        <ele>228</ele>
        <time>2019-08-12T12:03:11.274Z</time>
      </trkpt>
      <trkpt lat="44.77944" lon="1.49766">
        <ele>228</ele>
        <time>2019-08-12T12:03:16.253Z</time>
      </trkpt>
      <trkpt lat="44.77941" lon="1.49757">
        <ele>230</ele>
        <time>2019-08-12T12:03:21.247Z</time>
      </trkpt>
      <trkpt lat="44.77938" lon="1.49749">
        <ele>230</ele>
        <time>2019-08-12T12:03:25.253Z</time>
      </trkpt>
      <trkpt lat="44.77936" lon="1.4974">
        <ele>230</ele>
        <time>2019-08-12T12:03:30.226Z</time>
      </trkpt>
      <trkpt lat="44.77933" lon="1.4973">
        <ele>233</ele>
        <time>2019-08-12T12:03:35.257Z</time>
      </trkpt>
      <trkpt lat="44.77931" lon="1.4972">
        <ele>233</ele>
        <time>2019-08-12T12:03:40.229Z</time>
      </trkpt>
      <trkpt lat="44.77929" lon="1.49714">
        <ele>228</ele>
        <time>2019-08-12T12:03:44.268Z</time>
      </trkpt>
      <trkpt lat="44.77927" lon="1.49705">
        <ele>230</ele>
        <time>2019-08-12T12:03:49.241Z</time>
      </trkpt>
      <trkpt lat="44.77927" lon="1.49699">
        <ele>230</ele>
        <time>2019-08-12T12:03:53.252Z</time>
      </trkpt>
      <trkpt lat="44.77926" lon="1.4969">
        <ele>230</ele>
        <time>2019-08-12T12:03:58.255Z</time>
      </trkpt>
      <trkpt lat="44.77927" lon="1.49681">
        <ele>230</ele>
        <time>2019-08-12T12:04:03.228Z</time>
      </trkpt>
      <trkpt lat="44.77925" lon="1.49675">
        <ele>232</ele>
        <time>2019-08-12T12:04:07.253Z</time>
      </trkpt>
      <trkpt lat="44.77925" lon="1.49669">
        <ele>232</ele>
        <time>2019-08-12T12:04:12.248Z</time>
      </trkpt>
      <trkpt lat="44.77925" lon="1.49657">
        <ele>232</ele>
        <time>2019-08-12T12:04:17.274Z</time>
      </trkpt>
      <trkpt lat="44.77923" lon="1.49646">
        <ele>232</ele>
        <time>2019-08-12T12:04:22.250Z</time>
      </trkpt>
      <trkpt lat="44.77921" lon="1.49634">
        <ele>232</ele>
        <time>2019-08-12T12:04:27.238Z</time>
      </trkpt>
      <trkpt lat="44.77921" lon="1.49623">
        <ele>232</ele>
        <time>2019-08-12T12:04:32.223Z</time>
      </trkpt>
      <trkpt lat="44.7792" lon="1.49616">
        <ele>232</ele>
        <time>2019-08-12T12:04:36.232Z</time>
      </trkpt>
      <trkpt lat="44.77919" lon="1.49606">
        <ele>232</ele>
        <time>2019-08-12T12:04:41.222Z</time>
      </trkpt>
      <trkpt lat="44.77917" lon="1.49594">
        <ele>231</ele>
        <time>2019-08-12T12:04:46.235Z</time>
      </trkpt>
      <trkpt lat="44.77916" lon="1.49587">
        <ele>231</ele>
        <time>2019-08-12T12:04:51.226Z</time>
      </trkpt>
      <trkpt lat="44.77913" lon="1.49582">
        <ele>231</ele>
        <time>2019-08-12T12:04:55.235Z</time>
      </trkpt>
      <trkpt lat="44.77908" lon="1.49579">
        <ele>231</ele>
        <time>2019-08-12T12:04:59.235Z</time>
      </trkpt>
      <trkpt lat="44.77903" lon="1.49576">
        <ele>231</ele>
        <time>2019-08-12T12:05:04.231Z</time>
      </trkpt>
      <trkpt lat="44.77895" lon="1.49576">
        <ele>227</ele>
        <time>2019-08-12T12:05:09.225Z</time>
      </trkpt>
      <trkpt lat="44.7789" lon="1.49577">
        <ele>227</ele>
        <time>2019-08-12T12:05:13.238Z</time>
      </trkpt>
      <trkpt lat="44.77889" lon="1.49575">
        <ele>227</ele>
        <time>2019-08-12T12:05:18.236Z</time>
      </trkpt>
      <trkpt lat="44.77885" lon="1.49575">
        <ele>227</ele>
        <time>2019-08-12T12:05:22.226Z</time>
      </trkpt>
      <trkpt lat="44.77877" lon="1.49574">
        <ele>227</ele>
        <time>2019-08-12T12:05:27.235Z</time>
      </trkpt>
      <trkpt lat="44.77869" lon="1.49571">
        <ele>235</ele>
        <time>2019-08-12T12:05:32.223Z</time>
      </trkpt>
      <trkpt lat="44.77866" lon="1.49565">
        <ele>235</ele>
        <time>2019-08-12T12:05:37.234Z</time>
      </trkpt>
      <trkpt lat="44.77863" lon="1.49555">
        <ele>235</ele>
        <time>2019-08-12T12:05:42.236Z</time>
      </trkpt>
      <trkpt lat="44.77862" lon="1.49546">
        <ele>235</ele>
        <time>2019-08-12T12:05:47.243Z</time>
      </trkpt>
      <trkpt lat="44.7786" lon="1.49539">
        <ele>234</ele>
        <time>2019-08-12T12:05:52.227Z</time>
      </trkpt>
      <trkpt lat="44.7786" lon="1.49531">
        <ele>234</ele>
        <time>2019-08-12T12:05:56.233Z</time>
      </trkpt>
      <trkpt lat="44.7786" lon="1.49525">
        <ele>234</ele>
        <time>2019-08-12T12:06:00.230Z</time>
      </trkpt>
      <trkpt lat="44.77859" lon="1.49518">
        <ele>234</ele>
        <time>2019-08-12T12:06:05.236Z</time>
      </trkpt>
      <trkpt lat="44.77855" lon="1.4951">
        <ele>234</ele>
        <time>2019-08-12T12:06:09.233Z</time>
      </trkpt>
      <trkpt lat="44.7785" lon="1.49502">
        <ele>234</ele>
        <time>2019-08-12T12:06:13.239Z</time>
      </trkpt>
      <trkpt lat="44.7784" lon="1.49493">
        <ele>236</ele>
        <time>2019-08-12T12:06:18.238Z</time>
      </trkpt>
      <trkpt lat="44.77834" lon="1.49485">
        <ele>235</ele>
        <time>2019-08-12T12:06:23.228Z</time>
      </trkpt>
      <trkpt lat="44.77831" lon="1.4948">
        <ele>235</ele>
        <time>2019-08-12T12:06:27.242Z</time>
      </trkpt>
      <trkpt lat="44.77826" lon="1.49471">
        <ele>235</ele>
        <time>2019-08-12T12:06:32.229Z</time>
      </trkpt>
      <trkpt lat="44.77822" lon="1.49462">
        <ele>235</ele>
        <time>2019-08-12T12:06:36.244Z</time>
      </trkpt>
      <trkpt lat="44.77818" lon="1.49454">
        <ele>238</ele>
        <time>2019-08-12T12:06:40.235Z</time>
      </trkpt>
      <trkpt lat="44.77812" lon="1.49444">
        <ele>238</ele>
        <time>2019-08-12T12:06:45.229Z</time>
      </trkpt>
      <trkpt lat="44.77808" lon="1.49435">
        <ele>238</ele>
        <time>2019-08-12T12:06:50.229Z</time>
      </trkpt>
      <trkpt lat="44.77807" lon="1.49427">
        <ele>239</ele>
        <time>2019-08-12T12:06:54.233Z</time>
      </trkpt>
      <trkpt lat="44.77807" lon="1.49419">
        <ele>239</ele>
        <time>2019-08-12T12:06:59.234Z</time>
      </trkpt>
      <trkpt lat="44.77807" lon="1.49412">
        <ele>239</ele>
        <time>2019-08-12T12:07:03.227Z</time>
      </trkpt>
      <trkpt lat="44.77806" lon="1.49406">
        <ele>239</ele>
        <time>2019-08-12T12:07:08.238Z</time>
      </trkpt>
      <trkpt lat="44.77806" lon="1.49402">
        <ele>238</ele>
        <time>2019-08-12T12:07:12.226Z</time>
      </trkpt>
      <trkpt lat="44.77805" lon="1.49397">
        <ele>238</ele>
        <time>2019-08-12T12:07:17.231Z</time>
      </trkpt>
      <trkpt lat="44.77803" lon="1.49392">
        <ele>238</ele>
        <time>2019-08-12T12:07:22.232Z</time>
      </trkpt>
      <trkpt lat="44.77796" lon="1.49384">
        <ele>238</ele>
        <time>2019-08-12T12:07:27.227Z</time>
      </trkpt>
      <trkpt lat="44.7779" lon="1.49378">
        <ele>241</ele>
        <time>2019-08-12T12:07:31.231Z</time>
      </trkpt>
      <trkpt lat="44.77783" lon="1.49374">
        <ele>240</ele>
        <time>2019-08-12T12:07:35.227Z</time>
      </trkpt>
      <trkpt lat="44.77777" lon="1.49371">
        <ele>240</ele>
        <time>2019-08-12T12:07:40.225Z</time>
      </trkpt>
      <trkpt lat="44.77772" lon="1.49366">
        <ele>240</ele>
        <time>2019-08-12T12:07:45.236Z</time>
      </trkpt>
      <trkpt lat="44.77769" lon="1.49357">
        <ele>240</ele>
        <time>2019-08-12T12:07:49.230Z</time>
      </trkpt>
      <trkpt lat="44.77765" lon="1.49349">
        <ele>240</ele>
        <time>2019-08-12T12:07:53.267Z</time>
      </trkpt>
      <trkpt lat="44.7776" lon="1.49342">
        <ele>244</ele>
        <time>2019-08-12T12:07:58.249Z</time>
      </trkpt>
      <trkpt lat="44.77754" lon="1.49335">
        <ele>244</ele>
        <time>2019-08-12T12:08:03.255Z</time>
      </trkpt>
      <trkpt lat="44.77751" lon="1.49333">
        <ele>244</ele>
        <time>2019-08-12T12:08:07.264Z</time>
      </trkpt>
      <trkpt lat="44.77744" lon="1.49327">
        <ele>244</ele>
        <time>2019-08-12T12:08:12.251Z</time>
      </trkpt>
      <trkpt lat="44.77738" lon="1.4932">
        <ele>244</ele>
        <time>2019-08-12T12:08:17.250Z</time>
      </trkpt>
      <trkpt lat="44.7773" lon="1.49313">
        <ele>247</ele>
        <time>2019-08-12T12:08:22.246Z</time>
      </trkpt>
      <trkpt lat="44.77725" lon="1.49307">
        <ele>247</ele>
        <time>2019-08-12T12:08:27.262Z</time>
      </trkpt>
      <trkpt lat="44.7772" lon="1.49302">
        <ele>247</ele>
        <time>2019-08-12T12:08:32.266Z</time>
      </trkpt>
      <trkpt lat="44.77716" lon="1.49296">
        <ele>247</ele>
        <time>2019-08-12T12:08:37.248Z</time>
      </trkpt>
      <trkpt lat="44.77713" lon="1.49292">
        <ele>247</ele>
        <time>2019-08-12T12:08:41.272Z</time>
      </trkpt>
      <trkpt lat="44.7771" lon="1.49287">
        <ele>244</ele>
        <time>2019-08-12T12:08:46.259Z</time>
      </trkpt>
      <trkpt lat="44.77707" lon="1.49281">
        <ele>249</ele>
        <time>2019-08-12T12:08:51.220Z</time>
      </trkpt>
      <trkpt lat="44.77704" lon="1.49277">
        <ele>249</ele>
        <time>2019-08-12T12:08:55.226Z</time>
      </trkpt>
      <trkpt lat="44.77701" lon="1.49272">
        <ele>249</ele>
        <time>2019-08-12T12:08:59.230Z</time>
      </trkpt>
      <trkpt lat="44.77698" lon="1.49265">
        <ele>249</ele>
        <time>2019-08-12T12:09:03.242Z</time>
      </trkpt>
      <trkpt lat="44.77695" lon="1.49261">
        <ele>245</ele>
        <time>2019-08-12T12:09:08.263Z</time>
      </trkpt>
      <trkpt lat="44.77688" lon="1.49257">
        <ele>245</ele>
        <time>2019-08-12T12:09:13.231Z</time>
      </trkpt>
      <trkpt lat="44.77686" lon="1.49254">
        <ele>245</ele>
        <time>2019-08-12T12:09:17.229Z</time>
      </trkpt>
      <trkpt lat="44.77681" lon="1.4925">
        <ele>245</ele>
        <time>2019-08-12T12:09:22.223Z</time>
      </trkpt>
      <trkpt lat="44.77675" lon="1.49246">
        <ele>250</ele>
        <time>2019-08-12T12:09:27.227Z</time>
      </trkpt>
      <trkpt lat="44.77671" lon="1.4924">
        <ele>250</ele>
        <time>2019-08-12T12:09:31.244Z</time>
      </trkpt>
      <trkpt lat="44.77666" lon="1.49235">
        <ele>247</ele>
        <time>2019-08-12T12:09:36.235Z</time>
      </trkpt>
      <trkpt lat="44.77659" lon="1.4923">
        <ele>247</ele>
        <time>2019-08-12T12:09:41.229Z</time>
      </trkpt>
      <trkpt lat="44.77652" lon="1.49224">
        <ele>251</ele>
        <time>2019-08-12T12:09:46.251Z</time>
      </trkpt>
      <trkpt lat="44.77647" lon="1.49222">
        <ele>251</ele>
        <time>2019-08-12T12:09:51.231Z</time>
      </trkpt>
      <trkpt lat="44.77645" lon="1.49221">
        <ele>251</ele>
        <time>2019-08-12T12:09:56.224Z</time>
      </trkpt>
      <trkpt lat="44.77643" lon="1.49221">
        <ele>251</ele>
        <time>2019-08-12T12:10:00.229Z</time>
      </trkpt>
      <trkpt lat="44.77641" lon="1.4922">
        <ele>251</ele>
        <time>2019-08-12T12:10:05.243Z</time>
      </trkpt>
      <trkpt lat="44.77638" lon="1.49219">
        <ele>251</ele>
        <time>2019-08-12T12:10:10.222Z</time>
      </trkpt>
      <trkpt lat="44.77634" lon="1.49217">
        <ele>251</ele>
        <time>2019-08-12T12:10:14.222Z</time>
      </trkpt>
      <trkpt lat="44.77624" lon="1.49211">
        <ele>251</ele>
        <time>2019-08-12T12:10:19.233Z</time>
      </trkpt>
      <trkpt lat="44.77614" lon="1.49204">
        <ele>248</ele>
        <time>2019-08-12T12:10:24.226Z</time>
      </trkpt>
      <trkpt lat="44.77611" lon="1.49202">
        <ele>248</ele>
        <time>2019-08-12T12:10:29.227Z</time>
      </trkpt>
      <trkpt lat="44.77609" lon="1.492">
        <ele>248</ele>
        <time>2019-08-12T12:10:34.231Z</time>
      </trkpt>
      <trkpt lat="44.77605" lon="1.49196">
        <ele>248</ele>
        <time>2019-08-12T12:10:39.234Z</time>
      </trkpt>
      <trkpt lat="44.77594" lon="1.49189">
        <ele>247</ele>
        <time>2019-08-12T12:10:44.228Z</time>
      </trkpt>
      <trkpt lat="44.7758" lon="1.4918">
        <ele>245</ele>
        <time>2019-08-12T12:10:49.232Z</time>
      </trkpt>
      <trkpt lat="44.77573" lon="1.49174">
        <ele>245</ele>
        <time>2019-08-12T12:10:53.243Z</time>
      </trkpt>
      <trkpt lat="44.77564" lon="1.49166">
        <ele>254</ele>
        <time>2019-08-12T12:10:58.229Z</time>
      </trkpt>
      <trkpt lat="44.77562" lon="1.49164">
        <ele>254</ele>
        <time>2019-08-12T12:11:03.230Z</time>
      </trkpt>
      <trkpt lat="44.77556" lon="1.49154">
        <ele>254</ele>
        <time>2019-08-12T12:11:08.236Z</time>
      </trkpt>
      <trkpt lat="44.7755" lon="1.49148">
        <ele>250</ele>
        <time>2019-08-12T12:11:13.228Z</time>
      </trkpt>
      <trkpt lat="44.77543" lon="1.49141">
        <ele>250</ele>
        <time>2019-08-12T12:11:17.226Z</time>
      </trkpt>
      <trkpt lat="44.77536" lon="1.49135">
        <ele>257</ele>
        <time>2019-08-12T12:11:22.226Z</time>
      </trkpt>
      <trkpt lat="44.7753" lon="1.49131">
        <ele>257</ele>
        <time>2019-08-12T12:11:26.222Z</time>
      </trkpt>
      <trkpt lat="44.77526" lon="1.49128">
        <ele>257</ele>
        <time>2019-08-12T12:11:31.228Z</time>
      </trkpt>
      <trkpt lat="44.77521" lon="1.49124">
        <ele>253</ele>
        <time>2019-08-12T12:11:35.233Z</time>
      </trkpt>
      <trkpt lat="44.77516" lon="1.49119">
        <ele>253</ele>
        <time>2019-08-12T12:11:39.226Z</time>
      </trkpt>
      <trkpt lat="44.77509" lon="1.49113">
        <ele>255</ele>
        <time>2019-08-12T12:11:44.225Z</time>
      </trkpt>
      <trkpt lat="44.77502" lon="1.49106">
        <ele>255</ele>
        <time>2019-08-12T12:11:49.231Z</time>
      </trkpt>
      <trkpt lat="44.77496" lon="1.49098">
        <ele>255</ele>
        <time>2019-08-12T12:11:54.231Z</time>
      </trkpt>
      <trkpt lat="44.77491" lon="1.49092">
        <ele>253</ele>
        <time>2019-08-12T12:11:58.228Z</time>
      </trkpt>
      <trkpt lat="44.77485" lon="1.49088">
        <ele>256</ele>
        <time>2019-08-12T12:12:03.232Z</time>
      </trkpt>
      <trkpt lat="44.7748" lon="1.49083">
        <ele>256</ele>
        <time>2019-08-12T12:12:07.254Z</time>
      </trkpt>
      <trkpt lat="44.77475" lon="1.49078">
        <ele>256</ele>
        <time>2019-08-12T12:12:11.255Z</time>
      </trkpt>
      <trkpt lat="44.7747" lon="1.49073">
        <ele>256</ele>
        <time>2019-08-12T12:12:16.255Z</time>
      </trkpt>
      <trkpt lat="44.77467" lon="1.4907">
        <ele>256</ele>
        <time>2019-08-12T12:12:21.259Z</time>
      </trkpt>
      <trkpt lat="44.7746" lon="1.49063">
        <ele>253</ele>
        <time>2019-08-12T12:12:26.250Z</time>
      </trkpt>
      <trkpt lat="44.77453" lon="1.49059">
        <ele>255</ele>
        <time>2019-08-12T12:12:31.257Z</time>
      </trkpt>
      <trkpt lat="44.77445" lon="1.49048">
        <ele>255</ele>
        <time>2019-08-12T12:12:36.238Z</time>
      </trkpt>
      <trkpt lat="44.7744" lon="1.49041">
        <ele>251</ele>
        <time>2019-08-12T12:12:41.233Z</time>
      </trkpt>
      <trkpt lat="44.77434" lon="1.49034">
        <ele>251</ele>
        <time>2019-08-12T12:12:45.252Z</time>
      </trkpt>
      <trkpt lat="44.77431" lon="1.49029">
        <ele>251</ele>
        <time>2019-08-12T12:12:50.224Z</time>
      </trkpt>
      <trkpt lat="44.77429" lon="1.49022">
        <ele>254</ele>
        <time>2019-08-12T12:12:54.266Z</time>
      </trkpt>
      <trkpt lat="44.77422" lon="1.49015">
        <ele>254</ele>
        <time>2019-08-12T12:12:59.241Z</time>
      </trkpt>
      <trkpt lat="44.77416" lon="1.49006">
        <ele>252</ele>
        <time>2019-08-12T12:13:03.249Z</time>
      </trkpt>
      <trkpt lat="44.77411" lon="1.49001">
        <ele>252</ele>
        <time>2019-08-12T12:13:08.221Z</time>
      </trkpt>
      <trkpt lat="44.77405" lon="1.48994">
        <ele>252</ele>
        <time>2019-08-12T12:13:13.227Z</time>
      </trkpt>
      <trkpt lat="44.77401" lon="1.4899">
        <ele>255</ele>
        <time>2019-08-12T12:13:17.232Z</time>
      </trkpt>
      <trkpt lat="44.77397" lon="1.48986">
        <ele>253</ele>
        <time>2019-08-12T12:13:21.234Z</time>
      </trkpt>
      <trkpt lat="44.7739" lon="1.48981">
        <ele>253</ele>
        <time>2019-08-12T12:13:25.237Z</time>
      </trkpt>
      <trkpt lat="44.77382" lon="1.48976">
        <ele>253</ele>
        <time>2019-08-12T12:13:30.224Z</time>
      </trkpt>
      <trkpt lat="44.77377" lon="1.48974">
        <ele>253</ele>
        <time>2019-08-12T12:13:34.221Z</time>
      </trkpt>
      <trkpt lat="44.77374" lon="1.48972">
        <ele>255</ele>
        <time>2019-08-12T12:13:38.223Z</time>
      </trkpt>
      <trkpt lat="44.77369" lon="1.4897">
        <ele>255</ele>
        <time>2019-08-12T12:13:43.223Z</time>
      </trkpt>
      <trkpt lat="44.77363" lon="1.48969">
        <ele>255</ele>
        <time>2019-08-12T12:13:48.235Z</time>
      </trkpt>
      <trkpt lat="44.77353" lon="1.48967">
        <ele>255</ele>
        <time>2019-08-12T12:13:53.229Z</time>
      </trkpt>
      <trkpt lat="44.77344" lon="1.48965">
        <ele>257</ele>
        <time>2019-08-12T12:13:57.235Z</time>
      </trkpt>
      <trkpt lat="44.77334" lon="1.48963">
        <ele>257</ele>
        <time>2019-08-12T12:14:02.227Z</time>
      </trkpt>
      <trkpt lat="44.77328" lon="1.48962">
        <ele>257</ele>
        <time>2019-08-12T12:14:06.241Z</time>
      </trkpt>
      <trkpt lat="44.7732" lon="1.48961">
        <ele>257</ele>
        <time>2019-08-12T12:14:11.229Z</time>
      </trkpt>
      <trkpt lat="44.77314" lon="1.4896">
        <ele>263</ele>
        <time>2019-08-12T12:14:16.237Z</time>
      </trkpt>
      <trkpt lat="44.77307" lon="1.48959">
        <ele>263</ele>
        <time>2019-08-12T12:14:21.225Z</time>
      </trkpt>
      <trkpt lat="44.77303" lon="1.48957">
        <ele>257</ele>
        <time>2019-08-12T12:14:25.231Z</time>
      </trkpt>
      <trkpt lat="44.77297" lon="1.48954">
        <ele>257</ele>
        <time>2019-08-12T12:14:30.225Z</time>
      </trkpt>
      <trkpt lat="44.7729" lon="1.48951">
        <ele>259</ele>
        <time>2019-08-12T12:14:35.232Z</time>
      </trkpt>
      <trkpt lat="44.77286" lon="1.4895">
        <ele>259</ele>
        <time>2019-08-12T12:14:39.240Z</time>
      </trkpt>
      <trkpt lat="44.7728" lon="1.48948">
        <ele>259</ele>
        <time>2019-08-12T12:14:44.228Z</time>
      </trkpt>
      <trkpt lat="44.77275" lon="1.48947">
        <ele>259</ele>
        <time>2019-08-12T12:14:48.238Z</time>
      </trkpt>
      <trkpt lat="44.77273" lon="1.48946">
        <ele>259</ele>
        <time>2019-08-12T12:14:53.233Z</time>
      </trkpt>
      <trkpt lat="44.77264" lon="1.48944">
        <ele>261</ele>
        <time>2019-08-12T12:14:58.231Z</time>
      </trkpt>
      <trkpt lat="44.77256" lon="1.48942">
        <ele>261</ele>
        <time>2019-08-12T12:15:03.247Z</time>
      </trkpt>
      <trkpt lat="44.77249" lon="1.48942">
        <ele>261</ele>
        <time>2019-08-12T12:15:08.234Z</time>
      </trkpt>
      <trkpt lat="44.77242" lon="1.48939">
        <ele>261</ele>
        <time>2019-08-12T12:15:13.227Z</time>
      </trkpt>
      <trkpt lat="44.77236" lon="1.48937">
        <ele>261</ele>
        <time>2019-08-12T12:15:17.228Z</time>
      </trkpt>
      <trkpt lat="44.77228" lon="1.48935">
        <ele>265</ele>
        <time>2019-08-12T12:15:22.237Z</time>
      </trkpt>
      <trkpt lat="44.77222" lon="1.48931">
        <ele>265</ele>
        <time>2019-08-12T12:15:27.231Z</time>
      </trkpt>
      <trkpt lat="44.77215" lon="1.48929">
        <ele>259</ele>
        <time>2019-08-12T12:15:32.219Z</time>
      </trkpt>
      <trkpt lat="44.77211" lon="1.48927">
        <ele>259</ele>
        <time>2019-08-12T12:15:36.234Z</time>
      </trkpt>
      <trkpt lat="44.77207" lon="1.48925">
        <ele>265</ele>
        <time>2019-08-12T12:15:41.232Z</time>
      </trkpt>
      <trkpt lat="44.77201" lon="1.48923">
        <ele>265</ele>
        <time>2019-08-12T12:15:46.231Z</time>
      </trkpt>
      <trkpt lat="44.77193" lon="1.48918">
        <ele>265</ele>
        <time>2019-08-12T12:15:51.229Z</time>
      </trkpt>
      <trkpt lat="44.77184" lon="1.48914">
        <ele>265</ele>
        <time>2019-08-12T12:15:55.254Z</time>
      </trkpt>
      <trkpt lat="44.77177" lon="1.48912">
        <ele>266</ele>
        <time>2019-08-12T12:16:00.229Z</time>
      </trkpt>
      <trkpt lat="44.77176" lon="1.48911">
        <ele>266</ele>
        <time>2019-08-12T12:16:04.254Z</time>
      </trkpt>
      <trkpt lat="44.77171" lon="1.48908">
        <ele>266</ele>
        <time>2019-08-12T12:16:09.250Z</time>
      </trkpt>
      <trkpt lat="44.77161" lon="1.48905">
        <ele>266</ele>
        <time>2019-08-12T12:16:14.266Z</time>
      </trkpt>
      <trkpt lat="44.77151" lon="1.48903">
        <ele>268</ele>
        <time>2019-08-12T12:16:19.261Z</time>
      </trkpt>
      <trkpt lat="44.77141" lon="1.48901">
        <ele>262</ele>
        <time>2019-08-12T12:16:24.285Z</time>
      </trkpt>
      <trkpt lat="44.77134" lon="1.48898">
        <ele>262</ele>
        <time>2019-08-12T12:16:29.271Z</time>
      </trkpt>
      <trkpt lat="44.77127" lon="1.48895">
        <ele>262</ele>
        <time>2019-08-12T12:16:34.249Z</time>
      </trkpt>
      <trkpt lat="44.7712" lon="1.48891">
        <ele>264</ele>
        <time>2019-08-12T12:16:39.255Z</time>
      </trkpt>
      <trkpt lat="44.77115" lon="1.48889">
        <ele>264</ele>
        <time>2019-08-12T12:16:43.256Z</time>
      </trkpt>
      <trkpt lat="44.77107" lon="1.48888">
        <ele>264</ele>
        <time>2019-08-12T12:16:48.242Z</time>
      </trkpt>
      <trkpt lat="44.77101" lon="1.48884">
        <ele>264</ele>
        <time>2019-08-12T12:16:52.257Z</time>
      </trkpt>
      <trkpt lat="44.77095" lon="1.48881">
        <ele>266</ele>
        <time>2019-08-12T12:16:57.251Z</time>
      </trkpt>
      <trkpt lat="44.77085" lon="1.48881">
        <ele>266</ele>
        <time>2019-08-12T12:17:02.248Z</time>
      </trkpt>
      <trkpt lat="44.77078" lon="1.48881">
        <ele>266</ele>
        <time>2019-08-12T12:17:06.261Z</time>
      </trkpt>
      <trkpt lat="44.7707" lon="1.48881">
        <ele>266</ele>
        <time>2019-08-12T12:17:11.240Z</time>
      </trkpt>
      <trkpt lat="44.77065" lon="1.48882">
        <ele>266</ele>
        <time>2019-08-12T12:17:15.250Z</time>
      </trkpt>
      <trkpt lat="44.77057" lon="1.48882">
        <ele>266</ele>
        <time>2019-08-12T12:17:20.230Z</time>
      </trkpt>
      <trkpt lat="44.77053" lon="1.48884">
        <ele>266</ele>
        <time>2019-08-12T12:17:24.237Z</time>
      </trkpt>
      <trkpt lat="44.77049" lon="1.48881">
        <ele>266</ele>
        <time>2019-08-12T12:17:29.230Z</time>
      </trkpt>
      <trkpt lat="44.77041" lon="1.48878">
        <ele>268</ele>
        <time>2019-08-12T12:17:34.226Z</time>
      </trkpt>
      <trkpt lat="44.77034" lon="1.48877">
        <ele>268</ele>
        <time>2019-08-12T12:17:39.234Z</time>
      </trkpt>
      <trkpt lat="44.77029" lon="1.48876">
        <ele>268</ele>
        <time>2019-08-12T12:17:43.232Z</time>
      </trkpt>
      <trkpt lat="44.77023" lon="1.48875">
        <ele>268</ele>
        <time>2019-08-12T12:17:48.234Z</time>
      </trkpt>
      <trkpt lat="44.77018" lon="1.48875">
        <ele>264</ele>
        <time>2019-08-12T12:17:53.228Z</time>
      </trkpt>
      <trkpt lat="44.77017" lon="1.48874">
        <ele>264</ele>
        <time>2019-08-12T12:17:58.222Z</time>
      </trkpt>
      <trkpt lat="44.77007" lon="1.48873">
        <ele>266</ele>
        <time>2019-08-12T12:18:03.227Z</time>
      </trkpt>
      <trkpt lat="44.77002" lon="1.48873">
        <ele>266</ele>
        <time>2019-08-12T12:18:07.225Z</time>
      </trkpt>
      <trkpt lat="44.76996" lon="1.48875">
        <ele>266</ele>
        <time>2019-08-12T12:18:11.238Z</time>
      </trkpt>
      <trkpt lat="44.76987" lon="1.48876">
        <ele>268</ele>
        <time>2019-08-12T12:18:16.226Z</time>
      </trkpt>
      <trkpt lat="44.76981" lon="1.4888">
        <ele>268</ele>
        <time>2019-08-12T12:18:20.236Z</time>
      </trkpt>
      <trkpt lat="44.76975" lon="1.48878">
        <ele>268</ele>
        <time>2019-08-12T12:18:24.245Z</time>
      </trkpt>
      <trkpt lat="44.76969" lon="1.48878">
        <ele>268</ele>
        <time>2019-08-12T12:18:29.241Z</time>
      </trkpt>
      <trkpt lat="44.76967" lon="1.48878">
        <ele>268</ele>
        <time>2019-08-12T12:18:33.237Z</time>
      </trkpt>
      <trkpt lat="44.76962" lon="1.48879">
        <ele>268</ele>
        <time>2019-08-12T12:18:38.229Z</time>
      </trkpt>
      <trkpt lat="44.76956" lon="1.48888">
        <ele>267</ele>
        <time>2019-08-12T12:18:43.230Z</time>
      </trkpt>
      <trkpt lat="44.76954" lon="1.48891">
        <ele>267</ele>
        <time>2019-08-12T12:18:47.230Z</time>
      </trkpt>
      <trkpt lat="44.7695" lon="1.48893">
        <ele>267</ele>
        <time>2019-08-12T12:18:52.236Z</time>
      </trkpt>
      <trkpt lat="44.76942" lon="1.48902">
        <ele>267</ele>
        <time>2019-08-12T12:18:57.224Z</time>
      </trkpt>
      <trkpt lat="44.76933" lon="1.4891">
        <ele>269</ele>
        <time>2019-08-12T12:19:01.228Z</time>
      </trkpt>
      <trkpt lat="44.76923" lon="1.48922">
        <ele>269</ele>
        <time>2019-08-12T12:19:06.232Z</time>
      </trkpt>
      <trkpt lat="44.76921" lon="1.48924">
        <ele>269</ele>
        <time>2019-08-12T12:19:11.217Z</time>
      </trkpt>
      <trkpt lat="44.7692" lon="1.48922">
        <ele>269</ele>
        <time>2019-08-12T12:19:15.248Z</time>
      </trkpt>
      <trkpt lat="44.76914" lon="1.48919">
        <ele>269</ele>
        <time>2019-08-12T12:19:20.236Z</time>
      </trkpt>
      <trkpt lat="44.76911" lon="1.48916">
        <ele>269</ele>
        <time>2019-08-12T12:19:24.239Z</time>
      </trkpt>
      <trkpt lat="44.76904" lon="1.48908">
        <ele>269</ele>
        <time>2019-08-12T12:19:29.237Z</time>
      </trkpt>
      <trkpt lat="44.76901" lon="1.48902">
        <ele>269</ele>
        <time>2019-08-12T12:19:34.225Z</time>
      </trkpt>
      <trkpt lat="44.769" lon="1.48893">
        <ele>269</ele>
        <time>2019-08-12T12:19:39.250Z</time>
      </trkpt>
      <trkpt lat="44.76899" lon="1.48886">
        <ele>269</ele>
        <time>2019-08-12T12:19:43.251Z</time>
      </trkpt>
      <trkpt lat="44.76899" lon="1.48871">
        <ele>270</ele>
        <time>2019-08-12T12:19:48.229Z</time>
      </trkpt>
      <trkpt lat="44.769" lon="1.48866">
        <ele>270</ele>
        <time>2019-08-12T12:19:53.229Z</time>
      </trkpt>
      <trkpt lat="44.76902" lon="1.48864">
        <ele>270</ele>
        <time>2019-08-12T12:19:58.230Z</time>
      </trkpt>
      <trkpt lat="44.76904" lon="1.48863">
        <ele>269</ele>
        <time>2019-08-12T12:20:02.240Z</time>
      </trkpt>
      <trkpt lat="44.76908" lon="1.48862">
        <ele>269</ele>
        <time>2019-08-12T12:20:07.227Z</time>
      </trkpt>
      <trkpt lat="44.76912" lon="1.4886">
        <ele>269</ele>
        <time>2019-08-12T12:20:12.248Z</time>
      </trkpt>
      <trkpt lat="44.76914" lon="1.4886">
        <ele>269</ele>
        <time>2019-08-12T12:20:17.242Z</time>
      </trkpt>
      <trkpt lat="44.76916" lon="1.48859">
        <ele>269</ele>
        <time>2019-08-12T12:20:22.227Z</time>
      </trkpt>
      <trkpt lat="44.76919" lon="1.48857">
        <ele>269</ele>
        <time>2019-08-12T12:20:26.244Z</time>
      </trkpt>
      <trkpt lat="44.76921" lon="1.48856">
        <ele>269</ele>
        <time>2019-08-12T12:20:31.242Z</time>
      </trkpt>
      <trkpt lat="44.76923" lon="1.48854">
        <ele>269</ele>
        <time>2019-08-12T12:20:36.246Z</time>
      </trkpt>
      <trkpt lat="44.76929" lon="1.48849">
        <ele>269</ele>
        <time>2019-08-12T12:20:41.244Z</time>
      </trkpt>
      <trkpt lat="44.7693" lon="1.48848">
        <ele>269</ele>
        <time>2019-08-12T12:20:45.228Z</time>
      </trkpt>
      <trkpt lat="44.76933" lon="1.48846">
        <ele>270</ele>
        <time>2019-08-12T12:20:50.227Z</time>
      </trkpt>
      <trkpt lat="44.76934" lon="1.48845">
        <ele>270</ele>
        <time>2019-08-12T12:20:54.233Z</time>
      </trkpt>
      <trkpt lat="44.7694" lon="1.48841">
        <ele>270</ele>
        <time>2019-08-12T12:20:59.216Z</time>
      </trkpt>
      <trkpt lat="44.76944" lon="1.48839">
        <ele>270</ele>
        <time>2019-08-12T12:21:03.231Z</time>
      </trkpt>
      <trkpt lat="44.76947" lon="1.48837">
        <ele>270</ele>
        <time>2019-08-12T12:21:08.237Z</time>
      </trkpt>
      <trkpt lat="44.76955" lon="1.48829">
        <ele>270</ele>
        <time>2019-08-12T12:21:12.235Z</time>
      </trkpt>
      <trkpt lat="44.76958" lon="1.48824">
        <ele>270</ele>
        <time>2019-08-12T12:21:17.234Z</time>
      </trkpt>
      <trkpt lat="44.7696" lon="1.48823">
        <ele>267</ele>
        <time>2019-08-12T12:21:21.234Z</time>
      </trkpt>
      <trkpt lat="44.76961" lon="1.4882">
        <ele>267</ele>
        <time>2019-08-12T12:21:26.227Z</time>
      </trkpt>
      <trkpt lat="44.76963" lon="1.48816">
        <ele>270</ele>
        <time>2019-08-12T12:21:31.223Z</time>
      </trkpt>
      <trkpt lat="44.76964" lon="1.48812">
        <ele>270</ele>
        <time>2019-08-12T12:21:35.233Z</time>
      </trkpt>
      <trkpt lat="44.76965" lon="1.48808">
        <ele>270</ele>
        <time>2019-08-12T12:21:40.208Z</time>
      </trkpt>
      <trkpt lat="44.76967" lon="1.48798">
        <ele>270</ele>
        <time>2019-08-12T12:21:45.224Z</time>
      </trkpt>
      <trkpt lat="44.76969" lon="1.48777">
        <ele>273</ele>
        <time>2019-08-12T12:21:50.231Z</time>
      </trkpt>
      <trkpt lat="44.76977" lon="1.4876">
        <ele>275</ele>
        <time>2019-08-12T12:21:54.239Z</time>
      </trkpt>
      <trkpt lat="44.76984" lon="1.48744">
        <ele>275</ele>
        <time>2019-08-12T12:21:59.238Z</time>
      </trkpt>
      <trkpt lat="44.76995" lon="1.48733">
        <ele>275</ele>
        <time>2019-08-12T12:22:03.240Z</time>
      </trkpt>
      <trkpt lat="44.76998" lon="1.48725">
        <ele>275</ele>
        <time>2019-08-12T12:22:08.223Z</time>
      </trkpt>
      <trkpt lat="44.77005" lon="1.4872">
        <ele>275</ele>
        <time>2019-08-12T12:22:13.230Z</time>
      </trkpt>
      <trkpt lat="44.77005" lon="1.48719">
        <ele>275</ele>
        <time>2019-08-12T12:22:17.228Z</time>
      </trkpt>
      <trkpt lat="44.77006" lon="1.48715">
        <ele>275</ele>
        <time>2019-08-12T12:22:22.240Z</time>
      </trkpt>
      <trkpt lat="44.77009" lon="1.48707">
        <ele>279</ele>
        <time>2019-08-12T12:22:27.224Z</time>
      </trkpt>
      <trkpt lat="44.77011" lon="1.48697">
        <ele>279</ele>
        <time>2019-08-12T12:22:32.236Z</time>
      </trkpt>
      <trkpt lat="44.77014" lon="1.48688">
        <ele>284</ele>
        <time>2019-08-12T12:22:37.225Z</time>
      </trkpt>
      <trkpt lat="44.77014" lon="1.48683">
        <ele>284</ele>
        <time>2019-08-12T12:22:41.240Z</time>
      </trkpt>
      <trkpt lat="44.77014" lon="1.48678">
        <ele>289</ele>
        <time>2019-08-12T12:22:46.235Z</time>
      </trkpt>
      <trkpt lat="44.77013" lon="1.48672">
        <ele>283</ele>
        <time>2019-08-12T12:22:51.224Z</time>
      </trkpt>
      <trkpt lat="44.77011" lon="1.48666">
        <ele>283</ele>
        <time>2019-08-12T12:22:56.222Z</time>
      </trkpt>
      <trkpt lat="44.77008" lon="1.48663">
        <ele>283</ele>
        <time>2019-08-12T12:23:00.223Z</time>
      </trkpt>
      <trkpt lat="44.77004" lon="1.4866">
        <ele>283</ele>
        <time>2019-08-12T12:23:04.231Z</time>
      </trkpt>
      <trkpt lat="44.77" lon="1.48659">
        <ele>283</ele>
        <time>2019-08-12T12:23:09.232Z</time>
      </trkpt>
      <trkpt lat="44.76994" lon="1.48656">
        <ele>283</ele>
        <time>2019-08-12T12:23:13.235Z</time>
      </trkpt>
      <trkpt lat="44.7699" lon="1.48648">
        <ele>287</ele>
        <time>2019-08-12T12:23:18.225Z</time>
      </trkpt>
      <trkpt lat="44.76989" lon="1.48641">
        <ele>287</ele>
        <time>2019-08-12T12:23:23.226Z</time>
      </trkpt>
      <trkpt lat="44.76992" lon="1.48637">
        <ele>287</ele>
        <time>2019-08-12T12:23:27.238Z</time>
      </trkpt>
      <trkpt lat="44.76997" lon="1.48631">
        <ele>287</ele>
        <time>2019-08-12T12:23:32.235Z</time>
      </trkpt>
      <trkpt lat="44.77001" lon="1.48622">
        <ele>291</ele>
        <time>2019-08-12T12:23:37.237Z</time>
      </trkpt>
      <trkpt lat="44.77005" lon="1.48614">
        <ele>291</ele>
        <time>2019-08-12T12:23:42.227Z</time>
      </trkpt>
      <trkpt lat="44.77005" lon="1.48608">
        <ele>291</ele>
        <time>2019-08-12T12:23:47.223Z</time>
      </trkpt>
      <trkpt lat="44.77006" lon="1.486">
        <ele>291</ele>
        <time>2019-08-12T12:23:52.239Z</time>
      </trkpt>
      <trkpt lat="44.77006" lon="1.48593">
        <ele>294</ele>
        <time>2019-08-12T12:23:57.233Z</time>
      </trkpt>
      <trkpt lat="44.77007" lon="1.48584">
        <ele>294</ele>
        <time>2019-08-12T12:24:02.240Z</time>
      </trkpt>
      <trkpt lat="44.77007" lon="1.48577">
        <ele>294</ele>
        <time>2019-08-12T12:24:07.229Z</time>
      </trkpt>
      <trkpt lat="44.77006" lon="1.48576">
        <ele>294</ele>
        <time>2019-08-12T12:24:12.213Z</time>
      </trkpt>
      <trkpt lat="44.77006" lon="1.48567">
        <ele>295</ele>
        <time>2019-08-12T12:24:17.219Z</time>
      </trkpt>
      <trkpt lat="44.77008" lon="1.48557">
        <ele>295</ele>
        <time>2019-08-12T12:24:22.229Z</time>
      </trkpt>
      <trkpt lat="44.7701" lon="1.48551">
        <ele>295</ele>
        <time>2019-08-12T12:24:26.236Z</time>
      </trkpt>
      <trkpt lat="44.7701" lon="1.48542">
        <ele>297</ele>
        <time>2019-08-12T12:24:31.231Z</time>
      </trkpt>
      <trkpt lat="44.7701" lon="1.48534">
        <ele>297</ele>
        <time>2019-08-12T12:24:35.236Z</time>
      </trkpt>
      <trkpt lat="44.77012" lon="1.48527">
        <ele>297</ele>
        <time>2019-08-12T12:24:40.239Z</time>
      </trkpt>
      <trkpt lat="44.77012" lon="1.4852">
        <ele>297</ele>
        <time>2019-08-12T12:24:44.247Z</time>
      </trkpt>
      <trkpt lat="44.77011" lon="1.48511">
        <ele>300</ele>
        <time>2019-08-12T12:24:49.226Z</time>
      </trkpt>
      <trkpt lat="44.77011" lon="1.48503">
        <ele>300</ele>
        <time>2019-08-12T12:24:53.239Z</time>
      </trkpt>
      <trkpt lat="44.77011" lon="1.48496">
        <ele>300</ele>
        <time>2019-08-12T12:24:58.233Z</time>
      </trkpt>
      <trkpt lat="44.77011" lon="1.48488">
        <ele>300</ele>
        <time>2019-08-12T12:25:03.233Z</time>
      </trkpt>
      <trkpt lat="44.7701" lon="1.48481">
        <ele>303</ele>
        <time>2019-08-12T12:25:07.229Z</time>
      </trkpt>
      <trkpt lat="44.77009" lon="1.48473">
        <ele>303</ele>
        <time>2019-08-12T12:25:12.239Z</time>
      </trkpt>
      <trkpt lat="44.77007" lon="1.48462">
        <ele>303</ele>
        <time>2019-08-12T12:25:17.239Z</time>
      </trkpt>
      <trkpt lat="44.77004" lon="1.48455">
        <ele>308</ele>
        <time>2019-08-12T12:25:22.224Z</time>
      </trkpt>
      <trkpt lat="44.77" lon="1.48446">
        <ele>308</ele>
        <time>2019-08-12T12:25:26.226Z</time>
      </trkpt>
      <trkpt lat="44.76999" lon="1.48441">
        <ele>308</ele>
        <time>2019-08-12T12:25:31.245Z</time>
      </trkpt>
      <trkpt lat="44.76998" lon="1.48435">
        <ele>308</ele>
        <time>2019-08-12T12:25:36.226Z</time>
      </trkpt>
      <trkpt lat="44.76995" lon="1.48426">
        <ele>313</ele>
        <time>2019-08-12T12:25:40.239Z</time>
      </trkpt>
      <trkpt lat="44.7699" lon="1.48416">
        <ele>313</ele>
        <time>2019-08-12T12:25:45.240Z</time>
      </trkpt>
      <trkpt lat="44.76986" lon="1.48408">
        <ele>306</ele>
        <time>2019-08-12T12:25:50.233Z</time>
      </trkpt>
      <trkpt lat="44.76982" lon="1.48401">
        <ele>309</ele>
        <time>2019-08-12T12:25:55.231Z</time>
      </trkpt>
      <trkpt lat="44.76979" lon="1.48393">
        <ele>309</ele>
        <time>2019-08-12T12:26:00.227Z</time>
      </trkpt>
      <trkpt lat="44.76974" lon="1.48386">
        <ele>309</ele>
        <time>2019-08-12T12:26:04.235Z</time>
      </trkpt>
      <trkpt lat="44.76967" lon="1.48379">
        <ele>309</ele>
        <time>2019-08-12T12:26:09.234Z</time>
      </trkpt>
      <trkpt lat="44.76968" lon="1.48372">
        <ele>313</ele>
        <time>2019-08-12T12:26:14.235Z</time>
      </trkpt>
      <trkpt lat="44.76967" lon="1.48366">
        <ele>313</ele>
        <time>2019-08-12T12:26:18.225Z</time>
      </trkpt>
      <trkpt lat="44.76966" lon="1.4836">
        <ele>313</ele>
        <time>2019-08-12T12:26:23.231Z</time>
      </trkpt>
      <trkpt lat="44.76966" lon="1.48355">
        <ele>313</ele>
        <time>2019-08-12T12:26:28.241Z</time>
      </trkpt>
      <trkpt lat="44.76963" lon="1.48346">
        <ele>318</ele>
        <time>2019-08-12T12:26:33.237Z</time>
      </trkpt>
      <trkpt lat="44.76962" lon="1.4834">
        <ele>318</ele>
        <time>2019-08-12T12:26:37.233Z</time>
      </trkpt>
      <trkpt lat="44.76959" lon="1.48334">
        <ele>318</ele>
        <time>2019-08-12T12:26:41.253Z</time>
      </trkpt>
      <trkpt lat="44.76958" lon="1.48327">
        <ele>315</ele>
        <time>2019-08-12T12:26:45.256Z</time>
      </trkpt>
      <trkpt lat="44.76957" lon="1.48321">
        <ele>315</ele>
        <time>2019-08-12T12:26:49.260Z</time>
      </trkpt>
      <trkpt lat="44.76955" lon="1.48314">
        <ele>323</ele>
        <time>2019-08-12T12:26:54.261Z</time>
      </trkpt>
      <trkpt lat="44.76955" lon="1.48308">
        <ele>323</ele>
        <time>2019-08-12T12:26:59.252Z</time>
      </trkpt>
      <trkpt lat="44.76954" lon="1.48304">
        <ele>323</ele>
        <time>2019-08-12T12:27:04.250Z</time>
      </trkpt>
      <trkpt lat="44.7695" lon="1.48295">
        <ele>323</ele>
        <time>2019-08-12T12:27:08.259Z</time>
      </trkpt>
      <trkpt lat="44.76946" lon="1.48287">
        <ele>328</ele>
        <time>2019-08-12T12:27:13.253Z</time>
      </trkpt>
      <trkpt lat="44.76946" lon="1.48282">
        <ele>328</ele>
        <time>2019-08-12T12:27:17.249Z</time>
      </trkpt>
      <trkpt lat="44.76945" lon="1.48277">
        <ele>328</ele>
        <time>2019-08-12T12:27:22.253Z</time>
      </trkpt>
      <trkpt lat="44.76945" lon="1.48274">
        <ele>328</ele>
        <time>2019-08-12T12:27:26.267Z</time>
      </trkpt>
      <trkpt lat="44.76945" lon="1.48265">
        <ele>328</ele>
        <time>2019-08-12T12:27:31.256Z</time>
      </trkpt>
      <trkpt lat="44.76944" lon="1.48261">
        <ele>331</ele>
        <time>2019-08-12T12:27:36.269Z</time>
      </trkpt>
      <trkpt lat="44.76942" lon="1.48254">
        <ele>331</ele>
        <time>2019-08-12T12:27:41.246Z</time>
      </trkpt>
      <trkpt lat="44.7694" lon="1.4825">
        <ele>331</ele>
        <time>2019-08-12T12:27:45.260Z</time>
      </trkpt>
      <trkpt lat="44.76938" lon="1.48243">
        <ele>331</ele>
        <time>2019-08-12T12:27:50.249Z</time>
      </trkpt>
      <trkpt lat="44.76937" lon="1.48237">
        <ele>331</ele>
        <time>2019-08-12T12:27:54.257Z</time>
      </trkpt>
      <trkpt lat="44.76937" lon="1.48234">
        <ele>332</ele>
        <time>2019-08-12T12:27:59.248Z</time>
      </trkpt>
      <trkpt lat="44.76934" lon="1.48227">
        <ele>332</ele>
        <time>2019-08-12T12:28:04.257Z</time>
      </trkpt>
      <trkpt lat="44.7693" lon="1.48222">
        <ele>333</ele>
        <time>2019-08-12T12:28:08.274Z</time>
      </trkpt>
      <trkpt lat="44.76925" lon="1.48212">
        <ele>333</ele>
        <time>2019-08-12T12:28:12.267Z</time>
      </trkpt>
      <trkpt lat="44.76918" lon="1.48205">
        <ele>336</ele>
        <time>2019-08-12T12:28:17.237Z</time>
      </trkpt>
      <trkpt lat="44.76915" lon="1.48201">
        <ele>336</ele>
        <time>2019-08-12T12:28:21.253Z</time>
      </trkpt>
      <trkpt lat="44.76911" lon="1.48196">
        <ele>336</ele>
        <time>2019-08-12T12:28:25.261Z</time>
      </trkpt>
      <trkpt lat="44.7691" lon="1.48195">
        <ele>336</ele>
        <time>2019-08-12T12:28:30.268Z</time>
      </trkpt>
      <trkpt lat="44.76908" lon="1.48193">
        <ele>336</ele>
        <time>2019-08-12T12:28:35.247Z</time>
      </trkpt>
      <trkpt lat="44.76906" lon="1.48191">
        <ele>336</ele>
        <time>2019-08-12T12:28:40.262Z</time>
      </trkpt>
      <trkpt lat="44.76905" lon="1.4819">
        <ele>336</ele>
        <time>2019-08-12T12:28:45.259Z</time>
      </trkpt>
      <trkpt lat="44.76896" lon="1.48182">
        <ele>339</ele>
        <time>2019-08-12T12:28:50.275Z</time>
      </trkpt>
      <trkpt lat="44.76894" lon="1.48179">
        <ele>342</ele>
        <time>2019-08-12T12:28:55.257Z</time>
      </trkpt>
      <trkpt lat="44.76885" lon="1.48173">
        <ele>342</ele>
        <time>2019-08-12T12:29:00.259Z</time>
      </trkpt>
      <trkpt lat="44.76879" lon="1.48168">
        <ele>342</ele>
        <time>2019-08-12T12:29:05.238Z</time>
      </trkpt>
      <trkpt lat="44.7687" lon="1.48159">
        <ele>342</ele>
        <time>2019-08-12T12:29:09.260Z</time>
      </trkpt>
      <trkpt lat="44.76861" lon="1.4815">
        <ele>345</ele>
        <time>2019-08-12T12:29:14.237Z</time>
      </trkpt>
      <trkpt lat="44.76854" lon="1.48145">
        <ele>345</ele>
        <time>2019-08-12T12:29:18.273Z</time>
      </trkpt>
      <trkpt lat="44.76849" lon="1.48141">
        <ele>345</ele>
        <time>2019-08-12T12:29:23.271Z</time>
      </trkpt>
      <trkpt lat="44.76846" lon="1.4814">
        <ele>345</ele>
        <time>2019-08-12T12:29:28.251Z</time>
      </trkpt>
      <trkpt lat="44.76844" lon="1.48138">
        <ele>345</ele>
        <time>2019-08-12T12:29:33.247Z</time>
      </trkpt>
      <trkpt lat="44.76837" lon="1.48134">
        <ele>345</ele>
        <time>2019-08-12T12:29:38.262Z</time>
      </trkpt>
      <trkpt lat="44.76826" lon="1.48126">
        <ele>345</ele>
        <time>2019-08-12T12:29:43.253Z</time>
      </trkpt>
      <trkpt lat="44.76821" lon="1.48121">
        <ele>347</ele>
        <time>2019-08-12T12:29:47.257Z</time>
      </trkpt>
      <trkpt lat="44.76818" lon="1.4812">
        <ele>351</ele>
        <time>2019-08-12T12:29:52.249Z</time>
      </trkpt>
      <trkpt lat="44.76815" lon="1.48112">
        <ele>351</ele>
        <time>2019-08-12T12:29:56.275Z</time>
      </trkpt>
      <trkpt lat="44.76807" lon="1.48103">
        <ele>351</ele>
        <time>2019-08-12T12:30:01.254Z</time>
      </trkpt>
      <trkpt lat="44.76805" lon="1.48096">
        <ele>351</ele>
        <time>2019-08-12T12:30:06.252Z</time>
      </trkpt>
      <trkpt lat="44.76803" lon="1.48092">
        <ele>351</ele>
        <time>2019-08-12T12:30:10.297Z</time>
      </trkpt>
      <trkpt lat="44.768" lon="1.48086">
        <ele>351</ele>
        <time>2019-08-12T12:30:15.266Z</time>
      </trkpt>
      <trkpt lat="44.76798" lon="1.48083">
        <ele>351</ele>
        <time>2019-08-12T12:30:20.276Z</time>
      </trkpt>
      <trkpt lat="44.76796" lon="1.48077">
        <ele>351</ele>
        <time>2019-08-12T12:30:25.234Z</time>
      </trkpt>
      <trkpt lat="44.76795" lon="1.48075">
        <ele>351</ele>
        <time>2019-08-12T12:30:29.272Z</time>
      </trkpt>
      <trkpt lat="44.76794" lon="1.48073">
        <ele>351</ele>
        <time>2019-08-12T12:30:34.268Z</time>
      </trkpt>
      <trkpt lat="44.76793" lon="1.48071">
        <ele>351</ele>
        <time>2019-08-12T12:30:39.262Z</time>
      </trkpt>
      <trkpt lat="44.76785" lon="1.48057">
        <ele>355</ele>
        <time>2019-08-12T12:30:44.242Z</time>
      </trkpt>
      <trkpt lat="44.76778" lon="1.48047">
        <ele>355</ele>
        <time>2019-08-12T12:30:49.223Z</time>
      </trkpt>
      <trkpt lat="44.76772" lon="1.4804">
        <ele>354</ele>
        <time>2019-08-12T12:30:53.244Z</time>
      </trkpt>
      <trkpt lat="44.76766" lon="1.48038">
        <ele>354</ele>
        <time>2019-08-12T12:30:58.227Z</time>
      </trkpt>
      <trkpt lat="44.76762" lon="1.48029">
        <ele>357</ele>
        <time>2019-08-12T12:31:03.235Z</time>
      </trkpt>
      <trkpt lat="44.76757" lon="1.48025">
        <ele>357</ele>
        <time>2019-08-12T12:31:08.244Z</time>
      </trkpt>
      <trkpt lat="44.76752" lon="1.48021">
        <ele>357</ele>
        <time>2019-08-12T12:31:13.227Z</time>
      </trkpt>
      <trkpt lat="44.76744" lon="1.48016">
        <ele>357</ele>
        <time>2019-08-12T12:31:18.239Z</time>
      </trkpt>
      <trkpt lat="44.76732" lon="1.48007">
        <ele>358</ele>
        <time>2019-08-12T12:31:23.240Z</time>
      </trkpt>
      <trkpt lat="44.76722" lon="1.48008">
        <ele>358</ele>
        <time>2019-08-12T12:31:28.234Z</time>
      </trkpt>
      <trkpt lat="44.76713" lon="1.48008">
        <ele>358</ele>
        <time>2019-08-12T12:31:32.246Z</time>
      </trkpt>
      <trkpt lat="44.76704" lon="1.48007">
        <ele>361</ele>
        <time>2019-08-12T12:31:37.239Z</time>
      </trkpt>
      <trkpt lat="44.76695" lon="1.48006">
        <ele>361</ele>
        <time>2019-08-12T12:31:42.249Z</time>
      </trkpt>
      <trkpt lat="44.76689" lon="1.48">
        <ele>361</ele>
        <time>2019-08-12T12:31:47.234Z</time>
      </trkpt>
      <trkpt lat="44.76684" lon="1.47993">
        <ele>361</ele>
        <time>2019-08-12T12:31:52.230Z</time>
      </trkpt>
      <trkpt lat="44.76679" lon="1.47988">
        <ele>363</ele>
        <time>2019-08-12T12:31:57.240Z</time>
      </trkpt>
      <trkpt lat="44.76676" lon="1.47981">
        <ele>362</ele>
        <time>2019-08-12T12:32:01.244Z</time>
      </trkpt>
      <trkpt lat="44.76672" lon="1.47977">
        <ele>362</ele>
        <time>2019-08-12T12:32:06.237Z</time>
      </trkpt>
      <trkpt lat="44.76667" lon="1.47976">
        <ele>362</ele>
        <time>2019-08-12T12:32:11.232Z</time>
      </trkpt>
      <trkpt lat="44.76665" lon="1.47972">
        <ele>362</ele>
        <time>2019-08-12T12:32:16.248Z</time>
      </trkpt>
      <trkpt lat="44.76667" lon="1.47968">
        <ele>362</ele>
        <time>2019-08-12T12:32:21.231Z</time>
      </trkpt>
      <trkpt lat="44.76664" lon="1.47966">
        <ele>362</ele>
        <time>2019-08-12T12:32:26.233Z</time>
      </trkpt>
      <trkpt lat="44.76661" lon="1.47963">
        <ele>362</ele>
        <time>2019-08-12T12:32:30.239Z</time>
      </trkpt>
      <trkpt lat="44.76656" lon="1.47956">
        <ele>363</ele>
        <time>2019-08-12T12:32:35.243Z</time>
      </trkpt>
      <trkpt lat="44.76654" lon="1.47949">
        <ele>363</ele>
        <time>2019-08-12T12:32:40.231Z</time>
      </trkpt>
      <trkpt lat="44.76655" lon="1.47948">
        <ele>363</ele>
        <time>2019-08-12T12:32:44.242Z</time>
      </trkpt>
      <trkpt lat="44.7665" lon="1.47939">
        <ele>365</ele>
        <time>2019-08-12T12:33:40.233Z</time>
      </trkpt>
      <trkpt lat="44.7665" lon="1.47938">
        <ele>365</ele>
        <time>2019-08-12T12:33:44.237Z</time>
      </trkpt>
      <trkpt lat="44.7665" lon="1.47938">
        <ele>365</ele>
        <time>2019-08-12T12:33:49.225Z</time>
      </trkpt>
      <trkpt lat="44.76649" lon="1.47937">
        <ele>365</ele>
        <time>2019-08-12T12:33:54.230Z</time>
      </trkpt>
      <trkpt lat="44.76649" lon="1.47937">
        <ele>365</ele>
        <time>2019-08-12T12:33:59.230Z</time>
      </trkpt>
      <trkpt lat="44.76647" lon="1.47928">
        <ele>365</ele>
        <time>2019-08-12T12:35:37.246Z</time>
      </trkpt>
      <trkpt lat="44.76651" lon="1.47922">
        <ele>365</ele>
        <time>2019-08-12T12:35:41.257Z</time>
      </trkpt>
      <trkpt lat="44.76656" lon="1.47915">
        <ele>362</ele>
        <time>2019-08-12T12:35:46.252Z</time>
      </trkpt>
      <trkpt lat="44.7666" lon="1.4791">
        <ele>362</ele>
        <time>2019-08-12T12:35:50.249Z</time>
      </trkpt>
      <trkpt lat="44.76664" lon="1.47903">
        <ele>362</ele>
        <time>2019-08-12T12:35:55.262Z</time>
      </trkpt>
      <trkpt lat="44.76667" lon="1.47896">
        <ele>362</ele>
        <time>2019-08-12T12:36:00.255Z</time>
      </trkpt>
      <trkpt lat="44.76672" lon="1.47892">
        <ele>362</ele>
        <time>2019-08-12T12:36:05.248Z</time>
      </trkpt>
      <trkpt lat="44.76676" lon="1.47886">
        <ele>362</ele>
        <time>2019-08-12T12:36:10.244Z</time>
      </trkpt>
      <trkpt lat="44.76679" lon="1.47879">
        <ele>362</ele>
        <time>2019-08-12T12:36:15.249Z</time>
      </trkpt>
      <trkpt lat="44.76684" lon="1.47873">
        <ele>358</ele>
        <time>2019-08-12T12:36:20.245Z</time>
      </trkpt>
      <trkpt lat="44.76689" lon="1.47868">
        <ele>358</ele>
        <time>2019-08-12T12:36:25.239Z</time>
      </trkpt>
      <trkpt lat="44.76694" lon="1.47863">
        <ele>358</ele>
        <time>2019-08-12T12:36:29.249Z</time>
      </trkpt>
      <trkpt lat="44.76697" lon="1.47857">
        <ele>358</ele>
        <time>2019-08-12T12:36:33.252Z</time>
      </trkpt>
      <trkpt lat="44.76701" lon="1.47851">
        <ele>358</ele>
        <time>2019-08-12T12:36:38.245Z</time>
      </trkpt>
      <trkpt lat="44.76705" lon="1.47846">
        <ele>358</ele>
        <time>2019-08-12T12:36:43.256Z</time>
      </trkpt>
      <trkpt lat="44.76711" lon="1.47841">
        <ele>357</ele>
        <time>2019-08-12T12:36:48.256Z</time>
      </trkpt>
      <trkpt lat="44.76715" lon="1.47837">
        <ele>357</ele>
        <time>2019-08-12T12:36:52.244Z</time>
      </trkpt>
      <trkpt lat="44.76717" lon="1.47836">
        <ele>357</ele>
        <time>2019-08-12T12:37:12.270Z</time>
      </trkpt>
      <trkpt lat="44.76717" lon="1.47836">
        <ele>357</ele>
        <time>2019-08-12T12:37:17.234Z</time>
      </trkpt>
      <trkpt lat="44.76717" lon="1.47836">
        <ele>357</ele>
        <time>2019-08-12T12:37:22.266Z</time>
      </trkpt>
      <trkpt lat="44.7672" lon="1.4783">
        <ele>357</ele>
        <time>2019-08-12T12:37:27.246Z</time>
      </trkpt>
      <trkpt lat="44.76722" lon="1.47824">
        <ele>357</ele>
        <time>2019-08-12T12:37:31.259Z</time>
      </trkpt>
      <trkpt lat="44.76726" lon="1.47816">
        <ele>357</ele>
        <time>2019-08-12T12:37:36.248Z</time>
      </trkpt>
      <trkpt lat="44.76726" lon="1.47809">
        <ele>357</ele>
        <time>2019-08-12T12:37:40.243Z</time>
      </trkpt>
      <trkpt lat="44.7673" lon="1.47801">
        <ele>357</ele>
        <time>2019-08-12T12:37:44.233Z</time>
      </trkpt>
      <trkpt lat="44.76736" lon="1.47795">
        <ele>357</ele>
        <time>2019-08-12T12:37:49.231Z</time>
      </trkpt>
      <trkpt lat="44.76739" lon="1.47789">
        <ele>357</ele>
        <time>2019-08-12T12:37:58.232Z</time>
      </trkpt>
      <trkpt lat="44.7674" lon="1.47788">
        <ele>357</ele>
        <time>2019-08-12T12:38:03.233Z</time>
      </trkpt>
      <trkpt lat="44.7674" lon="1.47788">
        <ele>357</ele>
        <time>2019-08-12T12:38:07.224Z</time>
      </trkpt>
      <trkpt lat="44.7674" lon="1.47786">
        <ele>357</ele>
        <time>2019-08-12T12:38:11.238Z</time>
      </trkpt>
      <trkpt lat="44.76741" lon="1.4778">
        <ele>357</ele>
        <time>2019-08-12T12:38:16.221Z</time>
      </trkpt>
      <trkpt lat="44.76741" lon="1.47772">
        <ele>357</ele>
        <time>2019-08-12T12:38:20.243Z</time>
      </trkpt>
      <trkpt lat="44.76744" lon="1.4776">
        <ele>357</ele>
        <time>2019-08-12T12:38:25.230Z</time>
      </trkpt>
      <trkpt lat="44.76746" lon="1.47751">
        <ele>357</ele>
        <time>2019-08-12T12:38:30.235Z</time>
      </trkpt>
      <trkpt lat="44.76748" lon="1.47749">
        <ele>357</ele>
        <time>2019-08-12T12:38:35.225Z</time>
      </trkpt>
      <trkpt lat="44.76747" lon="1.47748">
        <ele>357</ele>
        <time>2019-08-12T12:38:40.237Z</time>
      </trkpt>
      <trkpt lat="44.76746" lon="1.47745">
        <ele>357</ele>
        <time>2019-08-12T12:38:44.238Z</time>
      </trkpt>
      <trkpt lat="44.7674" lon="1.47746">
        <ele>357</ele>
        <time>2019-08-12T12:38:49.238Z</time>
      </trkpt>
      <trkpt lat="44.76737" lon="1.47742">
        <ele>357</ele>
        <time>2019-08-12T12:38:53.244Z</time>
      </trkpt>
      <trkpt lat="44.76733" lon="1.47732">
        <ele>357</ele>
        <time>2019-08-12T12:38:58.242Z</time>
      </trkpt>
      <trkpt lat="44.76731" lon="1.47733">
        <ele>357</ele>
        <time>2019-08-12T12:39:02.236Z</time>
      </trkpt>
      <trkpt lat="44.76727" lon="1.4773">
        <ele>357</ele>
        <time>2019-08-12T12:39:07.240Z</time>
      </trkpt>
      <trkpt lat="44.76723" lon="1.47729">
        <ele>357</ele>
        <time>2019-08-12T12:39:12.234Z</time>
      </trkpt>
      <trkpt lat="44.76721" lon="1.47729">
        <ele>357</ele>
        <time>2019-08-12T12:39:17.218Z</time>
      </trkpt>
      <trkpt lat="44.76721" lon="1.47728">
        <ele>357</ele>
        <time>2019-08-12T12:39:21.233Z</time>
      </trkpt>
      <trkpt lat="44.76719" lon="1.47728">
        <ele>357</ele>
        <time>2019-08-12T12:39:25.233Z</time>
      </trkpt>
      <trkpt lat="44.76717" lon="1.47727">
        <ele>357</ele>
        <time>2019-08-12T12:39:30.234Z</time>
      </trkpt>
      <trkpt lat="44.76708" lon="1.47725">
        <ele>359</ele>
        <time>2019-08-12T12:39:35.231Z</time>
      </trkpt>
      <trkpt lat="44.76702" lon="1.47726">
        <ele>359</ele>
        <time>2019-08-12T12:39:40.225Z</time>
      </trkpt>
      <trkpt lat="44.767" lon="1.47727">
        <ele>359</ele>
        <time>2019-08-12T12:39:45.233Z</time>
      </trkpt>
      <trkpt lat="44.76694" lon="1.47725">
        <ele>359</ele>
        <time>2019-08-12T12:39:49.222Z</time>
      </trkpt>
      <trkpt lat="44.76691" lon="1.47726">
        <ele>359</ele>
        <time>2019-08-12T12:39:54.223Z</time>
      </trkpt>
      <trkpt lat="44.76685" lon="1.47728">
        <ele>359</ele>
        <time>2019-08-12T12:39:59.219Z</time>
      </trkpt>
      <trkpt lat="44.76681" lon="1.47731">
        <ele>359</ele>
        <time>2019-08-12T12:40:04.234Z</time>
      </trkpt>
      <trkpt lat="44.76674" lon="1.47736">
        <ele>363</ele>
        <time>2019-08-12T12:40:09.221Z</time>
      </trkpt>
      <trkpt lat="44.76672" lon="1.47736">
        <ele>363</ele>
        <time>2019-08-12T12:40:13.237Z</time>
      </trkpt>
      <trkpt lat="44.76672" lon="1.47735">
        <ele>363</ele>
        <time>2019-08-12T12:40:17.225Z</time>
      </trkpt>
      <trkpt lat="44.76671" lon="1.47735">
        <ele>363</ele>
        <time>2019-08-12T12:40:22.255Z</time>
      </trkpt>
      <trkpt lat="44.7667" lon="1.47734">
        <ele>363</ele>
        <time>2019-08-12T12:40:27.242Z</time>
      </trkpt>
      <trkpt lat="44.76659" lon="1.47733">
        <ele>363</ele>
        <time>2019-08-12T12:40:31.242Z</time>
      </trkpt>
      <trkpt lat="44.76651" lon="1.47732">
        <ele>364</ele>
        <time>2019-08-12T12:40:36.259Z</time>
      </trkpt>
      <trkpt lat="44.76646" lon="1.47727">
        <ele>364</ele>
        <time>2019-08-12T12:40:41.253Z</time>
      </trkpt>
      <trkpt lat="44.76642" lon="1.47723">
        <ele>364</ele>
        <time>2019-08-12T12:40:46.260Z</time>
      </trkpt>
      <trkpt lat="44.7664" lon="1.47718">
        <ele>364</ele>
        <time>2019-08-12T12:40:51.294Z</time>
      </trkpt>
      <trkpt lat="44.76633" lon="1.47711">
        <ele>364</ele>
        <time>2019-08-12T12:41:00.235Z</time>
      </trkpt>
      <trkpt lat="44.76633" lon="1.4771">
        <ele>364</ele>
        <time>2019-08-12T12:41:05.259Z</time>
      </trkpt>
      <trkpt lat="44.76632" lon="1.47709">
        <ele>364</ele>
        <time>2019-08-12T12:41:09.265Z</time>
      </trkpt>
      <trkpt lat="44.76632" lon="1.47707">
        <ele>367</ele>
        <time>2019-08-12T12:41:14.227Z</time>
      </trkpt>
      <trkpt lat="44.76631" lon="1.47706">
        <ele>367</ele>
        <time>2019-08-12T12:41:19.238Z</time>
      </trkpt>
      <trkpt lat="44.7663" lon="1.47704">
        <ele>367</ele>
        <time>2019-08-12T12:41:23.243Z</time>
      </trkpt>
      <trkpt lat="44.76624" lon="1.47695">
        <ele>370</ele>
        <time>2019-08-12T12:41:28.235Z</time>
      </trkpt>
      <trkpt lat="44.76619" lon="1.47692">
        <ele>370</ele>
        <time>2019-08-12T12:41:33.265Z</time>
      </trkpt>
      <trkpt lat="44.76616" lon="1.47691">
        <ele>370</ele>
        <time>2019-08-12T12:41:38.232Z</time>
      </trkpt>
      <trkpt lat="44.76608" lon="1.47693">
        <ele>370</ele>
        <time>2019-08-12T12:41:42.237Z</time>
      </trkpt>
      <trkpt lat="44.76605" lon="1.47693">
        <ele>370</ele>
        <time>2019-08-12T12:41:46.230Z</time>
      </trkpt>
      <trkpt lat="44.76598" lon="1.47691">
        <ele>370</ele>
        <time>2019-08-12T12:41:51.245Z</time>
      </trkpt>
      <trkpt lat="44.76593" lon="1.47684">
        <ele>373</ele>
        <time>2019-08-12T12:41:56.245Z</time>
      </trkpt>
      <trkpt lat="44.76589" lon="1.47682">
        <ele>373</ele>
        <time>2019-08-12T12:42:00.247Z</time>
      </trkpt>
      <trkpt lat="44.76577" lon="1.47675">
        <ele>374</ele>
        <time>2019-08-12T12:42:05.232Z</time>
      </trkpt>
      <trkpt lat="44.76569" lon="1.47667">
        <ele>375</ele>
        <time>2019-08-12T12:42:10.229Z</time>
      </trkpt>
      <trkpt lat="44.76566" lon="1.47664">
        <ele>375</ele>
        <time>2019-08-12T12:42:14.245Z</time>
      </trkpt>
      <trkpt lat="44.76562" lon="1.47661">
        <ele>375</ele>
        <time>2019-08-12T12:42:19.229Z</time>
      </trkpt>
      <trkpt lat="44.76561" lon="1.47656">
        <ele>375</ele>
        <time>2019-08-12T12:42:24.217Z</time>
      </trkpt>
      <trkpt lat="44.76561" lon="1.47656">
        <ele>375</ele>
        <time>2019-08-12T12:42:28.238Z</time>
      </trkpt>
      <trkpt lat="44.7656" lon="1.47655">
        <ele>375</ele>
        <time>2019-08-12T12:42:33.235Z</time>
      </trkpt>
      <trkpt lat="44.76557" lon="1.47646">
        <ele>375</ele>
        <time>2019-08-12T12:42:38.229Z</time>
      </trkpt>
      <trkpt lat="44.76559" lon="1.47639">
        <ele>375</ele>
        <time>2019-08-12T12:42:43.239Z</time>
      </trkpt>
      <trkpt lat="44.7656" lon="1.47633">
        <ele>375</ele>
        <time>2019-08-12T12:42:48.228Z</time>
      </trkpt>
      <trkpt lat="44.76559" lon="1.47623">
        <ele>375</ele>
        <time>2019-08-12T12:42:52.227Z</time>
      </trkpt>
      <trkpt lat="44.76558" lon="1.47619">
        <ele>375</ele>
        <time>2019-08-12T12:42:57.215Z</time>
      </trkpt>
      <trkpt lat="44.76556" lon="1.47613">
        <ele>375</ele>
        <time>2019-08-12T12:43:01.249Z</time>
      </trkpt>
      <trkpt lat="44.76551" lon="1.47601">
        <ele>375</ele>
        <time>2019-08-12T12:43:06.225Z</time>
      </trkpt>
      <trkpt lat="44.76547" lon="1.47594">
        <ele>375</ele>
        <time>2019-08-12T12:43:11.238Z</time>
      </trkpt>
      <trkpt lat="44.76546" lon="1.4759">
        <ele>375</ele>
        <time>2019-08-12T12:43:16.231Z</time>
      </trkpt>
      <trkpt lat="44.76545" lon="1.47588">
        <ele>375</ele>
        <time>2019-08-12T12:43:21.245Z</time>
      </trkpt>
      <trkpt lat="44.76545" lon="1.47585">
        <ele>375</ele>
        <time>2019-08-12T12:43:26.231Z</time>
      </trkpt>
      <trkpt lat="44.76545" lon="1.47583">
        <ele>375</ele>
        <time>2019-08-12T12:43:31.222Z</time>
      </trkpt>
      <trkpt lat="44.76543" lon="1.47579">
        <ele>375</ele>
        <time>2019-08-12T12:43:35.238Z</time>
      </trkpt>
      <trkpt lat="44.7654" lon="1.47575">
        <ele>372</ele>
        <time>2019-08-12T12:43:40.242Z</time>
      </trkpt>
      <trkpt lat="44.76537" lon="1.47568">
        <ele>370</ele>
        <time>2019-08-12T12:43:45.245Z</time>
      </trkpt>
      <trkpt lat="44.76533" lon="1.47559">
        <ele>370</ele>
        <time>2019-08-12T12:43:49.244Z</time>
      </trkpt>
      <trkpt lat="44.76529" lon="1.47554">
        <ele>370</ele>
        <time>2019-08-12T12:43:54.251Z</time>
      </trkpt>
      <trkpt lat="44.76529" lon="1.47554">
        <ele>370</ele>
        <time>2019-08-12T12:43:59.233Z</time>
      </trkpt>
      <trkpt lat="44.76528" lon="1.47553">
        <ele>370</ele>
        <time>2019-08-12T12:44:07.236Z</time>
      </trkpt>
      <trkpt lat="44.76528" lon="1.47552">
        <ele>370</ele>
        <time>2019-08-12T12:44:12.232Z</time>
      </trkpt>
      <trkpt lat="44.76524" lon="1.47547">
        <ele>370</ele>
        <time>2019-08-12T12:44:17.227Z</time>
      </trkpt>
      <trkpt lat="44.76523" lon="1.47546">
        <ele>370</ele>
        <time>2019-08-12T12:44:21.219Z</time>
      </trkpt>
      <trkpt lat="44.7652" lon="1.4754">
        <ele>367</ele>
        <time>2019-08-12T12:44:26.229Z</time>
      </trkpt>
      <trkpt lat="44.76519" lon="1.47537">
        <ele>367</ele>
        <time>2019-08-12T12:44:31.231Z</time>
      </trkpt>
      <trkpt lat="44.76517" lon="1.47529">
        <ele>367</ele>
        <time>2019-08-12T12:44:35.222Z</time>
      </trkpt>
      <trkpt lat="44.76515" lon="1.47525">
        <ele>367</ele>
        <time>2019-08-12T12:44:40.225Z</time>
      </trkpt>
      <trkpt lat="44.76512" lon="1.47523">
        <ele>363</ele>
        <time>2019-08-12T12:44:45.226Z</time>
      </trkpt>
      <trkpt lat="44.76506" lon="1.47522">
        <ele>363</ele>
        <time>2019-08-12T12:44:49.229Z</time>
      </trkpt>
      <trkpt lat="44.76499" lon="1.4752">
        <ele>363</ele>
        <time>2019-08-12T12:44:53.236Z</time>
      </trkpt>
      <trkpt lat="44.7649" lon="1.47521">
        <ele>363</ele>
        <time>2019-08-12T12:44:58.226Z</time>
      </trkpt>
      <trkpt lat="44.76486" lon="1.47522">
        <ele>356</ele>
        <time>2019-08-12T12:45:02.222Z</time>
      </trkpt>
      <trkpt lat="44.76483" lon="1.47518">
        <ele>356</ele>
        <time>2019-08-12T12:45:07.232Z</time>
      </trkpt>
      <trkpt lat="44.7648" lon="1.47516">
        <ele>356</ele>
        <time>2019-08-12T12:45:11.237Z</time>
      </trkpt>
      <trkpt lat="44.76474" lon="1.47516">
        <ele>356</ele>
        <time>2019-08-12T12:45:16.237Z</time>
      </trkpt>
      <trkpt lat="44.76471" lon="1.47515">
        <ele>356</ele>
        <time>2019-08-12T12:45:20.219Z</time>
      </trkpt>
      <trkpt lat="44.76468" lon="1.47513">
        <ele>355</ele>
        <time>2019-08-12T12:45:24.234Z</time>
      </trkpt>
      <trkpt lat="44.76462" lon="1.47509">
        <ele>355</ele>
        <time>2019-08-12T12:45:29.237Z</time>
      </trkpt>
      <trkpt lat="44.76456" lon="1.47504">
        <ele>350</ele>
        <time>2019-08-12T12:45:34.231Z</time>
      </trkpt>
      <trkpt lat="44.7645" lon="1.47497">
        <ele>350</ele>
        <time>2019-08-12T12:45:39.231Z</time>
      </trkpt>
      <trkpt lat="44.76448" lon="1.4749">
        <ele>350</ele>
        <time>2019-08-12T12:45:43.229Z</time>
      </trkpt>
      <trkpt lat="44.76446" lon="1.47478">
        <ele>349</ele>
        <time>2019-08-12T12:45:48.228Z</time>
      </trkpt>
      <trkpt lat="44.76445" lon="1.47471">
        <ele>349</ele>
        <time>2019-08-12T12:45:52.234Z</time>
      </trkpt>
      <trkpt lat="44.76443" lon="1.47466">
        <ele>349</ele>
        <time>2019-08-12T12:45:56.245Z</time>
      </trkpt>
      <trkpt lat="44.76441" lon="1.47457">
        <ele>348</ele>
        <time>2019-08-12T12:46:01.217Z</time>
      </trkpt>
      <trkpt lat="44.76441" lon="1.47451">
        <ele>348</ele>
        <time>2019-08-12T12:46:05.220Z</time>
      </trkpt>
      <trkpt lat="44.76441" lon="1.47446">
        <ele>348</ele>
        <time>2019-08-12T12:46:09.251Z</time>
      </trkpt>
      <trkpt lat="44.7644" lon="1.47438">
        <ele>348</ele>
        <time>2019-08-12T12:46:14.238Z</time>
      </trkpt>
      <trkpt lat="44.76439" lon="1.4743">
        <ele>349</ele>
        <time>2019-08-12T12:46:19.261Z</time>
      </trkpt>
      <trkpt lat="44.76436" lon="1.4742">
        <ele>349</ele>
        <time>2019-08-12T12:46:24.248Z</time>
      </trkpt>
      <trkpt lat="44.76433" lon="1.47414">
        <ele>349</ele>
        <time>2019-08-12T12:46:28.275Z</time>
      </trkpt>
      <trkpt lat="44.76431" lon="1.47409">
        <ele>349</ele>
        <time>2019-08-12T12:46:33.253Z</time>
      </trkpt>
      <trkpt lat="44.76429" lon="1.47403">
        <ele>351</ele>
        <time>2019-08-12T12:46:37.254Z</time>
      </trkpt>
      <trkpt lat="44.76427" lon="1.47396">
        <ele>353</ele>
        <time>2019-08-12T12:46:42.245Z</time>
      </trkpt>
      <trkpt lat="44.76427" lon="1.4739">
        <ele>353</ele>
        <time>2019-08-12T12:46:46.257Z</time>
      </trkpt>
      <trkpt lat="44.76426" lon="1.47384">
        <ele>353</ele>
        <time>2019-08-12T12:46:51.238Z</time>
      </trkpt>
      <trkpt lat="44.76425" lon="1.47382">
        <ele>353</ele>
        <time>2019-08-12T12:46:56.254Z</time>
      </trkpt>
      <trkpt lat="44.76418" lon="1.47377">
        <ele>353</ele>
        <time>2019-08-12T12:47:01.289Z</time>
      </trkpt>
      <trkpt lat="44.76412" lon="1.47371">
        <ele>356</ele>
        <time>2019-08-12T12:47:05.283Z</time>
      </trkpt>
      <trkpt lat="44.76409" lon="1.47363">
        <ele>356</ele>
        <time>2019-08-12T12:47:10.257Z</time>
      </trkpt>
      <trkpt lat="44.76407" lon="1.47353">
        <ele>356</ele>
        <time>2019-08-12T12:47:15.279Z</time>
      </trkpt>
      <trkpt lat="44.76405" lon="1.47343">
        <ele>357</ele>
        <time>2019-08-12T12:47:20.236Z</time>
      </trkpt>
      <trkpt lat="44.76404" lon="1.47337">
        <ele>357</ele>
        <time>2019-08-12T12:47:24.238Z</time>
      </trkpt>
      <trkpt lat="44.76402" lon="1.4733">
        <ele>358</ele>
        <time>2019-08-12T12:47:28.232Z</time>
      </trkpt>
      <trkpt lat="44.76402" lon="1.47321">
        <ele>358</ele>
        <time>2019-08-12T12:47:33.238Z</time>
      </trkpt>
      <trkpt lat="44.76402" lon="1.47313">
        <ele>359</ele>
        <time>2019-08-12T12:47:38.235Z</time>
      </trkpt>
      <trkpt lat="44.76402" lon="1.47305">
        <ele>359</ele>
        <time>2019-08-12T12:47:43.223Z</time>
      </trkpt>
      <trkpt lat="44.76403" lon="1.47299">
        <ele>359</ele>
        <time>2019-08-12T12:47:47.229Z</time>
      </trkpt>
      <trkpt lat="44.76403" lon="1.47291">
        <ele>356</ele>
        <time>2019-08-12T12:47:52.226Z</time>
      </trkpt>
      <trkpt lat="44.76403" lon="1.47284">
        <ele>356</ele>
        <time>2019-08-12T12:47:56.237Z</time>
      </trkpt>
      <trkpt lat="44.76403" lon="1.47277">
        <ele>360</ele>
        <time>2019-08-12T12:48:01.245Z</time>
      </trkpt>
      <trkpt lat="44.76403" lon="1.4727">
        <ele>356</ele>
        <time>2019-08-12T12:48:06.234Z</time>
      </trkpt>
      <trkpt lat="44.76403" lon="1.47263">
        <ele>356</ele>
        <time>2019-08-12T12:48:10.236Z</time>
      </trkpt>
      <trkpt lat="44.76403" lon="1.47253">
        <ele>361</ele>
        <time>2019-08-12T12:48:15.231Z</time>
      </trkpt>
      <trkpt lat="44.76403" lon="1.47244">
        <ele>356</ele>
        <time>2019-08-12T12:48:19.240Z</time>
      </trkpt>
      <trkpt lat="44.76405" lon="1.47234">
        <ele>357</ele>
        <time>2019-08-12T12:48:24.229Z</time>
      </trkpt>
      <trkpt lat="44.76404" lon="1.47225">
        <ele>357</ele>
        <time>2019-08-12T12:48:29.234Z</time>
      </trkpt>
      <trkpt lat="44.76403" lon="1.47215">
        <ele>357</ele>
        <time>2019-08-12T12:48:34.246Z</time>
      </trkpt>
      <trkpt lat="44.76404" lon="1.47204">
        <ele>355</ele>
        <time>2019-08-12T12:48:39.232Z</time>
      </trkpt>
      <trkpt lat="44.76404" lon="1.47198">
        <ele>355</ele>
        <time>2019-08-12T12:48:43.231Z</time>
      </trkpt>
      <trkpt lat="44.76405" lon="1.47188">
        <ele>355</ele>
        <time>2019-08-12T12:48:48.239Z</time>
      </trkpt>
      <trkpt lat="44.76405" lon="1.4718">
        <ele>353</ele>
        <time>2019-08-12T12:48:53.247Z</time>
      </trkpt>
      <trkpt lat="44.76405" lon="1.4717">
        <ele>353</ele>
        <time>2019-08-12T12:48:58.223Z</time>
      </trkpt>
      <trkpt lat="44.76403" lon="1.47162">
        <ele>353</ele>
        <time>2019-08-12T12:49:02.240Z</time>
      </trkpt>
      <trkpt lat="44.76402" lon="1.47152">
        <ele>359</ele>
        <time>2019-08-12T12:49:07.247Z</time>
      </trkpt>
      <trkpt lat="44.764" lon="1.47143">
        <ele>359</ele>
        <time>2019-08-12T12:49:12.240Z</time>
      </trkpt>
      <trkpt lat="44.76397" lon="1.47133">
        <ele>359</ele>
        <time>2019-08-12T12:49:17.244Z</time>
      </trkpt>
      <trkpt lat="44.76394" lon="1.4713">
        <ele>359</ele>
        <time>2019-08-12T12:49:21.238Z</time>
      </trkpt>
      <trkpt lat="44.7639" lon="1.47124">
        <ele>360</ele>
        <time>2019-08-12T12:49:26.239Z</time>
      </trkpt>
      <trkpt lat="44.76386" lon="1.47116">
        <ele>360</ele>
        <time>2019-08-12T12:49:31.237Z</time>
      </trkpt>
      <trkpt lat="44.76384" lon="1.47108">
        <ele>360</ele>
        <time>2019-08-12T12:49:36.233Z</time>
      </trkpt>
      <trkpt lat="44.76383" lon="1.47103">
        <ele>360</ele>
        <time>2019-08-12T12:49:40.236Z</time>
      </trkpt>
      <trkpt lat="44.76382" lon="1.47097">
        <ele>360</ele>
        <time>2019-08-12T12:49:45.237Z</time>
      </trkpt>
      <trkpt lat="44.7638" lon="1.47094">
        <ele>360</ele>
        <time>2019-08-12T12:49:50.227Z</time>
      </trkpt>
      <trkpt lat="44.7638" lon="1.47089">
        <ele>360</ele>
        <time>2019-08-12T12:49:55.232Z</time>
      </trkpt>
      <trkpt lat="44.76379" lon="1.47084">
        <ele>360</ele>
        <time>2019-08-12T12:50:00.242Z</time>
      </trkpt>
      <trkpt lat="44.76378" lon="1.47081">
        <ele>360</ele>
        <time>2019-08-12T12:50:05.240Z</time>
      </trkpt>
      <trkpt lat="44.76377" lon="1.47078">
        <ele>360</ele>
        <time>2019-08-12T12:50:09.239Z</time>
      </trkpt>
      <trkpt lat="44.76374" lon="1.47067">
        <ele>363</ele>
        <time>2019-08-12T12:50:14.227Z</time>
      </trkpt>
      <trkpt lat="44.76369" lon="1.47053">
        <ele>363</ele>
        <time>2019-08-12T12:50:19.249Z</time>
      </trkpt>
      <trkpt lat="44.76368" lon="1.47048">
        <ele>363</ele>
        <time>2019-08-12T12:50:24.234Z</time>
      </trkpt>
      <trkpt lat="44.76367" lon="1.47047">
        <ele>363</ele>
        <time>2019-08-12T12:50:29.249Z</time>
      </trkpt>
      <trkpt lat="44.76363" lon="1.47034">
        <ele>361</ele>
        <time>2019-08-12T12:50:34.235Z</time>
      </trkpt>
      <trkpt lat="44.76362" lon="1.47029">
        <ele>361</ele>
        <time>2019-08-12T12:50:39.234Z</time>
      </trkpt>
      <trkpt lat="44.76359" lon="1.47018">
        <ele>361</ele>
        <time>2019-08-12T12:50:43.228Z</time>
      </trkpt>
      <trkpt lat="44.76357" lon="1.4701">
        <ele>359</ele>
        <time>2019-08-12T12:50:47.235Z</time>
      </trkpt>
      <trkpt lat="44.76355" lon="1.47">
        <ele>359</ele>
        <time>2019-08-12T12:50:52.231Z</time>
      </trkpt>
      <trkpt lat="44.76354" lon="1.4699">
        <ele>359</ele>
        <time>2019-08-12T12:50:57.228Z</time>
      </trkpt>
      <trkpt lat="44.76353" lon="1.46983">
        <ele>355</ele>
        <time>2019-08-12T12:51:02.235Z</time>
      </trkpt>
      <trkpt lat="44.7635" lon="1.46975">
        <ele>355</ele>
        <time>2019-08-12T12:51:06.244Z</time>
      </trkpt>
      <trkpt lat="44.7635" lon="1.46972">
        <ele>355</ele>
        <time>2019-08-12T12:51:11.241Z</time>
      </trkpt>
      <trkpt lat="44.76349" lon="1.46966">
        <ele>355</ele>
        <time>2019-08-12T12:51:16.242Z</time>
      </trkpt>
      <trkpt lat="44.76346" lon="1.46957">
        <ele>352</ele>
        <time>2019-08-12T12:51:21.234Z</time>
      </trkpt>
      <trkpt lat="44.76343" lon="1.46947">
        <ele>352</ele>
        <time>2019-08-12T12:51:26.244Z</time>
      </trkpt>
      <trkpt lat="44.7634" lon="1.46938">
        <ele>352</ele>
        <time>2019-08-12T12:51:30.240Z</time>
      </trkpt>
      <trkpt lat="44.76338" lon="1.46929">
        <ele>350</ele>
        <time>2019-08-12T12:51:34.254Z</time>
      </trkpt>
      <trkpt lat="44.76335" lon="1.46918">
        <ele>350</ele>
        <time>2019-08-12T12:51:39.233Z</time>
      </trkpt>
      <trkpt lat="44.76333" lon="1.46907">
        <ele>350</ele>
        <time>2019-08-12T12:51:44.231Z</time>
      </trkpt>
      <trkpt lat="44.76331" lon="1.46896">
        <ele>348</ele>
        <time>2019-08-12T12:51:49.236Z</time>
      </trkpt>
      <trkpt lat="44.76328" lon="1.46885">
        <ele>348</ele>
        <time>2019-08-12T12:51:53.231Z</time>
      </trkpt>
      <trkpt lat="44.76327" lon="1.46873">
        <ele>346</ele>
        <time>2019-08-12T12:51:58.249Z</time>
      </trkpt>
      <trkpt lat="44.76328" lon="1.46862">
        <ele>346</ele>
        <time>2019-08-12T12:52:03.238Z</time>
      </trkpt>
      <trkpt lat="44.76326" lon="1.46852">
        <ele>346</ele>
        <time>2019-08-12T12:52:08.238Z</time>
      </trkpt>
      <trkpt lat="44.76327" lon="1.46843">
        <ele>345</ele>
        <time>2019-08-12T12:52:13.233Z</time>
      </trkpt>
      <trkpt lat="44.76328" lon="1.46838">
        <ele>345</ele>
        <time>2019-08-12T12:52:17.235Z</time>
      </trkpt>
      <trkpt lat="44.76328" lon="1.46829">
        <ele>345</ele>
        <time>2019-08-12T12:52:22.231Z</time>
      </trkpt>
      <trkpt lat="44.76329" lon="1.46822">
        <ele>345</ele>
        <time>2019-08-12T12:52:26.236Z</time>
      </trkpt>
      <trkpt lat="44.76329" lon="1.46811">
        <ele>344</ele>
        <time>2019-08-12T12:52:31.239Z</time>
      </trkpt>
      <trkpt lat="44.76328" lon="1.46801">
        <ele>344</ele>
        <time>2019-08-12T12:52:36.232Z</time>
      </trkpt>
      <trkpt lat="44.76328" lon="1.46793">
        <ele>344</ele>
        <time>2019-08-12T12:52:40.240Z</time>
      </trkpt>
      <trkpt lat="44.76329" lon="1.46784">
        <ele>341</ele>
        <time>2019-08-12T12:52:45.234Z</time>
      </trkpt>
      <trkpt lat="44.76331" lon="1.46774">
        <ele>341</ele>
        <time>2019-08-12T12:52:50.231Z</time>
      </trkpt>
      <trkpt lat="44.76335" lon="1.46766">
        <ele>341</ele>
        <time>2019-08-12T12:52:54.247Z</time>
      </trkpt>
      <trkpt lat="44.76337" lon="1.46757">
        <ele>341</ele>
        <time>2019-08-12T12:52:59.228Z</time>
      </trkpt>
      <trkpt lat="44.76337" lon="1.46746">
        <ele>341</ele>
        <time>2019-08-12T12:53:04.239Z</time>
      </trkpt>
      <trkpt lat="44.76337" lon="1.46737">
        <ele>341</ele>
        <time>2019-08-12T12:53:09.242Z</time>
      </trkpt>
      <trkpt lat="44.76339" lon="1.46727">
        <ele>341</ele>
        <time>2019-08-12T12:53:14.225Z</time>
      </trkpt>
      <trkpt lat="44.76343" lon="1.46722">
        <ele>341</ele>
        <time>2019-08-12T12:53:18.238Z</time>
      </trkpt>
      <trkpt lat="44.76345" lon="1.46717">
        <ele>341</ele>
        <time>2019-08-12T12:53:23.212Z</time>
      </trkpt>
      <trkpt lat="44.76347" lon="1.46712">
        <ele>341</ele>
        <time>2019-08-12T12:53:27.230Z</time>
      </trkpt>
      <trkpt lat="44.76349" lon="1.46704">
        <ele>339</ele>
        <time>2019-08-12T12:53:32.227Z</time>
      </trkpt>
      <trkpt lat="44.76352" lon="1.46698">
        <ele>339</ele>
        <time>2019-08-12T12:53:36.234Z</time>
      </trkpt>
      <trkpt lat="44.76357" lon="1.46696">
        <ele>339</ele>
        <time>2019-08-12T12:53:41.237Z</time>
      </trkpt>
      <trkpt lat="44.76362" lon="1.46694">
        <ele>339</ele>
        <time>2019-08-12T12:53:46.232Z</time>
      </trkpt>
      <trkpt lat="44.76361" lon="1.4668">
        <ele>340</ele>
        <time>2019-08-12T12:54:00.231Z</time>
      </trkpt>
      <trkpt lat="44.76364" lon="1.4668">
        <ele>340</ele>
        <time>2019-08-12T12:54:04.243Z</time>
      </trkpt>
      <trkpt lat="44.7637" lon="1.46676">
        <ele>340</ele>
        <time>2019-08-12T12:54:09.232Z</time>
      </trkpt>
      <trkpt lat="44.76379" lon="1.46667">
        <ele>339</ele>
        <time>2019-08-12T12:54:14.232Z</time>
      </trkpt>
      <trkpt lat="44.76384" lon="1.46657">
        <ele>339</ele>
        <time>2019-08-12T12:54:19.229Z</time>
      </trkpt>
      <trkpt lat="44.76385" lon="1.46655">
        <ele>339</ele>
        <time>2019-08-12T12:54:24.245Z</time>
      </trkpt>
      <trkpt lat="44.76389" lon="1.46653">
        <ele>341</ele>
        <time>2019-08-12T12:54:29.232Z</time>
      </trkpt>
      <trkpt lat="44.76391" lon="1.46649">
        <ele>341</ele>
        <time>2019-08-12T12:54:33.230Z</time>
      </trkpt>
      <trkpt lat="44.76393" lon="1.46643">
        <ele>341</ele>
        <time>2019-08-12T12:54:38.237Z</time>
      </trkpt>
      <trkpt lat="44.76396" lon="1.46637">
        <ele>341</ele>
        <time>2019-08-12T12:54:43.227Z</time>
      </trkpt>
      <trkpt lat="44.76402" lon="1.46636">
        <ele>341</ele>
        <time>2019-08-12T12:54:48.235Z</time>
      </trkpt>
      <trkpt lat="44.76406" lon="1.46632">
        <ele>343</ele>
        <time>2019-08-12T12:54:52.229Z</time>
      </trkpt>
      <trkpt lat="44.7641" lon="1.4663">
        <ele>343</ele>
        <time>2019-08-12T12:54:56.240Z</time>
      </trkpt>
      <trkpt lat="44.76417" lon="1.46631">
        <ele>343</ele>
        <time>2019-08-12T12:55:01.245Z</time>
      </trkpt>
      <trkpt lat="44.76422" lon="1.4663">
        <ele>343</ele>
        <time>2019-08-12T12:55:05.227Z</time>
      </trkpt>
      <trkpt lat="44.76426" lon="1.46625">
        <ele>343</ele>
        <time>2019-08-12T12:55:10.223Z</time>
      </trkpt>
      <trkpt lat="44.76425" lon="1.46623">
        <ele>344</ele>
        <time>2019-08-12T12:55:14.236Z</time>
      </trkpt>
      <trkpt lat="44.76425" lon="1.46624">
        <ele>344</ele>
        <time>2019-08-12T12:55:29.229Z</time>
      </trkpt>
      <trkpt lat="44.76425" lon="1.46628">
        <ele>343</ele>
        <time>2019-08-12T12:55:33.230Z</time>
      </trkpt>
      <trkpt lat="44.76424" lon="1.46629">
        <ele>343</ele>
        <time>2019-08-12T12:55:38.228Z</time>
      </trkpt>
      <trkpt lat="44.76418" lon="1.46625">
        <ele>344</ele>
        <time>2019-08-12T12:55:43.242Z</time>
      </trkpt>
      <trkpt lat="44.76408" lon="1.46622">
        <ele>344</ele>
        <time>2019-08-12T12:55:48.232Z</time>
      </trkpt>
      <trkpt lat="44.76402" lon="1.46628">
        <ele>341</ele>
        <time>2019-08-12T12:55:52.228Z</time>
      </trkpt>
      <trkpt lat="44.76392" lon="1.46632">
        <ele>341</ele>
        <time>2019-08-12T12:55:57.228Z</time>
      </trkpt>
      <trkpt lat="44.76385" lon="1.46634">
        <ele>341</ele>
        <time>2019-08-12T12:56:02.230Z</time>
      </trkpt>
      <trkpt lat="44.76378" lon="1.46629">
        <ele>341</ele>
        <time>2019-08-12T12:56:07.248Z</time>
      </trkpt>
      <trkpt lat="44.76368" lon="1.46628">
        <ele>342</ele>
        <time>2019-08-12T12:56:12.223Z</time>
      </trkpt>
      <trkpt lat="44.76361" lon="1.46624">
        <ele>344</ele>
        <time>2019-08-12T12:56:17.231Z</time>
      </trkpt>
      <trkpt lat="44.76353" lon="1.46619">
        <ele>344</ele>
        <time>2019-08-12T12:56:22.229Z</time>
      </trkpt>
      <trkpt lat="44.76349" lon="1.46616">
        <ele>344</ele>
        <time>2019-08-12T12:56:27.234Z</time>
      </trkpt>
      <trkpt lat="44.76348" lon="1.46614">
        <ele>344</ele>
        <time>2019-08-12T12:56:45.228Z</time>
      </trkpt>
      <trkpt lat="44.76348" lon="1.46614">
        <ele>344</ele>
        <time>2019-08-12T12:56:50.231Z</time>
      </trkpt>
      <trkpt lat="44.76347" lon="1.46611">
        <ele>344</ele>
        <time>2019-08-12T12:56:55.243Z</time>
      </trkpt>
      <trkpt lat="44.76345" lon="1.46606">
        <ele>344</ele>
        <time>2019-08-12T12:57:00.232Z</time>
      </trkpt>
      <trkpt lat="44.76345" lon="1.46602">
        <ele>344</ele>
        <time>2019-08-12T12:57:05.228Z</time>
      </trkpt>
      <trkpt lat="44.76346" lon="1.46599">
        <ele>344</ele>
        <time>2019-08-12T12:57:10.215Z</time>
      </trkpt>
      <trkpt lat="44.76351" lon="1.46588">
        <ele>345</ele>
        <time>2019-08-12T12:57:15.228Z</time>
      </trkpt>
      <trkpt lat="44.76359" lon="1.46575">
        <ele>345</ele>
        <time>2019-08-12T12:57:20.223Z</time>
      </trkpt>
      <trkpt lat="44.76363" lon="1.46565">
        <ele>347</ele>
        <time>2019-08-12T12:57:25.242Z</time>
      </trkpt>
      <trkpt lat="44.76366" lon="1.46557">
        <ele>347</ele>
        <time>2019-08-12T12:57:29.245Z</time>
      </trkpt>
      <trkpt lat="44.76369" lon="1.46552">
        <ele>347</ele>
        <time>2019-08-12T12:57:34.236Z</time>
      </trkpt>
      <trkpt lat="44.76371" lon="1.46546">
        <ele>347</ele>
        <time>2019-08-12T12:57:39.229Z</time>
      </trkpt>
      <trkpt lat="44.76373" lon="1.46534">
        <ele>348</ele>
        <time>2019-08-12T12:57:44.231Z</time>
      </trkpt>
      <trkpt lat="44.76375" lon="1.46528">
        <ele>348</ele>
        <time>2019-08-12T12:57:48.237Z</time>
      </trkpt>
      <trkpt lat="44.76376" lon="1.46518">
        <ele>345</ele>
        <time>2019-08-12T12:57:53.241Z</time>
      </trkpt>
      <trkpt lat="44.76379" lon="1.46508">
        <ele>344</ele>
        <time>2019-08-12T12:57:58.238Z</time>
      </trkpt>
      <trkpt lat="44.76382" lon="1.46499">
        <ele>344</ele>
        <time>2019-08-12T12:58:03.226Z</time>
      </trkpt>
      <trkpt lat="44.76386" lon="1.4649">
        <ele>344</ele>
        <time>2019-08-12T12:58:08.243Z</time>
      </trkpt>
      <trkpt lat="44.7639" lon="1.46483">
        <ele>344</ele>
        <time>2019-08-12T12:58:13.246Z</time>
      </trkpt>
      <trkpt lat="44.76394" lon="1.46478">
        <ele>344</ele>
        <time>2019-08-12T12:58:17.246Z</time>
      </trkpt>
      <trkpt lat="44.76397" lon="1.46471">
        <ele>344</ele>
        <time>2019-08-12T12:58:22.230Z</time>
      </trkpt>
      <trkpt lat="44.76399" lon="1.46465">
        <ele>344</ele>
        <time>2019-08-12T12:58:26.232Z</time>
      </trkpt>
      <trkpt lat="44.764" lon="1.46458">
        <ele>346</ele>
        <time>2019-08-12T12:58:31.238Z</time>
      </trkpt>
      <trkpt lat="44.76402" lon="1.46449">
        <ele>346</ele>
        <time>2019-08-12T12:58:36.233Z</time>
      </trkpt>
      <trkpt lat="44.76403" lon="1.46441">
        <ele>343</ele>
        <time>2019-08-12T12:58:41.237Z</time>
      </trkpt>
      <trkpt lat="44.76405" lon="1.46429">
        <ele>343</ele>
        <time>2019-08-12T12:58:46.240Z</time>
      </trkpt>
      <trkpt lat="44.76407" lon="1.46417">
        <ele>343</ele>
        <time>2019-08-12T12:58:50.246Z</time>
      </trkpt>
      <trkpt lat="44.76409" lon="1.46405">
        <ele>343</ele>
        <time>2019-08-12T12:58:55.212Z</time>
      </trkpt>
      <trkpt lat="44.7641" lon="1.46396">
        <ele>343</ele>
        <time>2019-08-12T12:59:00.232Z</time>
      </trkpt>
      <trkpt lat="44.76412" lon="1.46387">
        <ele>343</ele>
        <time>2019-08-12T12:59:05.237Z</time>
      </trkpt>
      <trkpt lat="44.76416" lon="1.46376">
        <ele>343</ele>
        <time>2019-08-12T12:59:10.217Z</time>
      </trkpt>
      <trkpt lat="44.7642" lon="1.46365">
        <ele>343</ele>
        <time>2019-08-12T12:59:14.229Z</time>
      </trkpt>
      <trkpt lat="44.76424" lon="1.46354">
        <ele>343</ele>
        <time>2019-08-12T12:59:19.235Z</time>
      </trkpt>
      <trkpt lat="44.76427" lon="1.46344">
        <ele>345</ele>
        <time>2019-08-12T12:59:24.238Z</time>
      </trkpt>
      <trkpt lat="44.76429" lon="1.46339">
        <ele>345</ele>
        <time>2019-08-12T12:59:29.237Z</time>
      </trkpt>
      <trkpt lat="44.7643" lon="1.46335">
        <ele>345</ele>
        <time>2019-08-12T12:59:33.246Z</time>
      </trkpt>
      <trkpt lat="44.76432" lon="1.46326">
        <ele>341</ele>
        <time>2019-08-12T12:59:38.239Z</time>
      </trkpt>
      <trkpt lat="44.76433" lon="1.4632">
        <ele>341</ele>
        <time>2019-08-12T12:59:42.237Z</time>
      </trkpt>
      <trkpt lat="44.76434" lon="1.46317">
        <ele>342</ele>
        <time>2019-08-12T12:59:47.237Z</time>
      </trkpt>
      <trkpt lat="44.76436" lon="1.46311">
        <ele>342</ele>
        <time>2019-08-12T12:59:52.228Z</time>
      </trkpt>
      <trkpt lat="44.76439" lon="1.46302">
        <ele>342</ele>
        <time>2019-08-12T12:59:57.237Z</time>
      </trkpt>
      <trkpt lat="44.76446" lon="1.46285">
        <ele>342</ele>
        <time>2019-08-12T13:00:02.229Z</time>
      </trkpt>
      <trkpt lat="44.76457" lon="1.46262">
        <ele>343</ele>
        <time>2019-08-12T13:00:07.217Z</time>
      </trkpt>
      <trkpt lat="44.76466" lon="1.46249">
        <ele>343</ele>
        <time>2019-08-12T13:00:11.239Z</time>
      </trkpt>
      <trkpt lat="44.76468" lon="1.46238">
        <ele>343</ele>
        <time>2019-08-12T13:00:15.225Z</time>
      </trkpt>
      <trkpt lat="44.76471" lon="1.46226">
        <ele>345</ele>
        <time>2019-08-12T13:00:20.233Z</time>
      </trkpt>
      <trkpt lat="44.76475" lon="1.46209">
        <ele>345</ele>
        <time>2019-08-12T13:00:25.241Z</time>
      </trkpt>
      <trkpt lat="44.76477" lon="1.46195">
        <ele>349</ele>
        <time>2019-08-12T13:00:30.241Z</time>
      </trkpt>
      <trkpt lat="44.76479" lon="1.46184">
        <ele>349</ele>
        <time>2019-08-12T13:00:35.239Z</time>
      </trkpt>
      <trkpt lat="44.7648" lon="1.46177">
        <ele>351</ele>
        <time>2019-08-12T13:00:45.240Z</time>
      </trkpt>
      <trkpt lat="44.76481" lon="1.46173">
        <ele>351</ele>
        <time>2019-08-12T13:00:50.237Z</time>
      </trkpt>
      <trkpt lat="44.76481" lon="1.46171">
        <ele>351</ele>
        <time>2019-08-12T13:00:55.238Z</time>
      </trkpt>
      <trkpt lat="44.76482" lon="1.46169">
        <ele>351</ele>
        <time>2019-08-12T13:01:00.222Z</time>
      </trkpt>
      <trkpt lat="44.76482" lon="1.46166">
        <ele>351</ele>
        <time>2019-08-12T13:01:05.218Z</time>
      </trkpt>
      <trkpt lat="44.76484" lon="1.46158">
        <ele>351</ele>
        <time>2019-08-12T13:01:09.227Z</time>
      </trkpt>
      <trkpt lat="44.76492" lon="1.46141">
        <ele>351</ele>
        <time>2019-08-12T13:01:14.225Z</time>
      </trkpt>
      <trkpt lat="44.76496" lon="1.46134">
        <ele>351</ele>
        <time>2019-08-12T13:01:18.231Z</time>
      </trkpt>
      <trkpt lat="44.76502" lon="1.46124">
        <ele>353</ele>
        <time>2019-08-12T13:01:23.220Z</time>
      </trkpt>
      <trkpt lat="44.76505" lon="1.46117">
        <ele>353</ele>
        <time>2019-08-12T13:01:27.241Z</time>
      </trkpt>
      <trkpt lat="44.76512" lon="1.46108">
        <ele>353</ele>
        <time>2019-08-12T13:01:32.238Z</time>
      </trkpt>
      <trkpt lat="44.76518" lon="1.46099">
        <ele>351</ele>
        <time>2019-08-12T13:01:37.229Z</time>
      </trkpt>
      <trkpt lat="44.76521" lon="1.46094">
        <ele>355</ele>
        <time>2019-08-12T13:01:41.239Z</time>
      </trkpt>
      <trkpt lat="44.76526" lon="1.46088">
        <ele>355</ele>
        <time>2019-08-12T13:01:46.241Z</time>
      </trkpt>
      <trkpt lat="44.7653" lon="1.46081">
        <ele>355</ele>
        <time>2019-08-12T13:01:51.238Z</time>
      </trkpt>
      <trkpt lat="44.7653" lon="1.46075">
        <ele>355</ele>
        <time>2019-08-12T13:01:56.234Z</time>
      </trkpt>
      <trkpt lat="44.76532" lon="1.46062">
        <ele>355</ele>
        <time>2019-08-12T13:02:01.236Z</time>
      </trkpt>
      <trkpt lat="44.76532" lon="1.4606">
        <ele>355</ele>
        <time>2019-08-12T13:02:06.235Z</time>
      </trkpt>
      <trkpt lat="44.7653" lon="1.46059">
        <ele>355</ele>
        <time>2019-08-12T13:02:11.238Z</time>
      </trkpt>
      <trkpt lat="44.76525" lon="1.46056">
        <ele>355</ele>
        <time>2019-08-12T13:02:15.234Z</time>
      </trkpt>
      <trkpt lat="44.76522" lon="1.46053">
        <ele>355</ele>
        <time>2019-08-12T13:02:20.241Z</time>
      </trkpt>
      <trkpt lat="44.76518" lon="1.46047">
        <ele>355</ele>
        <time>2019-08-12T13:02:24.232Z</time>
      </trkpt>
      <trkpt lat="44.76514" lon="1.46043">
        <ele>352</ele>
        <time>2019-08-12T13:02:28.228Z</time>
      </trkpt>
      <trkpt lat="44.76506" lon="1.46036">
        <ele>352</ele>
        <time>2019-08-12T13:02:33.227Z</time>
      </trkpt>
      <trkpt lat="44.76499" lon="1.46031">
        <ele>352</ele>
        <time>2019-08-12T13:02:37.230Z</time>
      </trkpt>
      <trkpt lat="44.76492" lon="1.46027">
        <ele>352</ele>
        <time>2019-08-12T13:02:42.238Z</time>
      </trkpt>
      <trkpt lat="44.76487" lon="1.46021">
        <ele>352</ele>
        <time>2019-08-12T13:02:47.232Z</time>
      </trkpt>
      <trkpt lat="44.76483" lon="1.46015">
        <ele>349</ele>
        <time>2019-08-12T13:02:52.233Z</time>
      </trkpt>
      <trkpt lat="44.76481" lon="1.46011">
        <ele>349</ele>
        <time>2019-08-12T13:02:56.241Z</time>
      </trkpt>
      <trkpt lat="44.76479" lon="1.46008">
        <ele>349</ele>
        <time>2019-08-12T13:03:01.250Z</time>
      </trkpt>
      <trkpt lat="44.76476" lon="1.46001">
        <ele>349</ele>
        <time>2019-08-12T13:03:06.243Z</time>
      </trkpt>
      <trkpt lat="44.76472" lon="1.45995">
        <ele>349</ele>
        <time>2019-08-12T13:03:11.227Z</time>
      </trkpt>
      <trkpt lat="44.76471" lon="1.45994">
        <ele>349</ele>
        <time>2019-08-12T13:03:16.247Z</time>
      </trkpt>
      <trkpt lat="44.76469" lon="1.4599">
        <ele>349</ele>
        <time>2019-08-12T13:03:21.222Z</time>
      </trkpt>
      <trkpt lat="44.76461" lon="1.45976">
        <ele>348</ele>
        <time>2019-08-12T13:03:26.225Z</time>
      </trkpt>
      <trkpt lat="44.7646" lon="1.45974">
        <ele>348</ele>
        <time>2019-08-12T13:03:31.237Z</time>
      </trkpt>
      <trkpt lat="44.76456" lon="1.45965">
        <ele>344</ele>
        <time>2019-08-12T13:03:36.230Z</time>
      </trkpt>
      <trkpt lat="44.76451" lon="1.45957">
        <ele>341</ele>
        <time>2019-08-12T13:03:41.234Z</time>
      </trkpt>
      <trkpt lat="44.76449" lon="1.45953">
        <ele>341</ele>
        <time>2019-08-12T13:03:45.238Z</time>
      </trkpt>
      <trkpt lat="44.76445" lon="1.45942">
        <ele>341</ele>
        <time>2019-08-12T13:03:50.240Z</time>
      </trkpt>
      <trkpt lat="44.76443" lon="1.45935">
        <ele>341</ele>
        <time>2019-08-12T13:03:54.245Z</time>
      </trkpt>
      <trkpt lat="44.7644" lon="1.45928">
        <ele>337</ele>
        <time>2019-08-12T13:03:59.238Z</time>
      </trkpt>
      <trkpt lat="44.76438" lon="1.45926">
        <ele>337</ele>
        <time>2019-08-12T13:04:03.238Z</time>
      </trkpt>
      <trkpt lat="44.76435" lon="1.45921">
        <ele>337</ele>
        <time>2019-08-12T13:04:07.242Z</time>
      </trkpt>
      <trkpt lat="44.76431" lon="1.45913">
        <ele>337</ele>
        <time>2019-08-12T13:04:12.240Z</time>
      </trkpt>
      <trkpt lat="44.76425" lon="1.45908">
        <ele>335</ele>
        <time>2019-08-12T13:04:17.238Z</time>
      </trkpt>
      <trkpt lat="44.7642" lon="1.45905">
        <ele>335</ele>
        <time>2019-08-12T13:04:22.229Z</time>
      </trkpt>
      <trkpt lat="44.76415" lon="1.45903">
        <ele>335</ele>
        <time>2019-08-12T13:04:27.225Z</time>
      </trkpt>
      <trkpt lat="44.76407" lon="1.45901">
        <ele>333</ele>
        <time>2019-08-12T13:04:32.239Z</time>
      </trkpt>
      <trkpt lat="44.76402" lon="1.45897">
        <ele>328</ele>
        <time>2019-08-12T13:04:37.229Z</time>
      </trkpt>
      <trkpt lat="44.76396" lon="1.45897">
        <ele>328</ele>
        <time>2019-08-12T13:04:42.234Z</time>
      </trkpt>
      <trkpt lat="44.76393" lon="1.45901">
        <ele>328</ele>
        <time>2019-08-12T13:04:47.240Z</time>
      </trkpt>
      <trkpt lat="44.76392" lon="1.45899">
        <ele>328</ele>
        <time>2019-08-12T13:04:52.233Z</time>
      </trkpt>
      <trkpt lat="44.76391" lon="1.459">
        <ele>328</ele>
        <time>2019-08-12T13:04:56.232Z</time>
      </trkpt>
      <trkpt lat="44.76386" lon="1.45897">
        <ele>328</ele>
        <time>2019-08-12T13:05:01.226Z</time>
      </trkpt>
      <trkpt lat="44.76381" lon="1.45896">
        <ele>328</ele>
        <time>2019-08-12T13:05:06.233Z</time>
      </trkpt>
      <trkpt lat="44.76378" lon="1.45899">
        <ele>328</ele>
        <time>2019-08-12T13:05:11.234Z</time>
      </trkpt>
      <trkpt lat="44.76374" lon="1.45899">
        <ele>323</ele>
        <time>2019-08-12T13:05:16.234Z</time>
      </trkpt>
      <trkpt lat="44.76369" lon="1.45897">
        <ele>323</ele>
        <time>2019-08-12T13:05:21.240Z</time>
      </trkpt>
      <trkpt lat="44.76361" lon="1.45895">
        <ele>323</ele>
        <time>2019-08-12T13:05:26.231Z</time>
      </trkpt>
      <trkpt lat="44.7635" lon="1.45899">
        <ele>323</ele>
        <time>2019-08-12T13:05:31.234Z</time>
      </trkpt>
      <trkpt lat="44.76342" lon="1.45903">
        <ele>321</ele>
        <time>2019-08-12T13:05:35.236Z</time>
      </trkpt>
      <trkpt lat="44.76332" lon="1.45903">
        <ele>326</ele>
        <time>2019-08-12T13:05:40.226Z</time>
      </trkpt>
      <trkpt lat="44.76326" lon="1.45903">
        <ele>326</ele>
        <time>2019-08-12T13:05:45.230Z</time>
      </trkpt>
      <trkpt lat="44.76318" lon="1.45894">
        <ele>324</ele>
        <time>2019-08-12T13:05:50.237Z</time>
      </trkpt>
      <trkpt lat="44.76314" lon="1.45885">
        <ele>324</ele>
        <time>2019-08-12T13:05:55.236Z</time>
      </trkpt>
      <trkpt lat="44.76314" lon="1.45878">
        <ele>324</ele>
        <time>2019-08-12T13:05:59.227Z</time>
      </trkpt>
      <trkpt lat="44.76315" lon="1.4587">
        <ele>319</ele>
        <time>2019-08-12T13:06:04.232Z</time>
      </trkpt>
      <trkpt lat="44.76316" lon="1.45859">
        <ele>319</ele>
        <time>2019-08-12T13:06:09.235Z</time>
      </trkpt>
      <trkpt lat="44.76318" lon="1.45852">
        <ele>319</ele>
        <time>2019-08-12T13:06:13.235Z</time>
      </trkpt>
      <trkpt lat="44.76318" lon="1.45842">
        <ele>318</ele>
        <time>2019-08-12T13:06:18.240Z</time>
      </trkpt>
      <trkpt lat="44.76319" lon="1.45834">
        <ele>318</ele>
        <time>2019-08-12T13:06:23.237Z</time>
      </trkpt>
      <trkpt lat="44.76316" lon="1.45829">
        <ele>318</ele>
        <time>2019-08-12T13:06:28.221Z</time>
      </trkpt>
      <trkpt lat="44.76313" lon="1.4582">
        <ele>318</ele>
        <time>2019-08-12T13:06:33.242Z</time>
      </trkpt>
      <trkpt lat="44.76307" lon="1.45812">
        <ele>317</ele>
        <time>2019-08-12T13:06:38.235Z</time>
      </trkpt>
      <trkpt lat="44.76303" lon="1.45807">
        <ele>317</ele>
        <time>2019-08-12T13:06:42.230Z</time>
      </trkpt>
      <trkpt lat="44.76297" lon="1.45801">
        <ele>317</ele>
        <time>2019-08-12T13:06:47.237Z</time>
      </trkpt>
      <trkpt lat="44.76291" lon="1.45794">
        <ele>316</ele>
        <time>2019-08-12T13:06:52.232Z</time>
      </trkpt>
      <trkpt lat="44.76283" lon="1.4579">
        <ele>316</ele>
        <time>2019-08-12T13:06:57.236Z</time>
      </trkpt>
      <trkpt lat="44.76277" lon="1.45785">
        <ele>316</ele>
        <time>2019-08-12T13:07:02.237Z</time>
      </trkpt>
      <trkpt lat="44.76271" lon="1.4578">
        <ele>316</ele>
        <time>2019-08-12T13:07:07.229Z</time>
      </trkpt>
      <trkpt lat="44.76266" lon="1.45776">
        <ele>316</ele>
        <time>2019-08-12T13:07:12.238Z</time>
      </trkpt>
      <trkpt lat="44.7626" lon="1.45771">
        <ele>318</ele>
        <time>2019-08-12T13:07:17.237Z</time>
      </trkpt>
      <trkpt lat="44.76254" lon="1.45767">
        <ele>318</ele>
        <time>2019-08-12T13:07:22.221Z</time>
      </trkpt>
      <trkpt lat="44.76249" lon="1.45763">
        <ele>318</ele>
        <time>2019-08-12T13:07:27.232Z</time>
      </trkpt>
      <trkpt lat="44.76246" lon="1.4576">
        <ele>318</ele>
        <time>2019-08-12T13:07:31.235Z</time>
      </trkpt>
      <trkpt lat="44.76241" lon="1.45757">
        <ele>318</ele>
        <time>2019-08-12T13:07:36.221Z</time>
      </trkpt>
      <trkpt lat="44.76236" lon="1.45754">
        <ele>321</ele>
        <time>2019-08-12T13:07:41.223Z</time>
      </trkpt>
      <trkpt lat="44.76231" lon="1.4575">
        <ele>321</ele>
        <time>2019-08-12T13:07:45.233Z</time>
      </trkpt>
      <trkpt lat="44.76219" lon="1.4574">
        <ele>321</ele>
        <time>2019-08-12T13:07:54.245Z</time>
      </trkpt>
      <trkpt lat="44.76217" lon="1.45738">
        <ele>321</ele>
        <time>2019-08-12T13:07:59.231Z</time>
      </trkpt>
      <trkpt lat="44.76217" lon="1.45738">
        <ele>321</ele>
        <time>2019-08-12T13:08:04.218Z</time>
      </trkpt>
      <trkpt lat="44.76217" lon="1.45738">
        <ele>321</ele>
        <time>2019-08-12T13:08:08.237Z</time>
      </trkpt>
      <trkpt lat="44.76216" lon="1.45738">
        <ele>321</ele>
        <time>2019-08-12T13:08:12.239Z</time>
      </trkpt>
      <trkpt lat="44.76216" lon="1.45737">
        <ele>321</ele>
        <time>2019-08-12T13:08:16.245Z</time>
      </trkpt>
      <trkpt lat="44.76215" lon="1.4573">
        <ele>320</ele>
        <time>2019-08-12T13:08:21.237Z</time>
      </trkpt>
      <trkpt lat="44.76216" lon="1.45721">
        <ele>320</ele>
        <time>2019-08-12T13:08:26.228Z</time>
      </trkpt>
      <trkpt lat="44.76218" lon="1.45714">
        <ele>320</ele>
        <time>2019-08-12T13:08:30.232Z</time>
      </trkpt>
      <trkpt lat="44.76218" lon="1.45706">
        <ele>319</ele>
        <time>2019-08-12T13:08:45.228Z</time>
      </trkpt>
      <trkpt lat="44.76218" lon="1.45705">
        <ele>319</ele>
        <time>2019-08-12T13:08:50.235Z</time>
      </trkpt>
      <trkpt lat="44.76218" lon="1.45704">
        <ele>319</ele>
        <time>2019-08-12T13:08:55.236Z</time>
      </trkpt>
      <trkpt lat="44.76217" lon="1.45698">
        <ele>319</ele>
        <time>2019-08-12T13:09:00.237Z</time>
      </trkpt>
      <trkpt lat="44.76219" lon="1.45688">
        <ele>319</ele>
        <time>2019-08-12T13:09:05.218Z</time>
      </trkpt>
      <trkpt lat="44.76219" lon="1.45682">
        <ele>319</ele>
        <time>2019-08-12T13:09:09.237Z</time>
      </trkpt>
      <trkpt lat="44.76219" lon="1.45679">
        <ele>319</ele>
        <time>2019-08-12T13:09:13.239Z</time>
      </trkpt>
      <trkpt lat="44.76219" lon="1.45669">
        <ele>319</ele>
        <time>2019-08-12T13:09:18.210Z</time>
      </trkpt>
      <trkpt lat="44.7622" lon="1.45663">
        <ele>319</ele>
        <time>2019-08-12T13:09:22.235Z</time>
      </trkpt>
      <trkpt lat="44.76221" lon="1.45662">
        <ele>319</ele>
        <time>2019-08-12T13:09:27.227Z</time>
      </trkpt>
      <trkpt lat="44.76221" lon="1.45662">
        <ele>319</ele>
        <time>2019-08-12T13:09:31.237Z</time>
      </trkpt>
      <trkpt lat="44.76221" lon="1.4566">
        <ele>319</ele>
        <time>2019-08-12T13:09:36.240Z</time>
      </trkpt>
      <trkpt lat="44.76223" lon="1.45654">
        <ele>319</ele>
        <time>2019-08-12T13:09:41.243Z</time>
      </trkpt>
      <trkpt lat="44.76225" lon="1.45646">
        <ele>318</ele>
        <time>2019-08-12T13:09:46.233Z</time>
      </trkpt>
      <trkpt lat="44.76225" lon="1.45635">
        <ele>318</ele>
        <time>2019-08-12T13:09:51.230Z</time>
      </trkpt>
      <trkpt lat="44.76226" lon="1.45623">
        <ele>317</ele>
        <time>2019-08-12T13:09:56.233Z</time>
      </trkpt>
      <trkpt lat="44.76226" lon="1.45614">
        <ele>317</ele>
        <time>2019-08-12T13:10:01.244Z</time>
      </trkpt>
      <trkpt lat="44.76227" lon="1.45605">
        <ele>317</ele>
        <time>2019-08-12T13:10:06.235Z</time>
      </trkpt>
      <trkpt lat="44.76227" lon="1.45597">
        <ele>315</ele>
        <time>2019-08-12T13:10:10.239Z</time>
      </trkpt>
      <trkpt lat="44.76228" lon="1.45589">
        <ele>315</ele>
        <time>2019-08-12T13:10:15.235Z</time>
      </trkpt>
      <trkpt lat="44.76229" lon="1.45585">
        <ele>315</ele>
        <time>2019-08-12T13:10:19.242Z</time>
      </trkpt>
      <trkpt lat="44.76229" lon="1.45579">
        <ele>315</ele>
        <time>2019-08-12T13:10:24.240Z</time>
      </trkpt>
      <trkpt lat="44.76229" lon="1.45571">
        <ele>315</ele>
        <time>2019-08-12T13:10:29.233Z</time>
      </trkpt>
      <trkpt lat="44.76228" lon="1.4556">
        <ele>314</ele>
        <time>2019-08-12T13:10:33.244Z</time>
      </trkpt>
      <trkpt lat="44.76227" lon="1.45541">
        <ele>313</ele>
        <time>2019-08-12T13:10:38.238Z</time>
      </trkpt>
      <trkpt lat="44.76225" lon="1.45531">
        <ele>313</ele>
        <time>2019-08-12T13:10:43.235Z</time>
      </trkpt>
      <trkpt lat="44.7622" lon="1.45527">
        <ele>313</ele>
        <time>2019-08-12T13:10:48.232Z</time>
      </trkpt>
      <trkpt lat="44.76217" lon="1.45521">
        <ele>313</ele>
        <time>2019-08-12T13:10:53.220Z</time>
      </trkpt>
      <trkpt lat="44.76213" lon="1.45522">
        <ele>313</ele>
        <time>2019-08-12T13:10:57.234Z</time>
      </trkpt>
      <trkpt lat="44.76211" lon="1.45522">
        <ele>313</ele>
        <time>2019-08-12T13:11:01.227Z</time>
      </trkpt>
      <trkpt lat="44.76205" lon="1.45522">
        <ele>315</ele>
        <time>2019-08-12T13:11:06.233Z</time>
      </trkpt>
      <trkpt lat="44.76201" lon="1.45521">
        <ele>315</ele>
        <time>2019-08-12T13:11:11.243Z</time>
      </trkpt>
      <trkpt lat="44.76196" lon="1.4552">
        <ele>315</ele>
        <time>2019-08-12T13:11:16.243Z</time>
      </trkpt>
      <trkpt lat="44.76193" lon="1.45511">
        <ele>312</ele>
        <time>2019-08-12T13:11:21.243Z</time>
      </trkpt>
      <trkpt lat="44.76189" lon="1.45508">
        <ele>312</ele>
        <time>2019-08-12T13:11:26.237Z</time>
      </trkpt>
      <trkpt lat="44.76183" lon="1.45513">
        <ele>312</ele>
        <time>2019-08-12T13:11:31.235Z</time>
      </trkpt>
      <trkpt lat="44.76181" lon="1.4551">
        <ele>312</ele>
        <time>2019-08-12T13:11:36.229Z</time>
      </trkpt>
      <trkpt lat="44.76177" lon="1.45509">
        <ele>311</ele>
        <time>2019-08-12T13:11:40.236Z</time>
      </trkpt>
      <trkpt lat="44.76175" lon="1.45509">
        <ele>311</ele>
        <time>2019-08-12T13:11:45.228Z</time>
      </trkpt>
      <trkpt lat="44.76169" lon="1.45509">
        <ele>311</ele>
        <time>2019-08-12T13:11:50.235Z</time>
      </trkpt>
      <trkpt lat="44.76164" lon="1.45509">
        <ele>311</ele>
        <time>2019-08-12T13:11:55.236Z</time>
      </trkpt>
      <trkpt lat="44.76162" lon="1.45508">
        <ele>311</ele>
        <time>2019-08-12T13:12:00.225Z</time>
      </trkpt>
      <trkpt lat="44.76161" lon="1.45508">
        <ele>311</ele>
        <time>2019-08-12T13:12:04.224Z</time>
      </trkpt>
      <trkpt lat="44.76155" lon="1.45505">
        <ele>311</ele>
        <time>2019-08-12T13:12:09.234Z</time>
      </trkpt>
      <trkpt lat="44.76148" lon="1.45503">
        <ele>306</ele>
        <time>2019-08-12T13:12:14.241Z</time>
      </trkpt>
      <trkpt lat="44.76143" lon="1.45502">
        <ele>306</ele>
        <time>2019-08-12T13:12:19.229Z</time>
      </trkpt>
      <trkpt lat="44.76137" lon="1.45502">
        <ele>306</ele>
        <time>2019-08-12T13:12:23.237Z</time>
      </trkpt>
      <trkpt lat="44.76126" lon="1.45505">
        <ele>306</ele>
        <time>2019-08-12T13:12:28.233Z</time>
      </trkpt>
      <trkpt lat="44.76121" lon="1.45505">
        <ele>304</ele>
        <time>2019-08-12T13:12:33.237Z</time>
      </trkpt>
      <trkpt lat="44.76117" lon="1.45497">
        <ele>304</ele>
        <time>2019-08-12T13:12:38.230Z</time>
      </trkpt>
      <trkpt lat="44.76111" lon="1.45493">
        <ele>304</ele>
        <time>2019-08-12T13:12:42.240Z</time>
      </trkpt>
      <trkpt lat="44.76099" lon="1.4549">
        <ele>304</ele>
        <time>2019-08-12T13:12:47.234Z</time>
      </trkpt>
      <trkpt lat="44.76091" lon="1.45492">
        <ele>304</ele>
        <time>2019-08-12T13:12:52.233Z</time>
      </trkpt>
      <trkpt lat="44.76089" lon="1.45493">
        <ele>304</ele>
        <time>2019-08-12T13:12:56.237Z</time>
      </trkpt>
      <trkpt lat="44.7608" lon="1.45499">
        <ele>304</ele>
        <time>2019-08-12T13:13:14.235Z</time>
      </trkpt>
      <trkpt lat="44.76076" lon="1.45498">
        <ele>304</ele>
        <time>2019-08-12T13:13:19.228Z</time>
      </trkpt>
      <trkpt lat="44.76072" lon="1.45498">
        <ele>304</ele>
        <time>2019-08-12T13:13:24.235Z</time>
      </trkpt>
      <trkpt lat="44.76069" lon="1.45501">
        <ele>305</ele>
        <time>2019-08-12T13:13:29.242Z</time>
      </trkpt>
      <trkpt lat="44.76061" lon="1.45504">
        <ele>305</ele>
        <time>2019-08-12T13:13:34.234Z</time>
      </trkpt>
      <trkpt lat="44.76055" lon="1.45501">
        <ele>305</ele>
        <time>2019-08-12T13:13:39.232Z</time>
      </trkpt>
      <trkpt lat="44.76047" lon="1.45507">
        <ele>305</ele>
        <time>2019-08-12T13:13:43.230Z</time>
      </trkpt>
      <trkpt lat="44.76036" lon="1.45505">
        <ele>306</ele>
        <time>2019-08-12T13:13:48.234Z</time>
      </trkpt>
      <trkpt lat="44.7603" lon="1.45507">
        <ele>306</ele>
        <time>2019-08-12T13:13:53.228Z</time>
      </trkpt>
      <trkpt lat="44.76022" lon="1.45499">
        <ele>306</ele>
        <time>2019-08-12T13:13:58.221Z</time>
      </trkpt>
      <trkpt lat="44.76012" lon="1.45494">
        <ele>309</ele>
        <time>2019-08-12T13:14:03.231Z</time>
      </trkpt>
      <trkpt lat="44.76005" lon="1.45494">
        <ele>309</ele>
        <time>2019-08-12T13:14:08.223Z</time>
      </trkpt>
      <trkpt lat="44.76" lon="1.45494">
        <ele>309</ele>
        <time>2019-08-12T13:14:13.240Z</time>
      </trkpt>
      <trkpt lat="44.75995" lon="1.45494">
        <ele>309</ele>
        <time>2019-08-12T13:14:18.220Z</time>
      </trkpt>
      <trkpt lat="44.75987" lon="1.45493">
        <ele>309</ele>
        <time>2019-08-12T13:14:23.236Z</time>
      </trkpt>
      <trkpt lat="44.75985" lon="1.45495">
        <ele>310</ele>
        <time>2019-08-12T13:14:28.240Z</time>
      </trkpt>
      <trkpt lat="44.75983" lon="1.45502">
        <ele>310</ele>
        <time>2019-08-12T13:14:33.236Z</time>
      </trkpt>
      <trkpt lat="44.75984" lon="1.45504">
        <ele>310</ele>
        <time>2019-08-12T13:14:41.235Z</time>
      </trkpt>
      <trkpt lat="44.7598" lon="1.45499">
        <ele>310</ele>
        <time>2019-08-12T13:14:46.243Z</time>
      </trkpt>
      <trkpt lat="44.75976" lon="1.455">
        <ele>310</ele>
        <time>2019-08-12T13:14:51.230Z</time>
      </trkpt>
      <trkpt lat="44.75975" lon="1.45503">
        <ele>310</ele>
        <time>2019-08-12T13:14:55.236Z</time>
      </trkpt>
      <trkpt lat="44.75965" lon="1.45501">
        <ele>310</ele>
        <time>2019-08-12T13:15:00.226Z</time>
      </trkpt>
      <trkpt lat="44.7596" lon="1.45505">
        <ele>310</ele>
        <time>2019-08-12T13:15:04.240Z</time>
      </trkpt>
      <trkpt lat="44.75958" lon="1.45506">
        <ele>313</ele>
        <time>2019-08-12T13:15:09.233Z</time>
      </trkpt>
      <trkpt lat="44.75952" lon="1.45511">
        <ele>313</ele>
        <time>2019-08-12T13:15:13.234Z</time>
      </trkpt>
      <trkpt lat="44.75945" lon="1.45513">
        <ele>313</ele>
        <time>2019-08-12T13:15:18.233Z</time>
      </trkpt>
      <trkpt lat="44.75942" lon="1.45513">
        <ele>313</ele>
        <time>2019-08-12T13:15:23.232Z</time>
      </trkpt>
      <trkpt lat="44.75938" lon="1.45512">
        <ele>313</ele>
        <time>2019-08-12T13:15:28.239Z</time>
      </trkpt>
      <trkpt lat="44.75931" lon="1.45515">
        <ele>311</ele>
        <time>2019-08-12T13:15:33.240Z</time>
      </trkpt>
      <trkpt lat="44.75923" lon="1.45519">
        <ele>314</ele>
        <time>2019-08-12T13:15:38.227Z</time>
      </trkpt>
      <trkpt lat="44.75921" lon="1.4552">
        <ele>314</ele>
        <time>2019-08-12T13:15:42.237Z</time>
      </trkpt>
      <trkpt lat="44.75918" lon="1.4552">
        <ele>314</ele>
        <time>2019-08-12T13:15:47.230Z</time>
      </trkpt>
      <trkpt lat="44.75917" lon="1.45522">
        <ele>314</ele>
        <time>2019-08-12T13:15:51.243Z</time>
      </trkpt>
      <trkpt lat="44.75916" lon="1.45522">
        <ele>314</ele>
        <time>2019-08-12T13:15:56.234Z</time>
      </trkpt>
      <trkpt lat="44.7591" lon="1.45521">
        <ele>314</ele>
        <time>2019-08-12T13:16:01.230Z</time>
      </trkpt>
      <trkpt lat="44.75908" lon="1.4552">
        <ele>314</ele>
        <time>2019-08-12T13:16:06.226Z</time>
      </trkpt>
      <trkpt lat="44.75908" lon="1.4552">
        <ele>314</ele>
        <time>2019-08-12T13:16:10.225Z</time>
      </trkpt>
      <trkpt lat="44.75907" lon="1.45518">
        <ele>314</ele>
        <time>2019-08-12T13:16:15.210Z</time>
      </trkpt>
      <trkpt lat="44.75898" lon="1.45512">
        <ele>320</ele>
        <time>2019-08-12T13:16:19.224Z</time>
      </trkpt>
      <trkpt lat="44.75891" lon="1.45501">
        <ele>320</ele>
        <time>2019-08-12T13:16:23.245Z</time>
      </trkpt>
      <trkpt lat="44.75879" lon="1.45514">
        <ele>318</ele>
        <time>2019-08-12T13:16:28.230Z</time>
      </trkpt>
      <trkpt lat="44.75865" lon="1.45543">
        <ele>323</ele>
        <time>2019-08-12T13:16:33.214Z</time>
      </trkpt>
      <trkpt lat="44.75854" lon="1.45553">
        <ele>323</ele>
        <time>2019-08-12T13:16:37.230Z</time>
      </trkpt>
      <trkpt lat="44.75848" lon="1.45566">
        <ele>323</ele>
        <time>2019-08-12T13:16:42.236Z</time>
      </trkpt>
      <trkpt lat="44.75833" lon="1.45587">
        <ele>329</ele>
        <time>2019-08-12T13:16:47.235Z</time>
      </trkpt>
      <trkpt lat="44.75814" lon="1.4561">
        <ele>332</ele>
        <time>2019-08-12T13:16:51.242Z</time>
      </trkpt>
      <trkpt lat="44.75782" lon="1.45623">
        <ele>331</ele>
        <time>2019-08-12T13:16:56.212Z</time>
      </trkpt>
      <trkpt lat="44.75765" lon="1.45628">
        <ele>334</ele>
        <time>2019-08-12T13:17:00.229Z</time>
      </trkpt>
      <trkpt lat="44.75747" lon="1.45633">
        <ele>333</ele>
        <time>2019-08-12T13:17:05.235Z</time>
      </trkpt>
      <trkpt lat="44.75735" lon="1.45633">
        <ele>332</ele>
        <time>2019-08-12T13:17:10.217Z</time>
      </trkpt>
      <trkpt lat="44.75724" lon="1.45629">
        <ele>332</ele>
        <time>2019-08-12T13:17:15.221Z</time>
      </trkpt>
      <trkpt lat="44.75717" lon="1.45622">
        <ele>331</ele>
        <time>2019-08-12T13:17:20.229Z</time>
      </trkpt>
      <trkpt lat="44.7571" lon="1.45614">
        <ele>331</ele>
        <time>2019-08-12T13:17:25.236Z</time>
      </trkpt>
      <trkpt lat="44.75703" lon="1.45609">
        <ele>332</ele>
        <time>2019-08-12T13:17:30.234Z</time>
      </trkpt>
      <trkpt lat="44.75697" lon="1.45602">
        <ele>332</ele>
        <time>2019-08-12T13:17:35.233Z</time>
      </trkpt>
      <trkpt lat="44.75692" lon="1.45598">
        <ele>332</ele>
        <time>2019-08-12T13:17:39.232Z</time>
      </trkpt>
      <trkpt lat="44.7568" lon="1.45597">
        <ele>330</ele>
        <time>2019-08-12T13:17:44.230Z</time>
      </trkpt>
      <trkpt lat="44.75668" lon="1.45592">
        <ele>330</ele>
        <time>2019-08-12T13:17:49.241Z</time>
      </trkpt>
      <trkpt lat="44.75661" lon="1.45591">
        <ele>330</ele>
        <time>2019-08-12T13:17:54.234Z</time>
      </trkpt>
      <trkpt lat="44.75655" lon="1.4559">
        <ele>330</ele>
        <time>2019-08-12T13:17:59.246Z</time>
      </trkpt>
      <trkpt lat="44.75648" lon="1.45588">
        <ele>328</ele>
        <time>2019-08-12T13:18:04.224Z</time>
      </trkpt>
      <trkpt lat="44.75643" lon="1.45584">
        <ele>328</ele>
        <time>2019-08-12T13:18:08.250Z</time>
      </trkpt>
      <trkpt lat="44.75637" lon="1.45579">
        <ele>328</ele>
        <time>2019-08-12T13:18:13.241Z</time>
      </trkpt>
      <trkpt lat="44.75632" lon="1.45574">
        <ele>328</ele>
        <time>2019-08-12T13:18:17.258Z</time>
      </trkpt>
      <trkpt lat="44.75628" lon="1.45565">
        <ele>329</ele>
        <time>2019-08-12T13:18:22.255Z</time>
      </trkpt>
      <trkpt lat="44.75623" lon="1.45557">
        <ele>327</ele>
        <time>2019-08-12T13:18:27.245Z</time>
      </trkpt>
      <trkpt lat="44.75617" lon="1.45548">
        <ele>327</ele>
        <time>2019-08-12T13:18:32.249Z</time>
      </trkpt>
      <trkpt lat="44.75613" lon="1.4554">
        <ele>329</ele>
        <time>2019-08-12T13:18:37.246Z</time>
      </trkpt>
      <trkpt lat="44.75608" lon="1.45535">
        <ele>329</ele>
        <time>2019-08-12T13:18:41.255Z</time>
      </trkpt>
      <trkpt lat="44.75602" lon="1.4553">
        <ele>329</ele>
        <time>2019-08-12T13:18:45.259Z</time>
      </trkpt>
      <trkpt lat="44.75596" lon="1.45523">
        <ele>327</ele>
        <time>2019-08-12T13:18:50.257Z</time>
      </trkpt>
      <trkpt lat="44.7559" lon="1.45517">
        <ele>327</ele>
        <time>2019-08-12T13:18:54.257Z</time>
      </trkpt>
      <trkpt lat="44.75587" lon="1.45505">
        <ele>328</ele>
        <time>2019-08-12T13:18:59.248Z</time>
      </trkpt>
      <trkpt lat="44.7558" lon="1.45499">
        <ele>328</ele>
        <time>2019-08-12T13:19:04.256Z</time>
      </trkpt>
      <trkpt lat="44.75575" lon="1.45494">
        <ele>328</ele>
        <time>2019-08-12T13:19:08.253Z</time>
      </trkpt>
      <trkpt lat="44.75567" lon="1.45489">
        <ele>324</ele>
        <time>2019-08-12T13:19:13.257Z</time>
      </trkpt>
      <trkpt lat="44.75559" lon="1.45482">
        <ele>327</ele>
        <time>2019-08-12T13:19:18.218Z</time>
      </trkpt>
      <trkpt lat="44.75553" lon="1.45478">
        <ele>327</ele>
        <time>2019-08-12T13:19:22.220Z</time>
      </trkpt>
      <trkpt lat="44.75544" lon="1.45472">
        <ele>327</ele>
        <time>2019-08-12T13:19:27.231Z</time>
      </trkpt>
      <trkpt lat="44.75536" lon="1.45467">
        <ele>323</ele>
        <time>2019-08-12T13:19:31.232Z</time>
      </trkpt>
      <trkpt lat="44.75531" lon="1.45462">
        <ele>323</ele>
        <time>2019-08-12T13:19:35.258Z</time>
      </trkpt>
      <trkpt lat="44.75526" lon="1.45455">
        <ele>325</ele>
        <time>2019-08-12T13:19:39.255Z</time>
      </trkpt>
      <trkpt lat="44.7552" lon="1.45448">
        <ele>325</ele>
        <time>2019-08-12T13:19:44.250Z</time>
      </trkpt>
      <trkpt lat="44.75515" lon="1.45444">
        <ele>325</ele>
        <time>2019-08-12T13:19:48.248Z</time>
      </trkpt>
      <trkpt lat="44.7551" lon="1.45437">
        <ele>322</ele>
        <time>2019-08-12T13:19:52.264Z</time>
      </trkpt>
      <trkpt lat="44.75505" lon="1.4543">
        <ele>327</ele>
        <time>2019-08-12T13:19:57.239Z</time>
      </trkpt>
      <trkpt lat="44.75501" lon="1.45423">
        <ele>327</ele>
        <time>2019-08-12T13:20:01.244Z</time>
      </trkpt>
      <trkpt lat="44.75498" lon="1.45413">
        <ele>327</ele>
        <time>2019-08-12T13:20:06.253Z</time>
      </trkpt>
      <trkpt lat="44.75496" lon="1.45407">
        <ele>327</ele>
        <time>2019-08-12T13:20:11.250Z</time>
      </trkpt>
      <trkpt lat="44.75491" lon="1.45403">
        <ele>333</ele>
        <time>2019-08-12T13:20:16.252Z</time>
      </trkpt>
      <trkpt lat="44.75487" lon="1.45397">
        <ele>333</ele>
        <time>2019-08-12T13:20:21.253Z</time>
      </trkpt>
      <trkpt lat="44.75477" lon="1.45392">
        <ele>330</ele>
        <time>2019-08-12T13:20:26.262Z</time>
      </trkpt>
      <trkpt lat="44.75473" lon="1.45388">
        <ele>330</ele>
        <time>2019-08-12T13:20:30.254Z</time>
      </trkpt>
      <trkpt lat="44.75468" lon="1.45382">
        <ele>330</ele>
        <time>2019-08-12T13:20:35.242Z</time>
      </trkpt>
      <trkpt lat="44.75462" lon="1.45377">
        <ele>330</ele>
        <time>2019-08-12T13:20:39.251Z</time>
      </trkpt>
      <trkpt lat="44.75456" lon="1.45371">
        <ele>330</ele>
        <time>2019-08-12T13:20:44.262Z</time>
      </trkpt>
      <trkpt lat="44.75449" lon="1.45361">
        <ele>330</ele>
        <time>2019-08-12T13:20:49.246Z</time>
      </trkpt>
      <trkpt lat="44.75446" lon="1.45356">
        <ele>330</ele>
        <time>2019-08-12T13:20:53.247Z</time>
      </trkpt>
      <trkpt lat="44.75441" lon="1.45349">
        <ele>330</ele>
        <time>2019-08-12T13:20:58.238Z</time>
      </trkpt>
      <trkpt lat="44.75436" lon="1.45344">
        <ele>331</ele>
        <time>2019-08-12T13:21:02.251Z</time>
      </trkpt>
      <trkpt lat="44.7543" lon="1.45335">
        <ele>326</ele>
        <time>2019-08-12T13:21:07.251Z</time>
      </trkpt>
      <trkpt lat="44.75422" lon="1.45327">
        <ele>326</ele>
        <time>2019-08-12T13:21:12.241Z</time>
      </trkpt>
      <trkpt lat="44.75416" lon="1.45322">
        <ele>326</ele>
        <time>2019-08-12T13:21:16.255Z</time>
      </trkpt>
      <trkpt lat="44.75409" lon="1.45314">
        <ele>325</ele>
        <time>2019-08-12T13:21:21.266Z</time>
      </trkpt>
      <trkpt lat="44.75403" lon="1.45308">
        <ele>323</ele>
        <time>2019-08-12T13:21:26.248Z</time>
      </trkpt>
      <trkpt lat="44.75398" lon="1.45302">
        <ele>323</ele>
        <time>2019-08-12T13:21:30.235Z</time>
      </trkpt>
      <trkpt lat="44.75394" lon="1.45295">
        <ele>323</ele>
        <time>2019-08-12T13:21:34.247Z</time>
      </trkpt>
      <trkpt lat="44.75389" lon="1.4529">
        <ele>322</ele>
        <time>2019-08-12T13:21:39.241Z</time>
      </trkpt>
      <trkpt lat="44.75385" lon="1.45283">
        <ele>322</ele>
        <time>2019-08-12T13:21:43.239Z</time>
      </trkpt>
      <trkpt lat="44.75384" lon="1.45273">
        <ele>322</ele>
        <time>2019-08-12T13:21:48.255Z</time>
      </trkpt>
      <trkpt lat="44.75382" lon="1.45263">
        <ele>322</ele>
        <time>2019-08-12T13:21:53.259Z</time>
      </trkpt>
      <trkpt lat="44.7538" lon="1.45254">
        <ele>322</ele>
        <time>2019-08-12T13:21:58.252Z</time>
      </trkpt>
      <trkpt lat="44.7538" lon="1.45244">
        <ele>322</ele>
        <time>2019-08-12T13:22:03.249Z</time>
      </trkpt>
      <trkpt lat="44.75376" lon="1.45233">
        <ele>323</ele>
        <time>2019-08-12T13:22:08.250Z</time>
      </trkpt>
      <trkpt lat="44.75371" lon="1.45223">
        <ele>320</ele>
        <time>2019-08-12T13:22:13.241Z</time>
      </trkpt>
      <trkpt lat="44.75367" lon="1.45214">
        <ele>320</ele>
        <time>2019-08-12T13:22:17.257Z</time>
      </trkpt>
      <trkpt lat="44.75363" lon="1.45206">
        <ele>319</ele>
        <time>2019-08-12T13:22:22.256Z</time>
      </trkpt>
      <trkpt lat="44.7536" lon="1.45199">
        <ele>319</ele>
        <time>2019-08-12T13:22:26.242Z</time>
      </trkpt>
      <trkpt lat="44.75358" lon="1.45192">
        <ele>319</ele>
        <time>2019-08-12T13:22:30.262Z</time>
      </trkpt>
      <trkpt lat="44.75357" lon="1.45185">
        <ele>319</ele>
        <time>2019-08-12T13:22:35.243Z</time>
      </trkpt>
      <trkpt lat="44.75358" lon="1.45184">
        <ele>319</ele>
        <time>2019-08-12T13:22:39.258Z</time>
      </trkpt>
      <trkpt lat="44.75357" lon="1.45182">
        <ele>319</ele>
        <time>2019-08-12T13:22:44.249Z</time>
      </trkpt>
      <trkpt lat="44.75356" lon="1.45179">
        <ele>319</ele>
        <time>2019-08-12T13:22:49.246Z</time>
      </trkpt>
      <trkpt lat="44.75356" lon="1.45172">
        <ele>319</ele>
        <time>2019-08-12T13:22:54.253Z</time>
      </trkpt>
      <trkpt lat="44.75354" lon="1.45164">
        <ele>319</ele>
        <time>2019-08-12T13:22:59.248Z</time>
      </trkpt>
      <trkpt lat="44.75354" lon="1.45164">
        <ele>319</ele>
        <time>2019-08-12T13:23:04.247Z</time>
      </trkpt>
      <trkpt lat="44.75354" lon="1.45163">
        <ele>319</ele>
        <time>2019-08-12T13:23:08.247Z</time>
      </trkpt>
      <trkpt lat="44.75352" lon="1.45159">
        <ele>319</ele>
        <time>2019-08-12T13:23:12.259Z</time>
      </trkpt>
      <trkpt lat="44.7535" lon="1.45151">
        <ele>320</ele>
        <time>2019-08-12T13:23:17.243Z</time>
      </trkpt>
      <trkpt lat="44.7535" lon="1.45146">
        <ele>320</ele>
        <time>2019-08-12T13:23:21.255Z</time>
      </trkpt>
      <trkpt lat="44.75347" lon="1.45136">
        <ele>316</ele>
        <time>2019-08-12T13:23:26.247Z</time>
      </trkpt>
      <trkpt lat="44.75343" lon="1.45129">
        <ele>316</ele>
        <time>2019-08-12T13:23:30.256Z</time>
      </trkpt>
      <trkpt lat="44.75341" lon="1.45118">
        <ele>316</ele>
        <time>2019-08-12T13:23:35.259Z</time>
      </trkpt>
      <trkpt lat="44.75339" lon="1.45106">
        <ele>316</ele>
        <time>2019-08-12T13:23:40.249Z</time>
      </trkpt>
      <trkpt lat="44.75338" lon="1.45096">
        <ele>315</ele>
        <time>2019-08-12T13:23:44.257Z</time>
      </trkpt>
      <trkpt lat="44.75336" lon="1.45086">
        <ele>315</ele>
        <time>2019-08-12T13:23:49.237Z</time>
      </trkpt>
      <trkpt lat="44.75335" lon="1.45082">
        <ele>315</ele>
        <time>2019-08-12T13:23:54.222Z</time>
      </trkpt>
      <trkpt lat="44.75334" lon="1.45079">
        <ele>315</ele>
        <time>2019-08-12T13:23:58.248Z</time>
      </trkpt>
      <trkpt lat="44.75333" lon="1.45069">
        <ele>315</ele>
        <time>2019-08-12T13:24:03.254Z</time>
      </trkpt>
      <trkpt lat="44.75329" lon="1.45057">
        <ele>315</ele>
        <time>2019-08-12T13:24:08.249Z</time>
      </trkpt>
      <trkpt lat="44.75327" lon="1.45048">
        <ele>315</ele>
        <time>2019-08-12T13:24:12.241Z</time>
      </trkpt>
      <trkpt lat="44.75324" lon="1.45037">
        <ele>316</ele>
        <time>2019-08-12T13:24:17.258Z</time>
      </trkpt>
      <trkpt lat="44.75321" lon="1.45026">
        <ele>316</ele>
        <time>2019-08-12T13:24:22.255Z</time>
      </trkpt>
      <trkpt lat="44.7532" lon="1.45019">
        <ele>316</ele>
        <time>2019-08-12T13:24:27.246Z</time>
      </trkpt>
      <trkpt lat="44.75318" lon="1.45012">
        <ele>312</ele>
        <time>2019-08-12T13:24:31.251Z</time>
      </trkpt>
      <trkpt lat="44.75318" lon="1.45004">
        <ele>312</ele>
        <time>2019-08-12T13:24:36.253Z</time>
      </trkpt>
      <trkpt lat="44.75317" lon="1.44994">
        <ele>312</ele>
        <time>2019-08-12T13:24:41.248Z</time>
      </trkpt>
      <trkpt lat="44.75317" lon="1.44985">
        <ele>312</ele>
        <time>2019-08-12T13:24:45.241Z</time>
      </trkpt>
      <trkpt lat="44.75315" lon="1.44976">
        <ele>312</ele>
        <time>2019-08-12T13:24:49.247Z</time>
      </trkpt>
      <trkpt lat="44.75314" lon="1.44966">
        <ele>312</ele>
        <time>2019-08-12T13:24:54.249Z</time>
      </trkpt>
      <trkpt lat="44.75312" lon="1.44956">
        <ele>312</ele>
        <time>2019-08-12T13:24:59.246Z</time>
      </trkpt>
      <trkpt lat="44.75311" lon="1.4495">
        <ele>312</ele>
        <time>2019-08-12T13:25:04.248Z</time>
      </trkpt>
      <trkpt lat="44.75309" lon="1.44939">
        <ele>312</ele>
        <time>2019-08-12T13:25:09.244Z</time>
      </trkpt>
      <trkpt lat="44.75308" lon="1.44926">
        <ele>312</ele>
        <time>2019-08-12T13:25:14.254Z</time>
      </trkpt>
      <trkpt lat="44.75307" lon="1.44917">
        <ele>312</ele>
        <time>2019-08-12T13:25:19.250Z</time>
      </trkpt>
      <trkpt lat="44.75306" lon="1.44907">
        <ele>312</ele>
        <time>2019-08-12T13:25:24.246Z</time>
      </trkpt>
      <trkpt lat="44.75306" lon="1.44896">
        <ele>311</ele>
        <time>2019-08-12T13:25:29.260Z</time>
      </trkpt>
      <trkpt lat="44.75307" lon="1.44881">
        <ele>311</ele>
        <time>2019-08-12T13:25:34.244Z</time>
      </trkpt>
      <trkpt lat="44.75306" lon="1.44866">
        <ele>309</ele>
        <time>2019-08-12T13:25:39.251Z</time>
      </trkpt>
      <trkpt lat="44.75304" lon="1.44853">
        <ele>309</ele>
        <time>2019-08-12T13:25:44.260Z</time>
      </trkpt>
      <trkpt lat="44.75303" lon="1.44845">
        <ele>309</ele>
        <time>2019-08-12T13:25:49.245Z</time>
      </trkpt>
      <trkpt lat="44.75301" lon="1.44837">
        <ele>309</ele>
        <time>2019-08-12T13:25:54.245Z</time>
      </trkpt>
      <trkpt lat="44.75301" lon="1.44831">
        <ele>309</ele>
        <time>2019-08-12T13:25:58.268Z</time>
      </trkpt>
      <trkpt lat="44.753" lon="1.44819">
        <ele>309</ele>
        <time>2019-08-12T13:26:03.254Z</time>
      </trkpt>
      <trkpt lat="44.753" lon="1.44811">
        <ele>309</ele>
        <time>2019-08-12T13:26:08.227Z</time>
      </trkpt>
      <trkpt lat="44.75299" lon="1.44802">
        <ele>309</ele>
        <time>2019-08-12T13:26:12.254Z</time>
      </trkpt>
      <trkpt lat="44.75298" lon="1.44793">
        <ele>309</ele>
        <time>2019-08-12T13:26:16.263Z</time>
      </trkpt>
      <trkpt lat="44.75298" lon="1.4478">
        <ele>308</ele>
        <time>2019-08-12T13:26:21.253Z</time>
      </trkpt>
      <trkpt lat="44.75298" lon="1.44769">
        <ele>308</ele>
        <time>2019-08-12T13:26:25.265Z</time>
      </trkpt>
      <trkpt lat="44.75298" lon="1.44757">
        <ele>308</ele>
        <time>2019-08-12T13:26:30.266Z</time>
      </trkpt>
      <trkpt lat="44.75298" lon="1.44746">
        <ele>308</ele>
        <time>2019-08-12T13:26:35.250Z</time>
      </trkpt>
      <trkpt lat="44.75297" lon="1.44734">
        <ele>308</ele>
        <time>2019-08-12T13:26:40.249Z</time>
      </trkpt>
      <trkpt lat="44.75297" lon="1.44726">
        <ele>308</ele>
        <time>2019-08-12T13:26:45.255Z</time>
      </trkpt>
      <trkpt lat="44.75296" lon="1.44717">
        <ele>308</ele>
        <time>2019-08-12T13:26:49.251Z</time>
      </trkpt>
      <trkpt lat="44.75294" lon="1.44705">
        <ele>308</ele>
        <time>2019-08-12T13:26:54.252Z</time>
      </trkpt>
      <trkpt lat="44.75292" lon="1.44696">
        <ele>308</ele>
        <time>2019-08-12T13:26:58.265Z</time>
      </trkpt>
      <trkpt lat="44.75293" lon="1.44688">
        <ele>308</ele>
        <time>2019-08-12T13:27:02.260Z</time>
      </trkpt>
      <trkpt lat="44.75292" lon="1.44679">
        <ele>305</ele>
        <time>2019-08-12T13:27:07.251Z</time>
      </trkpt>
      <trkpt lat="44.75292" lon="1.44667">
        <ele>305</ele>
        <time>2019-08-12T13:27:12.246Z</time>
      </trkpt>
      <trkpt lat="44.75292" lon="1.44658">
        <ele>305</ele>
        <time>2019-08-12T13:27:17.254Z</time>
      </trkpt>
      <trkpt lat="44.75291" lon="1.44649">
        <ele>301</ele>
        <time>2019-08-12T13:27:21.253Z</time>
      </trkpt>
      <trkpt lat="44.7529" lon="1.44641">
        <ele>301</ele>
        <time>2019-08-12T13:27:25.250Z</time>
      </trkpt>
      <trkpt lat="44.75289" lon="1.4463">
        <ele>301</ele>
        <time>2019-08-12T13:27:30.258Z</time>
      </trkpt>
      <trkpt lat="44.7529" lon="1.44619">
        <ele>300</ele>
        <time>2019-08-12T13:27:35.252Z</time>
      </trkpt>
      <trkpt lat="44.75289" lon="1.44605">
        <ele>300</ele>
        <time>2019-08-12T13:27:40.252Z</time>
      </trkpt>
      <trkpt lat="44.75289" lon="1.44591">
        <ele>298</ele>
        <time>2019-08-12T13:27:45.269Z</time>
      </trkpt>
      <trkpt lat="44.75288" lon="1.44584">
        <ele>298</ele>
        <time>2019-08-12T13:27:49.262Z</time>
      </trkpt>
      <trkpt lat="44.75288" lon="1.44572">
        <ele>298</ele>
        <time>2019-08-12T13:27:54.240Z</time>
      </trkpt>
      <trkpt lat="44.75288" lon="1.44563">
        <ele>296</ele>
        <time>2019-08-12T13:27:58.236Z</time>
      </trkpt>
      <trkpt lat="44.75288" lon="1.44551">
        <ele>296</ele>
        <time>2019-08-12T13:28:03.250Z</time>
      </trkpt>
      <trkpt lat="44.75288" lon="1.44543">
        <ele>296</ele>
        <time>2019-08-12T13:28:07.243Z</time>
      </trkpt>
      <trkpt lat="44.75286" lon="1.44534">
        <ele>296</ele>
        <time>2019-08-12T13:28:11.257Z</time>
      </trkpt>
      <trkpt lat="44.75286" lon="1.44523">
        <ele>296</ele>
        <time>2019-08-12T13:28:16.248Z</time>
      </trkpt>
      <trkpt lat="44.75286" lon="1.44511">
        <ele>296</ele>
        <time>2019-08-12T13:28:21.254Z</time>
      </trkpt>
      <trkpt lat="44.75289" lon="1.44502">
        <ele>296</ele>
        <time>2019-08-12T13:28:26.237Z</time>
      </trkpt>
      <trkpt lat="44.75287" lon="1.44499">
        <ele>296</ele>
        <time>2019-08-12T13:28:30.247Z</time>
      </trkpt>
      <trkpt lat="44.75287" lon="1.44499">
        <ele>296</ele>
        <time>2019-08-12T13:28:35.249Z</time>
      </trkpt>
      <trkpt lat="44.75287" lon="1.44498">
        <ele>296</ele>
        <time>2019-08-12T13:28:40.251Z</time>
      </trkpt>
      <trkpt lat="44.75288" lon="1.44487">
        <ele>296</ele>
        <time>2019-08-12T13:28:45.245Z</time>
      </trkpt>
      <trkpt lat="44.75289" lon="1.44478">
        <ele>295</ele>
        <time>2019-08-12T13:28:49.256Z</time>
      </trkpt>
      <trkpt lat="44.7529" lon="1.44465">
        <ele>295</ele>
        <time>2019-08-12T13:28:54.247Z</time>
      </trkpt>
      <trkpt lat="44.75289" lon="1.44456">
        <ele>294</ele>
        <time>2019-08-12T13:28:59.244Z</time>
      </trkpt>
      <trkpt lat="44.75288" lon="1.44445">
        <ele>294</ele>
        <time>2019-08-12T13:29:04.254Z</time>
      </trkpt>
      <trkpt lat="44.75289" lon="1.44433">
        <ele>294</ele>
        <time>2019-08-12T13:29:09.248Z</time>
      </trkpt>
      <trkpt lat="44.75289" lon="1.44423">
        <ele>293</ele>
        <time>2019-08-12T13:29:14.250Z</time>
      </trkpt>
      <trkpt lat="44.75288" lon="1.44416">
        <ele>293</ele>
        <time>2019-08-12T13:29:18.251Z</time>
      </trkpt>
      <trkpt lat="44.75289" lon="1.44406">
        <ele>293</ele>
        <time>2019-08-12T13:29:23.256Z</time>
      </trkpt>
      <trkpt lat="44.75289" lon="1.44396">
        <ele>292</ele>
        <time>2019-08-12T13:29:28.244Z</time>
      </trkpt>
      <trkpt lat="44.75289" lon="1.44388">
        <ele>292</ele>
        <time>2019-08-12T13:29:32.245Z</time>
      </trkpt>
      <trkpt lat="44.75289" lon="1.44377">
        <ele>292</ele>
        <time>2019-08-12T13:29:37.254Z</time>
      </trkpt>
      <trkpt lat="44.75289" lon="1.44365">
        <ele>293</ele>
        <time>2019-08-12T13:29:42.243Z</time>
      </trkpt>
      <trkpt lat="44.75289" lon="1.44355">
        <ele>293</ele>
        <time>2019-08-12T13:29:47.259Z</time>
      </trkpt>
      <trkpt lat="44.75289" lon="1.44344">
        <ele>293</ele>
        <time>2019-08-12T13:29:52.251Z</time>
      </trkpt>
      <trkpt lat="44.75289" lon="1.44333">
        <ele>293</ele>
        <time>2019-08-12T13:29:57.244Z</time>
      </trkpt>
      <trkpt lat="44.7529" lon="1.44321">
        <ele>293</ele>
        <time>2019-08-12T13:30:02.257Z</time>
      </trkpt>
      <trkpt lat="44.75291" lon="1.4431">
        <ele>293</ele>
        <time>2019-08-12T13:30:07.244Z</time>
      </trkpt>
      <trkpt lat="44.7529" lon="1.44298">
        <ele>293</ele>
        <time>2019-08-12T13:30:12.246Z</time>
      </trkpt>
      <trkpt lat="44.7529" lon="1.44287">
        <ele>292</ele>
        <time>2019-08-12T13:30:17.263Z</time>
      </trkpt>
      <trkpt lat="44.7529" lon="1.44278">
        <ele>292</ele>
        <time>2019-08-12T13:30:22.262Z</time>
      </trkpt>
      <trkpt lat="44.75289" lon="1.44269">
        <ele>292</ele>
        <time>2019-08-12T13:30:27.253Z</time>
      </trkpt>
      <trkpt lat="44.75286" lon="1.44264">
        <ele>292</ele>
        <time>2019-08-12T13:30:31.255Z</time>
      </trkpt>
      <trkpt lat="44.75286" lon="1.44262">
        <ele>292</ele>
        <time>2019-08-12T13:30:36.315Z</time>
      </trkpt>
      <trkpt lat="44.75286" lon="1.44262">
        <ele>292</ele>
        <time>2019-08-12T13:30:41.243Z</time>
      </trkpt>
      <trkpt lat="44.75287" lon="1.44261">
        <ele>292</ele>
        <time>2019-08-12T13:30:45.248Z</time>
      </trkpt>
      <trkpt lat="44.7529" lon="1.44257">
        <ele>292</ele>
        <time>2019-08-12T13:30:50.253Z</time>
      </trkpt>
      <trkpt lat="44.7529" lon="1.44256">
        <ele>292</ele>
        <time>2019-08-12T13:30:54.258Z</time>
      </trkpt>
      <trkpt lat="44.75291" lon="1.44251">
        <ele>292</ele>
        <time>2019-08-12T13:30:59.252Z</time>
      </trkpt>
      <trkpt lat="44.75291" lon="1.44238">
        <ele>292</ele>
        <time>2019-08-12T13:31:04.259Z</time>
      </trkpt>
      <trkpt lat="44.75291" lon="1.44227">
        <ele>292</ele>
        <time>2019-08-12T13:31:09.264Z</time>
      </trkpt>
      <trkpt lat="44.75291" lon="1.44217">
        <ele>292</ele>
        <time>2019-08-12T13:31:14.240Z</time>
      </trkpt>
      <trkpt lat="44.7529" lon="1.44209">
        <ele>292</ele>
        <time>2019-08-12T13:31:18.245Z</time>
      </trkpt>
      <trkpt lat="44.7529" lon="1.44201">
        <ele>291</ele>
        <time>2019-08-12T13:31:22.251Z</time>
      </trkpt>
      <trkpt lat="44.7529" lon="1.4419">
        <ele>291</ele>
        <time>2019-08-12T13:31:27.258Z</time>
      </trkpt>
      <trkpt lat="44.7529" lon="1.44179">
        <ele>289</ele>
        <time>2019-08-12T13:31:32.245Z</time>
      </trkpt>
      <trkpt lat="44.7529" lon="1.44171">
        <ele>289</ele>
        <time>2019-08-12T13:31:36.256Z</time>
      </trkpt>
      <trkpt lat="44.75291" lon="1.4417">
        <ele>289</ele>
        <time>2019-08-12T13:31:41.250Z</time>
      </trkpt>
      <trkpt lat="44.75291" lon="1.4417">
        <ele>289</ele>
        <time>2019-08-12T13:31:45.258Z</time>
      </trkpt>
      <trkpt lat="44.75291" lon="1.44169">
        <ele>289</ele>
        <time>2019-08-12T13:31:50.245Z</time>
      </trkpt>
      <trkpt lat="44.7529" lon="1.44164">
        <ele>289</ele>
        <time>2019-08-12T13:31:54.244Z</time>
      </trkpt>
      <trkpt lat="44.75289" lon="1.44152">
        <ele>288</ele>
        <time>2019-08-12T13:31:59.252Z</time>
      </trkpt>
      <trkpt lat="44.75288" lon="1.4414">
        <ele>288</ele>
        <time>2019-08-12T13:32:04.254Z</time>
      </trkpt>
      <trkpt lat="44.75288" lon="1.44131">
        <ele>288</ele>
        <time>2019-08-12T13:32:08.250Z</time>
      </trkpt>
      <trkpt lat="44.75287" lon="1.4412">
        <ele>288</ele>
        <time>2019-08-12T13:32:13.259Z</time>
      </trkpt>
      <trkpt lat="44.75286" lon="1.44108">
        <ele>288</ele>
        <time>2019-08-12T13:32:18.243Z</time>
      </trkpt>
      <trkpt lat="44.75284" lon="1.44099">
        <ele>288</ele>
        <time>2019-08-12T13:32:23.237Z</time>
      </trkpt>
      <trkpt lat="44.75282" lon="1.44091">
        <ele>288</ele>
        <time>2019-08-12T13:32:28.250Z</time>
      </trkpt>
      <trkpt lat="44.75279" lon="1.44082">
        <ele>288</ele>
        <time>2019-08-12T13:32:33.251Z</time>
      </trkpt>
      <trkpt lat="44.75275" lon="1.44072">
        <ele>288</ele>
        <time>2019-08-12T13:32:38.263Z</time>
      </trkpt>
      <trkpt lat="44.75274" lon="1.44056">
        <ele>288</ele>
        <time>2019-08-12T13:33:05.262Z</time>
      </trkpt>
      <trkpt lat="44.75273" lon="1.44055">
        <ele>288</ele>
        <time>2019-08-12T13:33:10.247Z</time>
      </trkpt>
      <trkpt lat="44.7527" lon="1.44046">
        <ele>288</ele>
        <time>2019-08-12T13:33:15.244Z</time>
      </trkpt>
      <trkpt lat="44.75265" lon="1.4404">
        <ele>287</ele>
        <time>2019-08-12T13:33:19.247Z</time>
      </trkpt>
      <trkpt lat="44.75261" lon="1.44033">
        <ele>289</ele>
        <time>2019-08-12T13:33:24.253Z</time>
      </trkpt>
      <trkpt lat="44.75258" lon="1.44024">
        <ele>289</ele>
        <time>2019-08-12T13:33:28.245Z</time>
      </trkpt>
      <trkpt lat="44.75256" lon="1.44015">
        <ele>289</ele>
        <time>2019-08-12T13:33:32.259Z</time>
      </trkpt>
      <trkpt lat="44.75255" lon="1.44003">
        <ele>287</ele>
        <time>2019-08-12T13:33:37.254Z</time>
      </trkpt>
      <trkpt lat="44.75251" lon="1.43993">
        <ele>287</ele>
        <time>2019-08-12T13:33:42.255Z</time>
      </trkpt>
      <trkpt lat="44.75246" lon="1.43985">
        <ele>285</ele>
        <time>2019-08-12T13:33:47.242Z</time>
      </trkpt>
      <trkpt lat="44.7524" lon="1.43976">
        <ele>285</ele>
        <time>2019-08-12T13:33:52.261Z</time>
      </trkpt>
      <trkpt lat="44.75238" lon="1.43968">
        <ele>285</ele>
        <time>2019-08-12T13:33:56.268Z</time>
      </trkpt>
      <trkpt lat="44.75235" lon="1.4396">
        <ele>285</ele>
        <time>2019-08-12T13:34:01.252Z</time>
      </trkpt>
      <trkpt lat="44.75232" lon="1.43951">
        <ele>282</ele>
        <time>2019-08-12T13:34:06.251Z</time>
      </trkpt>
      <trkpt lat="44.7523" lon="1.43942">
        <ele>282</ele>
        <time>2019-08-12T13:34:11.247Z</time>
      </trkpt>
      <trkpt lat="44.75227" lon="1.43935">
        <ele>282</ele>
        <time>2019-08-12T13:34:15.251Z</time>
      </trkpt>
      <trkpt lat="44.75222" lon="1.43925">
        <ele>280</ele>
        <time>2019-08-12T13:34:20.253Z</time>
      </trkpt>
      <trkpt lat="44.7522" lon="1.43917">
        <ele>280</ele>
        <time>2019-08-12T13:34:24.270Z</time>
      </trkpt>
      <trkpt lat="44.75216" lon="1.43909">
        <ele>280</ele>
        <time>2019-08-12T13:34:29.258Z</time>
      </trkpt>
      <trkpt lat="44.75214" lon="1.43903">
        <ele>280</ele>
        <time>2019-08-12T13:34:34.248Z</time>
      </trkpt>
      <trkpt lat="44.75213" lon="1.43899">
        <ele>279</ele>
        <time>2019-08-12T13:34:39.241Z</time>
      </trkpt>
      <trkpt lat="44.75213" lon="1.43898">
        <ele>279</ele>
        <time>2019-08-12T13:34:44.242Z</time>
      </trkpt>
      <trkpt lat="44.75215" lon="1.43896">
        <ele>279</ele>
        <time>2019-08-12T13:34:48.250Z</time>
      </trkpt>
      <trkpt lat="44.7522" lon="1.43892">
        <ele>279</ele>
        <time>2019-08-12T13:34:52.247Z</time>
      </trkpt>
      <trkpt lat="44.75228" lon="1.43888">
        <ele>279</ele>
        <time>2019-08-12T13:34:57.253Z</time>
      </trkpt>
      <trkpt lat="44.75235" lon="1.43884">
        <ele>279</ele>
        <time>2019-08-12T13:35:02.225Z</time>
      </trkpt>
      <trkpt lat="44.75243" lon="1.43881">
        <ele>281</ele>
        <time>2019-08-12T13:35:07.242Z</time>
      </trkpt>
      <trkpt lat="44.75251" lon="1.43877">
        <ele>281</ele>
        <time>2019-08-12T13:35:12.244Z</time>
      </trkpt>
      <trkpt lat="44.75256" lon="1.43874">
        <ele>281</ele>
        <time>2019-08-12T13:35:16.237Z</time>
      </trkpt>
      <trkpt lat="44.75263" lon="1.43871">
        <ele>281</ele>
        <time>2019-08-12T13:35:21.253Z</time>
      </trkpt>
      <trkpt lat="44.75269" lon="1.43869">
        <ele>281</ele>
        <time>2019-08-12T13:35:26.240Z</time>
      </trkpt>
      <trkpt lat="44.75271" lon="1.43868">
        <ele>281</ele>
        <time>2019-08-12T13:35:31.217Z</time>
      </trkpt>
      <trkpt lat="44.75272" lon="1.43868">
        <ele>281</ele>
        <time>2019-08-12T13:35:36.221Z</time>
      </trkpt>
      <trkpt lat="44.75272" lon="1.43868">
        <ele>281</ele>
        <time>2019-08-12T13:35:41.250Z</time>
      </trkpt>
      <trkpt lat="44.75273" lon="1.43868">
        <ele>281</ele>
        <time>2019-08-12T13:35:51.253Z</time>
      </trkpt>
      <trkpt lat="44.75273" lon="1.43865">
        <ele>281</ele>
        <time>2019-08-12T13:35:55.254Z</time>
      </trkpt>
      <trkpt lat="44.75273" lon="1.43865">
        <ele>281</ele>
        <time>2019-08-12T13:36:00.216Z</time>
      </trkpt>
      <trkpt lat="44.75275" lon="1.43864">
        <ele>281</ele>
        <time>2019-08-12T13:36:04.228Z</time>
      </trkpt>
      <trkpt lat="44.75282" lon="1.4386">
        <ele>281</ele>
        <time>2019-08-12T13:36:09.241Z</time>
      </trkpt>
      <trkpt lat="44.75291" lon="1.43857">
        <ele>281</ele>
        <time>2019-08-12T13:36:14.258Z</time>
      </trkpt>
      <trkpt lat="44.75299" lon="1.43855">
        <ele>280</ele>
        <time>2019-08-12T13:36:19.249Z</time>
      </trkpt>
      <trkpt lat="44.75304" lon="1.43853">
        <ele>280</ele>
        <time>2019-08-12T13:36:24.234Z</time>
      </trkpt>
      <trkpt lat="44.75306" lon="1.43851">
        <ele>280</ele>
        <time>2019-08-12T13:36:29.246Z</time>
      </trkpt>
      <trkpt lat="44.7531" lon="1.43852">
        <ele>280</ele>
        <time>2019-08-12T13:36:34.240Z</time>
      </trkpt>
      <trkpt lat="44.75315" lon="1.43852">
        <ele>280</ele>
        <time>2019-08-12T13:36:38.254Z</time>
      </trkpt>
      <trkpt lat="44.7532" lon="1.43852">
        <ele>279</ele>
        <time>2019-08-12T13:36:43.257Z</time>
      </trkpt>
      <trkpt lat="44.7532" lon="1.43852">
        <ele>279</ele>
        <time>2019-08-12T13:36:48.253Z</time>
      </trkpt>
      <trkpt lat="44.75325" lon="1.43852">
        <ele>279</ele>
        <time>2019-08-12T13:38:51.233Z</time>
      </trkpt>
      <trkpt lat="44.75325" lon="1.43854">
        <ele>279</ele>
        <time>2019-08-12T13:38:55.257Z</time>
      </trkpt>
      <trkpt lat="44.75325" lon="1.43855">
        <ele>279</ele>
        <time>2019-08-12T13:39:00.240Z</time>
      </trkpt>
      <trkpt lat="44.75327" lon="1.43856">
        <ele>279</ele>
        <time>2019-08-12T13:39:04.250Z</time>
      </trkpt>
      <trkpt lat="44.75329" lon="1.43857">
        <ele>279</ele>
        <time>2019-08-12T13:39:09.249Z</time>
      </trkpt>
      <trkpt lat="44.75337" lon="1.43851">
        <ele>279</ele>
        <time>2019-08-12T13:40:37.244Z</time>
      </trkpt>
      <trkpt lat="44.75338" lon="1.43851">
        <ele>279</ele>
        <time>2019-08-12T13:40:42.242Z</time>
      </trkpt>
      <trkpt lat="44.75338" lon="1.43851">
        <ele>279</ele>
        <time>2019-08-12T13:40:47.236Z</time>
      </trkpt>
      <trkpt lat="44.75338" lon="1.43851">
        <ele>279</ele>
        <time>2019-08-12T13:40:52.234Z</time>
      </trkpt>
      <trkpt lat="44.75338" lon="1.43851">
        <ele>279</ele>
        <time>2019-08-12T13:40:56.229Z</time>
      </trkpt>
      <trkpt lat="44.75343" lon="1.43845">
        <ele>277</ele>
        <time>2019-08-12T13:42:04.222Z</time>
      </trkpt>
      <trkpt lat="44.75344" lon="1.43844">
        <ele>277</ele>
        <time>2019-08-12T13:42:08.240Z</time>
      </trkpt>
      <trkpt lat="44.75345" lon="1.43843">
        <ele>277</ele>
        <time>2019-08-12T13:42:12.233Z</time>
      </trkpt>
      <trkpt lat="44.75345" lon="1.43842">
        <ele>277</ele>
        <time>2019-08-12T13:42:17.236Z</time>
      </trkpt>
      <trkpt lat="44.75345" lon="1.43842">
        <ele>277</ele>
        <time>2019-08-12T13:42:21.240Z</time>
      </trkpt>
      <trkpt lat="44.75347" lon="1.43844">
        <ele>277</ele>
        <time>2019-08-12T13:42:26.236Z</time>
      </trkpt>
      <trkpt lat="44.7535" lon="1.43846">
        <ele>275</ele>
        <time>2019-08-12T13:42:31.252Z</time>
      </trkpt>
      <trkpt lat="44.75354" lon="1.43848">
        <ele>277</ele>
        <time>2019-08-12T13:42:36.242Z</time>
      </trkpt>
      <trkpt lat="44.75359" lon="1.43849">
        <ele>277</ele>
        <time>2019-08-12T13:42:41.237Z</time>
      </trkpt>
      <trkpt lat="44.75366" lon="1.4385">
        <ele>277</ele>
        <time>2019-08-12T13:42:46.240Z</time>
      </trkpt>
      <trkpt lat="44.75371" lon="1.43849">
        <ele>277</ele>
        <time>2019-08-12T13:42:50.264Z</time>
      </trkpt>
      <trkpt lat="44.75373" lon="1.43849">
        <ele>277</ele>
        <time>2019-08-12T13:42:55.260Z</time>
      </trkpt>
      <trkpt lat="44.75376" lon="1.43848">
        <ele>277</ele>
        <time>2019-08-12T13:43:00.249Z</time>
      </trkpt>
      <trkpt lat="44.75385" lon="1.43848">
        <ele>277</ele>
        <time>2019-08-12T13:43:05.249Z</time>
      </trkpt>
      <trkpt lat="44.75391" lon="1.43848">
        <ele>277</ele>
        <time>2019-08-12T13:43:10.246Z</time>
      </trkpt>
      <trkpt lat="44.75398" lon="1.43848">
        <ele>277</ele>
        <time>2019-08-12T13:43:15.250Z</time>
      </trkpt>
      <trkpt lat="44.75406" lon="1.43846">
        <ele>277</ele>
        <time>2019-08-12T13:43:20.254Z</time>
      </trkpt>
      <trkpt lat="44.75412" lon="1.43844">
        <ele>277</ele>
        <time>2019-08-12T13:43:25.238Z</time>
      </trkpt>
      <trkpt lat="44.75417" lon="1.43841">
        <ele>277</ele>
        <time>2019-08-12T13:43:29.265Z</time>
      </trkpt>
      <trkpt lat="44.75424" lon="1.43836">
        <ele>277</ele>
        <time>2019-08-12T13:43:34.248Z</time>
      </trkpt>
      <trkpt lat="44.7543" lon="1.4383">
        <ele>277</ele>
        <time>2019-08-12T13:43:39.231Z</time>
      </trkpt>
      <trkpt lat="44.75435" lon="1.43824">
        <ele>279</ele>
        <time>2019-08-12T13:43:44.241Z</time>
      </trkpt>
      <trkpt lat="44.75441" lon="1.43819">
        <ele>274</ele>
        <time>2019-08-12T13:43:49.248Z</time>
      </trkpt>
      <trkpt lat="44.75447" lon="1.43815">
        <ele>274</ele>
        <time>2019-08-12T13:43:54.250Z</time>
      </trkpt>
      <trkpt lat="44.75453" lon="1.43813">
        <ele>274</ele>
        <time>2019-08-12T13:43:58.247Z</time>
      </trkpt>
      <trkpt lat="44.75455" lon="1.43811">
        <ele>274</ele>
        <time>2019-08-12T13:44:02.247Z</time>
      </trkpt>
      <trkpt lat="44.75456" lon="1.4381">
        <ele>274</ele>
        <time>2019-08-12T13:44:07.252Z</time>
      </trkpt>
      <trkpt lat="44.7546" lon="1.43807">
        <ele>275</ele>
        <time>2019-08-12T13:44:12.266Z</time>
      </trkpt>
      <trkpt lat="44.75466" lon="1.43799">
        <ele>275</ele>
        <time>2019-08-12T13:44:17.258Z</time>
      </trkpt>
      <trkpt lat="44.7547" lon="1.43794">
        <ele>275</ele>
        <time>2019-08-12T13:44:22.222Z</time>
      </trkpt>
      <trkpt lat="44.75474" lon="1.4379">
        <ele>270</ele>
        <time>2019-08-12T13:44:26.217Z</time>
      </trkpt>
      <trkpt lat="44.75481" lon="1.43784">
        <ele>270</ele>
        <time>2019-08-12T13:44:31.250Z</time>
      </trkpt>
      <trkpt lat="44.75486" lon="1.4378">
        <ele>270</ele>
        <time>2019-08-12T13:44:36.252Z</time>
      </trkpt>
      <trkpt lat="44.75491" lon="1.43774">
        <ele>273</ele>
        <time>2019-08-12T13:44:41.246Z</time>
      </trkpt>
      <trkpt lat="44.75496" lon="1.4377">
        <ele>273</ele>
        <time>2019-08-12T13:44:45.243Z</time>
      </trkpt>
      <trkpt lat="44.75501" lon="1.43766">
        <ele>273</ele>
        <time>2019-08-12T13:44:49.261Z</time>
      </trkpt>
      <trkpt lat="44.75504" lon="1.43766">
        <ele>273</ele>
        <time>2019-08-12T13:44:54.251Z</time>
      </trkpt>
      <trkpt lat="44.75504" lon="1.43766">
        <ele>273</ele>
        <time>2019-08-12T13:44:59.246Z</time>
      </trkpt>
      <trkpt lat="44.75506" lon="1.43765">
        <ele>273</ele>
        <time>2019-08-12T13:45:04.243Z</time>
      </trkpt>
      <trkpt lat="44.75511" lon="1.43761">
        <ele>270</ele>
        <time>2019-08-12T13:45:08.257Z</time>
      </trkpt>
      <trkpt lat="44.75518" lon="1.43756">
        <ele>272</ele>
        <time>2019-08-12T13:45:13.236Z</time>
      </trkpt>
      <trkpt lat="44.75522" lon="1.43752">
        <ele>272</ele>
        <time>2019-08-12T13:45:17.250Z</time>
      </trkpt>
      <trkpt lat="44.75528" lon="1.43745">
        <ele>272</ele>
        <time>2019-08-12T13:45:22.251Z</time>
      </trkpt>
      <trkpt lat="44.75533" lon="1.4374">
        <ele>272</ele>
        <time>2019-08-12T13:45:27.250Z</time>
      </trkpt>
      <trkpt lat="44.7554" lon="1.43732">
        <ele>268</ele>
        <time>2019-08-12T13:45:32.247Z</time>
      </trkpt>
      <trkpt lat="44.75547" lon="1.43725">
        <ele>269</ele>
        <time>2019-08-12T13:45:37.256Z</time>
      </trkpt>
      <trkpt lat="44.75553" lon="1.4372">
        <ele>269</ele>
        <time>2019-08-12T13:45:42.254Z</time>
      </trkpt>
      <trkpt lat="44.75557" lon="1.43713">
        <ele>269</ele>
        <time>2019-08-12T13:45:46.259Z</time>
      </trkpt>
      <trkpt lat="44.75563" lon="1.43708">
        <ele>267</ele>
        <time>2019-08-12T13:45:51.241Z</time>
      </trkpt>
      <trkpt lat="44.75567" lon="1.43704">
        <ele>267</ele>
        <time>2019-08-12T13:45:55.260Z</time>
      </trkpt>
      <trkpt lat="44.75571" lon="1.437">
        <ele>265</ele>
        <time>2019-08-12T13:46:00.221Z</time>
      </trkpt>
      <trkpt lat="44.75574" lon="1.43696">
        <ele>265</ele>
        <time>2019-08-12T13:46:04.245Z</time>
      </trkpt>
      <trkpt lat="44.75578" lon="1.43691">
        <ele>265</ele>
        <time>2019-08-12T13:46:09.241Z</time>
      </trkpt>
      <trkpt lat="44.75583" lon="1.43682">
        <ele>265</ele>
        <time>2019-08-12T13:46:33.217Z</time>
      </trkpt>
      <trkpt lat="44.75584" lon="1.43681">
        <ele>265</ele>
        <time>2019-08-12T13:46:37.244Z</time>
      </trkpt>
      <trkpt lat="44.75584" lon="1.43681">
        <ele>265</ele>
        <time>2019-08-12T13:46:41.246Z</time>
      </trkpt>
      <trkpt lat="44.75586" lon="1.43679">
        <ele>264</ele>
        <time>2019-08-12T13:46:46.250Z</time>
      </trkpt>
      <trkpt lat="44.75587" lon="1.43673">
        <ele>264</ele>
        <time>2019-08-12T13:46:51.241Z</time>
      </trkpt>
      <trkpt lat="44.75589" lon="1.43667">
        <ele>264</ele>
        <time>2019-08-12T13:46:56.251Z</time>
      </trkpt>
      <trkpt lat="44.75589" lon="1.43659">
        <ele>264</ele>
        <time>2019-08-12T13:47:00.249Z</time>
      </trkpt>
      <trkpt lat="44.75589" lon="1.43653">
        <ele>264</ele>
        <time>2019-08-12T13:47:05.245Z</time>
      </trkpt>
      <trkpt lat="44.7559" lon="1.43652">
        <ele>263</ele>
        <time>2019-08-12T13:47:09.268Z</time>
      </trkpt>
      <trkpt lat="44.75591" lon="1.43646">
        <ele>263</ele>
        <time>2019-08-12T13:47:14.241Z</time>
      </trkpt>
      <trkpt lat="44.75591" lon="1.4364">
        <ele>263</ele>
        <time>2019-08-12T13:47:18.252Z</time>
      </trkpt>
      <trkpt lat="44.75593" lon="1.43633">
        <ele>263</ele>
        <time>2019-08-12T13:47:22.257Z</time>
      </trkpt>
      <trkpt lat="44.75594" lon="1.43626">
        <ele>263</ele>
        <time>2019-08-12T13:47:26.263Z</time>
      </trkpt>
      <trkpt lat="44.75594" lon="1.43616">
        <ele>259</ele>
        <time>2019-08-12T13:47:31.253Z</time>
      </trkpt>
      <trkpt lat="44.75595" lon="1.43604">
        <ele>259</ele>
        <time>2019-08-12T13:47:36.250Z</time>
      </trkpt>
      <trkpt lat="44.75597" lon="1.43596">
        <ele>256</ele>
        <time>2019-08-12T13:47:41.250Z</time>
      </trkpt>
      <trkpt lat="44.75598" lon="1.43588">
        <ele>260</ele>
        <time>2019-08-12T13:47:46.260Z</time>
      </trkpt>
      <trkpt lat="44.75597" lon="1.4358">
        <ele>256</ele>
        <time>2019-08-12T13:47:51.252Z</time>
      </trkpt>
      <trkpt lat="44.75597" lon="1.43574">
        <ele>260</ele>
        <time>2019-08-12T13:47:55.271Z</time>
      </trkpt>
      <trkpt lat="44.75599" lon="1.43565">
        <ele>258</ele>
        <time>2019-08-12T13:48:00.244Z</time>
      </trkpt>
      <trkpt lat="44.756" lon="1.43555">
        <ele>258</ele>
        <time>2019-08-12T13:48:05.274Z</time>
      </trkpt>
      <trkpt lat="44.756" lon="1.43536">
        <ele>258</ele>
        <time>2019-08-12T13:48:42.246Z</time>
      </trkpt>
      <trkpt lat="44.756" lon="1.43535">
        <ele>258</ele>
        <time>2019-08-12T13:48:47.252Z</time>
      </trkpt>
      <trkpt lat="44.75601" lon="1.43529">
        <ele>258</ele>
        <time>2019-08-12T13:48:52.248Z</time>
      </trkpt>
      <trkpt lat="44.75601" lon="1.43526">
        <ele>258</ele>
        <time>2019-08-12T13:48:57.253Z</time>
      </trkpt>
      <trkpt lat="44.75601" lon="1.43525">
        <ele>258</ele>
        <time>2019-08-12T13:49:02.255Z</time>
      </trkpt>
      <trkpt lat="44.75601" lon="1.43521">
        <ele>258</ele>
        <time>2019-08-12T13:49:06.245Z</time>
      </trkpt>
      <trkpt lat="44.756" lon="1.43513">
        <ele>256</ele>
        <time>2019-08-12T13:49:11.253Z</time>
      </trkpt>
      <trkpt lat="44.75601" lon="1.43504">
        <ele>256</ele>
        <time>2019-08-12T13:49:16.256Z</time>
      </trkpt>
      <trkpt lat="44.75599" lon="1.43493">
        <ele>256</ele>
        <time>2019-08-12T13:49:21.247Z</time>
      </trkpt>
      <trkpt lat="44.75599" lon="1.43485">
        <ele>254</ele>
        <time>2019-08-12T13:49:26.245Z</time>
      </trkpt>
      <trkpt lat="44.75599" lon="1.43479">
        <ele>254</ele>
        <time>2019-08-12T13:49:30.243Z</time>
      </trkpt>
      <trkpt lat="44.75599" lon="1.43467">
        <ele>254</ele>
        <time>2019-08-12T13:49:35.235Z</time>
      </trkpt>
      <trkpt lat="44.75599" lon="1.43458">
        <ele>254</ele>
        <time>2019-08-12T13:49:40.260Z</time>
      </trkpt>
      <trkpt lat="44.75602" lon="1.43451">
        <ele>253</ele>
        <time>2019-08-12T13:50:00.252Z</time>
      </trkpt>
      <trkpt lat="44.75603" lon="1.43453">
        <ele>253</ele>
        <time>2019-08-12T13:50:04.261Z</time>
      </trkpt>
      <trkpt lat="44.75604" lon="1.43449">
        <ele>253</ele>
        <time>2019-08-12T13:50:09.228Z</time>
      </trkpt>
      <trkpt lat="44.75603" lon="1.43442">
        <ele>253</ele>
        <time>2019-08-12T13:50:14.246Z</time>
      </trkpt>
      <trkpt lat="44.75601" lon="1.43435">
        <ele>253</ele>
        <time>2019-08-12T13:50:19.248Z</time>
      </trkpt>
      <trkpt lat="44.75594" lon="1.43429">
        <ele>249</ele>
        <time>2019-08-12T13:52:53.202Z</time>
      </trkpt>
      <trkpt lat="44.75593" lon="1.43429">
        <ele>249</ele>
        <time>2019-08-12T13:52:57.234Z</time>
      </trkpt>
      <trkpt lat="44.75593" lon="1.43428">
        <ele>249</ele>
        <time>2019-08-12T13:53:02.241Z</time>
      </trkpt>
      <trkpt lat="44.75593" lon="1.43428">
        <ele>249</ele>
        <time>2019-08-12T13:53:07.248Z</time>
      </trkpt>
      <trkpt lat="44.75592" lon="1.43427">
        <ele>249</ele>
        <time>2019-08-12T13:53:12.212Z</time>
      </trkpt>
      <trkpt lat="44.75598" lon="1.43431">
        <ele>253</ele>
        <time>2019-08-12T13:54:41.235Z</time>
      </trkpt>
      <trkpt lat="44.75599" lon="1.4343">
        <ele>253</ele>
        <time>2019-08-12T13:54:45.242Z</time>
      </trkpt>
      <trkpt lat="44.75599" lon="1.4343">
        <ele>253</ele>
        <time>2019-08-12T13:54:50.203Z</time>
      </trkpt>
      <trkpt lat="44.756" lon="1.4343">
        <ele>253</ele>
        <time>2019-08-12T13:54:54.248Z</time>
      </trkpt>
      <trkpt lat="44.75601" lon="1.43434">
        <ele>253</ele>
        <time>2019-08-12T13:54:59.239Z</time>
      </trkpt>
      <trkpt lat="44.75605" lon="1.43429">
        <ele>253</ele>
        <time>2019-08-12T13:55:24.232Z</time>
      </trkpt>
      <trkpt lat="44.75605" lon="1.43427">
        <ele>253</ele>
        <time>2019-08-12T13:55:29.235Z</time>
      </trkpt>
      <trkpt lat="44.75606" lon="1.43425">
        <ele>253</ele>
        <time>2019-08-12T13:55:34.243Z</time>
      </trkpt>
      <trkpt lat="44.75606" lon="1.43424">
        <ele>253</ele>
        <time>2019-08-12T13:55:39.231Z</time>
      </trkpt>
      <trkpt lat="44.75608" lon="1.43423">
        <ele>253</ele>
        <time>2019-08-12T13:55:44.230Z</time>
      </trkpt>
    </trkseg>
  </trk>
</gpx>